GFSSGP_prec_precacc24_027.txt.gz
Total_Precipitation_Accumulation
0.00 0.00 0.00 0.00 0.00 0.00 0.00 0.00 0.00 0.00 0.00 0.01 0.03 0.04 0.04 0.03 0.08 0.16 0.03 0.00 0.00 0.00 0.00 0.07 0.14 0.01 0.00 0.03 0.01 0.02 0.01 0.00 0.01 0.01 0.00 0.00 0.00 0.00 0.00 0.00 0.00 0.00 0.00 0.00 0.00 0.00 0.00 0.00 0.01
0.00 0.00 0.00 0.00 0.00 0.00 0.00 0.00 0.00 0.02 0.05 0.05 0.07 0.09 0.06 0.14 0.05 0.04 0.07 0.01 0.00 0.00 0.00 0.03 0.08 0.01 0.01 0.02 0.01 0.01 0.02 0.00 0.00 0.00 0.00 0.00 0.00 0.00 0.00 0.00 0.00 0.00 0.00 0.00 0.00 0.00 0.00 0.00 0.00
0.00 0.00 0.00 0.00 0.00 0.00 0.00 0.00 0.01 0.01 0.00 0.00 0.01 0.01 0.10 0.10 0.11 0.16 0.05 0.01 0.00 0.00 0.00 0.00 0.02 0.01 0.00 0.00 0.01 0.02 0.03 0.02 0.01 0.01 0.01 0.01 0.00 0.00 0.00 0.00 0.00 0.00 0.00 0.00 0.00 0.00 0.00 0.00 0.00
0.00 0.00 0.00 0.00 0.00 0.00 0.00 0.00 0.01 0.05 0.04 0.02 0.01 0.01 0.09 0.07 0.09 0.08 0.02 0.00 0.00 0.00 0.00 0.00 0.00 0.00 0.00 0.00 0.00 0.00 0.00 0.00 0.00 0.00 0.00 0.00 0.00 0.00 0.00 0.00 0.00 0.00 0.00 0.00 0.00 0.00 0.00 0.00 0.00
0.00 0.00 0.00 0.00 0.00 0.00 0.00 0.01 0.02 0.01 0.03 0.01 0.01 0.01 0.02 0.02 0.07 0.01 0.00 0.00 0.00 0.00 0.00 0.00 0.02 0.00 0.00 0.00 0.00 0.00 0.00 0.00 0.00 0.00 0.00 0.00 0.00 0.00 0.00 0.00 0.00 0.00 0.00 0.00 0.00 0.00 0.00 0.00 0.00
0.00 0.00 0.00 0.00 0.00 0.00 0.00 0.02 0.01 0.01 0.01 0.00 0.00 0.01 0.03 0.05 0.08 0.00 0.01 0.00 0.03 0.02 0.00 0.00 0.00 0.00 0.00 0.00 0.00 0.00 0.00 0.00 0.00 0.00 0.00 0.00 0.00 0.00 0.00 0.00 0.00 0.00 0.00 0.00 0.00 0.00 0.00 0.00 0.00
0.00 0.00 0.00 0.00 0.00 0.00 0.00 0.02 0.02 0.02 0.00 0.00 0.00 0.02 0.02 0.02 0.05 0.01 0.01 0.00 0.05 0.08 0.00 0.00 0.00 0.00 0.00 0.00 0.00 0.00 0.00 0.00 0.00 0.00 0.00 0.00 0.00 0.00 0.00 0.00 0.00 0.00 0.00 0.00 0.00 0.00 0.00 0.00 0.00
0.00 0.00 0.00 0.00 0.01 0.01 0.00 0.02 0.02 0.00 0.00 0.00 0.00 0.00 0.00 0.00 0.00 0.00 0.00 0.00 0.01 0.02 0.00 0.00 0.00 0.00 0.00 0.00 0.00 0.00 0.00 0.00 0.00 0.00 0.00 0.00 0.00 0.00 0.00 0.00 0.00 0.00 0.00 0.00 0.00 0.00 0.00 0.00 0.00
0.00 0.00 0.00 0.00 0.01 0.01 0.00 0.00 0.00 0.00 0.00 0.00 0.00 0.00 0.00 0.00 0.00 0.00 0.00 0.00 0.00 0.00 0.00 0.00 0.00 0.00 0.00 0.00 0.00 0.00 0.00 0.00 0.00 0.00 0.00 0.00 0.00 0.00 0.00 0.00 0.00 0.00 0.00 0.00 0.00 0.00 0.00 0.00 0.00
0.00 0.00 0.00 0.00 0.00 0.00 0.01 0.00 0.00 0.01 0.00 0.00 0.00 0.00 0.00 0.00 0.00 0.00 0.00 0.00 0.00 0.00 0.00 0.00 0.00 0.00 0.00 0.00 0.00 0.00 0.00 0.00 0.00 0.00 0.00 0.00 0.00 0.00 0.00 0.00 0.00 0.00 0.00 0.00 0.00 0.00 0.00 0.00 0.00
0.00 0.00 0.00 0.00 0.00 0.00 0.00 0.00 0.00 0.01 0.00 0.00 0.00 0.00 0.00 0.00 0.00 0.00 0.00 0.00 0.00 0.00 0.00 0.00 0.00 0.00 0.00 0.00 0.00 0.00 0.00 0.00 0.00 0.00 0.00 0.00 0.00 0.00 0.00 0.00 0.00 0.00 0.00 0.00 0.00 0.00 0.00 0.00 0.00
0.00 0.00 0.00 0.00 0.00 0.00 0.00 0.00 0.00 0.00 0.00 0.00 0.00 0.00 0.00 0.00 0.00 0.00 0.00 0.00 0.00 0.00 0.00 0.00 0.00 0.00 0.00 0.00 0.00 0.00 0.00 0.00 0.00 0.00 0.00 0.00 0.00 0.00 0.00 0.00 0.00 0.00 0.00 0.00 0.00 0.00 0.00 0.00 0.00
0.00 0.00 0.00 0.00 0.00 0.00 0.00 0.00 0.00 0.00 0.00 0.00 0.00 0.00 0.00 0.00 0.00 0.00 0.00 0.00 0.00 0.00 0.00 0.00 0.00 0.00 0.00 0.00 0.00 0.00 0.00 0.00 0.00 0.00 0.00 0.00 0.00 0.00 0.00 0.00 0.00 0.00 0.00 0.00 0.00 0.00 0.00 0.00 0.00
0.00 0.00 0.00 0.00 0.00 0.00 0.00 0.00 0.00 0.00 0.00 0.00 0.00 0.00 0.00 0.00 0.00 0.00 0.00 0.00 0.00 0.00 0.00 0.03 0.05 0.03 0.00 0.00 0.00 0.03 0.07 0.04 0.04 0.04 0.00 0.00 0.00 0.00 0.00 0.00 0.00 0.00 0.00 0.00 0.00 0.00 0.00 0.00 0.00
0.00 0.00 0.00 0.00 0.00 0.00 0.00 0.00 0.00 0.00 0.00 0.00 0.00 0.00 0.00 0.00 0.00 0.00 0.00 0.00 0.00 0.00 0.00 0.12 0.54 0.12 0.04 0.00 0.03 0.10 0.04 0.04 0.11 0.09 0.03 0.00 0.00 0.00 0.00 0.00 0.00 0.00 0.00 0.00 0.00 0.00 0.00 0.00 0.00
0.00 0.00 0.00 0.00 0.00 0.00 0.00 0.00 0.00 0.00 0.00 0.00 0.00 0.00 0.00 0.00 0.00 0.00 0.00 0.00 0.00 0.01 0.06 0.42 0.71 0.41 0.09 0.07 0.12 0.08 0.05 0.07 0.09 0.06 0.01 0.00 0.00 0.00 0.00 0.00 0.00 0.00 0.00 0.00 0.00 0.00 0.00 0.00 0.00
0.00 0.00 0.00 0.00 0.00 0.00 0.00 0.00 0.00 0.00 0.00 0.00 0.00 0.00 0.00 0.00 0.00 0.00 0.00 0.00 0.02 0.02 0.15 0.42 0.51 0.37 0.29 0.42 0.33 0.06 0.03 0.03 0.01 0.00 0.00 0.00 0.00 0.00 0.00 0.00 0.00 0.00 0.00 0.00 0.00 0.00 0.00 0.00 0.00
0.00 0.00 0.00 0.00 0.00 0.00 0.00 0.00 0.00 0.00 0.00 0.00 0.00 0.00 0.00 0.00 0.00 0.00 0.02 0.04 0.05 0.04 0.30 0.53 0.57 0.64 0.76 0.31 0.07 0.04 0.03 0.01 0.00 0.01 0.01 0.01 0.00 0.00 0.00 0.00 0.00 0.00 0.00 0.00 0.00 0.00 0.00 0.00 0.00
0.00 0.00 0.00 0.00 0.00 0.00 0.00 0.00 0.00 0.00 0.00 0.00 0.00 0.00 0.00 0.00 0.00 0.02 0.04 0.06 0.08 0.16 0.38 0.61 0.87 0.67 0.23 0.07 0.05 0.04 0.02 0.02 0.03 0.02 0.00 0.00 0.00 0.00 0.00 0.00 0.00 0.00 0.00 0.00 0.00 0.00 0.00 0.00 0.00
0.00 0.00 0.00 0.00 0.00 0.00 0.00 0.00 0.00 0.00 0.00 0.00 0.00 0.00 0.00 0.00 0.00 0.01 0.04 0.10 0.28 0.43 0.41 0.29 0.09 0.01 0.01 0.01 0.02 0.03 0.02 0.01 0.00 0.00 0.00 0.00 0.00 0.00 0.00 0.00 0.00 0.00 0.00 0.00 0.00 0.00 0.00 0.00 0.00
0.00 0.00 0.00 0.00 0.00 0.00 0.00 0.00 0.00 0.00 0.00 0.00 0.00 0.00 0.00 0.00 0.01 0.04 0.08 0.13 0.10 0.05 0.00 0.00 0.00 0.00 0.00 0.01 0.01 0.00 0.00 0.00 0.00 0.00 0.00 0.00 0.00 0.00 0.00 0.00 0.00 0.00 0.00 0.00 0.00 0.00 0.00 0.00 0.00
0.00 0.00 0.00 0.00 0.00 0.00 0.00 0.00 0.00 0.00 0.00 0.00 0.00 0.00 0.00 0.01 0.02 0.02 0.00 0.00 0.00 0.00 0.00 0.00 0.00 0.00 0.00 0.00 0.00 0.00 0.00 0.00 0.00 0.00 0.00 0.00 0.00 0.00 0.00 0.00 0.00 0.00 0.00 0.00 0.00 0.00 0.00 0.00 0.00
0.00 0.00 0.00 0.00 0.00 0.00 0.00 0.00 0.00 0.00 0.00 0.00 0.00 0.00 0.00 0.00 0.00 0.00 0.00 0.00 0.00 0.00 0.00 0.00 0.00 0.00 0.00 0.00 0.00 0.00 0.00 0.00 0.00 0.00 0.00 0.00 0.00 0.00 0.00 0.00 0.00 0.00 0.00 0.00 0.00 0.00 0.00 0.00 0.00
0.00 0.00 0.00 0.00 0.00 0.00 0.00 0.01 0.01 0.01 0.00 0.00 0.00 0.00 0.00 0.00 0.00 0.00 0.00 0.00 0.00 0.00 0.00 0.00 0.00 0.00 0.00 0.00 0.00 0.00 0.00 0.00 0.00 0.00 0.00 0.00 0.00 0.01 0.00 0.00 0.00 0.00 0.00 0.00 0.00 0.00 0.00 0.00 0.00
0.00 0.00 0.00 0.01 0.00 0.01 0.03 0.02 0.00 0.00 0.00 0.00 0.00 0.00 0.00 0.00 0.00 0.01 0.00 0.00 0.00 0.00 0.00 0.00 0.00 0.00 0.00 0.00 0.00 0.00 0.00 0.00 0.00 0.00 0.00 0.00 0.00 0.00 0.00 0.00 0.00 0.00 0.00 0.00 0.00 0.01 0.00 0.00 0.00
0.00 0.00 0.00 0.01 0.01 0.02 0.00 0.00 0.00 0.00 0.00 0.00 0.00 0.00 0.00 0.00 0.00 0.00 0.00 0.00 0.00 0.00 0.00 0.00 0.00 0.00 0.00 0.00 0.00 0.00 0.00 0.00 0.00 0.00 0.00 0.00 0.00 0.00 0.00 0.00 0.00 0.00 0.00 0.00 0.01 0.02 0.01 0.00 0.01
0.00 0.00 0.00 0.00 0.00 0.00 0.00 0.00 0.00 0.00 0.00 0.00 0.00 0.00 0.00 0.00 0.00 0.00 0.00 0.00 0.00 0.00 0.00 0.00 0.00 0.00 0.00 0.00 0.00 0.00 0.00 0.00 0.00 0.00 0.00 0.00 0.00 0.00 0.00 0.00 0.00 0.00 0.00 0.00 0.00 0.00 0.00 0.01 0.02
0.00 0.00 0.00 0.00 0.00 0.00 0.00 0.00 0.00 0.00 0.00 0.00 0.00 0.00 0.00 0.00 0.00 0.00 0.00 0.00 0.00 0.00 0.00 0.00 0.00 0.00 0.00 0.00 0.00 0.00 0.00 0.00 0.00 0.00 0.00 0.00 0.00 0.00 0.00 0.00 0.00 0.00 0.00 0.00 0.01 0.02 0.03 0.03 0.03
0.00 0.00 0.00 0.00 0.00 0.00 0.00 0.00 0.00 0.00 0.00 0.00 0.00 0.00 0.00 0.00 0.00 0.00 0.00 0.00 0.00 0.00 0.00 0.00 0.00 0.00 0.00 0.00 0.00 0.00 0.00 0.00 0.00 0.00 0.00 0.00 0.00 0.00 0.00 0.00 0.01 0.01 0.02 0.06 0.07 0.04 0.03 0.03 0.03
0.00 0.00 0.00 0.00 0.00 0.00 0.00 0.00 0.00 0.00 0.00 0.00 0.00 0.00 0.00 0.00 0.00 0.00 0.00 0.00 0.00 0.00 0.00 0.00 0.00 0.00 0.00 0.00 0.00 0.00 0.00 0.00 0.00 0.00 0.00 0.00 0.01 0.01 0.02 0.01 0.02 0.04 0.05 0.05 0.04 0.02 0.01 0.01 0.01

GFSSGP_prec_precacc24_030.txt.gz
Total_Precipitation_Accumulation
0.00 0.00 0.00 0.00 0.00 0.00 0.00 0.00 0.00 0.00 0.00 0.01 0.03 0.04 0.04 0.03 0.09 0.20 0.05 0.01 0.01 0.00 0.00 0.07 0.21 0.02 0.00 0.02 0.01 0.01 0.00 0.00 0.01 0.01 0.00 0.00 0.00 0.00 0.00 0.00 0.00 0.00 0.00 0.00 0.00 0.00 0.00 0.00 0.00
0.00 0.00 0.00 0.00 0.00 0.00 0.00 0.00 0.00 0.03 0.06 0.05 0.07 0.09 0.06 0.14 0.05 0.06 0.11 0.06 0.02 0.01 0.01 0.03 0.12 0.04 0.01 0.02 0.01 0.01 0.01 0.00 0.00 0.00 0.00 0.00 0.00 0.00 0.00 0.00 0.00 0.00 0.00 0.00 0.00 0.00 0.00 0.00 0.00
0.00 0.00 0.00 0.00 0.00 0.00 0.00 0.00 0.01 0.01 0.00 0.03 0.03 0.02 0.11 0.13 0.15 0.20 0.09 0.03 0.06 0.03 0.00 0.00 0.03 0.03 0.02 0.01 0.00 0.01 0.01 0.00 0.00 0.00 0.00 0.00 0.00 0.00 0.00 0.00 0.00 0.00 0.00 0.00 0.00 0.00 0.00 0.00 0.00
0.00 0.00 0.00 0.00 0.00 0.00 0.00 0.00 0.01 0.06 0.05 0.02 0.06 0.04 0.13 0.14 0.21 0.19 0.04 0.05 0.14 0.04 0.00 0.00 0.01 0.06 0.03 0.00 0.00 0.00 0.00 0.00 0.00 0.00 0.00 0.00 0.00 0.00 0.00 0.00 0.00 0.00 0.00 0.00 0.00 0.00 0.00 0.00 0.00
0.00 0.00 0.00 0.00 0.00 0.00 0.00 0.02 0.03 0.01 0.05 0.02 0.01 0.03 0.05 0.03 0.10 0.10 0.10 0.07 0.14 0.06 0.02 0.01 0.14 0.11 0.01 0.00 0.00 0.00 0.00 0.00 0.00 0.00 0.00 0.00 0.00 0.00 0.00 0.00 0.00 0.00 0.00 0.00 0.00 0.00 0.00 0.00 0.00
0.00 0.00 0.00 0.00 0.00 0.00 0.00 0.02 0.02 0.02 0.01 0.00 0.00 0.01 0.06 0.07 0.10 0.17 0.34 0.07 0.08 0.02 0.01 0.04 0.07 0.06 0.00 0.00 0.00 0.00 0.00 0.00 0.00 0.00 0.00 0.00 0.00 0.00 0.00 0.00 0.00 0.00 0.00 0.00 0.00 0.00 0.00 0.00 0.00
0.00 0.00 0.00 0.00 0.00 0.00 0.00 0.02 0.03 0.03 0.00 0.00 0.00 0.03 0.04 0.05 0.07 0.13 0.16 0.03 0.07 0.09 0.02 0.07 0.03 0.00 0.00 0.00 0.00 0.00 0.00 0.00 0.00 0.00 0.00 0.00 0.00 0.00 0.00 0.00 0.00 0.00 0.00 0.00 0.00 0.00 0.00 0.00 0.00
0.00 0.00 0.00 0.00 0.01 0.01 0.01 0.03 0.04 0.01 0.00 0.00 0.01 0.02 0.03 0.02 0.02 0.01 0.02 0.01 0.04 0.05 0.05 0.04 0.01 0.00 0.00 0.00 0.00 0.00 0.00 0.00 0.00 0.00 0.00 0.00 0.00 0.00 0.00 0.00 0.00 0.00 0.00 0.00 0.00 0.00 0.00 0.00 0.00
0.00 0.00 0.00 0.00 0.01 0.02 0.03 0.03 0.00 0.00 0.00 0.02 0.02 0.00 0.01 0.02 0.02 0.01 0.03 0.02 0.01 0.01 0.01 0.00 0.00 0.00 0.00 0.00 0.00 0.00 0.00 0.00 0.00 0.00 0.00 0.00 0.00 0.00 0.00 0.00 0.00 0.00 0.00 0.00 0.00 0.00 0.00 0.00 0.00
0.00 0.00 0.00 0.00 0.00 0.00 0.01 0.00 0.00 0.01 0.01 0.01 0.01 0.00 0.00 0.01 0.01 0.01 0.00 0.01 0.01 0.00 0.00 0.00 0.00 0.00 0.00 0.00 0.00 0.00 0.00 0.00 0.00 0.00 0.00 0.00 0.00 0.00 0.00 0.00 0.00 0.00 0.00 0.00 0.00 0.00 0.00 0.00 0.00
0.00 0.00 0.00 0.00 0.00 0.00 0.00 0.01 0.00 0.01 0.00 0.00 0.00 0.00 0.00 0.01 0.01 0.02 0.00 0.00 0.00 0.00 0.00 0.00 0.00 0.00 0.00 0.00 0.00 0.00 0.00 0.00 0.00 0.00 0.00 0.00 0.00 0.00 0.00 0.00 0.00 0.00 0.00 0.00 0.00 0.00 0.00 0.00 0.00
0.00 0.00 0.00 0.00 0.00 0.00 0.00 0.00 0.00 0.00 0.00 0.00 0.00 0.00 0.00 0.01 0.00 0.00 0.00 0.00 0.00 0.00 0.00 0.00 0.00 0.00 0.00 0.00 0.00 0.00 0.00 0.00 0.01 0.01 0.00 0.00 0.00 0.00 0.00 0.00 0.00 0.00 0.00 0.00 0.00 0.00 0.00 0.00 0.00
0.00 0.00 0.00 0.00 0.00 0.00 0.00 0.00 0.00 0.00 0.00 0.00 0.00 0.00 0.00 0.00 0.00 0.00 0.00 0.00 0.00 0.00 0.00 0.00 0.00 0.00 0.00 0.00 0.00 0.00 0.00 0.01 0.02 0.03 0.01 0.00 0.00 0.00 0.00 0.00 0.00 0.00 0.00 0.00 0.00 0.00 0.00 0.00 0.00
0.00 0.00 0.00 0.00 0.00 0.00 0.00 0.00 0.00 0.00 0.00 0.00 0.00 0.00 0.00 0.00 0.00 0.00 0.00 0.00 0.00 0.00 0.00 0.03 0.05 0.03 0.00 0.00 0.01 0.04 0.08 0.07 0.10 0.23 0.10 0.01 0.00 0.00 0.00 0.00 0.00 0.00 0.00 0.00 0.00 0.00 0.00 0.00 0.00
0.00 0.00 0.00 0.00 0.00 0.00 0.00 0.00 0.00 0.00 0.00 0.00 0.00 0.00 0.00 0.00 0.00 0.00 0.00 0.00 0.00 0.00 0.01 0.13 0.56 0.12 0.04 0.01 0.05 0.12 0.04 0.04 0.14 0.17 0.10 0.01 0.00 0.00 0.00 0.00 0.00 0.00 0.00 0.00 0.00 0.00 0.00 0.00 0.00
0.00 0.00 0.00 0.00 0.00 0.00 0.00 0.00 0.00 0.00 0.00 0.00 0.00 0.00 0.00 0.00 0.00 0.00 0.00 0.00 0.00 0.01 0.06 0.43 0.76 0.44 0.11 0.07 0.13 0.12 0.09 0.08 0.12 0.12 0.04 0.00 0.00 0.00 0.00 0.00 0.00 0.00 0.00 0.00 0.00 0.00 0.00 0.00 0.00
0.00 0.00 0.00 0.00 0.00 0.00 0.00 0.00 0.00 0.00 0.00 0.00 0.00 0.00 0.00 0.00 0.00 0.00 0.00 0.00 0.02 0.02 0.15 0.43 0.54 0.46 0.39 0.48 0.44 0.17 0.05 0.04 0.02 0.01 0.00 0.00 0.00 0.00 0.00 0.00 0.00 0.00 0.00 0.00 0.00 0.00 0.00 0.00 0.00
0.00 0.00 0.00 0.00 0.00 0.00 0.00 0.00 0.00 0.00 0.00 0.00 0.00 0.00 0.00 0.00 0.00 0.00 0.02 0.04 0.05 0.04 0.30 0.54 0.60 0.76 1.00 0.60 0.16 0.06 0.05 0.02 0.00 0.01 0.02 0.01 0.00 0.00 0.00 0.00 0.00 0.00 0.00 0.00 0.00 0.00 0.00 0.00 0.00
0.00 0.00 0.00 0.00 0.00 0.00 0.00 0.00 0.00 0.00 0.00 0.00 0.00 0.00 0.00 0.00 0.00 0.02 0.05 0.06 0.08 0.16 0.38 0.62 0.94 0.82 0.27 0.09 0.05 0.04 0.02 0.02 0.03 0.02 0.00 0.00 0.00 0.00 0.00 0.00 0.00 0.00 0.00 0.00 0.00 0.00 0.00 0.00 0.00
0.00 0.00 0.00 0.00 0.00 0.00 0.00 0.00 0.00 0.00 0.00 0.00 0.00 0.00 0.00 0.00 0.00 0.01 0.04 0.10 0.28 0.43 0.42 0.30 0.11 0.02 0.01 0.01 0.02 0.03 0.02 0.01 0.00 0.00 0.00 0.00 0.00 0.00 0.00 0.00 0.00 0.00 0.00 0.00 0.00 0.00 0.00 0.00 0.00
0.00 0.00 0.00 0.00 0.00 0.00 0.00 0.00 0.00 0.00 0.00 0.00 0.00 0.00 0.00 0.00 0.01 0.04 0.08 0.13 0.10 0.05 0.00 0.00 0.00 0.00 0.00 0.01 0.01 0.00 0.00 0.00 0.00 0.00 0.00 0.00 0.00 0.00 0.00 0.00 0.00 0.00 0.00 0.00 0.00 0.00 0.00 0.00 0.00
0.00 0.00 0.00 0.00 0.00 0.00 0.00 0.00 0.00 0.00 0.00 0.00 0.00 0.00 0.00 0.01 0.02 0.02 0.00 0.00 0.00 0.00 0.00 0.00 0.00 0.00 0.00 0.00 0.00 0.00 0.00 0.00 0.00 0.00 0.00 0.00 0.00 0.00 0.00 0.00 0.00 0.00 0.00 0.00 0.00 0.00 0.00 0.00 0.00
0.00 0.00 0.00 0.00 0.00 0.00 0.00 0.00 0.00 0.00 0.00 0.00 0.00 0.00 0.00 0.00 0.00 0.00 0.00 0.00 0.00 0.00 0.00 0.00 0.00 0.00 0.00 0.00 0.00 0.00 0.00 0.00 0.00 0.00 0.00 0.00 0.00 0.00 0.00 0.00 0.00 0.00 0.00 0.00 0.00 0.00 0.00 0.00 0.00
0.00 0.00 0.00 0.00 0.00 0.00 0.00 0.01 0.01 0.01 0.00 0.00 0.00 0.00 0.00 0.00 0.00 0.00 0.00 0.00 0.00 0.00 0.00 0.00 0.00 0.00 0.00 0.00 0.00 0.00 0.00 0.00 0.00 0.00 0.00 0.00 0.00 0.01 0.00 0.00 0.00 0.00 0.00 0.00 0.00 0.00 0.00 0.00 0.00
0.00 0.00 0.00 0.01 0.00 0.01 0.03 0.02 0.00 0.00 0.00 0.00 0.00 0.00 0.00 0.00 0.00 0.01 0.00 0.00 0.00 0.00 0.00 0.00 0.00 0.00 0.00 0.00 0.00 0.00 0.00 0.00 0.00 0.00 0.00 0.00 0.00 0.00 0.00 0.00 0.00 0.00 0.00 0.00 0.00 0.01 0.01 0.00 0.01
0.00 0.00 0.00 0.01 0.01 0.02 0.00 0.00 0.00 0.00 0.00 0.00 0.00 0.00 0.00 0.00 0.00 0.00 0.00 0.00 0.00 0.00 0.00 0.00 0.00 0.00 0.00 0.00 0.00 0.00 0.00 0.00 0.00 0.00 0.00 0.00 0.00 0.00 0.00 0.00 0.00 0.00 0.00 0.00 0.01 0.01 0.01 0.01 0.01
0.00 0.00 0.00 0.00 0.00 0.00 0.00 0.00 0.00 0.00 0.00 0.00 0.00 0.00 0.00 0.00 0.00 0.00 0.00 0.00 0.00 0.00 0.00 0.00 0.00 0.00 0.00 0.00 0.00 0.00 0.00 0.00 0.00 0.00 0.00 0.00 0.00 0.00 0.00 0.00 0.00 0.00 0.00 0.00 0.00 0.01 0.01 0.01 0.02
0.00 0.00 0.00 0.00 0.00 0.00 0.00 0.00 0.00 0.00 0.00 0.00 0.00 0.00 0.00 0.00 0.00 0.00 0.00 0.00 0.00 0.00 0.00 0.00 0.00 0.00 0.00 0.00 0.00 0.00 0.00 0.00 0.00 0.00 0.00 0.00 0.00 0.00 0.00 0.00 0.00 0.00 0.00 0.01 0.01 0.01 0.02 0.02 0.02
0.00 0.00 0.00 0.00 0.00 0.00 0.00 0.00 0.00 0.00 0.00 0.00 0.00 0.00 0.00 0.00 0.00 0.00 0.00 0.00 0.00 0.00 0.00 0.00 0.00 0.00 0.00 0.00 0.00 0.00 0.00 0.00 0.00 0.00 0.00 0.00 0.00 0.00 0.00 0.00 0.01 0.01 0.02 0.03 0.05 0.05 0.03 0.02 0.03
0.00 0.00 0.00 0.00 0.00 0.00 0.00 0.00 0.00 0.00 0.00 0.00 0.00 0.00 0.00 0.00 0.00 0.00 0.00 0.00 0.00 0.00 0.00 0.00 0.00 0.00 0.00 0.00 0.00 0.00 0.00 0.00 0.00 0.00 0.00 0.00 0.01 0.01 0.01 0.01 0.02 0.03 0.04 0.06 0.04 0.03 0.01 0.01 0.01

GFSSGP_prec_precacc24_033.txt.gz
Total_Precipitation_Accumulation
0.00 0.00 0.00 0.00 0.00 0.00 0.00 0.00 0.00 0.00 0.01 0.01 0.03 0.04 0.05 0.04 0.10 0.17 0.06 0.02 0.01 0.01 0.00 0.07 0.22 0.03 0.00 0.00 0.00 0.00 0.00 0.00 0.00 0.00 0.00 0.00 0.00 0.00 0.00 0.00 0.00 0.00 0.00 0.00 0.00 0.00 0.00 0.00 0.00
0.00 0.00 0.00 0.00 0.00 0.00 0.00 0.00 0.00 0.06 0.13 0.05 0.08 0.10 0.06 0.15 0.06 0.08 0.15 0.14 0.10 0.01 0.00 0.03 0.12 0.04 0.00 0.00 0.00 0.00 0.00 0.00 0.00 0.00 0.00 0.00 0.00 0.00 0.00 0.00 0.00 0.00 0.00 0.00 0.00 0.00 0.00 0.00 0.00
0.00 0.00 0.00 0.00 0.00 0.00 0.00 0.00 0.01 0.01 0.01 0.03 0.03 0.02 0.11 0.14 0.21 0.29 0.17 0.09 0.15 0.09 0.01 0.01 0.03 0.04 0.04 0.01 0.00 0.00 0.00 0.00 0.00 0.00 0.00 0.00 0.00 0.00 0.00 0.00 0.00 0.00 0.00 0.00 0.00 0.00 0.00 0.00 0.00
0.00 0.00 0.00 0.00 0.00 0.00 0.00 0.01 0.01 0.06 0.05 0.02 0.07 0.06 0.13 0.14 0.29 0.28 0.11 0.16 0.27 0.14 0.04 0.01 0.03 0.10 0.05 0.00 0.00 0.00 0.00 0.00 0.00 0.00 0.00 0.00 0.00 0.00 0.00 0.00 0.00 0.00 0.00 0.00 0.00 0.00 0.00 0.00 0.00
0.00 0.00 0.00 0.00 0.00 0.00 0.00 0.03 0.05 0.06 0.06 0.02 0.01 0.07 0.11 0.05 0.11 0.12 0.13 0.10 0.29 0.34 0.21 0.02 0.16 0.20 0.07 0.00 0.00 0.00 0.00 0.00 0.00 0.00 0.00 0.00 0.00 0.00 0.00 0.00 0.00 0.00 0.00 0.00 0.00 0.00 0.00 0.00 0.00
0.00 0.00 0.00 0.00 0.00 0.00 0.00 0.03 0.03 0.04 0.01 0.00 0.00 0.01 0.08 0.09 0.11 0.21 0.66 0.45 0.38 0.35 0.36 0.10 0.11 0.21 0.02 0.00 0.00 0.00 0.00 0.00 0.00 0.00 0.00 0.00 0.00 0.00 0.00 0.00 0.00 0.00 0.00 0.00 0.00 0.00 0.00 0.00 0.00
0.00 0.00 0.00 0.00 0.00 0.00 0.00 0.03 0.05 0.04 0.00 0.00 0.00 0.04 0.06 0.10 0.19 0.62 0.94 1.61 1.15 0.54 0.23 0.12 0.06 0.02 0.00 0.00 0.00 0.00 0.00 0.00 0.00 0.00 0.00 0.00 0.00 0.00 0.00 0.00 0.00 0.00 0.00 0.00 0.00 0.00 0.00 0.00 0.00
0.00 0.00 0.00 0.00 0.01 0.02 0.01 0.04 0.05 0.01 0.01 0.03 0.01 0.05 0.04 0.07 0.15 0.20 0.37 0.65 0.63 0.30 0.18 0.16 0.05 0.00 0.00 0.00 0.00 0.00 0.00 0.00 0.00 0.00 0.00 0.00 0.00 0.00 0.00 0.00 0.00 0.00 0.00 0.00 0.00 0.00 0.00 0.00 0.00
0.00 0.00 0.00 0.00 0.02 0.03 0.03 0.04 0.00 0.00 0.00 0.02 0.02 0.00 0.01 0.03 0.05 0.10 0.28 0.25 0.09 0.14 0.16 0.13 0.00 0.00 0.00 0.00 0.00 0.00 0.00 0.00 0.00 0.00 0.00 0.00 0.00 0.00 0.00 0.00 0.00 0.00 0.00 0.00 0.00 0.00 0.00 0.00 0.00
0.00 0.00 0.00 0.00 0.01 0.03 0.01 0.00 0.00 0.01 0.01 0.01 0.02 0.01 0.00 0.02 0.05 0.07 0.06 0.04 0.06 0.06 0.02 0.00 0.00 0.00 0.00 0.00 0.00 0.00 0.00 0.00 0.00 0.00 0.00 0.00 0.00 0.00 0.00 0.00 0.00 0.00 0.00 0.00 0.00 0.00 0.00 0.00 0.00
0.00 0.00 0.00 0.00 0.00 0.00 0.00 0.01 0.00 0.01 0.00 0.00 0.00 0.00 0.01 0.04 0.02 0.04 0.05 0.03 0.02 0.01 0.00 0.00 0.00 0.00 0.00 0.00 0.00 0.00 0.00 0.00 0.00 0.01 0.01 0.01 0.00 0.00 0.00 0.00 0.00 0.00 0.00 0.00 0.00 0.00 0.00 0.00 0.00
0.00 0.00 0.00 0.00 0.00 0.00 0.00 0.00 0.00 0.02 0.09 0.00 0.00 0.00 0.00 0.01 0.00 0.01 0.03 0.02 0.00 0.00 0.00 0.00 0.00 0.00 0.00 0.00 0.00 0.00 0.00 0.01 0.05 0.07 0.03 0.01 0.01 0.01 0.00 0.00 0.00 0.00 0.00 0.00 0.00 0.00 0.00 0.00 0.00
0.00 0.00 0.00 0.00 0.00 0.00 0.00 0.00 0.00 0.01 0.00 0.00 0.00 0.00 0.00 0.00 0.00 0.00 0.00 0.00 0.00 0.00 0.00 0.00 0.00 0.00 0.00 0.00 0.00 0.00 0.01 0.04 0.05 0.07 0.03 0.00 0.00 0.00 0.00 0.00 0.00 0.00 0.00 0.00 0.00 0.00 0.00 0.00 0.00
0.00 0.00 0.00 0.00 0.00 0.00 0.00 0.00 0.01 0.00 0.00 0.00 0.00 0.00 0.00 0.00 0.00 0.00 0.00 0.00 0.00 0.00 0.00 0.03 0.05 0.03 0.00 0.00 0.03 0.08 0.11 0.08 0.10 0.23 0.12 0.03 0.01 0.00 0.00 0.00 0.00 0.00 0.00 0.00 0.00 0.00 0.00 0.00 0.00
0.00 0.00 0.00 0.00 0.00 0.00 0.00 0.00 0.00 0.00 0.00 0.00 0.00 0.00 0.00 0.00 0.00 0.00 0.00 0.00 0.00 0.00 0.01 0.13 0.56 0.12 0.04 0.03 0.07 0.12 0.04 0.04 0.14 0.18 0.10 0.01 0.00 0.00 0.00 0.00 0.00 0.00 0.00 0.00 0.00 0.00 0.00 0.00 0.00
0.00 0.00 0.00 0.00 0.00 0.00 0.00 0.00 0.00 0.00 0.00 0.00 0.00 0.00 0.00 0.00 0.00 0.00 0.00 0.00 0.00 0.01 0.06 0.43 0.76 0.44 0.12 0.08 0.13 0.13 0.14 0.09 0.12 0.13 0.05 0.01 0.00 0.00 0.00 0.00 0.00 0.00 0.00 0.00 0.00 0.00 0.00 0.00 0.00
0.00 0.00 0.00 0.00 0.00 0.00 0.00 0.00 0.00 0.00 0.00 0.00 0.00 0.00 0.00 0.00 0.00 0.00 0.00 0.00 0.02 0.02 0.15 0.43 0.54 0.49 0.46 0.53 0.52 0.26 0.08 0.05 0.04 0.03 0.02 0.01 0.01 0.00 0.00 0.00 0.00 0.00 0.00 0.00 0.00 0.00 0.00 0.00 0.00
0.00 0.00 0.00 0.00 0.00 0.00 0.00 0.00 0.00 0.00 0.00 0.00 0.00 0.00 0.00 0.00 0.00 0.00 0.02 0.04 0.05 0.04 0.30 0.54 0.60 0.78 1.07 0.64 0.20 0.07 0.05 0.02 0.01 0.02 0.02 0.01 0.00 0.00 0.00 0.00 0.00 0.00 0.00 0.00 0.00 0.00 0.00 0.00 0.00
0.00 0.00 0.00 0.00 0.00 0.00 0.00 0.00 0.00 0.00 0.00 0.00 0.00 0.00 0.00 0.00 0.00 0.02 0.05 0.06 0.08 0.16 0.38 0.62 0.94 0.85 0.30 0.09 0.05 0.04 0.02 0.02 0.03 0.02 0.00 0.00 0.00 0.00 0.00 0.00 0.00 0.00 0.00 0.00 0.00 0.00 0.00 0.00 0.00
0.00 0.00 0.00 0.00 0.00 0.00 0.00 0.00 0.00 0.00 0.00 0.00 0.00 0.00 0.00 0.00 0.00 0.01 0.04 0.10 0.28 0.43 0.42 0.30 0.11 0.02 0.01 0.01 0.02 0.03 0.02 0.01 0.00 0.00 0.00 0.00 0.00 0.00 0.00 0.00 0.00 0.00 0.00 0.00 0.00 0.00 0.00 0.00 0.00
0.00 0.00 0.00 0.00 0.00 0.00 0.00 0.00 0.00 0.00 0.00 0.00 0.00 0.00 0.00 0.00 0.01 0.04 0.08 0.13 0.10 0.05 0.01 0.03 0.02 0.01 0.00 0.01 0.01 0.00 0.00 0.00 0.00 0.00 0.00 0.00 0.00 0.00 0.00 0.00 0.00 0.00 0.00 0.00 0.00 0.00 0.00 0.00 0.00
0.00 0.00 0.00 0.00 0.00 0.00 0.00 0.00 0.00 0.00 0.00 0.00 0.00 0.00 0.00 0.01 0.02 0.02 0.00 0.00 0.00 0.00 0.00 0.00 0.00 0.00 0.00 0.00 0.00 0.00 0.00 0.00 0.00 0.00 0.00 0.00 0.00 0.00 0.00 0.00 0.00 0.00 0.00 0.00 0.00 0.00 0.00 0.00 0.00
0.00 0.00 0.00 0.00 0.00 0.00 0.00 0.00 0.01 0.00 0.00 0.00 0.00 0.00 0.00 0.00 0.00 0.00 0.00 0.00 0.00 0.00 0.00 0.00 0.00 0.00 0.00 0.00 0.00 0.00 0.00 0.00 0.00 0.00 0.00 0.00 0.00 0.00 0.00 0.00 0.00 0.00 0.00 0.00 0.00 0.00 0.00 0.00 0.00
0.00 0.00 0.00 0.00 0.00 0.00 0.00 0.01 0.01 0.01 0.00 0.00 0.00 0.00 0.00 0.00 0.00 0.00 0.00 0.00 0.00 0.00 0.00 0.00 0.00 0.00 0.00 0.00 0.00 0.00 0.00 0.00 0.00 0.00 0.00 0.00 0.00 0.01 0.00 0.00 0.00 0.00 0.00 0.00 0.00 0.00 0.00 0.00 0.00
0.00 0.00 0.00 0.01 0.00 0.01 0.03 0.02 0.00 0.00 0.00 0.00 0.00 0.00 0.00 0.00 0.00 0.01 0.00 0.00 0.00 0.00 0.00 0.00 0.00 0.00 0.00 0.00 0.00 0.00 0.00 0.00 0.00 0.00 0.00 0.00 0.00 0.00 0.00 0.00 0.00 0.00 0.00 0.00 0.00 0.00 0.01 0.01 0.02
0.00 0.00 0.00 0.01 0.01 0.02 0.00 0.00 0.00 0.00 0.00 0.00 0.00 0.00 0.00 0.00 0.00 0.00 0.00 0.00 0.00 0.00 0.00 0.00 0.00 0.00 0.00 0.00 0.00 0.00 0.00 0.00 0.00 0.00 0.00 0.00 0.00 0.00 0.00 0.00 0.00 0.00 0.00 0.00 0.00 0.01 0.02 0.03 0.03
0.00 0.00 0.00 0.00 0.00 0.00 0.00 0.00 0.00 0.00 0.00 0.00 0.00 0.00 0.00 0.00 0.00 0.00 0.00 0.00 0.00 0.00 0.00 0.00 0.00 0.00 0.00 0.00 0.00 0.00 0.00 0.00 0.00 0.00 0.00 0.00 0.00 0.00 0.00 0.00 0.00 0.00 0.00 0.00 0.00 0.01 0.02 0.02 0.03
0.00 0.00 0.00 0.00 0.00 0.00 0.00 0.00 0.00 0.00 0.00 0.00 0.00 0.00 0.00 0.00 0.00 0.00 0.00 0.00 0.00 0.00 0.00 0.00 0.00 0.00 0.00 0.00 0.00 0.00 0.00 0.00 0.00 0.00 0.00 0.00 0.00 0.00 0.00 0.00 0.00 0.00 0.00 0.01 0.01 0.02 0.03 0.05 0.04
0.00 0.00 0.00 0.00 0.00 0.00 0.00 0.00 0.00 0.00 0.00 0.00 0.00 0.00 0.00 0.00 0.00 0.00 0.00 0.00 0.00 0.00 0.00 0.00 0.00 0.00 0.00 0.00 0.00 0.00 0.00 0.00 0.00 0.00 0.00 0.00 0.00 0.00 0.00 0.00 0.01 0.01 0.01 0.02 0.04 0.06 0.05 0.03 0.03
0.00 0.00 0.00 0.00 0.00 0.00 0.00 0.00 0.00 0.00 0.00 0.00 0.00 0.00 0.00 0.00 0.00 0.00 0.00 0.00 0.00 0.00 0.00 0.00 0.00 0.00 0.00 0.00 0.00 0.00 0.00 0.00 0.00 0.00 0.00 0.00 0.00 0.00 0.00 0.00 0.00 0.01 0.02 0.03 0.04 0.03 0.01 0.01 0.01

GFSSGP_prec_precacc24_036.txt.gz
Total_Precipitation_Accumulation
0.00 0.00 0.00 0.00 0.00 0.00 0.00 0.00 0.00 0.01 0.02 0.01 0.03 0.05 0.05 0.05 0.12 0.20 0.10 0.03 0.05 0.03 0.00 0.07 0.22 0.03 0.00 0.00 0.00 0.00 0.00 0.00 0.00 0.00 0.00 0.00 0.00 0.00 0.00 0.00 0.00 0.00 0.00 0.00 0.00 0.00 0.00 0.00 0.00
0.00 0.00 0.00 0.00 0.00 0.00 0.00 0.01 0.01 0.06 0.16 0.16 0.12 0.11 0.08 0.16 0.06 0.10 0.21 0.18 0.11 0.01 0.00 0.03 0.12 0.05 0.00 0.00 0.00 0.00 0.00 0.00 0.00 0.00 0.00 0.00 0.00 0.00 0.00 0.00 0.00 0.00 0.00 0.00 0.00 0.00 0.00 0.00 0.00
0.00 0.00 0.00 0.00 0.00 0.00 0.00 0.00 0.01 0.01 0.01 0.05 0.08 0.03 0.13 0.15 0.24 0.36 0.26 0.12 0.16 0.09 0.01 0.01 0.04 0.07 0.04 0.01 0.00 0.00 0.00 0.00 0.00 0.00 0.00 0.00 0.00 0.00 0.00 0.00 0.00 0.00 0.00 0.00 0.00 0.00 0.00 0.00 0.00
0.00 0.00 0.00 0.00 0.00 0.00 0.00 0.01 0.02 0.06 0.05 0.03 0.07 0.06 0.14 0.14 0.33 0.37 0.29 0.29 0.33 0.18 0.07 0.03 0.10 0.14 0.05 0.00 0.00 0.00 0.00 0.00 0.00 0.00 0.00 0.00 0.00 0.00 0.00 0.00 0.00 0.00 0.00 0.00 0.00 0.00 0.00 0.00 0.00
0.00 0.00 0.00 0.00 0.00 0.00 0.00 0.03 0.05 0.07 0.10 0.02 0.01 0.07 0.12 0.06 0.14 0.33 0.40 0.29 0.46 0.58 0.36 0.05 0.25 0.26 0.09 0.00 0.00 0.00 0.00 0.00 0.00 0.00 0.00 0.00 0.00 0.00 0.00 0.00 0.00 0.00 0.00 0.00 0.00 0.00 0.00 0.00 0.00
0.00 0.00 0.00 0.00 0.00 0.00 0.00 0.03 0.08 0.18 0.05 0.00 0.00 0.01 0.08 0.10 0.13 0.25 0.95 0.92 0.76 0.82 0.78 0.36 0.28 0.26 0.03 0.00 0.00 0.00 0.00 0.00 0.00 0.00 0.00 0.00 0.00 0.00 0.00 0.00 0.00 0.00 0.00 0.00 0.00 0.00 0.00 0.00 0.00
0.00 0.00 0.00 0.00 0.00 0.00 0.00 0.03 0.09 0.07 0.01 0.00 0.00 0.06 0.11 0.11 0.21 0.67 1.01 1.97 1.88 1.75 1.05 0.65 0.15 0.04 0.00 0.00 0.00 0.00 0.00 0.00 0.00 0.00 0.00 0.00 0.00 0.00 0.00 0.00 0.00 0.00 0.00 0.00 0.00 0.00 0.00 0.00 0.00
0.00 0.00 0.00 0.00 0.01 0.03 0.02 0.04 0.20 0.08 0.02 0.04 0.01 0.07 0.05 0.09 0.19 0.27 0.43 0.96 1.97 1.53 0.66 0.54 0.11 0.00 0.00 0.00 0.00 0.00 0.00 0.00 0.00 0.00 0.00 0.00 0.00 0.00 0.00 0.00 0.00 0.00 0.00 0.00 0.00 0.00 0.00 0.00 0.00
0.00 0.00 0.00 0.00 0.04 0.10 0.06 0.04 0.00 0.00 0.00 0.03 0.08 0.04 0.01 0.03 0.07 0.14 0.76 0.60 0.75 1.00 0.83 0.43 0.02 0.00 0.00 0.00 0.00 0.00 0.00 0.00 0.00 0.00 0.00 0.00 0.00 0.00 0.00 0.00 0.00 0.00 0.00 0.00 0.00 0.00 0.00 0.00 0.00
0.00 0.00 0.00 0.00 0.02 0.28 0.20 0.16 0.01 0.01 0.01 0.01 0.02 0.21 0.03 0.02 0.08 0.16 0.50 0.44 0.56 0.67 0.28 0.08 0.01 0.00 0.00 0.00 0.00 0.00 0.00 0.00 0.00 0.00 0.00 0.02 0.01 0.00 0.00 0.00 0.00 0.00 0.00 0.00 0.00 0.00 0.00 0.00 0.00
0.00 0.00 0.00 0.00 0.00 0.05 0.09 0.01 0.00 0.01 0.01 0.00 0.00 0.00 0.02 0.04 0.03 0.09 0.20 0.22 0.27 0.23 0.10 0.01 0.00 0.00 0.00 0.00 0.00 0.00 0.00 0.00 0.00 0.02 0.03 0.03 0.00 0.01 0.02 0.00 0.00 0.00 0.00 0.00 0.00 0.00 0.00 0.00 0.00
0.00 0.00 0.00 0.00 0.00 0.00 0.00 0.00 0.00 0.02 0.10 0.02 0.00 0.00 0.00 0.02 0.03 0.11 0.15 0.17 0.04 0.01 0.00 0.00 0.00 0.00 0.00 0.00 0.00 0.00 0.01 0.04 0.06 0.07 0.03 0.01 0.02 0.02 0.00 0.00 0.00 0.00 0.00 0.00 0.00 0.00 0.00 0.00 0.00
0.00 0.00 0.00 0.00 0.02 0.00 0.00 0.00 0.01 0.03 0.01 0.05 0.00 0.00 0.00 0.00 0.01 0.01 0.02 0.04 0.00 0.00 0.00 0.00 0.00 0.00 0.00 0.00 0.00 0.01 0.07 0.06 0.09 0.08 0.03 0.00 0.00 0.00 0.00 0.00 0.00 0.00 0.00 0.00 0.00 0.00 0.00 0.00 0.00
0.00 0.00 0.00 0.01 0.00 0.00 0.00 0.01 0.06 0.06 0.04 0.03 0.00 0.00 0.00 0.00 0.00 0.00 0.00 0.00 0.00 0.00 0.00 0.03 0.05 0.03 0.00 0.01 0.06 0.12 0.17 0.13 0.14 0.24 0.13 0.03 0.01 0.00 0.00 0.00 0.00 0.00 0.00 0.00 0.00 0.00 0.00 0.00 0.00
0.00 0.00 0.00 0.00 0.00 0.00 0.01 0.01 0.03 0.00 0.01 0.00 0.00 0.00 0.00 0.00 0.00 0.00 0.00 0.00 0.00 0.00 0.01 0.12 0.55 0.12 0.05 0.03 0.07 0.13 0.04 0.04 0.14 0.18 0.10 0.01 0.00 0.00 0.00 0.00 0.00 0.00 0.00 0.00 0.00 0.00 0.00 0.00 0.00
0.00 0.00 0.00 0.00 0.00 0.00 0.00 0.01 0.00 0.00 0.00 0.00 0.00 0.00 0.00 0.00 0.00 0.00 0.00 0.00 0.00 0.01 0.04 0.34 0.75 0.44 0.12 0.08 0.13 0.13 0.14 0.09 0.12 0.13 0.05 0.01 0.01 0.00 0.00 0.00 0.00 0.00 0.00 0.00 0.00 0.00 0.00 0.00 0.00
0.00 0.00 0.00 0.00 0.00 0.00 0.01 0.01 0.00 0.00 0.00 0.00 0.00 0.00 0.00 0.00 0.00 0.00 0.00 0.00 0.02 0.02 0.14 0.43 0.54 0.52 0.52 0.56 0.53 0.26 0.09 0.05 0.04 0.03 0.02 0.01 0.01 0.00 0.00 0.00 0.00 0.00 0.00 0.00 0.00 0.00 0.00 0.00 0.00
0.00 0.00 0.00 0.00 0.00 0.00 0.00 0.00 0.00 0.00 0.00 0.00 0.00 0.00 0.00 0.00 0.00 0.00 0.02 0.04 0.05 0.04 0.30 0.54 0.57 0.82 1.13 0.66 0.20 0.07 0.05 0.02 0.01 0.02 0.02 0.01 0.00 0.00 0.00 0.00 0.00 0.00 0.00 0.00 0.00 0.00 0.00 0.00 0.00
0.00 0.00 0.00 0.00 0.00 0.00 0.00 0.00 0.00 0.00 0.00 0.00 0.00 0.00 0.00 0.00 0.00 0.02 0.04 0.06 0.08 0.16 0.38 0.61 0.88 0.83 0.31 0.09 0.06 0.04 0.02 0.02 0.03 0.02 0.00 0.00 0.00 0.00 0.00 0.00 0.00 0.00 0.00 0.00 0.00 0.00 0.00 0.00 0.00
0.00 0.00 0.00 0.00 0.00 0.00 0.00 0.00 0.00 0.00 0.00 0.00 0.00 0.00 0.00 0.00 0.00 0.01 0.04 0.10 0.28 0.43 0.41 0.29 0.13 0.03 0.01 0.01 0.02 0.03 0.02 0.01 0.00 0.00 0.00 0.00 0.00 0.00 0.00 0.00 0.00 0.00 0.00 0.00 0.00 0.00 0.00 0.00 0.00
0.00 0.00 0.00 0.00 0.00 0.00 0.00 0.00 0.00 0.00 0.00 0.00 0.00 0.00 0.00 0.00 0.01 0.04 0.08 0.13 0.10 0.05 0.01 0.04 0.05 0.02 0.00 0.01 0.01 0.00 0.00 0.00 0.00 0.00 0.00 0.00 0.00 0.00 0.00 0.00 0.00 0.00 0.00 0.00 0.00 0.00 0.00 0.00 0.00
0.00 0.00 0.00 0.00 0.00 0.00 0.00 0.00 0.01 0.00 0.00 0.00 0.00 0.00 0.00 0.01 0.02 0.02 0.00 0.00 0.01 0.02 0.02 0.02 0.03 0.00 0.00 0.00 0.00 0.00 0.00 0.00 0.00 0.00 0.00 0.00 0.00 0.00 0.00 0.00 0.00 0.00 0.00 0.00 0.00 0.00 0.00 0.00 0.00
0.00 0.00 0.00 0.00 0.00 0.02 0.00 0.01 0.01 0.01 0.00 0.00 0.00 0.00 0.00 0.00 0.00 0.00 0.00 0.00 0.00 0.01 0.03 0.01 0.00 0.04 0.01 0.00 0.00 0.00 0.00 0.00 0.00 0.00 0.00 0.00 0.00 0.00 0.00 0.00 0.00 0.00 0.00 0.00 0.00 0.00 0.00 0.00 0.00
0.00 0.00 0.00 0.00 0.00 0.01 0.01 0.02 0.01 0.01 0.01 0.01 0.00 0.00 0.00 0.00 0.00 0.00 0.00 0.00 0.00 0.00 0.00 0.02 0.04 0.02 0.00 0.00 0.00 0.00 0.00 0.00 0.00 0.00 0.00 0.00 0.00 0.01 0.00 0.00 0.00 0.00 0.00 0.00 0.00 0.00 0.00 0.00 0.00
0.00 0.00 0.00 0.06 0.02 0.01 0.02 0.02 0.01 0.00 0.00 0.06 0.01 0.00 0.00 0.00 0.00 0.01 0.00 0.00 0.00 0.00 0.00 0.00 0.00 0.00 0.00 0.00 0.00 0.00 0.00 0.00 0.00 0.00 0.00 0.00 0.00 0.00 0.00 0.00 0.00 0.00 0.00 0.00 0.00 0.00 0.01 0.01 0.03
0.00 0.00 0.00 0.05 0.06 0.01 0.00 0.00 0.00 0.00 0.00 0.00 0.00 0.00 0.00 0.00 0.00 0.00 0.00 0.00 0.00 0.00 0.00 0.00 0.00 0.00 0.00 0.00 0.00 0.00 0.00 0.00 0.00 0.00 0.00 0.00 0.00 0.00 0.00 0.00 0.00 0.00 0.00 0.00 0.00 0.01 0.02 0.03 0.04
0.00 0.00 0.00 0.00 0.00 0.00 0.00 0.00 0.00 0.00 0.00 0.00 0.00 0.00 0.00 0.00 0.00 0.00 0.00 0.00 0.00 0.00 0.00 0.00 0.00 0.00 0.00 0.00 0.00 0.00 0.00 0.00 0.00 0.00 0.00 0.00 0.00 0.00 0.00 0.00 0.00 0.00 0.00 0.00 0.00 0.01 0.02 0.02 0.03
0.00 0.00 0.00 0.00 0.00 0.00 0.00 0.00 0.00 0.00 0.00 0.00 0.00 0.00 0.00 0.00 0.00 0.00 0.00 0.00 0.00 0.00 0.00 0.00 0.00 0.00 0.00 0.00 0.00 0.00 0.00 0.00 0.00 0.00 0.00 0.00 0.00 0.00 0.00 0.00 0.00 0.00 0.00 0.00 0.01 0.01 0.02 0.04 0.04
0.00 0.00 0.00 0.00 0.00 0.00 0.00 0.00 0.00 0.00 0.00 0.00 0.00 0.00 0.00 0.00 0.00 0.00 0.00 0.00 0.00 0.00 0.00 0.00 0.00 0.00 0.00 0.00 0.00 0.00 0.00 0.00 0.00 0.00 0.00 0.00 0.00 0.00 0.00 0.00 0.00 0.00 0.00 0.00 0.02 0.04 0.04 0.02 0.01
0.00 0.00 0.00 0.00 0.00 0.00 0.00 0.00 0.00 0.00 0.00 0.00 0.00 0.00 0.00 0.00 0.00 0.00 0.00 0.00 0.00 0.00 0.00 0.00 0.00 0.00 0.00 0.00 0.00 0.00 0.00 0.00 0.00 0.00 0.00 0.00 0.00 0.00 0.00 0.00 0.00 0.00 0.01 0.02 0.03 0.01 0.00 0.00 0.00

GFSSGP_prec_precacc24_039.txt.gz
Total_Precipitation_Accumulation
0.00 0.00 0.00 0.00 0.00 0.00 0.00 0.00 0.01 0.02 0.04 0.03 0.05 0.06 0.06 0.05 0.11 0.21 0.12 0.06 0.12 0.05 0.00 0.07 0.22 0.03 0.00 0.00 0.00 0.00 0.00 0.00 0.00 0.00 0.00 0.00 0.00 0.00 0.00 0.00 0.00 0.00 0.00 0.00 0.00 0.00 0.00 0.00 0.00
0.00 0.00 0.00 0.00 0.00 0.00 0.00 0.02 0.01 0.06 0.17 0.18 0.15 0.13 0.08 0.16 0.07 0.10 0.26 0.22 0.16 0.02 0.00 0.03 0.12 0.05 0.00 0.00 0.00 0.00 0.00 0.00 0.00 0.00 0.00 0.00 0.00 0.00 0.00 0.00 0.00 0.00 0.00 0.00 0.00 0.00 0.00 0.00 0.00
0.00 0.00 0.00 0.00 0.00 0.00 0.00 0.01 0.01 0.01 0.01 0.05 0.08 0.04 0.14 0.15 0.25 0.38 0.33 0.17 0.19 0.10 0.01 0.01 0.05 0.11 0.05 0.01 0.00 0.00 0.00 0.00 0.00 0.00 0.00 0.00 0.00 0.00 0.00 0.00 0.00 0.00 0.00 0.00 0.00 0.00 0.00 0.00 0.00
0.00 0.00 0.00 0.00 0.00 0.00 0.00 0.01 0.02 0.06 0.05 0.03 0.07 0.06 0.14 0.15 0.35 0.38 0.44 0.42 0.38 0.18 0.07 0.03 0.12 0.24 0.06 0.00 0.00 0.00 0.00 0.00 0.00 0.00 0.00 0.00 0.00 0.00 0.00 0.00 0.00 0.00 0.00 0.00 0.00 0.00 0.00 0.00 0.00
0.00 0.00 0.00 0.00 0.00 0.00 0.00 0.03 0.05 0.07 0.10 0.02 0.01 0.06 0.11 0.06 0.14 0.37 0.70 1.02 1.14 0.70 0.37 0.09 0.41 0.43 0.10 0.00 0.00 0.00 0.00 0.00 0.00 0.00 0.00 0.00 0.00 0.00 0.00 0.00 0.00 0.00 0.00 0.00 0.00 0.00 0.00 0.00 0.00
0.00 0.00 0.00 0.00 0.00 0.00 0.00 0.04 0.10 0.20 0.05 0.00 0.00 0.01 0.08 0.10 0.14 0.32 1.16 1.32 1.32 1.18 0.96 0.58 0.62 0.42 0.03 0.00 0.00 0.00 0.00 0.00 0.00 0.00 0.00 0.00 0.00 0.00 0.00 0.00 0.00 0.00 0.00 0.00 0.00 0.00 0.00 0.00 0.00
0.00 0.00 0.00 0.00 0.00 0.01 0.03 0.10 0.14 0.10 0.02 0.00 0.00 0.06 0.14 0.11 0.21 0.70 1.09 2.61 2.87 2.45 1.43 1.20 0.47 0.15 0.01 0.00 0.00 0.00 0.00 0.00 0.00 0.00 0.00 0.00 0.00 0.00 0.00 0.00 0.00 0.00 0.00 0.00 0.00 0.00 0.00 0.00 0.00
0.00 0.00 0.00 0.00 0.01 0.04 0.07 0.18 0.25 0.09 0.04 0.04 0.01 0.08 0.09 0.09 0.19 0.27 0.43 1.16 3.10 2.61 1.38 1.16 0.47 0.03 0.00 0.00 0.00 0.00 0.00 0.00 0.00 0.00 0.00 0.00 0.00 0.00 0.00 0.00 0.00 0.00 0.00 0.00 0.00 0.00 0.00 0.00 0.00
0.00 0.00 0.00 0.00 0.04 0.12 0.13 0.12 0.05 0.01 0.00 0.03 0.09 0.15 0.22 0.09 0.08 0.14 0.76 0.61 0.84 1.32 1.43 0.91 0.22 0.00 0.00 0.00 0.00 0.00 0.00 0.00 0.00 0.00 0.00 0.00 0.00 0.00 0.00 0.00 0.00 0.00 0.00 0.00 0.00 0.00 0.00 0.00 0.00
0.00 0.00 0.00 0.00 0.02 0.28 0.21 0.26 0.23 0.04 0.01 0.02 0.09 0.41 0.31 0.07 0.09 0.17 0.52 0.55 1.17 1.26 0.69 0.25 0.12 0.00 0.00 0.00 0.00 0.00 0.00 0.00 0.00 0.00 0.00 0.02 0.01 0.00 0.00 0.00 0.00 0.00 0.00 0.00 0.00 0.00 0.00 0.00 0.00
0.00 0.00 0.00 0.00 0.00 0.05 0.09 0.01 0.01 0.04 0.01 0.01 0.16 0.17 0.03 0.04 0.04 0.13 0.26 0.48 0.80 0.47 0.22 0.06 0.02 0.00 0.00 0.00 0.00 0.00 0.00 0.00 0.00 0.02 0.03 0.03 0.00 0.01 0.02 0.00 0.00 0.00 0.00 0.00 0.00 0.00 0.00 0.00 0.00
0.00 0.00 0.00 0.00 0.01 0.00 0.00 0.00 0.00 0.02 0.10 0.02 0.04 0.11 0.02 0.03 0.11 0.23 0.29 0.29 0.14 0.04 0.05 0.01 0.00 0.00 0.00 0.00 0.00 0.00 0.01 0.04 0.06 0.07 0.03 0.01 0.02 0.04 0.00 0.00 0.00 0.00 0.00 0.00 0.00 0.00 0.00 0.00 0.00
0.00 0.00 0.00 0.00 0.02 0.01 0.00 0.00 0.01 0.03 0.01 0.12 0.12 0.06 0.02 0.03 0.09 0.12 0.09 0.08 0.00 0.00 0.00 0.00 0.00 0.00 0.00 0.00 0.00 0.01 0.08 0.07 0.09 0.08 0.03 0.00 0.00 0.00 0.00 0.00 0.00 0.00 0.00 0.00 0.00 0.00 0.00 0.00 0.00
0.00 0.00 0.00 0.01 0.00 0.01 0.01 0.01 0.06 0.06 0.06 0.17 0.11 0.06 0.06 0.01 0.04 0.05 0.02 0.00 0.00 0.00 0.00 0.02 0.02 0.01 0.00 0.01 0.06 0.12 0.17 0.14 0.15 0.25 0.14 0.03 0.01 0.00 0.00 0.00 0.00 0.00 0.00 0.00 0.00 0.00 0.00 0.00 0.00
0.00 0.00 0.00 0.00 0.00 0.00 0.02 0.02 0.03 0.03 0.06 0.05 0.03 0.01 0.01 0.02 0.05 0.00 0.00 0.00 0.00 0.00 0.01 0.02 0.15 0.04 0.01 0.03 0.07 0.13 0.04 0.05 0.14 0.18 0.10 0.01 0.00 0.00 0.00 0.00 0.00 0.00 0.00 0.00 0.00 0.00 0.00 0.00 0.00
0.00 0.00 0.00 0.00 0.00 0.00 0.00 0.01 0.00 0.04 0.02 0.00 0.00 0.00 0.00 0.01 0.01 0.00 0.00 0.00 0.00 0.00 0.04 0.17 0.39 0.30 0.10 0.06 0.13 0.13 0.14 0.09 0.12 0.13 0.05 0.01 0.01 0.00 0.00 0.00 0.00 0.00 0.00 0.00 0.00 0.00 0.00 0.00 0.00
0.00 0.00 0.00 0.00 0.00 0.00 0.01 0.01 0.00 0.02 0.00 0.00 0.00 0.00 0.00 0.00 0.00 0.00 0.00 0.00 0.02 0.03 0.14 0.41 0.47 0.52 0.53 0.55 0.52 0.26 0.09 0.05 0.04 0.03 0.02 0.01 0.01 0.00 0.00 0.00 0.00 0.00 0.00 0.00 0.00 0.00 0.00 0.00 0.00
0.00 0.00 0.00 0.00 0.00 0.00 0.00 0.00 0.00 0.00 0.00 0.01 0.00 0.00 0.00 0.00 0.00 0.00 0.02 0.04 0.06 0.08 0.31 0.52 0.54 0.85 1.14 0.67 0.22 0.08 0.05 0.02 0.01 0.02 0.02 0.01 0.00 0.00 0.00 0.00 0.00 0.00 0.00 0.00 0.00 0.00 0.00 0.00 0.00
0.00 0.00 0.00 0.00 0.00 0.00 0.00 0.00 0.00 0.00 0.00 0.00 0.00 0.00 0.01 0.00 0.00 0.02 0.04 0.05 0.06 0.17 0.41 0.60 0.84 0.86 0.32 0.10 0.07 0.04 0.02 0.02 0.03 0.02 0.00 0.00 0.00 0.00 0.00 0.00 0.00 0.00 0.00 0.00 0.00 0.00 0.00 0.00 0.00
0.00 0.00 0.00 0.00 0.00 0.00 0.00 0.00 0.00 0.00 0.00 0.00 0.00 0.00 0.00 0.00 0.00 0.01 0.03 0.08 0.27 0.42 0.41 0.28 0.12 0.10 0.02 0.01 0.02 0.03 0.02 0.01 0.00 0.00 0.00 0.00 0.00 0.00 0.00 0.00 0.00 0.00 0.00 0.00 0.00 0.00 0.00 0.00 0.00
0.00 0.00 0.00 0.00 0.00 0.00 0.00 0.00 0.00 0.00 0.00 0.00 0.00 0.00 0.00 0.00 0.01 0.04 0.08 0.12 0.10 0.05 0.02 0.04 0.05 0.08 0.01 0.01 0.01 0.00 0.00 0.00 0.00 0.00 0.00 0.00 0.00 0.00 0.00 0.00 0.00 0.00 0.00 0.00 0.00 0.00 0.00 0.00 0.00
0.00 0.00 0.00 0.00 0.00 0.00 0.00 0.00 0.01 0.00 0.00 0.00 0.00 0.00 0.00 0.02 0.02 0.02 0.00 0.00 0.01 0.02 0.03 0.04 0.06 0.05 0.01 0.00 0.00 0.00 0.00 0.00 0.00 0.00 0.00 0.00 0.00 0.00 0.00 0.00 0.00 0.00 0.00 0.00 0.00 0.00 0.00 0.00 0.00
0.00 0.00 0.00 0.00 0.00 0.02 0.00 0.00 0.01 0.01 0.00 0.00 0.00 0.00 0.00 0.00 0.00 0.00 0.00 0.00 0.00 0.02 0.04 0.03 0.03 0.07 0.03 0.00 0.00 0.00 0.00 0.00 0.00 0.00 0.00 0.00 0.00 0.00 0.00 0.00 0.00 0.00 0.00 0.00 0.00 0.00 0.00 0.00 0.00
0.00 0.00 0.00 0.00 0.00 0.01 0.01 0.00 0.00 0.00 0.01 0.02 0.00 0.00 0.00 0.00 0.00 0.00 0.00 0.00 0.00 0.02 0.01 0.02 0.06 0.05 0.00 0.00 0.00 0.00 0.00 0.00 0.00 0.00 0.00 0.00 0.00 0.01 0.00 0.00 0.00 0.00 0.00 0.00 0.00 0.00 0.00 0.00 0.00
0.00 0.00 0.00 0.06 0.01 0.00 0.00 0.01 0.00 0.00 0.01 0.08 0.04 0.00 0.00 0.00 0.00 0.01 0.00 0.01 0.00 0.00 0.00 0.00 0.00 0.00 0.00 0.00 0.00 0.00 0.00 0.00 0.00 0.00 0.00 0.00 0.00 0.00 0.00 0.00 0.00 0.00 0.00 0.00 0.00 0.00 0.01 0.01 0.03
0.00 0.00 0.00 0.05 0.06 0.01 0.01 0.01 0.00 0.00 0.00 0.00 0.01 0.00 0.00 0.00 0.00 0.00 0.00 0.00 0.00 0.00 0.00 0.00 0.00 0.00 0.00 0.00 0.00 0.00 0.00 0.00 0.00 0.00 0.00 0.00 0.00 0.00 0.00 0.00 0.00 0.00 0.00 0.00 0.00 0.01 0.02 0.03 0.04
0.00 0.00 0.00 0.00 0.01 0.00 0.00 0.00 0.00 0.00 0.00 0.00 0.00 0.00 0.00 0.00 0.00 0.00 0.00 0.00 0.00 0.00 0.00 0.00 0.00 0.00 0.00 0.00 0.00 0.00 0.00 0.00 0.00 0.00 0.00 0.00 0.00 0.00 0.00 0.00 0.00 0.00 0.00 0.00 0.00 0.01 0.02 0.02 0.03
0.00 0.00 0.00 0.00 0.00 0.00 0.00 0.00 0.00 0.01 0.01 0.00 0.00 0.00 0.00 0.00 0.00 0.00 0.00 0.00 0.00 0.00 0.00 0.00 0.00 0.00 0.00 0.00 0.00 0.00 0.00 0.00 0.00 0.00 0.00 0.00 0.00 0.00 0.00 0.00 0.00 0.00 0.00 0.00 0.01 0.01 0.02 0.04 0.04
0.00 0.00 0.00 0.00 0.00 0.00 0.00 0.00 0.00 0.00 0.00 0.00 0.00 0.00 0.00 0.00 0.00 0.00 0.00 0.00 0.00 0.00 0.00 0.00 0.00 0.00 0.00 0.00 0.00 0.00 0.00 0.00 0.00 0.00 0.00 0.00 0.00 0.00 0.00 0.00 0.00 0.00 0.00 0.00 0.02 0.04 0.03 0.02 0.01
0.00 0.01 0.01 0.00 0.00 0.00 0.00 0.00 0.00 0.00 0.00 0.00 0.00 0.00 0.00 0.00 0.00 0.00 0.00 0.00 0.00 0.00 0.00 0.00 0.00 0.00 0.00 0.00 0.00 0.00 0.00 0.00 0.00 0.00 0.00 0.00 0.00 0.00 0.00 0.00 0.00 0.00 0.01 0.02 0.03 0.01 0.00 0.00 0.00

GFSSGP_prec_precacc24_042.txt.gz
Total_Precipitation_Accumulation
0.00 0.00 0.00 0.00 0.00 0.00 0.00 0.00 0.00 0.02 0.04 0.03 0.05 0.06 0.06 0.06 0.11 0.21 0.11 0.06 0.12 0.06 0.01 0.07 0.22 0.03 0.00 0.00 0.00 0.00 0.00 0.00 0.00 0.00 0.00 0.00 0.00 0.00 0.00 0.00 0.00 0.00 0.00 0.00 0.00 0.00 0.00 0.00 0.00
0.00 0.00 0.00 0.00 0.00 0.00 0.00 0.02 0.01 0.06 0.17 0.18 0.15 0.14 0.08 0.16 0.07 0.10 0.26 0.24 0.16 0.03 0.01 0.03 0.12 0.05 0.00 0.00 0.00 0.00 0.00 0.00 0.00 0.00 0.00 0.00 0.00 0.00 0.00 0.00 0.00 0.00 0.00 0.00 0.00 0.00 0.00 0.00 0.00
0.00 0.00 0.00 0.00 0.00 0.00 0.00 0.02 0.01 0.01 0.01 0.05 0.09 0.04 0.14 0.16 0.25 0.38 0.34 0.24 0.21 0.10 0.01 0.01 0.05 0.11 0.05 0.01 0.00 0.00 0.00 0.00 0.00 0.00 0.00 0.00 0.00 0.00 0.00 0.00 0.00 0.00 0.00 0.00 0.00 0.00 0.00 0.00 0.00
0.00 0.00 0.00 0.00 0.00 0.00 0.00 0.02 0.02 0.06 0.05 0.03 0.07 0.06 0.14 0.15 0.36 0.39 0.45 0.46 0.40 0.19 0.08 0.04 0.14 0.26 0.06 0.00 0.00 0.00 0.00 0.00 0.00 0.00 0.00 0.00 0.00 0.00 0.00 0.00 0.00 0.00 0.00 0.00 0.00 0.00 0.00 0.00 0.00
0.00 0.00 0.00 0.00 0.00 0.00 0.01 0.06 0.11 0.09 0.10 0.02 0.01 0.06 0.11 0.06 0.19 0.41 0.76 1.07 1.25 0.86 0.46 0.24 0.58 0.51 0.10 0.00 0.00 0.00 0.00 0.00 0.00 0.00 0.00 0.00 0.00 0.00 0.00 0.00 0.00 0.00 0.00 0.00 0.00 0.00 0.00 0.00 0.00
0.00 0.00 0.00 0.00 0.00 0.00 0.01 0.09 0.20 0.29 0.06 0.03 0.01 0.01 0.08 0.11 0.21 0.54 1.41 1.61 1.61 1.84 1.60 0.94 0.91 0.61 0.05 0.00 0.00 0.00 0.00 0.00 0.00 0.00 0.00 0.00 0.00 0.00 0.00 0.00 0.00 0.00 0.00 0.00 0.00 0.00 0.00 0.00 0.00
0.00 0.00 0.00 0.00 0.00 0.01 0.04 0.12 0.18 0.18 0.04 0.01 0.01 0.06 0.14 0.12 0.23 0.76 1.43 3.34 3.69 2.96 2.17 1.74 0.65 0.23 0.02 0.00 0.00 0.00 0.00 0.00 0.00 0.00 0.00 0.00 0.00 0.00 0.00 0.00 0.00 0.00 0.00 0.00 0.00 0.00 0.00 0.00 0.00
0.00 0.00 0.00 0.00 0.01 0.03 0.08 0.21 0.25 0.12 0.07 0.06 0.07 0.09 0.09 0.10 0.20 0.30 0.54 1.61 4.79 4.45 2.12 1.46 0.71 0.13 0.01 0.00 0.00 0.00 0.00 0.00 0.00 0.00 0.00 0.00 0.00 0.00 0.00 0.00 0.00 0.00 0.00 0.00 0.00 0.00 0.00 0.00 0.00
0.00 0.00 0.00 0.00 0.04 0.12 0.13 0.12 0.05 0.01 0.00 0.03 0.11 0.16 0.26 0.13 0.08 0.15 0.78 0.71 1.40 2.05 1.85 1.18 0.41 0.03 0.00 0.00 0.00 0.00 0.00 0.00 0.00 0.00 0.00 0.00 0.00 0.00 0.00 0.00 0.00 0.00 0.00 0.00 0.00 0.00 0.00 0.00 0.00
0.00 0.00 0.00 0.00 0.02 0.28 0.21 0.26 0.23 0.04 0.01 0.04 0.10 0.42 0.33 0.10 0.11 0.17 0.53 0.61 1.40 1.63 0.94 0.43 0.16 0.00 0.00 0.00 0.00 0.00 0.00 0.00 0.00 0.00 0.00 0.02 0.01 0.00 0.00 0.00 0.00 0.00 0.00 0.00 0.00 0.00 0.00 0.00 0.00
0.00 0.00 0.00 0.00 0.00 0.05 0.09 0.01 0.01 0.04 0.01 0.02 0.16 0.18 0.04 0.05 0.04 0.13 0.29 0.57 0.99 0.63 0.35 0.13 0.03 0.00 0.00 0.00 0.00 0.00 0.00 0.00 0.00 0.02 0.03 0.03 0.00 0.01 0.02 0.00 0.00 0.00 0.00 0.00 0.00 0.00 0.00 0.00 0.00
0.00 0.00 0.00 0.00 0.01 0.00 0.00 0.00 0.00 0.02 0.11 0.02 0.04 0.13 0.02 0.05 0.14 0.23 0.29 0.29 0.15 0.08 0.09 0.05 0.00 0.00 0.00 0.00 0.00 0.00 0.01 0.04 0.06 0.07 0.03 0.01 0.02 0.04 0.00 0.00 0.00 0.00 0.00 0.00 0.00 0.00 0.00 0.00 0.00
0.00 0.00 0.00 0.00 0.02 0.02 0.01 0.01 0.01 0.05 0.06 0.13 0.13 0.15 0.08 0.08 0.14 0.12 0.09 0.08 0.00 0.01 0.01 0.01 0.00 0.00 0.00 0.00 0.00 0.01 0.08 0.07 0.09 0.08 0.03 0.00 0.00 0.00 0.00 0.00 0.00 0.00 0.00 0.00 0.00 0.00 0.00 0.00 0.00
0.00 0.00 0.00 0.02 0.01 0.01 0.01 0.01 0.06 0.09 0.10 0.18 0.11 0.07 0.09 0.05 0.04 0.06 0.03 0.00 0.00 0.00 0.00 0.01 0.01 0.00 0.00 0.01 0.06 0.12 0.17 0.14 0.15 0.25 0.14 0.04 0.02 0.01 0.00 0.00 0.00 0.00 0.00 0.00 0.00 0.00 0.00 0.00 0.00
0.00 0.00 0.01 0.01 0.01 0.01 0.02 0.02 0.03 0.03 0.08 0.05 0.03 0.03 0.05 0.05 0.05 0.02 0.01 0.00 0.00 0.00 0.00 0.02 0.13 0.04 0.01 0.03 0.07 0.13 0.04 0.05 0.14 0.18 0.10 0.01 0.00 0.00 0.00 0.00 0.00 0.00 0.00 0.00 0.00 0.00 0.00 0.00 0.00
0.00 0.00 0.01 0.01 0.00 0.00 0.00 0.01 0.00 0.04 0.03 0.01 0.01 0.02 0.02 0.06 0.02 0.00 0.00 0.00 0.00 0.00 0.04 0.15 0.35 0.23 0.08 0.05 0.12 0.13 0.14 0.09 0.12 0.13 0.05 0.01 0.01 0.00 0.00 0.00 0.00 0.00 0.00 0.00 0.00 0.00 0.00 0.00 0.00
0.00 0.00 0.00 0.00 0.00 0.00 0.01 0.01 0.00 0.02 0.01 0.01 0.00 0.01 0.01 0.01 0.01 0.00 0.00 0.00 0.02 0.03 0.13 0.31 0.38 0.45 0.50 0.54 0.52 0.26 0.09 0.05 0.04 0.03 0.02 0.01 0.01 0.00 0.00 0.00 0.00 0.00 0.00 0.00 0.00 0.00 0.00 0.00 0.00
0.00 0.00 0.00 0.00 0.00 0.00 0.00 0.00 0.00 0.00 0.00 0.01 0.00 0.00 0.00 0.00 0.00 0.00 0.02 0.04 0.06 0.07 0.25 0.43 0.46 0.77 1.14 0.67 0.22 0.07 0.05 0.02 0.01 0.02 0.02 0.01 0.00 0.00 0.00 0.00 0.00 0.00 0.00 0.00 0.00 0.00 0.00 0.00 0.00
0.00 0.00 0.00 0.00 0.00 0.00 0.00 0.00 0.00 0.00 0.00 0.01 0.00 0.00 0.01 0.00 0.00 0.02 0.04 0.05 0.06 0.16 0.38 0.53 0.74 0.84 0.32 0.10 0.07 0.04 0.02 0.02 0.03 0.02 0.00 0.00 0.00 0.00 0.00 0.00 0.00 0.00 0.00 0.00 0.00 0.00 0.00 0.00 0.00
0.00 0.00 0.00 0.00 0.00 0.00 0.00 0.00 0.00 0.00 0.00 0.00 0.00 0.00 0.00 0.00 0.00 0.01 0.02 0.05 0.20 0.39 0.34 0.22 0.11 0.11 0.02 0.01 0.02 0.02 0.02 0.01 0.00 0.00 0.00 0.00 0.00 0.00 0.00 0.00 0.00 0.00 0.00 0.00 0.00 0.00 0.00 0.00 0.00
0.00 0.00 0.00 0.00 0.00 0.00 0.00 0.00 0.00 0.00 0.00 0.00 0.00 0.00 0.00 0.00 0.01 0.03 0.05 0.09 0.08 0.04 0.01 0.05 0.07 0.13 0.04 0.01 0.01 0.00 0.00 0.00 0.00 0.00 0.00 0.00 0.00 0.00 0.00 0.00 0.00 0.00 0.00 0.00 0.00 0.00 0.00 0.00 0.00
0.00 0.00 0.00 0.00 0.00 0.00 0.00 0.00 0.01 0.00 0.00 0.00 0.00 0.00 0.01 0.02 0.03 0.02 0.00 0.00 0.01 0.02 0.03 0.06 0.10 0.14 0.04 0.01 0.00 0.00 0.00 0.00 0.00 0.00 0.00 0.00 0.00 0.00 0.00 0.00 0.00 0.00 0.00 0.00 0.00 0.00 0.00 0.00 0.00
0.00 0.00 0.00 0.00 0.00 0.02 0.00 0.00 0.01 0.01 0.00 0.00 0.00 0.00 0.00 0.00 0.00 0.00 0.01 0.00 0.00 0.03 0.07 0.08 0.06 0.09 0.05 0.00 0.00 0.00 0.00 0.00 0.00 0.00 0.00 0.00 0.00 0.00 0.00 0.00 0.00 0.00 0.00 0.00 0.00 0.00 0.00 0.00 0.00
0.00 0.00 0.00 0.00 0.00 0.01 0.01 0.00 0.00 0.00 0.01 0.02 0.00 0.00 0.00 0.00 0.00 0.01 0.00 0.00 0.00 0.04 0.06 0.06 0.07 0.05 0.01 0.00 0.00 0.00 0.00 0.00 0.00 0.00 0.00 0.00 0.00 0.01 0.00 0.00 0.00 0.00 0.00 0.00 0.00 0.00 0.00 0.00 0.00
0.00 0.00 0.00 0.06 0.01 0.00 0.00 0.01 0.00 0.00 0.01 0.08 0.04 0.00 0.00 0.00 0.00 0.01 0.01 0.01 0.00 0.01 0.04 0.03 0.01 0.00 0.00 0.00 0.00 0.00 0.00 0.00 0.00 0.00 0.00 0.00 0.00 0.00 0.00 0.00 0.00 0.00 0.00 0.00 0.00 0.00 0.01 0.01 0.03
0.00 0.00 0.00 0.05 0.06 0.01 0.01 0.01 0.00 0.00 0.00 0.00 0.01 0.00 0.00 0.00 0.00 0.00 0.00 0.02 0.01 0.02 0.05 0.01 0.01 0.00 0.00 0.00 0.00 0.00 0.00 0.00 0.00 0.00 0.00 0.00 0.00 0.00 0.00 0.00 0.00 0.00 0.00 0.00 0.00 0.01 0.02 0.03 0.04
0.00 0.00 0.00 0.00 0.01 0.00 0.00 0.00 0.00 0.00 0.00 0.00 0.00 0.00 0.00 0.00 0.00 0.00 0.00 0.02 0.02 0.00 0.01 0.01 0.01 0.00 0.02 0.02 0.01 0.00 0.00 0.00 0.00 0.00 0.00 0.00 0.00 0.00 0.00 0.00 0.00 0.00 0.00 0.00 0.00 0.01 0.02 0.02 0.03
0.00 0.00 0.00 0.00 0.00 0.00 0.00 0.00 0.00 0.01 0.00 0.00 0.00 0.00 0.00 0.00 0.00 0.00 0.00 0.00 0.00 0.00 0.00 0.00 0.00 0.02 0.02 0.01 0.01 0.01 0.01 0.00 0.01 0.01 0.00 0.00 0.00 0.00 0.00 0.00 0.00 0.00 0.00 0.00 0.01 0.01 0.02 0.04 0.04
0.00 0.00 0.00 0.00 0.00 0.00 0.00 0.00 0.00 0.00 0.00 0.00 0.00 0.00 0.00 0.00 0.00 0.00 0.00 0.00 0.00 0.00 0.00 0.00 0.00 0.01 0.00 0.00 0.00 0.01 0.01 0.00 0.00 0.00 0.00 0.00 0.00 0.00 0.00 0.00 0.00 0.00 0.00 0.00 0.02 0.04 0.03 0.02 0.01
0.00 0.01 0.02 0.00 0.00 0.00 0.00 0.00 0.00 0.00 0.00 0.00 0.00 0.00 0.00 0.00 0.00 0.00 0.00 0.00 0.00 0.00 0.00 0.00 0.00 0.00 0.00 0.00 0.00 0.00 0.00 0.00 0.00 0.00 0.00 0.00 0.00 0.00 0.00 0.00 0.00 0.00 0.01 0.02 0.03 0.01 0.00 0.00 0.00

GFSSGP_prec_precacc24_045.txt.gz
Total_Precipitation_Accumulation
0.00 0.00 0.00 0.00 0.00 0.00 0.00 0.00 0.00 0.02 0.04 0.02 0.05 0.05 0.06 0.05 0.09 0.20 0.10 0.06 0.12 0.07 0.03 0.08 0.22 0.03 0.00 0.00 0.00 0.00 0.00 0.00 0.00 0.00 0.00 0.00 0.00 0.00 0.00 0.00 0.00 0.00 0.00 0.00 0.00 0.00 0.00 0.00 0.00
0.00 0.00 0.00 0.00 0.00 0.00 0.00 0.02 0.01 0.06 0.17 0.19 0.16 0.12 0.08 0.16 0.07 0.10 0.25 0.24 0.17 0.04 0.02 0.04 0.12 0.05 0.00 0.00 0.00 0.00 0.00 0.00 0.00 0.00 0.00 0.00 0.00 0.00 0.00 0.00 0.00 0.00 0.00 0.00 0.00 0.00 0.00 0.00 0.00
0.00 0.00 0.00 0.00 0.00 0.00 0.00 0.02 0.02 0.02 0.06 0.10 0.10 0.04 0.15 0.17 0.27 0.40 0.38 0.26 0.22 0.11 0.02 0.04 0.07 0.11 0.05 0.01 0.00 0.00 0.00 0.00 0.00 0.00 0.00 0.00 0.00 0.00 0.00 0.00 0.00 0.00 0.00 0.00 0.00 0.00 0.00 0.00 0.00
0.00 0.00 0.00 0.00 0.00 0.00 0.00 0.02 0.03 0.12 0.11 0.07 0.08 0.07 0.15 0.18 0.39 0.42 0.46 0.47 0.42 0.22 0.11 0.13 0.22 0.27 0.06 0.00 0.00 0.00 0.00 0.00 0.00 0.00 0.00 0.00 0.00 0.00 0.00 0.00 0.00 0.00 0.00 0.00 0.00 0.00 0.00 0.00 0.00
0.00 0.00 0.00 0.00 0.00 0.00 0.01 0.06 0.16 0.17 0.16 0.07 0.01 0.06 0.12 0.11 0.22 0.43 0.88 1.19 1.29 0.93 0.58 0.45 0.82 0.64 0.10 0.00 0.00 0.00 0.00 0.00 0.00 0.00 0.00 0.00 0.00 0.00 0.00 0.00 0.00 0.00 0.00 0.00 0.00 0.00 0.00 0.00 0.00
0.00 0.00 0.00 0.00 0.00 0.00 0.01 0.11 0.29 0.35 0.12 0.09 0.04 0.01 0.10 0.18 0.23 0.56 1.51 1.74 1.89 2.07 1.80 1.22 1.27 0.82 0.07 0.00 0.00 0.00 0.00 0.00 0.00 0.00 0.00 0.00 0.00 0.00 0.00 0.00 0.00 0.00 0.00 0.00 0.00 0.00 0.00 0.00 0.00
0.00 0.00 0.00 0.00 0.00 0.01 0.04 0.13 0.20 0.18 0.05 0.01 0.02 0.06 0.15 0.18 0.27 0.79 1.50 3.61 4.49 3.56 2.70 2.43 1.08 0.38 0.04 0.00 0.00 0.00 0.00 0.00 0.00 0.00 0.00 0.00 0.00 0.00 0.00 0.00 0.00 0.00 0.00 0.00 0.00 0.00 0.00 0.00 0.00
0.00 0.00 0.00 0.00 0.01 0.03 0.08 0.21 0.26 0.13 0.08 0.06 0.07 0.11 0.10 0.15 0.28 0.34 0.61 1.79 5.34 5.23 3.04 2.28 1.01 0.19 0.03 0.00 0.00 0.00 0.00 0.00 0.00 0.00 0.00 0.00 0.00 0.00 0.00 0.00 0.00 0.00 0.00 0.00 0.00 0.00 0.00 0.00 0.00
0.00 0.00 0.00 0.00 0.04 0.11 0.13 0.12 0.05 0.01 0.00 0.04 0.14 0.17 0.26 0.15 0.09 0.15 0.80 0.78 1.70 2.63 2.25 1.43 0.49 0.05 0.01 0.00 0.00 0.00 0.00 0.00 0.00 0.00 0.00 0.00 0.00 0.00 0.00 0.00 0.00 0.00 0.00 0.00 0.00 0.00 0.00 0.00 0.00
0.00 0.00 0.00 0.00 0.02 0.28 0.21 0.26 0.23 0.04 0.02 0.05 0.12 0.43 0.34 0.10 0.11 0.18 0.53 0.66 1.51 1.87 1.20 0.59 0.23 0.02 0.00 0.00 0.00 0.00 0.00 0.00 0.00 0.00 0.00 0.02 0.01 0.00 0.00 0.00 0.00 0.00 0.00 0.00 0.00 0.00 0.00 0.00 0.00
0.00 0.00 0.00 0.00 0.00 0.05 0.09 0.01 0.01 0.04 0.01 0.02 0.16 0.18 0.04 0.06 0.04 0.14 0.30 0.61 1.02 0.72 0.56 0.27 0.06 0.00 0.00 0.00 0.00 0.00 0.00 0.00 0.00 0.02 0.03 0.03 0.00 0.01 0.02 0.00 0.00 0.00 0.00 0.00 0.00 0.00 0.00 0.00 0.00
0.00 0.00 0.00 0.00 0.01 0.00 0.00 0.00 0.00 0.02 0.11 0.03 0.04 0.13 0.02 0.05 0.14 0.23 0.29 0.30 0.17 0.11 0.16 0.10 0.00 0.00 0.00 0.00 0.00 0.00 0.01 0.04 0.06 0.07 0.03 0.01 0.02 0.04 0.00 0.00 0.00 0.00 0.00 0.00 0.00 0.00 0.00 0.00 0.00
0.00 0.00 0.00 0.00 0.02 0.02 0.01 0.01 0.01 0.06 0.07 0.13 0.14 0.15 0.08 0.09 0.15 0.12 0.09 0.08 0.00 0.01 0.02 0.04 0.00 0.00 0.00 0.00 0.00 0.01 0.08 0.07 0.09 0.08 0.03 0.00 0.00 0.00 0.00 0.00 0.00 0.00 0.00 0.00 0.00 0.00 0.00 0.00 0.00
0.00 0.00 0.00 0.02 0.01 0.01 0.01 0.01 0.06 0.13 0.14 0.19 0.12 0.07 0.09 0.07 0.09 0.07 0.03 0.00 0.00 0.00 0.00 0.01 0.00 0.00 0.00 0.01 0.06 0.12 0.17 0.14 0.15 0.26 0.14 0.04 0.02 0.01 0.00 0.00 0.00 0.00 0.00 0.00 0.00 0.00 0.00 0.00 0.00
0.00 0.00 0.01 0.01 0.01 0.01 0.02 0.02 0.03 0.04 0.16 0.12 0.04 0.03 0.05 0.05 0.08 0.04 0.01 0.00 0.00 0.00 0.00 0.02 0.12 0.02 0.01 0.03 0.07 0.13 0.04 0.05 0.15 0.18 0.10 0.01 0.00 0.00 0.00 0.00 0.00 0.00 0.00 0.00 0.00 0.00 0.00 0.00 0.00
0.00 0.00 0.01 0.01 0.01 0.00 0.00 0.01 0.00 0.04 0.03 0.02 0.01 0.02 0.02 0.06 0.03 0.00 0.00 0.00 0.00 0.00 0.02 0.07 0.24 0.15 0.07 0.05 0.12 0.13 0.16 0.10 0.13 0.13 0.05 0.01 0.01 0.00 0.00 0.00 0.00 0.00 0.00 0.00 0.00 0.00 0.00 0.00 0.00
0.00 0.00 0.00 0.00 0.00 0.00 0.01 0.01 0.00 0.02 0.01 0.01 0.00 0.01 0.01 0.01 0.01 0.00 0.00 0.00 0.02 0.03 0.05 0.14 0.19 0.33 0.45 0.53 0.51 0.26 0.09 0.05 0.05 0.03 0.02 0.01 0.01 0.00 0.00 0.00 0.00 0.00 0.00 0.00 0.00 0.00 0.00 0.00 0.00
0.00 0.00 0.00 0.00 0.00 0.00 0.00 0.00 0.00 0.00 0.00 0.01 0.00 0.00 0.00 0.00 0.00 0.00 0.01 0.03 0.05 0.06 0.07 0.18 0.24 0.64 1.11 0.66 0.21 0.08 0.08 0.03 0.01 0.02 0.02 0.01 0.00 0.00 0.00 0.00 0.00 0.00 0.00 0.00 0.00 0.00 0.00 0.00 0.00
0.00 0.00 0.00 0.00 0.00 0.00 0.00 0.00 0.00 0.00 0.00 0.01 0.00 0.00 0.01 0.00 0.00 0.02 0.03 0.04 0.06 0.07 0.19 0.32 0.59 0.77 0.31 0.09 0.07 0.04 0.02 0.01 0.02 0.02 0.00 0.00 0.00 0.00 0.00 0.00 0.00 0.00 0.00 0.00 0.00 0.00 0.00 0.00 0.00
0.00 0.00 0.00 0.00 0.00 0.00 0.00 0.00 0.00 0.00 0.00 0.00 0.00 0.00 0.00 0.00 0.00 0.01 0.01 0.04 0.14 0.25 0.24 0.18 0.10 0.11 0.02 0.02 0.03 0.01 0.01 0.00 0.00 0.00 0.00 0.00 0.00 0.00 0.00 0.00 0.00 0.00 0.00 0.00 0.00 0.00 0.00 0.00 0.00
0.00 0.00 0.00 0.00 0.00 0.00 0.00 0.00 0.00 0.00 0.00 0.00 0.00 0.00 0.00 0.00 0.00 0.01 0.02 0.06 0.06 0.03 0.01 0.06 0.08 0.13 0.04 0.01 0.01 0.00 0.00 0.00 0.00 0.00 0.00 0.00 0.00 0.00 0.00 0.00 0.00 0.00 0.00 0.00 0.00 0.00 0.00 0.00 0.00
0.00 0.00 0.00 0.00 0.00 0.00 0.00 0.00 0.01 0.00 0.00 0.00 0.00 0.00 0.00 0.01 0.01 0.01 0.00 0.00 0.01 0.02 0.03 0.06 0.11 0.14 0.04 0.01 0.00 0.00 0.01 0.03 0.01 0.00 0.00 0.00 0.00 0.00 0.00 0.00 0.00 0.00 0.00 0.00 0.00 0.00 0.00 0.00 0.00
0.00 0.00 0.00 0.00 0.00 0.02 0.00 0.00 0.01 0.01 0.00 0.00 0.00 0.00 0.00 0.00 0.00 0.00 0.01 0.00 0.00 0.04 0.07 0.08 0.09 0.14 0.08 0.01 0.05 0.06 0.04 0.01 0.00 0.00 0.00 0.00 0.00 0.00 0.00 0.00 0.00 0.00 0.00 0.00 0.00 0.00 0.00 0.00 0.00
0.00 0.00 0.00 0.00 0.00 0.01 0.01 0.00 0.00 0.00 0.01 0.02 0.00 0.00 0.00 0.00 0.01 0.02 0.02 0.01 0.01 0.05 0.07 0.09 0.12 0.13 0.03 0.02 0.02 0.06 0.03 0.01 0.01 0.00 0.00 0.00 0.00 0.00 0.00 0.00 0.00 0.00 0.00 0.00 0.00 0.00 0.00 0.00 0.00
0.00 0.00 0.00 0.06 0.01 0.00 0.00 0.01 0.00 0.00 0.01 0.08 0.04 0.00 0.00 0.00 0.01 0.02 0.02 0.01 0.02 0.04 0.08 0.07 0.06 0.06 0.02 0.01 0.01 0.02 0.02 0.01 0.01 0.00 0.00 0.00 0.00 0.00 0.00 0.00 0.00 0.00 0.00 0.00 0.00 0.00 0.01 0.01 0.03
0.00 0.00 0.00 0.05 0.06 0.01 0.01 0.01 0.00 0.00 0.00 0.00 0.01 0.00 0.00 0.00 0.00 0.01 0.01 0.02 0.02 0.05 0.14 0.11 0.09 0.06 0.02 0.01 0.01 0.02 0.01 0.00 0.00 0.00 0.00 0.00 0.00 0.00 0.00 0.00 0.01 0.01 0.00 0.00 0.00 0.01 0.02 0.03 0.04
0.00 0.00 0.00 0.00 0.01 0.00 0.00 0.00 0.00 0.00 0.00 0.00 0.00 0.00 0.00 0.00 0.00 0.00 0.00 0.02 0.02 0.02 0.10 0.13 0.09 0.07 0.05 0.04 0.04 0.06 0.06 0.03 0.01 0.01 0.01 0.01 0.00 0.01 0.02 0.02 0.01 0.00 0.00 0.00 0.00 0.01 0.02 0.02 0.03
0.00 0.00 0.00 0.00 0.00 0.00 0.00 0.00 0.00 0.01 0.00 0.00 0.00 0.00 0.00 0.00 0.00 0.00 0.00 0.00 0.01 0.01 0.03 0.03 0.03 0.05 0.05 0.03 0.03 0.03 0.04 0.02 0.02 0.02 0.02 0.00 0.01 0.02 0.02 0.01 0.01 0.00 0.00 0.00 0.01 0.01 0.02 0.04 0.04
0.00 0.00 0.00 0.00 0.00 0.00 0.00 0.00 0.00 0.00 0.00 0.00 0.00 0.00 0.00 0.00 0.00 0.00 0.00 0.00 0.00 0.00 0.00 0.00 0.01 0.02 0.01 0.01 0.03 0.03 0.03 0.02 0.02 0.02 0.01 0.00 0.00 0.00 0.01 0.02 0.00 0.00 0.00 0.00 0.02 0.04 0.03 0.02 0.01
0.00 0.01 0.02 0.00 0.00 0.00 0.00 0.00 0.00 0.00 0.00 0.00 0.00 0.00 0.00 0.00 0.00 0.00 0.00 0.00 0.00 0.00 0.00 0.00 0.01 0.02 0.02 0.02 0.03 0.03 0.01 0.00 0.00 0.00 0.00 0.00 0.01 0.00 0.00 0.00 0.00 0.00 0.01 0.02 0.03 0.01 0.00 0.00 0.00

GFSSGP_prec_precacc24_048.txt.gz
Total_Precipitation_Accumulation
0.00 0.00 0.00 0.00 0.00 0.00 0.00 0.00 0.00 0.02 0.04 0.03 0.04 0.03 0.04 0.08 0.09 0.20 0.10 0.06 0.12 0.07 0.04 0.08 0.22 0.03 0.00 0.00 0.00 0.00 0.00 0.00 0.00 0.00 0.00 0.00 0.00 0.00 0.00 0.00 0.00 0.00 0.00 0.00 0.00 0.00 0.00 0.00 0.00
0.00 0.00 0.00 0.00 0.00 0.00 0.00 0.02 0.01 0.06 0.17 0.21 0.16 0.13 0.09 0.16 0.14 0.15 0.28 0.27 0.18 0.05 0.04 0.04 0.12 0.05 0.00 0.00 0.00 0.00 0.00 0.00 0.00 0.00 0.00 0.00 0.00 0.00 0.00 0.00 0.00 0.00 0.00 0.00 0.00 0.00 0.00 0.00 0.00
0.00 0.00 0.00 0.00 0.00 0.00 0.00 0.02 0.01 0.06 0.11 0.14 0.11 0.05 0.15 0.16 0.28 0.46 0.43 0.29 0.25 0.13 0.03 0.08 0.10 0.11 0.05 0.01 0.00 0.00 0.00 0.00 0.00 0.00 0.00 0.00 0.00 0.00 0.00 0.00 0.00 0.00 0.00 0.00 0.00 0.00 0.00 0.00 0.00
0.00 0.00 0.00 0.00 0.00 0.00 0.00 0.01 0.04 0.14 0.13 0.08 0.10 0.07 0.13 0.18 0.37 0.50 0.48 0.51 0.45 0.25 0.14 0.21 0.33 0.29 0.07 0.00 0.00 0.00 0.00 0.00 0.00 0.00 0.00 0.00 0.00 0.00 0.00 0.00 0.00 0.00 0.00 0.00 0.00 0.00 0.00 0.00 0.00
0.00 0.00 0.00 0.00 0.00 0.00 0.01 0.05 0.16 0.19 0.21 0.17 0.10 0.10 0.14 0.16 0.24 0.44 0.93 1.29 1.37 0.96 0.66 0.58 1.02 0.74 0.11 0.00 0.00 0.00 0.00 0.00 0.00 0.00 0.00 0.00 0.00 0.00 0.00 0.00 0.00 0.00 0.00 0.00 0.00 0.00 0.00 0.00 0.00
0.00 0.00 0.00 0.00 0.00 0.00 0.01 0.10 0.28 0.38 0.15 0.19 0.09 0.08 0.12 0.20 0.23 0.59 1.55 1.80 2.12 2.42 2.34 1.47 1.44 1.02 0.11 0.00 0.00 0.00 0.00 0.00 0.00 0.00 0.00 0.00 0.00 0.00 0.00 0.00 0.00 0.00 0.00 0.00 0.00 0.00 0.00 0.00 0.00
0.00 0.00 0.00 0.00 0.00 0.01 0.04 0.13 0.19 0.18 0.06 0.02 0.03 0.07 0.19 0.21 0.25 0.79 1.51 3.64 4.77 3.99 3.27 3.51 1.30 0.48 0.07 0.00 0.00 0.00 0.00 0.00 0.00 0.00 0.00 0.00 0.00 0.00 0.00 0.00 0.00 0.00 0.00 0.00 0.00 0.00 0.00 0.00 0.00
0.00 0.00 0.00 0.00 0.01 0.03 0.08 0.20 0.26 0.13 0.09 0.06 0.07 0.11 0.11 0.18 0.29 0.34 0.62 1.82 5.55 6.07 3.82 2.80 1.36 0.28 0.04 0.00 0.00 0.00 0.00 0.00 0.00 0.00 0.00 0.00 0.00 0.00 0.00 0.00 0.00 0.00 0.00 0.00 0.00 0.00 0.00 0.00 0.00
0.00 0.00 0.00 0.00 0.04 0.11 0.13 0.12 0.05 0.01 0.00 0.05 0.16 0.17 0.26 0.16 0.09 0.15 0.80 0.79 1.71 2.90 2.84 2.08 0.83 0.14 0.01 0.00 0.00 0.00 0.00 0.00 0.00 0.00 0.00 0.00 0.00 0.00 0.00 0.00 0.00 0.00 0.00 0.00 0.00 0.00 0.00 0.00 0.00
0.00 0.00 0.00 0.00 0.02 0.28 0.21 0.26 0.23 0.04 0.03 0.06 0.12 0.44 0.35 0.11 0.11 0.18 0.54 0.66 1.52 1.88 1.26 0.65 0.26 0.04 0.01 0.00 0.00 0.00 0.00 0.00 0.00 0.00 0.00 0.02 0.01 0.00 0.00 0.00 0.00 0.00 0.00 0.00 0.00 0.00 0.00 0.00 0.00
0.00 0.00 0.00 0.00 0.00 0.05 0.09 0.01 0.01 0.04 0.01 0.02 0.17 0.19 0.05 0.07 0.05 0.14 0.30 0.61 1.03 0.76 0.63 0.41 0.14 0.05 0.01 0.00 0.00 0.00 0.00 0.00 0.00 0.02 0.03 0.03 0.00 0.01 0.02 0.00 0.00 0.00 0.00 0.00 0.00 0.00 0.00 0.00 0.00
0.00 0.00 0.00 0.00 0.01 0.00 0.00 0.01 0.00 0.02 0.11 0.03 0.04 0.14 0.03 0.06 0.15 0.24 0.30 0.33 0.27 0.20 0.24 0.17 0.06 0.03 0.00 0.00 0.00 0.00 0.01 0.04 0.06 0.07 0.03 0.01 0.02 0.04 0.00 0.00 0.00 0.00 0.00 0.00 0.00 0.00 0.00 0.00 0.00
0.00 0.00 0.00 0.00 0.02 0.02 0.01 0.01 0.01 0.07 0.07 0.14 0.14 0.15 0.08 0.10 0.15 0.13 0.09 0.09 0.03 0.03 0.03 0.05 0.01 0.00 0.00 0.00 0.00 0.01 0.08 0.07 0.09 0.08 0.03 0.00 0.00 0.00 0.00 0.00 0.00 0.00 0.00 0.00 0.00 0.00 0.00 0.00 0.00
0.00 0.00 0.00 0.02 0.01 0.02 0.01 0.01 0.06 0.14 0.14 0.19 0.13 0.08 0.10 0.07 0.09 0.07 0.03 0.00 0.00 0.00 0.00 0.00 0.00 0.00 0.00 0.01 0.06 0.12 0.17 0.14 0.15 0.26 0.14 0.04 0.02 0.01 0.00 0.00 0.00 0.00 0.00 0.00 0.00 0.00 0.00 0.00 0.00
0.00 0.00 0.01 0.01 0.01 0.01 0.02 0.02 0.03 0.04 0.16 0.13 0.08 0.05 0.06 0.06 0.08 0.04 0.01 0.00 0.00 0.00 0.00 0.02 0.06 0.01 0.01 0.03 0.06 0.10 0.04 0.04 0.15 0.20 0.13 0.02 0.00 0.02 0.00 0.00 0.00 0.00 0.00 0.00 0.00 0.00 0.00 0.00 0.00
0.00 0.00 0.01 0.01 0.01 0.00 0.00 0.01 0.00 0.04 0.03 0.02 0.01 0.02 0.02 0.06 0.03 0.00 0.00 0.00 0.00 0.00 0.01 0.02 0.11 0.10 0.06 0.03 0.08 0.11 0.14 0.10 0.16 0.15 0.07 0.04 0.03 0.03 0.01 0.00 0.00 0.00 0.00 0.00 0.00 0.00 0.00 0.00 0.00
0.00 0.00 0.00 0.00 0.00 0.00 0.01 0.01 0.00 0.02 0.01 0.01 0.00 0.01 0.01 0.01 0.01 0.00 0.00 0.00 0.01 0.03 0.02 0.05 0.08 0.29 0.36 0.36 0.41 0.25 0.09 0.09 0.16 0.07 0.02 0.02 0.01 0.00 0.00 0.00 0.00 0.00 0.00 0.00 0.00 0.00 0.00 0.00 0.00
0.00 0.00 0.00 0.00 0.00 0.00 0.00 0.00 0.00 0.00 0.00 0.01 0.00 0.00 0.00 0.00 0.00 0.00 0.00 0.02 0.04 0.05 0.01 0.06 0.13 0.43 0.77 0.59 0.19 0.06 0.08 0.08 0.08 0.04 0.01 0.01 0.00 0.00 0.00 0.00 0.00 0.00 0.00 0.00 0.00 0.00 0.00 0.00 0.00
0.00 0.00 0.00 0.00 0.00 0.00 0.00 0.00 0.00 0.00 0.00 0.01 0.00 0.00 0.01 0.00 0.00 0.01 0.02 0.01 0.03 0.05 0.06 0.12 0.37 0.59 0.28 0.07 0.04 0.03 0.05 0.11 0.10 0.03 0.00 0.00 0.00 0.00 0.00 0.00 0.00 0.00 0.00 0.00 0.00 0.00 0.00 0.00 0.00
0.00 0.00 0.00 0.00 0.00 0.00 0.00 0.00 0.00 0.00 0.00 0.00 0.00 0.00 0.00 0.00 0.00 0.01 0.01 0.02 0.06 0.07 0.09 0.09 0.08 0.11 0.02 0.02 0.03 0.02 0.03 0.08 0.07 0.01 0.00 0.00 0.00 0.00 0.00 0.00 0.00 0.00 0.00 0.00 0.00 0.00 0.00 0.00 0.00
0.00 0.00 0.00 0.00 0.00 0.00 0.00 0.00 0.00 0.00 0.00 0.00 0.00 0.00 0.00 0.00 0.00 0.00 0.00 0.01 0.01 0.01 0.01 0.06 0.08 0.13 0.04 0.01 0.00 0.00 0.05 0.08 0.04 0.01 0.00 0.00 0.00 0.00 0.00 0.00 0.00 0.00 0.00 0.00 0.00 0.00 0.00 0.00 0.00
0.00 0.00 0.00 0.00 0.00 0.00 0.00 0.00 0.01 0.00 0.00 0.00 0.00 0.00 0.00 0.01 0.01 0.01 0.00 0.00 0.01 0.02 0.03 0.06 0.11 0.14 0.04 0.01 0.00 0.01 0.05 0.07 0.05 0.01 0.00 0.00 0.00 0.00 0.00 0.00 0.00 0.00 0.00 0.00 0.00 0.00 0.00 0.00 0.00
0.00 0.00 0.00 0.00 0.00 0.02 0.00 0.00 0.01 0.01 0.00 0.00 0.00 0.00 0.00 0.00 0.00 0.00 0.01 0.00 0.00 0.04 0.07 0.08 0.11 0.15 0.08 0.01 0.06 0.12 0.13 0.11 0.04 0.01 0.01 0.00 0.00 0.00 0.00 0.00 0.00 0.00 0.00 0.00 0.00 0.00 0.00 0.00 0.00
0.00 0.00 0.00 0.00 0.00 0.01 0.01 0.00 0.00 0.00 0.01 0.02 0.00 0.00 0.00 0.00 0.01 0.02 0.02 0.01 0.01 0.05 0.08 0.10 0.12 0.19 0.09 0.02 0.03 0.11 0.15 0.09 0.05 0.02 0.00 0.00 0.00 0.00 0.00 0.00 0.00 0.00 0.00 0.00 0.00 0.01 0.00 0.00 0.00
0.00 0.00 0.00 0.06 0.01 0.00 0.00 0.01 0.00 0.00 0.01 0.08 0.04 0.00 0.00 0.00 0.01 0.02 0.02 0.01 0.02 0.04 0.08 0.08 0.07 0.09 0.08 0.06 0.01 0.02 0.09 0.10 0.06 0.02 0.00 0.00 0.00 0.00 0.00 0.00 0.00 0.00 0.01 0.03 0.02 0.01 0.01 0.01 0.03
0.00 0.00 0.00 0.05 0.06 0.01 0.01 0.01 0.00 0.00 0.00 0.00 0.01 0.00 0.00 0.00 0.00 0.01 0.01 0.02 0.02 0.07 0.18 0.12 0.11 0.11 0.06 0.06 0.05 0.06 0.10 0.10 0.07 0.04 0.00 0.00 0.00 0.00 0.01 0.01 0.03 0.04 0.03 0.01 0.01 0.01 0.02 0.03 0.04
0.00 0.00 0.00 0.00 0.01 0.00 0.00 0.00 0.00 0.00 0.00 0.00 0.00 0.00 0.00 0.00 0.00 0.00 0.00 0.02 0.02 0.02 0.15 0.20 0.13 0.10 0.07 0.06 0.10 0.15 0.18 0.17 0.14 0.08 0.03 0.02 0.01 0.01 0.08 0.12 0.05 0.00 0.01 0.01 0.00 0.01 0.02 0.02 0.03
0.00 0.00 0.00 0.00 0.00 0.00 0.00 0.00 0.00 0.01 0.00 0.00 0.00 0.00 0.00 0.00 0.00 0.00 0.00 0.00 0.01 0.01 0.05 0.06 0.05 0.07 0.06 0.04 0.07 0.11 0.14 0.13 0.11 0.10 0.07 0.04 0.03 0.05 0.05 0.01 0.01 0.02 0.01 0.00 0.01 0.01 0.02 0.04 0.04
0.00 0.00 0.00 0.00 0.00 0.00 0.00 0.00 0.00 0.00 0.00 0.00 0.00 0.00 0.00 0.00 0.00 0.00 0.00 0.00 0.00 0.00 0.01 0.00 0.02 0.02 0.02 0.03 0.09 0.08 0.10 0.10 0.09 0.09 0.06 0.03 0.01 0.01 0.02 0.02 0.01 0.00 0.00 0.00 0.02 0.04 0.03 0.02 0.01
0.00 0.01 0.02 0.00 0.00 0.00 0.00 0.00 0.00 0.00 0.00 0.00 0.00 0.00 0.00 0.00 0.00 0.00 0.00 0.00 0.00 0.00 0.00 0.00 0.02 0.06 0.08 0.09 0.11 0.14 0.12 0.09 0.06 0.04 0.03 0.02 0.01 0.01 0.02 0.02 0.00 0.00 0.01 0.02 0.03 0.01 0.00 0.00 0.00

GFSSGP_prec_precacc24_051.txt.gz
Total_Precipitation_Accumulation
0.00 0.00 0.00 0.00 0.00 0.00 0.00 0.00 0.00 0.01 0.04 0.06 0.09 0.08 0.08 0.14 0.13 0.21 0.12 0.14 0.15 0.09 0.05 0.02 0.09 0.02 0.00 0.00 0.00 0.00 0.00 0.00 0.00 0.00 0.00 0.00 0.00 0.00 0.00 0.00 0.00 0.00 0.00 0.00 0.00 0.00 0.00 0.00 0.00
0.00 0.00 0.00 0.00 0.00 0.00 0.00 0.02 0.01 0.05 0.15 0.20 0.18 0.20 0.13 0.13 0.16 0.19 0.32 0.32 0.22 0.07 0.05 0.04 0.06 0.04 0.00 0.00 0.00 0.00 0.00 0.00 0.00 0.00 0.00 0.00 0.00 0.00 0.00 0.00 0.00 0.00 0.00 0.00 0.00 0.00 0.00 0.00 0.00
0.00 0.00 0.00 0.00 0.00 0.00 0.00 0.02 0.01 0.05 0.15 0.17 0.14 0.10 0.12 0.14 0.26 0.37 0.42 0.33 0.29 0.15 0.04 0.11 0.11 0.12 0.06 0.01 0.00 0.00 0.00 0.00 0.00 0.00 0.00 0.00 0.00 0.00 0.00 0.00 0.00 0.00 0.00 0.00 0.00 0.00 0.00 0.00 0.00
0.00 0.00 0.00 0.00 0.00 0.00 0.00 0.01 0.03 0.09 0.09 0.07 0.10 0.08 0.11 0.16 0.37 0.46 0.51 0.58 0.50 0.27 0.17 0.25 0.40 0.38 0.13 0.01 0.00 0.00 0.00 0.00 0.00 0.00 0.00 0.00 0.00 0.00 0.00 0.00 0.00 0.00 0.00 0.00 0.00 0.00 0.00 0.00 0.00
0.00 0.00 0.00 0.00 0.00 0.00 0.01 0.05 0.14 0.19 0.18 0.17 0.10 0.12 0.15 0.16 0.19 0.46 0.95 1.49 1.76 1.15 0.72 0.64 1.08 0.83 0.15 0.00 0.00 0.00 0.00 0.00 0.00 0.00 0.00 0.00 0.00 0.00 0.00 0.00 0.00 0.00 0.00 0.00 0.00 0.00 0.00 0.00 0.00
0.00 0.00 0.00 0.00 0.00 0.00 0.01 0.09 0.28 0.38 0.18 0.19 0.09 0.08 0.12 0.21 0.28 0.60 1.56 1.88 2.36 2.88 2.70 1.67 1.56 1.09 0.13 0.00 0.00 0.00 0.00 0.00 0.00 0.00 0.00 0.00 0.00 0.00 0.00 0.00 0.00 0.00 0.00 0.00 0.00 0.00 0.00 0.00 0.00
0.00 0.00 0.00 0.00 0.00 0.01 0.04 0.11 0.19 0.19 0.05 0.02 0.03 0.08 0.20 0.22 0.27 0.79 1.51 3.75 4.98 4.23 3.82 4.53 1.65 0.62 0.14 0.01 0.00 0.00 0.00 0.00 0.00 0.00 0.00 0.00 0.00 0.00 0.00 0.00 0.00 0.00 0.00 0.00 0.00 0.00 0.00 0.00 0.00
0.00 0.00 0.00 0.00 0.00 0.02 0.07 0.19 0.24 0.13 0.09 0.06 0.07 0.11 0.15 0.23 0.30 0.34 0.61 1.84 5.62 6.23 4.07 3.55 2.04 0.62 0.18 0.03 0.00 0.00 0.00 0.00 0.00 0.00 0.00 0.00 0.00 0.00 0.00 0.00 0.00 0.00 0.00 0.00 0.00 0.00 0.00 0.00 0.00
0.00 0.00 0.00 0.00 0.03 0.10 0.13 0.12 0.05 0.01 0.00 0.05 0.16 0.17 0.27 0.22 0.12 0.16 0.80 0.79 1.71 3.05 3.27 2.47 1.13 0.27 0.10 0.06 0.01 0.00 0.00 0.00 0.00 0.00 0.00 0.00 0.00 0.00 0.00 0.00 0.00 0.00 0.00 0.00 0.00 0.00 0.00 0.00 0.00
0.00 0.00 0.00 0.00 0.02 0.28 0.20 0.25 0.23 0.03 0.02 0.06 0.13 0.45 0.35 0.12 0.12 0.19 0.55 0.68 1.53 1.89 1.49 0.99 0.49 0.14 0.05 0.06 0.06 0.03 0.00 0.00 0.00 0.00 0.00 0.02 0.01 0.00 0.00 0.00 0.00 0.00 0.00 0.00 0.00 0.00 0.00 0.00 0.00
0.00 0.00 0.00 0.00 0.00 0.05 0.09 0.01 0.01 0.03 0.01 0.02 0.17 0.19 0.07 0.09 0.06 0.15 0.31 0.62 1.05 0.76 0.65 0.47 0.18 0.06 0.03 0.00 0.03 0.02 0.00 0.00 0.00 0.02 0.03 0.03 0.00 0.01 0.02 0.00 0.00 0.00 0.00 0.00 0.00 0.00 0.00 0.00 0.00
0.00 0.00 0.00 0.00 0.01 0.00 0.00 0.01 0.00 0.02 0.11 0.03 0.04 0.14 0.04 0.07 0.16 0.24 0.30 0.35 0.35 0.22 0.25 0.17 0.08 0.07 0.04 0.01 0.02 0.01 0.01 0.04 0.06 0.07 0.03 0.01 0.02 0.04 0.00 0.00 0.00 0.00 0.00 0.00 0.00 0.00 0.00 0.00 0.00
0.00 0.00 0.00 0.00 0.02 0.02 0.01 0.01 0.01 0.07 0.08 0.14 0.15 0.16 0.10 0.10 0.15 0.13 0.09 0.10 0.05 0.06 0.04 0.07 0.02 0.01 0.00 0.00 0.00 0.01 0.08 0.07 0.09 0.08 0.03 0.00 0.00 0.00 0.00 0.00 0.00 0.00 0.00 0.00 0.00 0.00 0.00 0.00 0.00
0.00 0.00 0.00 0.02 0.01 0.02 0.01 0.01 0.06 0.14 0.15 0.19 0.16 0.09 0.11 0.08 0.09 0.07 0.03 0.00 0.00 0.00 0.00 0.00 0.00 0.00 0.00 0.01 0.05 0.09 0.10 0.09 0.11 0.21 0.14 0.04 0.02 0.01 0.00 0.00 0.00 0.00 0.00 0.00 0.00 0.00 0.00 0.00 0.00
0.00 0.00 0.01 0.01 0.01 0.01 0.02 0.02 0.03 0.04 0.16 0.13 0.08 0.06 0.08 0.09 0.08 0.04 0.01 0.00 0.00 0.00 0.00 0.01 0.01 0.00 0.01 0.03 0.04 0.02 0.00 0.01 0.04 0.14 0.18 0.06 0.01 0.04 0.02 0.00 0.00 0.00 0.00 0.00 0.00 0.00 0.00 0.00 0.00
0.00 0.00 0.01 0.01 0.01 0.00 0.00 0.01 0.00 0.04 0.03 0.02 0.01 0.02 0.06 0.06 0.03 0.00 0.00 0.00 0.00 0.00 0.00 0.01 0.05 0.03 0.05 0.02 0.01 0.05 0.10 0.03 0.08 0.15 0.15 0.14 0.10 0.08 0.04 0.01 0.00 0.00 0.00 0.00 0.00 0.00 0.00 0.00 0.00
0.00 0.00 0.00 0.00 0.00 0.00 0.01 0.01 0.00 0.02 0.01 0.01 0.00 0.01 0.01 0.01 0.01 0.00 0.00 0.00 0.00 0.01 0.00 0.01 0.03 0.20 0.27 0.14 0.20 0.20 0.06 0.06 0.17 0.16 0.11 0.07 0.05 0.04 0.02 0.01 0.00 0.00 0.00 0.00 0.00 0.00 0.00 0.00 0.00
0.00 0.00 0.00 0.00 0.00 0.00 0.00 0.00 0.00 0.00 0.00 0.01 0.00 0.00 0.00 0.00 0.00 0.00 0.00 0.00 0.01 0.04 0.00 0.01 0.04 0.29 0.40 0.36 0.14 0.04 0.06 0.07 0.13 0.10 0.06 0.03 0.01 0.01 0.00 0.00 0.00 0.00 0.00 0.00 0.00 0.00 0.00 0.00 0.00
0.00 0.00 0.00 0.00 0.00 0.00 0.00 0.00 0.00 0.00 0.00 0.01 0.00 0.00 0.01 0.00 0.00 0.00 0.00 0.00 0.00 0.02 0.03 0.01 0.10 0.25 0.09 0.03 0.02 0.01 0.04 0.11 0.18 0.15 0.09 0.03 0.00 0.00 0.00 0.00 0.00 0.00 0.00 0.00 0.00 0.00 0.00 0.00 0.00
0.00 0.00 0.00 0.00 0.00 0.00 0.00 0.00 0.00 0.00 0.00 0.00 0.00 0.00 0.00 0.00 0.00 0.00 0.00 0.00 0.00 0.01 0.02 0.03 0.05 0.10 0.01 0.01 0.03 0.02 0.03 0.10 0.17 0.13 0.07 0.05 0.00 0.00 0.00 0.00 0.00 0.00 0.00 0.00 0.00 0.00 0.00 0.00 0.00
0.00 0.00 0.00 0.00 0.00 0.00 0.00 0.00 0.00 0.00 0.00 0.00 0.00 0.00 0.00 0.00 0.00 0.00 0.00 0.00 0.00 0.00 0.01 0.06 0.08 0.13 0.04 0.01 0.00 0.00 0.06 0.12 0.09 0.11 0.06 0.02 0.00 0.00 0.00 0.00 0.00 0.00 0.00 0.00 0.00 0.00 0.00 0.00 0.00
0.00 0.00 0.00 0.00 0.00 0.00 0.00 0.00 0.01 0.00 0.00 0.00 0.00 0.00 0.00 0.01 0.01 0.01 0.00 0.00 0.01 0.02 0.03 0.06 0.11 0.14 0.04 0.01 0.00 0.01 0.05 0.08 0.15 0.12 0.04 0.00 0.00 0.00 0.00 0.00 0.00 0.00 0.00 0.00 0.00 0.00 0.00 0.00 0.00
0.00 0.00 0.00 0.00 0.00 0.02 0.00 0.00 0.01 0.01 0.00 0.00 0.00 0.00 0.00 0.00 0.00 0.00 0.01 0.00 0.00 0.04 0.07 0.08 0.11 0.15 0.08 0.01 0.06 0.12 0.14 0.15 0.15 0.10 0.05 0.01 0.00 0.00 0.00 0.00 0.00 0.00 0.00 0.00 0.00 0.00 0.00 0.00 0.00
0.00 0.00 0.00 0.00 0.00 0.01 0.01 0.00 0.00 0.00 0.01 0.02 0.00 0.00 0.00 0.00 0.01 0.02 0.02 0.01 0.01 0.05 0.08 0.10 0.12 0.19 0.09 0.06 0.05 0.12 0.16 0.13 0.08 0.07 0.04 0.01 0.01 0.00 0.00 0.00 0.00 0.00 0.00 0.00 0.01 0.03 0.02 0.00 0.00
0.00 0.00 0.00 0.06 0.01 0.00 0.00 0.01 0.00 0.00 0.01 0.08 0.04 0.00 0.00 0.00 0.01 0.02 0.02 0.01 0.02 0.04 0.08 0.08 0.07 0.09 0.08 0.10 0.05 0.04 0.11 0.13 0.12 0.08 0.04 0.01 0.01 0.01 0.00 0.00 0.00 0.00 0.02 0.05 0.04 0.01 0.01 0.01 0.03
0.00 0.00 0.00 0.05 0.06 0.01 0.01 0.01 0.00 0.00 0.00 0.00 0.01 0.00 0.00 0.00 0.00 0.01 0.01 0.02 0.02 0.07 0.18 0.12 0.11 0.11 0.07 0.09 0.12 0.12 0.13 0.14 0.17 0.18 0.09 0.03 0.02 0.01 0.01 0.02 0.05 0.06 0.03 0.01 0.01 0.01 0.02 0.03 0.04
0.00 0.00 0.00 0.00 0.01 0.00 0.00 0.00 0.00 0.00 0.00 0.00 0.00 0.00 0.00 0.00 0.00 0.00 0.00 0.02 0.02 0.02 0.15 0.20 0.13 0.10 0.07 0.07 0.11 0.18 0.24 0.27 0.27 0.22 0.16 0.11 0.04 0.02 0.08 0.14 0.06 0.00 0.01 0.01 0.01 0.01 0.02 0.02 0.03
0.00 0.00 0.00 0.00 0.00 0.00 0.00 0.00 0.00 0.01 0.00 0.00 0.00 0.00 0.00 0.00 0.00 0.00 0.00 0.00 0.01 0.01 0.05 0.06 0.05 0.08 0.07 0.04 0.08 0.14 0.19 0.23 0.24 0.23 0.19 0.12 0.08 0.07 0.06 0.02 0.02 0.02 0.01 0.01 0.01 0.01 0.02 0.04 0.04
0.00 0.00 0.00 0.00 0.00 0.00 0.00 0.00 0.00 0.00 0.00 0.00 0.00 0.00 0.00 0.00 0.00 0.00 0.00 0.00 0.00 0.00 0.01 0.00 0.02 0.03 0.02 0.06 0.15 0.15 0.16 0.19 0.20 0.20 0.15 0.09 0.05 0.03 0.03 0.03 0.03 0.05 0.06 0.04 0.02 0.04 0.04 0.02 0.01
0.00 0.01 0.02 0.00 0.00 0.00 0.00 0.00 0.00 0.00 0.00 0.00 0.00 0.00 0.00 0.00 0.00 0.00 0.00 0.00 0.00 0.00 0.00 0.00 0.02 0.07 0.13 0.16 0.20 0.24 0.25 0.22 0.17 0.12 0.08 0.05 0.03 0.02 0.03 0.04 0.03 0.01 0.01 0.02 0.04 0.03 0.00 0.00 0.00

GFSSGP_prec_precacc24_054.txt.gz
Total_Precipitation_Accumulation
0.00 0.00 0.00 0.00 0.00 0.00 0.00 0.00 0.00 0.01 0.04 0.06 0.09 0.09 0.08 0.15 0.16 0.21 0.10 0.13 0.16 0.10 0.06 0.02 0.02 0.01 0.00 0.00 0.00 0.00 0.00 0.00 0.00 0.00 0.00 0.00 0.00 0.00 0.00 0.00 0.00 0.00 0.00 0.00 0.00 0.00 0.00 0.00 0.00
0.00 0.00 0.00 0.00 0.00 0.00 0.00 0.02 0.01 0.04 0.14 0.20 0.19 0.21 0.17 0.19 0.16 0.17 0.30 0.29 0.22 0.09 0.07 0.04 0.03 0.01 0.00 0.00 0.00 0.00 0.00 0.00 0.00 0.00 0.00 0.00 0.00 0.00 0.00 0.00 0.00 0.00 0.00 0.00 0.00 0.00 0.00 0.00 0.00
0.00 0.00 0.00 0.00 0.00 0.00 0.00 0.02 0.01 0.05 0.15 0.15 0.12 0.11 0.12 0.16 0.23 0.35 0.39 0.34 0.28 0.16 0.07 0.14 0.11 0.10 0.04 0.00 0.00 0.00 0.00 0.00 0.00 0.00 0.00 0.00 0.00 0.00 0.00 0.00 0.00 0.00 0.00 0.00 0.00 0.00 0.00 0.00 0.00
0.00 0.00 0.00 0.00 0.00 0.00 0.00 0.01 0.03 0.09 0.09 0.07 0.06 0.05 0.07 0.10 0.28 0.36 0.50 0.61 0.47 0.39 0.37 0.33 0.46 0.38 0.13 0.01 0.00 0.00 0.00 0.00 0.00 0.00 0.00 0.00 0.00 0.00 0.00 0.00 0.00 0.00 0.00 0.00 0.00 0.00 0.00 0.00 0.00
0.00 0.00 0.00 0.00 0.00 0.00 0.01 0.04 0.13 0.18 0.16 0.16 0.10 0.11 0.12 0.16 0.21 0.39 0.91 1.81 2.04 1.33 0.93 0.73 1.07 0.85 0.22 0.01 0.00 0.00 0.00 0.00 0.00 0.00 0.00 0.00 0.00 0.00 0.00 0.00 0.00 0.00 0.00 0.00 0.00 0.00 0.00 0.00 0.00
0.00 0.00 0.00 0.00 0.00 0.00 0.01 0.09 0.28 0.37 0.18 0.19 0.09 0.08 0.09 0.20 0.28 0.44 1.30 1.98 2.78 3.43 2.94 1.76 1.56 1.12 0.20 0.03 0.01 0.00 0.00 0.00 0.00 0.00 0.00 0.00 0.00 0.00 0.00 0.00 0.00 0.00 0.00 0.00 0.00 0.00 0.00 0.00 0.00
0.00 0.00 0.00 0.00 0.00 0.01 0.04 0.11 0.18 0.18 0.05 0.02 0.03 0.06 0.18 0.21 0.27 0.68 1.39 3.81 5.11 4.72 4.78 4.97 1.70 0.68 0.19 0.04 0.00 0.00 0.00 0.00 0.00 0.00 0.00 0.00 0.00 0.00 0.00 0.00 0.00 0.00 0.00 0.00 0.00 0.00 0.00 0.00 0.00
0.00 0.00 0.00 0.00 0.00 0.02 0.07 0.17 0.23 0.13 0.09 0.06 0.06 0.10 0.13 0.22 0.30 0.34 0.62 1.85 5.71 6.53 4.67 4.27 2.40 0.77 0.24 0.08 0.03 0.00 0.00 0.00 0.00 0.00 0.00 0.00 0.00 0.00 0.00 0.00 0.00 0.00 0.00 0.00 0.00 0.00 0.00 0.00 0.00
0.00 0.00 0.00 0.00 0.03 0.10 0.10 0.10 0.05 0.01 0.00 0.04 0.14 0.18 0.26 0.22 0.12 0.16 0.78 0.78 1.74 3.19 3.53 2.65 1.28 0.40 0.22 0.17 0.11 0.01 0.00 0.00 0.00 0.00 0.00 0.00 0.00 0.00 0.00 0.00 0.00 0.00 0.00 0.00 0.00 0.00 0.00 0.00 0.00
0.00 0.00 0.00 0.00 0.02 0.28 0.19 0.25 0.23 0.03 0.02 0.05 0.12 0.45 0.35 0.18 0.15 0.19 0.55 0.67 1.53 1.89 1.54 1.05 0.56 0.18 0.08 0.16 0.23 0.17 0.03 0.00 0.00 0.00 0.00 0.02 0.01 0.00 0.00 0.00 0.00 0.00 0.00 0.00 0.00 0.00 0.00 0.00 0.00
0.00 0.00 0.00 0.00 0.00 0.05 0.09 0.00 0.01 0.03 0.01 0.02 0.17 0.21 0.11 0.10 0.07 0.14 0.31 0.63 1.06 0.78 0.67 0.59 0.42 0.23 0.10 0.08 0.14 0.13 0.04 0.00 0.00 0.02 0.03 0.03 0.00 0.01 0.02 0.00 0.00 0.00 0.00 0.00 0.00 0.00 0.00 0.00 0.00
0.00 0.00 0.00 0.00 0.01 0.00 0.00 0.01 0.00 0.02 0.11 0.03 0.05 0.17 0.06 0.08 0.16 0.24 0.30 0.36 0.38 0.29 0.29 0.24 0.19 0.23 0.27 0.07 0.05 0.05 0.02 0.04 0.05 0.06 0.03 0.01 0.01 0.04 0.00 0.00 0.00 0.00 0.00 0.00 0.00 0.00 0.00 0.00 0.00
0.00 0.00 0.00 0.00 0.02 0.02 0.01 0.01 0.01 0.07 0.08 0.14 0.16 0.17 0.10 0.10 0.15 0.13 0.10 0.14 0.14 0.12 0.08 0.13 0.06 0.04 0.04 0.03 0.03 0.02 0.08 0.06 0.07 0.05 0.02 0.00 0.00 0.00 0.00 0.00 0.00 0.00 0.00 0.00 0.00 0.00 0.00 0.00 0.00
0.00 0.00 0.00 0.02 0.01 0.02 0.01 0.01 0.06 0.14 0.15 0.19 0.17 0.09 0.11 0.08 0.09 0.08 0.03 0.01 0.03 0.05 0.07 0.04 0.02 0.02 0.01 0.02 0.06 0.08 0.09 0.06 0.05 0.03 0.04 0.02 0.02 0.01 0.00 0.00 0.00 0.00 0.00 0.00 0.00 0.00 0.00 0.00 0.00
0.00 0.01 0.01 0.01 0.02 0.01 0.02 0.02 0.03 0.04 0.16 0.13 0.08 0.06 0.09 0.12 0.09 0.04 0.01 0.00 0.00 0.00 0.00 0.00 0.00 0.01 0.03 0.06 0.03 0.01 0.00 0.00 0.01 0.05 0.11 0.05 0.01 0.04 0.02 0.00 0.00 0.00 0.00 0.00 0.00 0.00 0.00 0.00 0.00
0.00 0.00 0.01 0.01 0.01 0.00 0.00 0.01 0.00 0.04 0.03 0.02 0.01 0.03 0.08 0.08 0.04 0.00 0.00 0.00 0.00 0.00 0.00 0.00 0.00 0.00 0.04 0.02 0.00 0.02 0.07 0.02 0.05 0.08 0.13 0.14 0.11 0.09 0.04 0.01 0.00 0.00 0.00 0.00 0.00 0.00 0.00 0.00 0.00
0.00 0.00 0.00 0.00 0.00 0.00 0.01 0.01 0.00 0.02 0.01 0.01 0.00 0.01 0.01 0.01 0.01 0.00 0.00 0.00 0.00 0.01 0.00 0.00 0.00 0.12 0.17 0.08 0.08 0.09 0.04 0.05 0.15 0.15 0.15 0.08 0.07 0.08 0.04 0.02 0.00 0.00 0.00 0.00 0.00 0.00 0.00 0.00 0.00
0.00 0.00 0.00 0.01 0.00 0.00 0.00 0.00 0.00 0.00 0.00 0.01 0.00 0.00 0.00 0.00 0.00 0.00 0.00 0.00 0.01 0.04 0.00 0.00 0.01 0.17 0.15 0.08 0.05 0.02 0.04 0.06 0.13 0.10 0.08 0.06 0.04 0.04 0.01 0.01 0.00 0.00 0.00 0.00 0.00 0.00 0.00 0.00 0.00
0.00 0.00 0.00 0.00 0.00 0.00 0.00 0.00 0.00 0.00 0.00 0.01 0.00 0.00 0.01 0.00 0.00 0.00 0.00 0.00 0.00 0.02 0.03 0.00 0.03 0.10 0.05 0.01 0.02 0.01 0.04 0.11 0.18 0.15 0.14 0.12 0.03 0.02 0.00 0.00 0.00 0.00 0.00 0.00 0.00 0.00 0.00 0.00 0.00
0.00 0.00 0.00 0.00 0.00 0.00 0.00 0.00 0.00 0.00 0.00 0.00 0.00 0.00 0.00 0.00 0.00 0.00 0.00 0.00 0.00 0.00 0.02 0.02 0.03 0.09 0.01 0.01 0.03 0.02 0.03 0.10 0.17 0.14 0.11 0.17 0.10 0.02 0.00 0.00 0.00 0.00 0.00 0.00 0.00 0.00 0.00 0.00 0.00
0.00 0.00 0.00 0.00 0.00 0.00 0.00 0.00 0.00 0.00 0.00 0.00 0.00 0.00 0.00 0.00 0.00 0.00 0.00 0.00 0.00 0.00 0.01 0.06 0.08 0.13 0.04 0.01 0.00 0.00 0.06 0.12 0.10 0.17 0.17 0.15 0.09 0.04 0.00 0.00 0.00 0.00 0.00 0.00 0.00 0.00 0.00 0.00 0.00
0.00 0.00 0.00 0.00 0.00 0.00 0.00 0.00 0.01 0.00 0.00 0.00 0.00 0.00 0.00 0.01 0.01 0.01 0.00 0.00 0.01 0.02 0.03 0.06 0.11 0.14 0.04 0.01 0.00 0.01 0.06 0.08 0.16 0.17 0.13 0.09 0.04 0.02 0.00 0.00 0.00 0.00 0.00 0.00 0.00 0.00 0.00 0.00 0.00
0.00 0.00 0.00 0.00 0.00 0.02 0.00 0.00 0.01 0.01 0.00 0.00 0.00 0.00 0.00 0.00 0.00 0.00 0.01 0.00 0.00 0.04 0.07 0.08 0.11 0.15 0.08 0.01 0.06 0.12 0.14 0.15 0.16 0.13 0.10 0.07 0.05 0.02 0.00 0.00 0.00 0.00 0.00 0.00 0.00 0.00 0.00 0.01 0.00
0.00 0.00 0.00 0.00 0.00 0.01 0.01 0.00 0.00 0.00 0.01 0.02 0.00 0.00 0.00 0.00 0.01 0.02 0.02 0.01 0.01 0.05 0.08 0.10 0.12 0.19 0.09 0.06 0.07 0.13 0.17 0.13 0.09 0.07 0.06 0.05 0.05 0.03 0.01 0.00 0.00 0.00 0.00 0.00 0.01 0.04 0.03 0.01 0.00
0.00 0.00 0.00 0.06 0.01 0.00 0.00 0.01 0.00 0.00 0.01 0.08 0.04 0.00 0.00 0.00 0.01 0.02 0.02 0.01 0.02 0.04 0.08 0.08 0.07 0.09 0.09 0.12 0.06 0.04 0.12 0.15 0.12 0.09 0.06 0.06 0.05 0.03 0.02 0.01 0.00 0.00 0.02 0.05 0.04 0.01 0.00 0.01 0.02
0.00 0.00 0.00 0.05 0.06 0.01 0.01 0.01 0.00 0.00 0.00 0.00 0.01 0.00 0.00 0.00 0.00 0.01 0.01 0.02 0.02 0.07 0.18 0.12 0.11 0.11 0.07 0.11 0.16 0.18 0.16 0.17 0.18 0.19 0.13 0.08 0.08 0.10 0.05 0.02 0.06 0.06 0.04 0.01 0.01 0.00 0.01 0.02 0.04
0.00 0.00 0.00 0.00 0.01 0.00 0.00 0.00 0.00 0.00 0.00 0.00 0.00 0.00 0.00 0.00 0.00 0.00 0.00 0.02 0.02 0.02 0.15 0.20 0.13 0.12 0.08 0.10 0.16 0.21 0.30 0.33 0.29 0.25 0.20 0.16 0.10 0.08 0.13 0.17 0.09 0.01 0.01 0.01 0.01 0.02 0.02 0.03 0.03
0.00 0.00 0.00 0.00 0.00 0.00 0.00 0.00 0.00 0.01 0.00 0.00 0.00 0.00 0.00 0.00 0.00 0.00 0.00 0.00 0.01 0.01 0.05 0.06 0.05 0.10 0.10 0.07 0.09 0.15 0.21 0.26 0.26 0.26 0.24 0.18 0.14 0.11 0.11 0.12 0.09 0.04 0.03 0.05 0.05 0.04 0.03 0.06 0.06
0.00 0.00 0.00 0.00 0.00 0.00 0.00 0.00 0.00 0.00 0.00 0.00 0.00 0.00 0.00 0.00 0.00 0.00 0.00 0.00 0.00 0.00 0.01 0.00 0.02 0.03 0.02 0.06 0.15 0.16 0.19 0.23 0.24 0.25 0.21 0.15 0.09 0.06 0.06 0.05 0.04 0.06 0.08 0.09 0.05 0.04 0.05 0.04 0.01
0.00 0.01 0.02 0.00 0.00 0.00 0.00 0.00 0.00 0.00 0.00 0.00 0.00 0.00 0.00 0.00 0.00 0.00 0.00 0.00 0.00 0.00 0.00 0.00 0.02 0.07 0.13 0.16 0.20 0.25 0.27 0.27 0.22 0.17 0.13 0.08 0.05 0.03 0.03 0.05 0.03 0.03 0.03 0.03 0.06 0.06 0.03 0.00 0.00

GFSSGP_prec_precacc24_057.txt.gz
Total_Precipitation_Accumulation
0.00 0.00 0.00 0.00 0.00 0.00 0.00 0.00 0.00 0.01 0.03 0.06 0.10 0.10 0.08 0.15 0.30 0.40 0.31 0.14 0.15 0.11 0.09 0.04 0.02 0.01 0.00 0.00 0.00 0.00 0.00 0.00 0.00 0.00 0.00 0.00 0.00 0.00 0.00 0.00 0.00 0.00 0.00 0.00 0.00 0.00 0.00 0.00 0.00
0.00 0.00 0.00 0.00 0.00 0.00 0.00 0.02 0.01 0.00 0.07 0.20 0.19 0.21 0.17 0.21 0.16 0.18 0.32 0.21 0.15 0.11 0.15 0.11 0.03 0.01 0.00 0.00 0.00 0.00 0.00 0.00 0.00 0.00 0.00 0.00 0.00 0.00 0.00 0.00 0.00 0.00 0.01 0.00 0.00 0.00 0.00 0.00 0.00
0.00 0.00 0.00 0.00 0.00 0.00 0.00 0.02 0.01 0.05 0.15 0.14 0.12 0.11 0.12 0.17 0.17 0.26 0.31 0.29 0.21 0.14 0.10 0.21 0.11 0.09 0.02 0.00 0.00 0.00 0.00 0.00 0.00 0.00 0.00 0.00 0.00 0.00 0.00 0.00 0.00 0.00 0.01 0.00 0.00 0.00 0.00 0.00 0.00
0.00 0.00 0.00 0.00 0.00 0.00 0.00 0.01 0.02 0.09 0.09 0.07 0.05 0.04 0.07 0.10 0.21 0.28 0.43 0.51 0.46 0.61 0.50 0.46 0.50 0.36 0.11 0.01 0.00 0.00 0.00 0.00 0.00 0.00 0.00 0.00 0.00 0.00 0.00 0.00 0.00 0.01 0.00 0.00 0.00 0.00 0.00 0.00 0.00
0.00 0.00 0.00 0.00 0.00 0.00 0.01 0.03 0.12 0.14 0.16 0.16 0.10 0.09 0.10 0.15 0.21 0.38 0.90 1.90 2.25 1.49 0.94 0.85 1.23 0.80 0.17 0.01 0.00 0.00 0.00 0.00 0.00 0.00 0.00 0.00 0.00 0.00 0.00 0.00 0.00 0.00 0.00 0.00 0.00 0.00 0.00 0.00 0.00
0.00 0.00 0.00 0.00 0.00 0.00 0.01 0.08 0.27 0.36 0.18 0.19 0.09 0.08 0.09 0.18 0.27 0.40 0.98 1.65 3.08 4.15 3.09 1.93 1.68 1.10 0.25 0.06 0.02 0.00 0.00 0.00 0.00 0.00 0.00 0.00 0.00 0.00 0.00 0.00 0.00 0.00 0.00 0.00 0.00 0.00 0.00 0.00 0.00
0.00 0.00 0.00 0.00 0.00 0.01 0.04 0.10 0.16 0.18 0.06 0.02 0.03 0.06 0.18 0.16 0.16 0.20 0.62 2.37 4.18 5.16 6.50 5.51 1.85 0.78 0.31 0.13 0.03 0.01 0.01 0.00 0.00 0.00 0.00 0.00 0.00 0.00 0.00 0.00 0.00 0.00 0.00 0.00 0.00 0.00 0.00 0.00 0.00
0.00 0.00 0.00 0.00 0.00 0.01 0.06 0.16 0.21 0.13 0.09 0.03 0.06 0.07 0.17 0.20 0.22 0.17 0.27 1.30 5.15 6.61 5.43 5.24 2.98 1.13 0.41 0.14 0.05 0.02 0.03 0.02 0.00 0.00 0.00 0.00 0.00 0.00 0.00 0.00 0.00 0.00 0.00 0.00 0.00 0.00 0.00 0.00 0.00
0.00 0.00 0.00 0.00 0.02 0.09 0.10 0.09 0.05 0.01 0.00 0.03 0.14 0.19 0.30 0.23 0.13 0.09 0.55 0.59 1.68 3.13 3.46 2.91 1.70 0.83 0.49 0.21 0.16 0.09 0.04 0.00 0.00 0.00 0.00 0.00 0.00 0.00 0.00 0.00 0.00 0.00 0.00 0.00 0.00 0.00 0.00 0.00 0.00
0.00 0.00 0.00 0.00 0.01 0.25 0.19 0.25 0.23 0.03 0.02 0.05 0.13 0.46 0.36 0.21 0.15 0.14 0.49 0.64 1.49 1.91 1.62 1.10 0.61 0.22 0.12 0.19 0.29 0.25 0.08 0.00 0.00 0.00 0.00 0.02 0.01 0.00 0.00 0.00 0.00 0.00 0.00 0.00 0.00 0.00 0.00 0.00 0.00
0.00 0.00 0.00 0.00 0.00 0.05 0.09 0.00 0.01 0.03 0.01 0.02 0.17 0.23 0.12 0.10 0.07 0.14 0.27 0.60 1.05 0.77 0.71 0.64 0.46 0.25 0.15 0.13 0.18 0.20 0.11 0.00 0.00 0.01 0.02 0.01 0.00 0.00 0.02 0.00 0.00 0.00 0.00 0.00 0.00 0.00 0.00 0.00 0.00
0.00 0.00 0.00 0.00 0.00 0.00 0.00 0.01 0.00 0.00 0.02 0.02 0.05 0.18 0.09 0.09 0.16 0.23 0.27 0.34 0.38 0.31 0.31 0.26 0.23 0.26 0.39 0.28 0.19 0.14 0.04 0.03 0.01 0.00 0.00 0.00 0.01 0.03 0.00 0.00 0.00 0.00 0.00 0.00 0.00 0.00 0.00 0.00 0.00
0.00 0.00 0.00 0.00 0.02 0.02 0.01 0.01 0.01 0.06 0.07 0.14 0.16 0.17 0.11 0.11 0.16 0.13 0.10 0.15 0.16 0.16 0.11 0.17 0.11 0.13 0.16 0.19 0.17 0.08 0.08 0.03 0.04 0.01 0.00 0.00 0.00 0.00 0.00 0.00 0.00 0.00 0.00 0.00 0.00 0.00 0.00 0.00 0.00
0.00 0.00 0.00 0.02 0.01 0.02 0.01 0.01 0.06 0.14 0.15 0.19 0.17 0.10 0.13 0.09 0.09 0.08 0.03 0.02 0.08 0.14 0.15 0.12 0.14 0.15 0.16 0.08 0.08 0.08 0.08 0.05 0.05 0.02 0.02 0.00 0.01 0.00 0.00 0.00 0.00 0.00 0.00 0.00 0.00 0.00 0.00 0.00 0.00
0.00 0.01 0.01 0.02 0.02 0.01 0.02 0.09 0.06 0.05 0.16 0.13 0.09 0.07 0.09 0.12 0.09 0.04 0.02 0.00 0.00 0.01 0.06 0.11 0.12 0.10 0.06 0.05 0.03 0.03 0.02 0.00 0.01 0.05 0.11 0.05 0.01 0.03 0.02 0.00 0.00 0.00 0.00 0.00 0.00 0.00 0.00 0.00 0.00
0.00 0.00 0.02 0.14 0.02 0.01 0.01 0.17 0.10 0.04 0.03 0.02 0.02 0.04 0.09 0.09 0.04 0.00 0.00 0.00 0.00 0.00 0.00 0.01 0.03 0.03 0.05 0.05 0.03 0.03 0.02 0.01 0.05 0.08 0.12 0.13 0.10 0.09 0.04 0.01 0.00 0.00 0.00 0.00 0.00 0.00 0.00 0.00 0.00
0.00 0.00 0.00 0.01 0.00 0.00 0.00 0.02 0.00 0.02 0.01 0.01 0.00 0.01 0.01 0.01 0.01 0.00 0.00 0.00 0.00 0.01 0.00 0.00 0.00 0.08 0.11 0.08 0.02 0.02 0.01 0.04 0.14 0.14 0.13 0.07 0.07 0.08 0.04 0.02 0.00 0.00 0.00 0.00 0.00 0.00 0.00 0.00 0.00
0.00 0.00 0.00 0.02 0.01 0.00 0.00 0.00 0.00 0.00 0.00 0.01 0.00 0.00 0.00 0.00 0.00 0.00 0.00 0.00 0.01 0.04 0.00 0.00 0.01 0.15 0.08 0.05 0.02 0.02 0.04 0.05 0.12 0.09 0.08 0.06 0.04 0.05 0.01 0.01 0.00 0.00 0.00 0.00 0.00 0.00 0.00 0.00 0.00
0.00 0.00 0.00 0.00 0.01 0.00 0.00 0.00 0.00 0.00 0.00 0.01 0.00 0.00 0.01 0.00 0.00 0.00 0.00 0.00 0.00 0.02 0.03 0.00 0.03 0.07 0.02 0.01 0.02 0.01 0.04 0.11 0.18 0.15 0.14 0.13 0.03 0.04 0.01 0.00 0.01 0.00 0.00 0.00 0.00 0.00 0.00 0.00 0.00
0.00 0.00 0.00 0.00 0.00 0.00 0.00 0.00 0.00 0.00 0.00 0.00 0.00 0.00 0.00 0.00 0.00 0.00 0.00 0.00 0.00 0.00 0.02 0.01 0.03 0.09 0.01 0.01 0.03 0.02 0.03 0.10 0.17 0.14 0.11 0.19 0.12 0.04 0.01 0.02 0.02 0.00 0.00 0.00 0.00 0.00 0.00 0.00 0.00
0.00 0.00 0.00 0.00 0.00 0.00 0.00 0.00 0.00 0.00 0.00 0.00 0.00 0.00 0.00 0.00 0.00 0.00 0.00 0.00 0.00 0.00 0.00 0.03 0.06 0.12 0.04 0.01 0.00 0.00 0.06 0.12 0.10 0.17 0.17 0.15 0.14 0.13 0.06 0.02 0.00 0.00 0.00 0.00 0.00 0.00 0.00 0.00 0.00
0.00 0.00 0.00 0.00 0.00 0.00 0.00 0.00 0.00 0.00 0.00 0.00 0.00 0.00 0.00 0.01 0.01 0.01 0.00 0.00 0.01 0.02 0.03 0.06 0.11 0.14 0.04 0.01 0.00 0.01 0.06 0.08 0.16 0.17 0.13 0.10 0.09 0.10 0.09 0.05 0.04 0.00 0.00 0.00 0.00 0.00 0.00 0.00 0.00
0.00 0.00 0.00 0.00 0.00 0.01 0.00 0.00 0.01 0.01 0.00 0.00 0.00 0.00 0.00 0.00 0.00 0.00 0.01 0.00 0.00 0.04 0.07 0.08 0.11 0.15 0.08 0.01 0.06 0.12 0.14 0.15 0.16 0.13 0.10 0.08 0.08 0.06 0.04 0.03 0.02 0.01 0.00 0.00 0.00 0.00 0.00 0.01 0.00
0.00 0.00 0.00 0.00 0.00 0.01 0.01 0.00 0.01 0.01 0.01 0.02 0.00 0.00 0.00 0.00 0.01 0.02 0.02 0.01 0.01 0.05 0.08 0.10 0.12 0.19 0.09 0.06 0.07 0.13 0.17 0.13 0.09 0.08 0.06 0.05 0.06 0.04 0.04 0.04 0.03 0.02 0.01 0.00 0.01 0.04 0.03 0.00 0.00
0.00 0.00 0.01 0.08 0.02 0.00 0.00 0.01 0.01 0.00 0.01 0.08 0.04 0.00 0.00 0.00 0.01 0.02 0.02 0.01 0.02 0.04 0.08 0.08 0.07 0.09 0.09 0.12 0.06 0.04 0.12 0.15 0.12 0.09 0.07 0.06 0.05 0.03 0.06 0.09 0.08 0.05 0.06 0.08 0.04 0.01 0.00 0.00 0.01
0.00 0.00 0.02 0.11 0.09 0.01 0.01 0.01 0.00 0.00 0.00 0.00 0.01 0.00 0.00 0.00 0.00 0.01 0.01 0.02 0.02 0.07 0.18 0.12 0.11 0.11 0.07 0.11 0.16 0.18 0.19 0.19 0.18 0.19 0.13 0.08 0.08 0.12 0.21 0.27 0.25 0.20 0.12 0.04 0.05 0.04 0.00 0.01 0.01
0.00 0.00 0.00 0.01 0.01 0.00 0.00 0.00 0.00 0.00 0.00 0.00 0.00 0.00 0.00 0.00 0.00 0.00 0.00 0.02 0.02 0.02 0.15 0.20 0.13 0.12 0.08 0.10 0.16 0.23 0.32 0.34 0.30 0.25 0.21 0.17 0.12 0.09 0.17 0.25 0.18 0.15 0.17 0.11 0.06 0.03 0.02 0.02 0.02
0.00 0.00 0.00 0.00 0.02 0.01 0.00 0.00 0.00 0.01 0.00 0.00 0.00 0.00 0.00 0.00 0.00 0.00 0.00 0.00 0.01 0.01 0.05 0.06 0.05 0.10 0.10 0.07 0.09 0.15 0.24 0.29 0.28 0.29 0.29 0.22 0.16 0.13 0.13 0.14 0.18 0.16 0.11 0.08 0.07 0.04 0.03 0.04 0.07
0.00 0.00 0.00 0.00 0.00 0.02 0.01 0.00 0.00 0.00 0.00 0.00 0.00 0.00 0.00 0.00 0.00 0.00 0.00 0.00 0.00 0.00 0.01 0.00 0.02 0.03 0.02 0.06 0.15 0.20 0.25 0.24 0.25 0.27 0.23 0.15 0.09 0.07 0.07 0.07 0.08 0.09 0.11 0.11 0.08 0.06 0.05 0.06 0.03
0.00 0.01 0.02 0.00 0.00 0.00 0.00 0.00 0.00 0.00 0.00 0.00 0.00 0.00 0.00 0.00 0.00 0.00 0.00 0.00 0.00 0.00 0.00 0.00 0.02 0.07 0.13 0.16 0.21 0.27 0.29 0.29 0.24 0.18 0.13 0.09 0.05 0.03 0.04 0.06 0.05 0.04 0.05 0.06 0.06 0.07 0.06 0.03 0.01

GFSSGP_prec_precacc24_063.txt.gz
Total_Precipitation_Accumulation
0.00 0.00 0.00 0.00 0.00 0.00 0.00 0.00 0.00 0.00 0.00 0.05 0.09 0.11 0.09 0.14 0.27 0.40 0.51 1.13 2.17 1.52 0.85 0.72 0.52 0.04 0.01 0.00 0.00 0.00 0.00 0.00 0.00 0.00 0.00 0.00 0.00 0.00 0.01 0.00 0.00 0.00 0.00 0.00 0.00 0.00 0.00 0.00 0.00
0.00 0.00 0.00 0.00 0.00 0.00 0.00 0.00 0.00 0.00 0.03 0.13 0.17 0.20 0.22 0.20 0.18 0.30 0.33 0.27 0.29 0.28 0.37 0.47 0.95 0.28 0.05 0.00 0.00 0.00 0.00 0.00 0.00 0.00 0.00 0.00 0.00 0.00 0.00 0.00 0.00 0.00 0.01 0.00 0.00 0.00 0.00 0.00 0.00
0.00 0.00 0.00 0.00 0.00 0.00 0.00 0.01 0.01 0.05 0.15 0.13 0.06 0.10 0.12 0.27 0.44 0.42 0.34 0.31 0.26 0.15 0.16 0.35 0.61 0.30 0.04 0.00 0.00 0.00 0.00 0.00 0.00 0.00 0.00 0.00 0.00 0.00 0.00 0.00 0.00 0.01 0.01 0.00 0.00 0.00 0.00 0.00 0.00
0.00 0.00 0.00 0.00 0.00 0.00 0.00 0.00 0.02 0.08 0.09 0.06 0.04 0.15 0.41 0.36 0.61 0.33 0.21 0.38 0.50 0.79 0.59 0.65 0.62 0.24 0.10 0.01 0.00 0.00 0.00 0.00 0.00 0.00 0.00 0.00 0.00 0.00 0.00 0.00 0.00 0.01 0.00 0.00 0.00 0.00 0.00 0.00 0.00
0.00 0.00 0.00 0.00 0.00 0.00 0.01 0.03 0.12 0.14 0.12 0.26 0.11 0.23 0.79 0.40 0.26 0.25 0.49 1.17 1.95 1.84 1.39 1.28 1.29 0.74 0.18 0.04 0.01 0.00 0.00 0.00 0.00 0.00 0.00 0.00 0.00 0.00 0.00 0.00 0.00 0.00 0.00 0.00 0.00 0.00 0.00 0.00 0.00
0.00 0.00 0.00 0.00 0.00 0.00 0.00 0.07 0.20 0.20 0.20 0.32 0.12 0.37 0.82 0.29 0.33 0.41 0.66 0.96 2.63 4.28 4.60 2.93 2.53 1.68 0.65 0.31 0.07 0.02 0.00 0.00 0.00 0.00 0.01 0.01 0.01 0.00 0.00 0.00 0.00 0.00 0.00 0.00 0.00 0.00 0.00 0.00 0.00
0.00 0.00 0.00 0.00 0.00 0.00 0.00 0.03 0.07 0.14 0.17 0.32 0.20 0.43 0.93 0.34 0.23 0.26 0.68 1.62 2.79 3.84 7.65 7.75 4.32 2.97 2.13 1.70 0.80 0.29 0.06 0.02 0.01 0.01 0.01 0.02 0.00 0.00 0.00 0.00 0.00 0.00 0.00 0.00 0.00 0.00 0.00 0.00 0.00
0.00 0.00 0.00 0.00 0.00 0.00 0.00 0.02 0.01 0.05 0.24 0.45 0.19 0.27 1.03 0.49 0.23 0.22 0.36 0.93 2.82 4.52 4.67 4.88 3.62 2.78 2.33 1.67 1.21 0.64 0.23 0.06 0.01 0.01 0.02 0.02 0.00 0.00 0.00 0.00 0.00 0.00 0.00 0.00 0.00 0.00 0.00 0.00 0.00
0.00 0.00 0.00 0.00 0.00 0.00 0.00 0.00 0.05 0.04 0.06 0.22 0.26 0.16 0.14 0.21 0.17 0.13 0.17 0.34 0.98 2.03 2.29 2.20 1.65 1.05 1.09 0.97 0.84 0.64 0.37 0.09 0.03 0.03 0.08 0.07 0.03 0.00 0.00 0.00 0.00 0.00 0.00 0.00 0.00 0.00 0.00 0.00 0.00
0.00 0.00 0.00 0.00 0.00 0.00 0.00 0.00 0.00 0.00 0.06 0.40 0.42 0.15 0.12 0.19 0.13 0.06 0.08 0.18 0.41 0.72 1.01 0.89 0.53 0.23 0.15 0.29 0.38 0.42 0.30 0.18 0.02 0.02 0.02 0.04 0.01 0.00 0.00 0.00 0.00 0.00 0.00 0.00 0.00 0.00 0.00 0.00 0.00
0.00 0.00 0.00 0.00 0.00 0.00 0.00 0.00 0.00 0.00 0.09 0.24 0.21 0.16 0.12 0.13 0.07 0.05 0.06 0.16 0.29 0.32 0.54 0.66 0.46 0.26 0.15 0.14 0.18 0.21 0.13 0.08 0.01 0.00 0.00 0.00 0.00 0.00 0.00 0.00 0.00 0.00 0.00 0.00 0.00 0.00 0.00 0.00 0.00
0.00 0.00 0.00 0.00 0.00 0.00 0.00 0.00 0.00 0.04 0.44 0.40 0.04 0.10 0.10 0.08 0.06 0.01 0.01 0.09 0.30 0.33 0.35 0.30 0.34 0.34 0.46 0.30 0.21 0.17 0.11 0.04 0.02 0.01 0.01 0.00 0.00 0.00 0.00 0.00 0.00 0.00 0.00 0.00 0.00 0.00 0.00 0.00 0.00
0.00 0.00 0.00 0.00 0.00 0.00 0.00 0.01 0.01 0.36 0.85 0.13 0.09 0.12 0.09 0.08 0.07 0.01 0.01 0.08 0.18 0.24 0.32 0.34 0.15 0.24 0.22 0.22 0.22 0.17 0.16 0.06 0.02 0.01 0.00 0.00 0.00 0.00 0.00 0.00 0.00 0.00 0.00 0.00 0.00 0.00 0.00 0.00 0.00
0.00 0.00 0.00 0.00 0.01 0.01 0.00 0.01 0.12 0.25 0.24 0.21 0.21 0.13 0.08 0.07 0.06 0.03 0.01 0.02 0.10 0.21 0.29 0.32 0.27 0.25 0.23 0.19 0.22 0.14 0.07 0.02 0.01 0.00 0.01 0.01 0.01 0.00 0.00 0.00 0.00 0.00 0.00 0.00 0.00 0.00 0.00 0.00 0.00
0.00 0.01 0.01 0.04 0.02 0.01 0.00 0.08 0.17 0.44 0.30 0.15 0.19 0.19 0.16 0.13 0.03 0.04 0.02 0.00 0.01 0.05 0.12 0.26 0.23 0.22 0.14 0.17 0.19 0.16 0.08 0.01 0.01 0.06 0.11 0.06 0.01 0.03 0.02 0.00 0.00 0.00 0.00 0.00 0.00 0.00 0.00 0.00 0.00
0.00 0.00 0.02 0.16 0.03 0.01 0.01 0.18 0.34 0.10 0.13 0.40 0.12 0.15 0.16 0.09 0.02 0.00 0.00 0.00 0.00 0.00 0.01 0.04 0.10 0.08 0.05 0.08 0.07 0.08 0.05 0.03 0.05 0.09 0.13 0.13 0.10 0.09 0.03 0.01 0.00 0.00 0.00 0.00 0.00 0.00 0.00 0.00 0.00
0.00 0.00 0.00 0.01 0.01 0.01 0.00 0.01 0.15 0.09 0.09 0.26 0.08 0.05 0.02 0.02 0.01 0.00 0.00 0.00 0.00 0.00 0.00 0.00 0.01 0.00 0.01 0.05 0.02 0.02 0.03 0.05 0.14 0.14 0.14 0.07 0.07 0.08 0.04 0.02 0.00 0.00 0.00 0.00 0.00 0.00 0.00 0.00 0.00
0.00 0.00 0.00 0.02 0.01 0.00 0.00 0.00 0.01 0.11 0.12 0.08 0.04 0.01 0.01 0.00 0.00 0.00 0.00 0.00 0.00 0.00 0.00 0.00 0.00 0.00 0.00 0.04 0.02 0.02 0.08 0.06 0.12 0.09 0.09 0.08 0.06 0.08 0.02 0.01 0.01 0.00 0.00 0.00 0.00 0.00 0.00 0.00 0.00
0.00 0.00 0.00 0.00 0.01 0.00 0.00 0.00 0.00 0.04 0.15 0.06 0.03 0.00 0.00 0.00 0.00 0.00 0.00 0.00 0.00 0.00 0.00 0.00 0.00 0.00 0.00 0.01 0.01 0.01 0.05 0.11 0.18 0.15 0.15 0.15 0.08 0.13 0.11 0.07 0.10 0.01 0.01 0.00 0.00 0.00 0.00 0.00 0.00
0.00 0.00 0.00 0.00 0.00 0.00 0.00 0.00 0.00 0.00 0.02 0.00 0.00 0.01 0.00 0.00 0.00 0.00 0.00 0.00 0.00 0.00 0.01 0.00 0.00 0.01 0.00 0.01 0.02 0.02 0.03 0.10 0.17 0.14 0.12 0.22 0.15 0.11 0.07 0.13 0.26 0.12 0.09 0.01 0.00 0.00 0.00 0.00 0.00
0.00 0.00 0.00 0.00 0.00 0.00 0.00 0.00 0.00 0.00 0.00 0.00 0.00 0.02 0.01 0.00 0.00 0.00 0.00 0.00 0.00 0.00 0.00 0.01 0.02 0.05 0.03 0.01 0.00 0.00 0.06 0.12 0.10 0.17 0.17 0.16 0.15 0.20 0.13 0.16 0.20 0.15 0.08 0.03 0.00 0.00 0.00 0.00 0.00
0.00 0.00 0.00 0.00 0.00 0.00 0.00 0.00 0.00 0.00 0.00 0.00 0.00 0.01 0.01 0.01 0.01 0.01 0.00 0.00 0.00 0.00 0.00 0.02 0.05 0.09 0.03 0.00 0.00 0.01 0.06 0.08 0.16 0.17 0.13 0.10 0.09 0.11 0.12 0.15 0.16 0.18 0.13 0.11 0.05 0.02 0.01 0.03 0.06
0.00 0.00 0.00 0.00 0.00 0.00 0.00 0.00 0.00 0.00 0.00 0.00 0.00 0.00 0.03 0.01 0.00 0.00 0.01 0.00 0.00 0.02 0.03 0.05 0.08 0.09 0.04 0.01 0.06 0.12 0.14 0.15 0.16 0.13 0.10 0.08 0.08 0.07 0.05 0.03 0.03 0.03 0.03 0.02 0.04 0.05 0.12 0.19 0.21
0.00 0.00 0.00 0.00 0.00 0.00 0.00 0.00 0.00 0.00 0.00 0.00 0.00 0.00 0.09 0.01 0.01 0.02 0.02 0.01 0.00 0.03 0.07 0.08 0.07 0.14 0.09 0.06 0.07 0.13 0.17 0.14 0.10 0.08 0.09 0.06 0.07 0.07 0.07 0.05 0.03 0.03 0.03 0.04 0.12 0.27 0.30 0.27 0.24
0.00 0.00 0.01 0.06 0.01 0.00 0.00 0.00 0.00 0.00 0.00 0.00 0.00 0.00 0.00 0.00 0.01 0.02 0.01 0.00 0.02 0.03 0.08 0.08 0.07 0.09 0.09 0.12 0.07 0.05 0.12 0.16 0.16 0.12 0.17 0.12 0.06 0.06 0.13 0.18 0.11 0.06 0.11 0.19 0.18 0.15 0.16 0.16 0.17
0.00 0.00 0.02 0.10 0.08 0.05 0.02 0.00 0.00 0.00 0.00 0.00 0.00 0.00 0.00 0.00 0.00 0.01 0.01 0.02 0.03 0.07 0.18 0.12 0.11 0.11 0.07 0.11 0.16 0.20 0.25 0.31 0.37 0.35 0.29 0.17 0.19 0.23 0.39 0.48 0.40 0.27 0.18 0.16 0.20 0.27 0.30 0.25 0.18
0.00 0.00 0.00 0.01 0.02 0.04 0.01 0.00 0.00 0.00 0.00 0.00 0.00 0.00 0.00 0.00 0.00 0.00 0.01 0.02 0.03 0.03 0.15 0.20 0.13 0.12 0.08 0.10 0.16 0.24 0.36 0.39 0.30 0.30 0.48 0.36 0.25 0.17 0.32 0.44 0.28 0.20 0.20 0.22 0.22 0.18 0.15 0.12 0.07
0.00 0.00 0.00 0.00 0.07 0.06 0.00 0.00 0.01 0.01 0.00 0.00 0.00 0.00 0.00 0.00 0.00 0.00 0.00 0.00 0.01 0.01 0.06 0.08 0.07 0.11 0.10 0.08 0.10 0.15 0.27 0.37 0.38 0.69 0.91 0.96 0.68 0.40 0.24 0.22 0.20 0.17 0.13 0.13 0.15 0.15 0.12 0.09 0.09
0.00 0.00 0.00 0.00 0.00 0.05 0.03 0.01 0.01 0.01 0.00 0.00 0.00 0.00 0.00 0.00 0.00 0.00 0.00 0.01 0.00 0.00 0.01 0.02 0.05 0.07 0.04 0.10 0.20 0.33 0.39 0.56 0.74 0.64 0.89 0.51 0.30 0.19 0.13 0.08 0.09 0.12 0.15 0.16 0.14 0.12 0.10 0.08 0.05
0.00 0.00 0.01 0.00 0.00 0.01 0.02 0.01 0.01 0.00 0.00 0.00 0.00 0.00 0.00 0.00 0.00 0.00 0.00 0.01 0.00 0.00 0.00 0.00 0.04 0.14 0.28 0.40 0.87 0.82 0.97 0.90 0.82 0.86 0.73 0.30 0.12 0.12 0.07 0.07 0.08 0.09 0.11 0.10 0.08 0.08 0.06 0.04 0.02

GFSSGP_prec_precacc24_066.txt.gz
Total_Precipitation_Accumulation
0.00 0.00 0.00 0.00 0.00 0.00 0.00 0.00 0.00 0.00 0.00 0.05 0.09 0.11 0.09 0.13 0.27 0.41 0.53 1.14 2.20 1.54 0.93 0.73 0.71 0.25 0.09 0.01 0.00 0.00 0.00 0.00 0.00 0.00 0.00 0.00 0.00 0.00 0.01 0.00 0.00 0.00 0.00 0.00 0.00 0.00 0.00 0.00 0.00
0.00 0.00 0.00 0.00 0.00 0.00 0.00 0.00 0.00 0.00 0.03 0.13 0.17 0.20 0.22 0.20 0.21 0.38 0.39 0.29 0.30 0.28 0.40 0.53 1.03 0.87 0.71 0.22 0.00 0.00 0.00 0.00 0.00 0.00 0.00 0.00 0.00 0.00 0.00 0.00 0.00 0.00 0.01 0.00 0.00 0.00 0.00 0.00 0.00
0.00 0.00 0.00 0.00 0.00 0.00 0.00 0.00 0.00 0.05 0.15 0.12 0.06 0.10 0.12 0.27 0.45 0.45 0.33 0.26 0.26 0.15 0.16 0.35 0.79 1.03 0.55 0.50 0.10 0.00 0.00 0.00 0.00 0.00 0.00 0.00 0.00 0.00 0.00 0.00 0.00 0.01 0.01 0.00 0.00 0.00 0.00 0.00 0.00
0.00 0.00 0.00 0.00 0.00 0.00 0.00 0.00 0.01 0.08 0.09 0.06 0.04 0.15 0.41 0.36 0.60 0.34 0.19 0.34 0.48 0.78 0.59 0.64 0.67 0.47 0.40 0.46 0.18 0.03 0.01 0.00 0.00 0.00 0.00 0.01 0.00 0.00 0.00 0.00 0.00 0.01 0.00 0.00 0.00 0.00 0.00 0.00 0.00
0.00 0.00 0.00 0.00 0.00 0.00 0.00 0.00 0.06 0.12 0.12 0.26 0.11 0.23 0.80 0.40 0.22 0.22 0.43 1.19 1.86 1.71 1.40 1.30 1.52 0.99 0.42 0.25 0.12 0.03 0.01 0.00 0.00 0.00 0.01 0.01 0.00 0.00 0.00 0.00 0.00 0.00 0.00 0.00 0.00 0.00 0.00 0.00 0.00
0.00 0.00 0.00 0.00 0.00 0.00 0.00 0.02 0.10 0.11 0.18 0.29 0.11 0.37 0.82 0.28 0.26 0.18 0.40 0.71 2.36 3.76 4.36 2.93 3.18 3.84 2.37 0.79 0.14 0.03 0.00 0.00 0.01 0.02 0.03 0.01 0.01 0.00 0.00 0.00 0.00 0.00 0.00 0.00 0.00 0.00 0.00 0.00 0.00
0.00 0.00 0.00 0.00 0.00 0.00 0.00 0.01 0.03 0.05 0.15 0.31 0.19 0.43 0.93 0.33 0.22 0.19 0.35 0.91 2.10 3.47 7.24 7.64 5.16 5.07 4.34 4.55 1.82 0.50 0.13 0.02 0.02 0.04 0.05 0.03 0.00 0.00 0.00 0.00 0.00 0.00 0.00 0.00 0.00 0.00 0.00 0.00 0.00
0.00 0.00 0.00 0.00 0.00 0.00 0.00 0.00 0.01 0.02 0.21 0.44 0.14 0.26 1.03 0.48 0.23 0.19 0.27 0.50 1.23 2.83 4.10 4.78 3.66 3.66 3.50 3.30 2.69 1.28 0.49 0.09 0.06 0.09 0.10 0.05 0.00 0.00 0.00 0.00 0.00 0.00 0.00 0.00 0.00 0.00 0.00 0.00 0.00
0.00 0.00 0.00 0.00 0.00 0.00 0.00 0.00 0.05 0.04 0.06 0.21 0.25 0.15 0.12 0.17 0.18 0.13 0.16 0.25 0.45 1.37 1.96 2.00 1.55 1.20 1.52 1.47 1.52 1.49 0.75 0.21 0.08 0.06 0.11 0.08 0.04 0.00 0.00 0.00 0.00 0.00 0.00 0.00 0.00 0.00 0.00 0.00 0.00
0.00 0.00 0.00 0.00 0.00 0.00 0.00 0.00 0.00 0.00 0.06 0.38 0.42 0.14 0.11 0.21 0.16 0.07 0.08 0.13 0.19 0.37 0.78 0.72 0.48 0.23 0.19 0.34 0.45 0.60 0.51 0.24 0.08 0.06 0.07 0.07 0.02 0.00 0.00 0.00 0.00 0.00 0.00 0.00 0.00 0.00 0.00 0.00 0.00
0.00 0.00 0.00 0.00 0.00 0.00 0.00 0.00 0.00 0.00 0.09 0.23 0.20 0.15 0.12 0.15 0.09 0.05 0.03 0.08 0.11 0.19 0.42 0.59 0.46 0.26 0.15 0.15 0.19 0.22 0.16 0.09 0.03 0.04 0.02 0.01 0.00 0.00 0.00 0.00 0.00 0.00 0.00 0.00 0.00 0.00 0.00 0.00 0.00
0.00 0.00 0.00 0.00 0.00 0.00 0.00 0.00 0.00 0.04 0.43 0.40 0.04 0.08 0.11 0.07 0.03 0.01 0.01 0.10 0.31 0.31 0.33 0.26 0.34 0.34 0.46 0.30 0.21 0.17 0.12 0.04 0.02 0.01 0.01 0.00 0.00 0.00 0.00 0.00 0.00 0.00 0.00 0.00 0.00 0.00 0.00 0.00 0.00
0.00 0.00 0.00 0.00 0.00 0.00 0.00 0.00 0.01 0.35 0.80 0.12 0.09 0.03 0.03 0.04 0.02 0.01 0.02 0.08 0.19 0.25 0.36 0.34 0.16 0.24 0.22 0.22 0.22 0.17 0.16 0.06 0.02 0.01 0.00 0.00 0.00 0.00 0.00 0.00 0.00 0.00 0.00 0.00 0.00 0.00 0.00 0.00 0.00
0.00 0.00 0.00 0.00 0.00 0.00 0.00 0.01 0.12 0.22 0.19 0.19 0.21 0.12 0.05 0.04 0.05 0.02 0.01 0.02 0.10 0.23 0.35 0.39 0.31 0.27 0.28 0.20 0.22 0.14 0.07 0.02 0.01 0.00 0.01 0.01 0.00 0.00 0.00 0.00 0.00 0.00 0.00 0.00 0.00 0.00 0.00 0.00 0.00
0.00 0.01 0.00 0.03 0.01 0.00 0.00 0.08 0.17 0.44 0.27 0.15 0.20 0.18 0.16 0.14 0.03 0.02 0.00 0.01 0.02 0.06 0.17 0.41 0.36 0.25 0.17 0.18 0.21 0.16 0.08 0.01 0.01 0.06 0.11 0.06 0.01 0.03 0.02 0.00 0.00 0.00 0.00 0.00 0.00 0.00 0.00 0.00 0.00
0.00 0.00 0.01 0.15 0.02 0.00 0.01 0.18 0.34 0.09 0.11 0.40 0.12 0.13 0.18 0.06 0.01 0.00 0.00 0.00 0.00 0.01 0.03 0.14 0.19 0.11 0.06 0.08 0.08 0.08 0.04 0.03 0.05 0.09 0.13 0.13 0.10 0.09 0.03 0.01 0.00 0.00 0.00 0.00 0.00 0.00 0.00 0.00 0.00
0.00 0.00 0.00 0.01 0.01 0.01 0.00 0.01 0.15 0.08 0.09 0.25 0.08 0.04 0.01 0.01 0.00 0.00 0.00 0.00 0.00 0.00 0.01 0.03 0.02 0.01 0.01 0.05 0.02 0.03 0.03 0.05 0.14 0.15 0.14 0.07 0.07 0.08 0.04 0.02 0.00 0.00 0.00 0.00 0.00 0.00 0.00 0.00 0.00
0.00 0.00 0.00 0.02 0.01 0.00 0.00 0.00 0.01 0.11 0.12 0.08 0.04 0.01 0.01 0.00 0.00 0.00 0.00 0.00 0.00 0.00 0.00 0.01 0.02 0.00 0.00 0.04 0.02 0.02 0.08 0.06 0.12 0.09 0.09 0.08 0.06 0.08 0.02 0.01 0.01 0.00 0.00 0.00 0.00 0.00 0.00 0.00 0.00
0.00 0.00 0.00 0.00 0.01 0.00 0.00 0.00 0.00 0.04 0.15 0.06 0.03 0.00 0.00 0.00 0.00 0.00 0.00 0.00 0.00 0.00 0.00 0.00 0.00 0.00 0.00 0.01 0.00 0.01 0.05 0.11 0.18 0.15 0.15 0.15 0.08 0.13 0.11 0.07 0.10 0.01 0.01 0.00 0.00 0.00 0.00 0.00 0.00
0.00 0.00 0.00 0.00 0.00 0.00 0.00 0.00 0.00 0.00 0.02 0.00 0.00 0.01 0.00 0.00 0.00 0.00 0.00 0.00 0.00 0.00 0.01 0.00 0.00 0.00 0.00 0.01 0.02 0.02 0.03 0.10 0.17 0.14 0.12 0.22 0.15 0.11 0.07 0.13 0.26 0.12 0.09 0.02 0.02 0.00 0.00 0.00 0.00
0.00 0.00 0.00 0.00 0.00 0.00 0.00 0.00 0.00 0.00 0.00 0.00 0.01 0.03 0.01 0.00 0.00 0.00 0.00 0.00 0.00 0.00 0.00 0.00 0.01 0.00 0.00 0.00 0.00 0.00 0.06 0.12 0.10 0.17 0.17 0.16 0.15 0.20 0.13 0.16 0.20 0.15 0.08 0.03 0.01 0.01 0.00 0.00 0.00
0.00 0.00 0.00 0.00 0.00 0.00 0.00 0.00 0.00 0.00 0.00 0.00 0.00 0.02 0.02 0.00 0.00 0.00 0.00 0.00 0.00 0.00 0.00 0.00 0.01 0.01 0.00 0.00 0.00 0.01 0.06 0.08 0.16 0.17 0.13 0.10 0.09 0.11 0.12 0.15 0.16 0.18 0.13 0.12 0.07 0.02 0.01 0.03 0.06
0.00 0.00 0.00 0.00 0.00 0.00 0.00 0.00 0.00 0.00 0.00 0.00 0.00 0.00 0.03 0.01 0.00 0.00 0.00 0.00 0.00 0.01 0.01 0.00 0.05 0.06 0.03 0.00 0.06 0.12 0.14 0.15 0.16 0.13 0.10 0.08 0.08 0.07 0.05 0.04 0.03 0.03 0.04 0.06 0.07 0.07 0.13 0.20 0.24
0.00 0.00 0.00 0.00 0.00 0.00 0.00 0.00 0.00 0.00 0.00 0.00 0.00 0.00 0.09 0.02 0.01 0.01 0.01 0.01 0.00 0.01 0.01 0.03 0.05 0.13 0.08 0.06 0.07 0.12 0.17 0.14 0.10 0.08 0.09 0.06 0.07 0.07 0.07 0.05 0.04 0.04 0.07 0.07 0.14 0.29 0.32 0.28 0.26
0.00 0.00 0.01 0.06 0.01 0.00 0.00 0.00 0.00 0.00 0.00 0.00 0.00 0.00 0.00 0.00 0.01 0.02 0.01 0.00 0.02 0.03 0.04 0.05 0.06 0.09 0.08 0.12 0.07 0.05 0.12 0.16 0.16 0.12 0.17 0.12 0.06 0.06 0.15 0.22 0.19 0.12 0.14 0.25 0.20 0.16 0.17 0.18 0.19
0.00 0.00 0.02 0.10 0.08 0.05 0.01 0.00 0.00 0.00 0.00 0.00 0.00 0.00 0.00 0.00 0.00 0.01 0.01 0.00 0.01 0.05 0.13 0.10 0.10 0.11 0.07 0.10 0.16 0.20 0.25 0.31 0.37 0.36 0.30 0.19 0.20 0.24 0.39 0.52 0.54 0.43 0.27 0.21 0.21 0.27 0.31 0.26 0.20
0.00 0.00 0.00 0.01 0.02 0.04 0.01 0.00 0.00 0.00 0.00 0.00 0.00 0.00 0.00 0.00 0.00 0.00 0.01 0.00 0.01 0.02 0.14 0.19 0.12 0.12 0.06 0.08 0.15 0.24 0.37 0.40 0.30 0.34 0.56 0.39 0.33 0.23 0.37 0.48 0.39 0.38 0.29 0.23 0.22 0.19 0.16 0.16 0.17
0.00 0.00 0.00 0.00 0.07 0.06 0.00 0.00 0.01 0.01 0.00 0.00 0.00 0.00 0.00 0.00 0.00 0.00 0.00 0.00 0.00 0.02 0.08 0.11 0.07 0.09 0.08 0.07 0.09 0.14 0.26 0.40 0.47 0.78 1.06 1.17 0.91 0.67 0.40 0.37 0.39 0.28 0.16 0.14 0.15 0.15 0.13 0.11 0.11
0.00 0.00 0.00 0.00 0.00 0.05 0.03 0.01 0.01 0.01 0.00 0.00 0.00 0.00 0.00 0.00 0.00 0.00 0.00 0.01 0.00 0.00 0.02 0.04 0.09 0.10 0.05 0.10 0.20 0.32 0.38 0.57 0.90 0.85 1.16 0.89 0.61 0.33 0.16 0.15 0.19 0.16 0.17 0.16 0.15 0.13 0.10 0.08 0.06
0.00 0.00 0.00 0.00 0.00 0.01 0.02 0.01 0.01 0.00 0.00 0.00 0.00 0.00 0.00 0.00 0.00 0.00 0.00 0.01 0.00 0.00 0.00 0.02 0.11 0.32 0.54 0.55 0.98 0.90 1.04 1.21 1.10 1.34 1.84 1.00 0.36 0.22 0.15 0.18 0.13 0.11 0.12 0.11 0.08 0.08 0.07 0.05 0.04

GFSSGP_prec_precacc24_069.txt.gz
Total_Precipitation_Accumulation
0.00 0.00 0.00 0.00 0.00 0.00 0.00 0.00 0.00 0.00 0.00 0.05 0.09 0.11 0.09 0.13 0.27 0.41 0.53 1.15 2.20 1.54 0.91 0.73 0.71 0.25 0.15 0.06 0.01 0.00 0.00 0.00 0.00 0.00 0.00 0.00 0.00 0.00 0.01 0.00 0.00 0.00 0.00 0.00 0.00 0.00 0.00 0.00 0.00
0.00 0.00 0.00 0.00 0.00 0.00 0.00 0.00 0.00 0.00 0.02 0.12 0.16 0.20 0.22 0.20 0.20 0.37 0.37 0.28 0.29 0.30 0.39 0.52 1.03 0.90 0.72 0.42 0.20 0.08 0.01 0.00 0.00 0.00 0.01 0.01 0.00 0.00 0.00 0.00 0.00 0.00 0.01 0.00 0.00 0.00 0.00 0.00 0.00
0.00 0.00 0.00 0.00 0.00 0.00 0.00 0.00 0.00 0.04 0.10 0.07 0.04 0.09 0.11 0.25 0.43 0.42 0.29 0.24 0.25 0.17 0.17 0.32 0.79 1.05 0.55 0.56 0.38 0.21 0.10 0.01 0.00 0.01 0.01 0.01 0.00 0.00 0.00 0.00 0.00 0.01 0.01 0.00 0.00 0.00 0.00 0.00 0.00
0.00 0.00 0.00 0.00 0.00 0.00 0.00 0.00 0.00 0.02 0.03 0.02 0.04 0.14 0.39 0.33 0.58 0.31 0.18 0.33 0.47 0.76 0.60 0.61 0.80 0.74 0.47 0.50 0.33 0.34 0.23 0.05 0.00 0.01 0.01 0.01 0.00 0.00 0.00 0.00 0.00 0.01 0.00 0.00 0.00 0.00 0.00 0.00 0.00
0.00 0.00 0.00 0.00 0.00 0.00 0.00 0.00 0.00 0.03 0.07 0.22 0.11 0.23 0.79 0.35 0.18 0.20 0.32 1.07 1.82 1.65 1.29 1.13 1.41 1.15 0.86 0.61 0.46 0.31 0.46 0.14 0.01 0.01 0.02 0.01 0.00 0.00 0.00 0.00 0.00 0.00 0.00 0.00 0.00 0.00 0.00 0.00 0.00
0.00 0.00 0.00 0.00 0.00 0.00 0.00 0.00 0.01 0.04 0.13 0.23 0.07 0.37 0.80 0.19 0.22 0.16 0.31 0.60 2.11 3.60 4.29 2.79 2.96 3.91 3.43 1.99 0.82 0.43 0.23 0.18 0.02 0.02 0.03 0.01 0.01 0.00 0.00 0.00 0.00 0.00 0.00 0.00 0.00 0.00 0.00 0.00 0.00
0.00 0.00 0.00 0.00 0.00 0.00 0.00 0.00 0.01 0.05 0.14 0.31 0.18 0.42 0.91 0.27 0.17 0.16 0.31 0.73 1.44 3.05 6.99 7.35 5.25 5.27 4.84 5.48 3.44 1.01 0.34 0.17 0.04 0.04 0.05 0.03 0.00 0.00 0.00 0.00 0.00 0.00 0.00 0.00 0.00 0.00 0.00 0.00 0.00
0.00 0.00 0.00 0.00 0.00 0.00 0.00 0.00 0.00 0.01 0.20 0.44 0.13 0.24 1.02 0.43 0.16 0.16 0.22 0.39 0.79 2.19 3.35 4.22 3.89 4.10 4.11 4.13 4.78 2.74 1.24 0.32 0.11 0.10 0.11 0.05 0.00 0.00 0.00 0.00 0.00 0.00 0.00 0.00 0.00 0.00 0.00 0.00 0.00
0.00 0.00 0.00 0.00 0.00 0.00 0.00 0.00 0.04 0.03 0.06 0.20 0.22 0.14 0.11 0.15 0.17 0.13 0.15 0.21 0.19 0.83 1.63 1.94 1.64 1.30 1.66 1.87 2.33 2.57 1.83 0.79 0.24 0.11 0.12 0.08 0.04 0.00 0.00 0.00 0.00 0.00 0.00 0.00 0.00 0.00 0.00 0.00 0.00
0.00 0.00 0.00 0.00 0.00 0.00 0.00 0.00 0.00 0.00 0.04 0.37 0.40 0.13 0.10 0.20 0.16 0.06 0.08 0.08 0.10 0.16 0.53 0.63 0.48 0.25 0.22 0.42 0.63 1.02 1.10 0.77 0.43 0.20 0.09 0.07 0.02 0.00 0.00 0.00 0.00 0.00 0.00 0.00 0.00 0.00 0.00 0.00 0.00
0.00 0.00 0.00 0.00 0.00 0.00 0.00 0.00 0.00 0.00 0.09 0.23 0.20 0.14 0.12 0.14 0.09 0.05 0.03 0.05 0.08 0.11 0.21 0.45 0.43 0.26 0.15 0.15 0.21 0.28 0.26 0.34 0.22 0.17 0.08 0.01 0.00 0.00 0.00 0.00 0.00 0.00 0.00 0.00 0.00 0.00 0.00 0.00 0.00
0.00 0.00 0.00 0.00 0.00 0.00 0.00 0.00 0.00 0.04 0.43 0.39 0.04 0.08 0.11 0.07 0.03 0.01 0.01 0.09 0.30 0.31 0.28 0.21 0.34 0.34 0.46 0.30 0.21 0.17 0.13 0.08 0.10 0.07 0.03 0.00 0.00 0.00 0.00 0.00 0.00 0.00 0.00 0.00 0.00 0.00 0.00 0.00 0.00
0.00 0.00 0.00 0.00 0.00 0.00 0.00 0.00 0.01 0.34 0.79 0.12 0.08 0.03 0.03 0.02 0.01 0.01 0.02 0.08 0.20 0.27 0.36 0.32 0.16 0.24 0.22 0.22 0.22 0.17 0.16 0.06 0.03 0.04 0.01 0.00 0.00 0.00 0.00 0.00 0.00 0.00 0.00 0.00 0.00 0.00 0.00 0.00 0.00
0.00 0.00 0.00 0.00 0.00 0.00 0.00 0.01 0.12 0.18 0.16 0.19 0.20 0.12 0.05 0.02 0.00 0.01 0.01 0.02 0.10 0.24 0.36 0.42 0.34 0.31 0.28 0.20 0.22 0.14 0.07 0.03 0.03 0.01 0.01 0.01 0.00 0.00 0.00 0.00 0.00 0.00 0.00 0.00 0.00 0.00 0.00 0.00 0.00
0.00 0.00 0.00 0.03 0.01 0.00 0.00 0.08 0.17 0.42 0.20 0.07 0.19 0.18 0.16 0.13 0.01 0.00 0.00 0.01 0.02 0.06 0.19 0.47 0.41 0.34 0.23 0.22 0.21 0.16 0.08 0.02 0.02 0.06 0.11 0.06 0.01 0.03 0.02 0.00 0.00 0.00 0.00 0.00 0.00 0.00 0.00 0.00 0.00
0.00 0.00 0.01 0.15 0.02 0.00 0.01 0.18 0.34 0.09 0.11 0.39 0.11 0.13 0.18 0.06 0.00 0.00 0.00 0.00 0.00 0.02 0.05 0.21 0.41 0.31 0.19 0.12 0.11 0.11 0.04 0.04 0.05 0.09 0.13 0.13 0.10 0.09 0.03 0.01 0.00 0.00 0.00 0.00 0.00 0.00 0.00 0.00 0.00
0.00 0.00 0.00 0.01 0.01 0.01 0.00 0.01 0.15 0.08 0.09 0.25 0.08 0.04 0.01 0.01 0.00 0.00 0.00 0.00 0.00 0.00 0.02 0.05 0.16 0.19 0.09 0.05 0.03 0.04 0.03 0.05 0.13 0.15 0.14 0.07 0.07 0.08 0.04 0.02 0.00 0.00 0.00 0.00 0.00 0.00 0.00 0.00 0.00
0.00 0.00 0.00 0.02 0.01 0.00 0.00 0.00 0.01 0.11 0.12 0.08 0.04 0.01 0.01 0.00 0.00 0.00 0.00 0.00 0.00 0.00 0.00 0.02 0.07 0.06 0.05 0.05 0.03 0.02 0.05 0.05 0.12 0.09 0.09 0.08 0.06 0.08 0.02 0.01 0.01 0.00 0.00 0.00 0.00 0.00 0.00 0.00 0.00
0.00 0.00 0.00 0.00 0.01 0.00 0.00 0.00 0.00 0.04 0.15 0.06 0.03 0.00 0.00 0.00 0.00 0.00 0.00 0.00 0.00 0.00 0.00 0.01 0.02 0.00 0.00 0.01 0.01 0.01 0.05 0.11 0.18 0.15 0.15 0.15 0.08 0.13 0.11 0.07 0.10 0.01 0.01 0.00 0.00 0.00 0.00 0.00 0.00
0.00 0.00 0.00 0.00 0.00 0.00 0.00 0.00 0.00 0.00 0.02 0.00 0.00 0.01 0.00 0.00 0.00 0.00 0.00 0.00 0.00 0.00 0.00 0.00 0.00 0.00 0.00 0.00 0.00 0.02 0.03 0.10 0.17 0.14 0.12 0.22 0.15 0.11 0.07 0.13 0.26 0.12 0.09 0.02 0.02 0.00 0.00 0.00 0.00
0.00 0.00 0.00 0.00 0.00 0.00 0.00 0.00 0.00 0.00 0.00 0.00 0.01 0.03 0.01 0.00 0.00 0.00 0.00 0.00 0.00 0.00 0.00 0.00 0.00 0.00 0.00 0.00 0.00 0.00 0.05 0.12 0.10 0.17 0.17 0.16 0.15 0.20 0.13 0.16 0.20 0.15 0.08 0.03 0.01 0.01 0.00 0.00 0.00
0.00 0.00 0.00 0.00 0.00 0.00 0.00 0.00 0.00 0.00 0.00 0.00 0.00 0.02 0.02 0.00 0.00 0.00 0.00 0.00 0.00 0.00 0.00 0.00 0.00 0.00 0.00 0.00 0.00 0.01 0.04 0.05 0.15 0.17 0.13 0.10 0.09 0.11 0.12 0.15 0.16 0.18 0.13 0.12 0.07 0.02 0.02 0.05 0.08
0.00 0.00 0.00 0.00 0.00 0.00 0.00 0.00 0.00 0.00 0.00 0.00 0.00 0.00 0.03 0.01 0.00 0.00 0.00 0.00 0.00 0.00 0.00 0.00 0.02 0.02 0.00 0.00 0.01 0.07 0.10 0.13 0.16 0.13 0.10 0.08 0.08 0.07 0.05 0.04 0.03 0.03 0.04 0.06 0.07 0.07 0.14 0.22 0.26
0.00 0.00 0.00 0.00 0.00 0.00 0.00 0.00 0.00 0.00 0.00 0.00 0.00 0.00 0.09 0.01 0.00 0.00 0.00 0.00 0.00 0.00 0.00 0.00 0.00 0.06 0.06 0.04 0.05 0.07 0.14 0.13 0.09 0.08 0.09 0.06 0.07 0.07 0.07 0.05 0.04 0.04 0.07 0.07 0.14 0.29 0.33 0.29 0.27
0.00 0.00 0.01 0.06 0.01 0.00 0.00 0.00 0.00 0.00 0.00 0.00 0.00 0.00 0.00 0.00 0.00 0.00 0.00 0.00 0.00 0.00 0.00 0.01 0.01 0.03 0.06 0.11 0.06 0.03 0.10 0.14 0.15 0.12 0.17 0.12 0.06 0.06 0.15 0.22 0.19 0.13 0.15 0.27 0.25 0.19 0.19 0.20 0.21
0.00 0.00 0.02 0.10 0.08 0.05 0.01 0.00 0.00 0.00 0.00 0.00 0.00 0.00 0.00 0.00 0.00 0.00 0.00 0.00 0.00 0.01 0.04 0.01 0.02 0.05 0.05 0.10 0.16 0.17 0.23 0.31 0.37 0.36 0.30 0.19 0.21 0.24 0.39 0.52 0.54 0.46 0.35 0.33 0.33 0.34 0.35 0.28 0.21
0.00 0.00 0.00 0.01 0.02 0.04 0.01 0.00 0.00 0.00 0.00 0.00 0.00 0.00 0.00 0.00 0.00 0.00 0.01 0.00 0.00 0.01 0.05 0.07 0.03 0.05 0.03 0.06 0.12 0.19 0.31 0.37 0.30 0.34 0.56 0.41 0.37 0.27 0.37 0.47 0.39 0.40 0.36 0.38 0.34 0.23 0.17 0.16 0.17
0.00 0.00 0.00 0.00 0.07 0.06 0.00 0.00 0.01 0.01 0.00 0.00 0.00 0.00 0.00 0.00 0.00 0.00 0.00 0.00 0.00 0.02 0.07 0.12 0.07 0.06 0.05 0.05 0.07 0.12 0.22 0.38 0.47 0.78 1.08 1.22 0.98 0.74 0.47 0.50 0.45 0.34 0.24 0.22 0.18 0.16 0.13 0.11 0.11
0.00 0.00 0.00 0.00 0.00 0.05 0.03 0.01 0.01 0.01 0.00 0.00 0.00 0.00 0.00 0.00 0.00 0.00 0.00 0.01 0.00 0.00 0.05 0.12 0.17 0.13 0.05 0.09 0.17 0.30 0.36 0.56 0.89 0.85 1.16 0.94 0.89 0.94 0.77 0.48 0.41 0.22 0.24 0.23 0.16 0.13 0.10 0.08 0.06
0.00 0.00 0.00 0.00 0.00 0.01 0.02 0.01 0.01 0.00 0.00 0.00 0.00 0.00 0.00 0.00 0.00 0.00 0.00 0.01 0.00 0.00 0.01 0.06 0.25 0.46 0.60 0.57 0.97 0.89 1.04 1.20 1.10 1.37 1.94 1.32 0.95 0.68 0.47 0.29 0.16 0.12 0.13 0.11 0.08 0.08 0.08 0.06 0.04

GFSSGP_prec_precacc24_072.txt.gz
Total_Precipitation_Accumulation
0.00 0.00 0.00 0.00 0.00 0.00 0.00 0.00 0.00 0.00 0.00 0.04 0.07 0.10 0.06 0.09 0.24 0.39 0.53 1.15 2.21 1.54 0.91 0.77 0.72 0.25 0.15 0.06 0.01 0.00 0.00 0.00 0.00 0.00 0.00 0.00 0.00 0.00 0.01 0.00 0.00 0.00 0.00 0.00 0.00 0.00 0.00 0.00 0.00
0.00 0.00 0.00 0.00 0.00 0.00 0.00 0.00 0.00 0.00 0.01 0.08 0.11 0.13 0.17 0.14 0.13 0.31 0.31 0.26 0.30 0.32 0.47 0.67 1.05 0.90 0.72 0.42 0.20 0.09 0.03 0.00 0.00 0.00 0.01 0.01 0.00 0.00 0.00 0.00 0.00 0.00 0.01 0.00 0.00 0.00 0.00 0.00 0.00
0.00 0.00 0.00 0.00 0.00 0.00 0.00 0.00 0.00 0.00 0.04 0.04 0.03 0.08 0.09 0.23 0.37 0.32 0.22 0.21 0.23 0.16 0.21 0.46 0.85 1.07 0.56 0.56 0.39 0.22 0.12 0.04 0.00 0.01 0.01 0.01 0.00 0.00 0.00 0.00 0.00 0.01 0.01 0.00 0.00 0.00 0.00 0.00 0.00
0.00 0.00 0.00 0.00 0.00 0.00 0.00 0.00 0.00 0.00 0.01 0.01 0.01 0.13 0.36 0.31 0.55 0.22 0.15 0.29 0.51 0.76 0.63 0.80 1.48 1.10 0.65 0.60 0.40 0.47 0.29 0.18 0.06 0.01 0.01 0.01 0.00 0.00 0.00 0.00 0.00 0.01 0.00 0.00 0.00 0.00 0.00 0.00 0.00
0.00 0.00 0.00 0.00 0.00 0.00 0.00 0.00 0.00 0.01 0.02 0.11 0.02 0.18 0.77 0.30 0.16 0.17 0.27 0.96 1.74 1.63 1.29 1.18 1.47 1.26 1.16 0.84 0.73 0.60 0.57 0.28 0.14 0.02 0.02 0.01 0.01 0.00 0.01 0.00 0.00 0.00 0.00 0.00 0.00 0.00 0.00 0.00 0.00
0.00 0.00 0.00 0.00 0.00 0.00 0.00 0.00 0.01 0.02 0.10 0.13 0.02 0.30 0.77 0.16 0.16 0.13 0.27 0.54 1.89 3.28 3.82 2.57 2.81 3.76 3.50 2.11 0.94 0.68 0.40 0.42 0.18 0.06 0.03 0.02 0.01 0.00 0.00 0.00 0.00 0.00 0.00 0.00 0.00 0.00 0.00 0.00 0.00
0.00 0.00 0.00 0.00 0.00 0.00 0.00 0.00 0.01 0.04 0.13 0.31 0.17 0.41 0.87 0.23 0.15 0.16 0.31 0.70 1.23 2.72 6.50 6.31 5.11 5.27 4.93 5.56 3.48 1.20 0.49 0.32 0.28 0.14 0.06 0.03 0.00 0.00 0.00 0.00 0.00 0.00 0.00 0.00 0.00 0.00 0.00 0.00 0.00
0.00 0.00 0.00 0.00 0.00 0.00 0.00 0.00 0.00 0.01 0.19 0.44 0.13 0.24 1.01 0.40 0.14 0.15 0.23 0.37 0.60 1.42 2.65 3.73 3.65 4.07 4.15 4.25 4.89 3.21 1.81 0.65 0.39 0.21 0.13 0.05 0.00 0.00 0.00 0.00 0.00 0.00 0.00 0.00 0.00 0.00 0.00 0.00 0.00
0.00 0.00 0.00 0.00 0.00 0.00 0.00 0.00 0.04 0.03 0.05 0.19 0.19 0.14 0.11 0.14 0.17 0.14 0.15 0.22 0.20 0.59 1.07 1.34 1.33 1.22 1.66 1.88 2.41 2.90 2.74 1.84 0.74 0.38 0.14 0.08 0.04 0.00 0.00 0.00 0.00 0.00 0.00 0.00 0.00 0.00 0.00 0.00 0.00
0.00 0.00 0.00 0.00 0.00 0.00 0.00 0.00 0.00 0.00 0.04 0.36 0.39 0.13 0.09 0.19 0.16 0.07 0.08 0.10 0.12 0.19 0.52 0.62 0.47 0.23 0.22 0.43 0.66 1.18 1.83 1.96 1.22 0.65 0.17 0.07 0.02 0.00 0.00 0.00 0.00 0.00 0.00 0.00 0.00 0.00 0.00 0.00 0.00
0.00 0.00 0.00 0.00 0.00 0.00 0.00 0.00 0.00 0.00 0.09 0.23 0.19 0.13 0.11 0.13 0.09 0.04 0.03 0.04 0.08 0.08 0.16 0.31 0.35 0.21 0.14 0.15 0.21 0.33 0.66 1.15 1.05 0.59 0.12 0.01 0.00 0.00 0.00 0.00 0.00 0.00 0.00 0.00 0.00 0.00 0.00 0.00 0.00
0.00 0.00 0.00 0.00 0.00 0.00 0.00 0.00 0.00 0.04 0.43 0.39 0.04 0.08 0.10 0.06 0.02 0.00 0.01 0.06 0.20 0.23 0.21 0.14 0.28 0.32 0.45 0.30 0.21 0.19 0.23 0.31 0.40 0.20 0.04 0.00 0.00 0.00 0.00 0.00 0.00 0.00 0.00 0.00 0.00 0.00 0.00 0.00 0.00
0.00 0.00 0.00 0.00 0.00 0.00 0.00 0.00 0.01 0.32 0.78 0.11 0.08 0.03 0.03 0.02 0.01 0.01 0.02 0.08 0.17 0.25 0.36 0.31 0.16 0.24 0.22 0.22 0.22 0.17 0.17 0.09 0.12 0.08 0.01 0.00 0.00 0.00 0.00 0.00 0.00 0.00 0.00 0.00 0.00 0.00 0.00 0.00 0.00
0.00 0.00 0.00 0.00 0.00 0.00 0.00 0.01 0.11 0.17 0.15 0.19 0.19 0.11 0.04 0.02 0.00 0.01 0.01 0.02 0.10 0.24 0.37 0.42 0.34 0.31 0.29 0.20 0.22 0.14 0.08 0.05 0.06 0.03 0.01 0.01 0.00 0.00 0.00 0.00 0.00 0.00 0.00 0.00 0.00 0.00 0.00 0.00 0.00
0.00 0.00 0.00 0.03 0.00 0.00 0.00 0.08 0.17 0.42 0.20 0.07 0.15 0.16 0.16 0.12 0.01 0.00 0.00 0.01 0.02 0.07 0.20 0.47 0.43 0.36 0.28 0.22 0.21 0.17 0.09 0.04 0.04 0.05 0.08 0.05 0.01 0.02 0.01 0.00 0.00 0.00 0.00 0.00 0.00 0.00 0.00 0.00 0.00
0.00 0.00 0.01 0.15 0.02 0.00 0.01 0.18 0.34 0.09 0.11 0.39 0.11 0.13 0.18 0.06 0.00 0.00 0.00 0.00 0.00 0.02 0.05 0.22 0.47 0.37 0.26 0.13 0.12 0.12 0.04 0.05 0.06 0.08 0.11 0.11 0.08 0.06 0.03 0.01 0.00 0.00 0.00 0.00 0.00 0.00 0.00 0.00 0.00
0.00 0.00 0.00 0.01 0.01 0.01 0.00 0.01 0.15 0.08 0.09 0.25 0.08 0.04 0.01 0.01 0.00 0.00 0.00 0.00 0.00 0.00 0.02 0.05 0.20 0.34 0.29 0.09 0.08 0.10 0.06 0.06 0.08 0.15 0.14 0.07 0.07 0.08 0.04 0.02 0.00 0.00 0.00 0.00 0.00 0.00 0.00 0.00 0.00
0.00 0.00 0.00 0.02 0.01 0.00 0.00 0.00 0.01 0.11 0.12 0.08 0.04 0.01 0.01 0.00 0.00 0.00 0.00 0.00 0.00 0.00 0.00 0.02 0.08 0.19 0.25 0.10 0.06 0.10 0.13 0.09 0.13 0.11 0.09 0.08 0.06 0.08 0.02 0.01 0.01 0.00 0.00 0.00 0.00 0.00 0.00 0.00 0.00
0.00 0.00 0.00 0.00 0.01 0.00 0.00 0.00 0.00 0.04 0.15 0.06 0.03 0.00 0.00 0.00 0.00 0.00 0.00 0.00 0.00 0.00 0.00 0.01 0.02 0.03 0.09 0.09 0.02 0.07 0.07 0.11 0.15 0.16 0.16 0.15 0.08 0.13 0.11 0.07 0.10 0.01 0.01 0.00 0.00 0.00 0.00 0.00 0.00
0.00 0.00 0.00 0.00 0.00 0.00 0.00 0.00 0.00 0.00 0.02 0.00 0.00 0.01 0.00 0.00 0.00 0.00 0.00 0.00 0.00 0.00 0.00 0.00 0.00 0.00 0.00 0.01 0.01 0.03 0.05 0.05 0.12 0.15 0.13 0.23 0.16 0.12 0.08 0.13 0.27 0.13 0.10 0.02 0.02 0.00 0.00 0.00 0.00
0.00 0.00 0.00 0.00 0.00 0.00 0.00 0.00 0.00 0.00 0.00 0.00 0.01 0.03 0.01 0.00 0.00 0.00 0.00 0.00 0.00 0.00 0.00 0.00 0.00 0.00 0.00 0.00 0.00 0.01 0.02 0.06 0.07 0.17 0.18 0.17 0.16 0.21 0.15 0.19 0.21 0.15 0.08 0.03 0.01 0.01 0.00 0.00 0.01
0.00 0.00 0.00 0.00 0.00 0.00 0.00 0.00 0.00 0.00 0.00 0.00 0.00 0.02 0.02 0.00 0.00 0.00 0.00 0.00 0.00 0.00 0.00 0.00 0.00 0.00 0.00 0.00 0.00 0.00 0.01 0.01 0.11 0.16 0.13 0.10 0.10 0.12 0.12 0.15 0.16 0.18 0.13 0.12 0.07 0.02 0.02 0.05 0.09
0.00 0.00 0.00 0.00 0.00 0.00 0.00 0.00 0.00 0.00 0.00 0.00 0.00 0.00 0.03 0.01 0.00 0.00 0.00 0.00 0.00 0.00 0.00 0.00 0.00 0.00 0.00 0.00 0.00 0.00 0.00 0.04 0.12 0.12 0.10 0.08 0.08 0.07 0.05 0.04 0.03 0.03 0.04 0.06 0.08 0.08 0.15 0.22 0.26
0.00 0.00 0.00 0.00 0.00 0.00 0.00 0.00 0.00 0.00 0.00 0.00 0.00 0.00 0.09 0.01 0.00 0.00 0.00 0.00 0.00 0.00 0.00 0.00 0.00 0.00 0.00 0.04 0.04 0.02 0.02 0.04 0.05 0.06 0.08 0.06 0.07 0.07 0.07 0.05 0.04 0.04 0.07 0.07 0.16 0.33 0.34 0.30 0.28
0.00 0.00 0.01 0.06 0.01 0.00 0.00 0.00 0.00 0.00 0.00 0.00 0.00 0.00 0.00 0.00 0.00 0.00 0.00 0.00 0.00 0.00 0.00 0.00 0.00 0.00 0.01 0.06 0.05 0.02 0.03 0.05 0.10 0.10 0.17 0.12 0.06 0.06 0.15 0.22 0.19 0.13 0.14 0.24 0.24 0.19 0.21 0.26 0.27
0.00 0.00 0.02 0.10 0.08 0.05 0.01 0.00 0.00 0.00 0.00 0.00 0.00 0.00 0.00 0.00 0.00 0.00 0.00 0.00 0.00 0.00 0.00 0.00 0.00 0.00 0.00 0.04 0.11 0.14 0.15 0.21 0.30 0.31 0.30 0.19 0.21 0.24 0.38 0.51 0.52 0.43 0.32 0.33 0.36 0.38 0.41 0.38 0.29
0.00 0.00 0.00 0.01 0.02 0.04 0.01 0.00 0.00 0.00 0.00 0.00 0.00 0.00 0.00 0.00 0.00 0.00 0.01 0.00 0.00 0.01 0.00 0.00 0.00 0.02 0.01 0.04 0.06 0.10 0.18 0.23 0.16 0.26 0.54 0.40 0.36 0.26 0.32 0.37 0.35 0.39 0.35 0.39 0.51 0.48 0.35 0.23 0.18
0.00 0.00 0.00 0.00 0.07 0.06 0.00 0.00 0.01 0.01 0.00 0.00 0.00 0.00 0.00 0.00 0.00 0.00 0.00 0.00 0.00 0.01 0.05 0.10 0.05 0.04 0.04 0.04 0.03 0.04 0.13 0.27 0.37 0.70 1.03 1.18 0.96 0.72 0.45 0.52 0.51 0.36 0.24 0.23 0.23 0.24 0.19 0.13 0.11
0.00 0.00 0.00 0.00 0.00 0.05 0.03 0.01 0.01 0.01 0.00 0.00 0.00 0.00 0.00 0.00 0.00 0.00 0.00 0.01 0.00 0.00 0.04 0.12 0.21 0.18 0.04 0.07 0.12 0.25 0.30 0.48 0.82 0.78 1.11 0.91 0.88 0.94 0.80 0.60 0.61 0.50 0.40 0.29 0.22 0.19 0.16 0.11 0.07
0.00 0.00 0.00 0.00 0.00 0.01 0.02 0.01 0.01 0.00 0.00 0.00 0.00 0.00 0.00 0.00 0.00 0.00 0.00 0.01 0.00 0.00 0.01 0.07 0.27 0.47 0.60 0.50 0.89 0.78 0.93 1.12 1.05 1.33 1.91 1.30 0.95 0.70 0.47 0.32 0.24 0.21 0.22 0.20 0.13 0.12 0.11 0.09 0.06

GFSSGP_prec_precacc24_075.txt.gz
Total_Precipitation_Accumulation
0.00 0.00 0.00 0.00 0.00 0.00 0.00 0.00 0.00 0.00 0.00 0.00 0.02 0.05 0.03 0.02 0.19 0.37 0.50 1.08 2.21 1.53 0.91 0.76 0.71 0.25 0.15 0.06 0.01 0.00 0.00 0.00 0.00 0.00 0.00 0.00 0.00 0.00 0.01 0.00 0.00 0.00 0.00 0.00 0.00 0.00 0.00 0.00 0.00
0.00 0.00 0.00 0.00 0.00 0.00 0.00 0.00 0.00 0.00 0.00 0.06 0.06 0.04 0.12 0.09 0.07 0.25 0.26 0.22 0.33 0.32 0.49 0.68 1.05 0.90 0.72 0.47 0.20 0.09 0.03 0.00 0.00 0.00 0.01 0.01 0.00 0.00 0.00 0.00 0.00 0.00 0.01 0.00 0.00 0.00 0.00 0.00 0.00
0.00 0.00 0.00 0.00 0.00 0.00 0.00 0.00 0.00 0.00 0.00 0.00 0.00 0.02 0.04 0.18 0.33 0.30 0.20 0.21 0.29 0.20 0.23 0.57 0.99 1.19 0.65 0.70 0.50 0.26 0.13 0.04 0.00 0.01 0.01 0.01 0.00 0.00 0.00 0.01 0.00 0.01 0.01 0.00 0.00 0.00 0.00 0.00 0.00
0.00 0.00 0.00 0.00 0.00 0.00 0.00 0.00 0.00 0.00 0.00 0.00 0.00 0.12 0.35 0.30 0.50 0.19 0.12 0.24 0.53 0.85 0.65 0.93 1.53 1.08 0.67 0.62 0.47 0.74 0.55 0.22 0.06 0.01 0.01 0.01 0.00 0.00 0.01 0.01 0.01 0.01 0.01 0.01 0.01 0.00 0.00 0.00 0.00
0.00 0.00 0.00 0.00 0.00 0.00 0.00 0.00 0.00 0.01 0.01 0.11 0.01 0.16 0.75 0.28 0.14 0.15 0.23 0.77 1.38 1.57 1.44 1.31 1.67 1.38 1.38 0.88 0.74 0.63 0.95 0.76 0.25 0.03 0.02 0.01 0.01 0.00 0.01 0.02 0.01 0.01 0.00 0.01 0.01 0.00 0.00 0.00 0.00
0.00 0.00 0.00 0.00 0.00 0.00 0.00 0.00 0.00 0.00 0.06 0.13 0.02 0.30 0.76 0.13 0.11 0.12 0.25 0.46 1.65 2.90 3.78 2.64 2.88 3.92 3.61 2.17 0.99 0.79 0.67 1.09 0.55 0.13 0.03 0.02 0.01 0.00 0.01 0.01 0.00 0.00 0.00 0.00 0.00 0.00 0.00 0.00 0.00
0.00 0.00 0.00 0.00 0.00 0.00 0.00 0.00 0.00 0.02 0.13 0.31 0.17 0.39 0.85 0.21 0.12 0.16 0.30 0.59 1.01 2.54 6.12 5.57 5.00 5.40 5.03 5.63 3.55 1.24 0.53 0.60 0.55 0.24 0.07 0.03 0.00 0.00 0.00 0.00 0.00 0.00 0.00 0.00 0.00 0.00 0.00 0.00 0.00
0.00 0.00 0.00 0.00 0.00 0.00 0.00 0.00 0.00 0.01 0.19 0.44 0.13 0.23 0.97 0.35 0.13 0.15 0.23 0.36 0.52 1.25 2.46 3.15 3.17 3.91 4.07 4.30 4.91 3.22 1.85 0.85 0.74 0.30 0.14 0.05 0.00 0.00 0.00 0.00 0.00 0.00 0.00 0.00 0.00 0.00 0.00 0.00 0.00
0.00 0.00 0.00 0.00 0.00 0.00 0.00 0.00 0.04 0.03 0.05 0.19 0.19 0.14 0.10 0.08 0.14 0.13 0.15 0.21 0.20 0.44 0.66 0.99 1.17 1.23 1.66 1.83 2.39 2.90 2.77 2.05 1.36 0.73 0.17 0.08 0.04 0.00 0.00 0.00 0.00 0.00 0.00 0.00 0.00 0.00 0.00 0.00 0.00
0.00 0.00 0.00 0.00 0.00 0.00 0.00 0.00 0.00 0.00 0.04 0.36 0.39 0.12 0.09 0.18 0.16 0.06 0.07 0.09 0.12 0.19 0.30 0.28 0.24 0.17 0.24 0.38 0.60 1.15 1.92 2.23 1.73 1.09 0.26 0.07 0.02 0.00 0.00 0.00 0.00 0.00 0.00 0.00 0.00 0.00 0.00 0.00 0.00
0.00 0.00 0.00 0.00 0.00 0.00 0.00 0.00 0.00 0.00 0.09 0.23 0.19 0.13 0.09 0.11 0.08 0.04 0.02 0.03 0.07 0.08 0.16 0.27 0.32 0.21 0.16 0.16 0.18 0.33 0.96 1.71 1.61 0.97 0.22 0.01 0.00 0.00 0.00 0.00 0.00 0.00 0.00 0.00 0.00 0.00 0.00 0.00 0.00
0.00 0.00 0.00 0.00 0.00 0.00 0.00 0.00 0.00 0.04 0.43 0.39 0.04 0.07 0.09 0.05 0.02 0.00 0.01 0.04 0.12 0.21 0.20 0.14 0.27 0.28 0.42 0.29 0.19 0.20 0.56 1.03 0.90 0.34 0.07 0.00 0.00 0.00 0.00 0.00 0.00 0.00 0.00 0.00 0.00 0.00 0.00 0.00 0.00
0.00 0.00 0.00 0.00 0.00 0.00 0.00 0.00 0.01 0.32 0.78 0.11 0.06 0.02 0.01 0.02 0.01 0.00 0.01 0.07 0.15 0.23 0.35 0.29 0.14 0.23 0.22 0.21 0.22 0.19 0.41 0.39 0.32 0.16 0.01 0.00 0.00 0.00 0.00 0.00 0.00 0.00 0.00 0.00 0.00 0.00 0.00 0.00 0.00
0.00 0.00 0.00 0.00 0.00 0.00 0.00 0.01 0.11 0.17 0.15 0.18 0.16 0.09 0.03 0.01 0.00 0.01 0.01 0.02 0.10 0.25 0.38 0.42 0.34 0.31 0.29 0.20 0.22 0.15 0.22 0.30 0.15 0.09 0.00 0.01 0.00 0.00 0.00 0.00 0.00 0.00 0.00 0.00 0.00 0.00 0.00 0.00 0.00
0.00 0.00 0.00 0.03 0.00 0.00 0.00 0.08 0.17 0.42 0.20 0.07 0.15 0.15 0.14 0.09 0.00 0.00 0.00 0.01 0.02 0.07 0.20 0.48 0.44 0.36 0.28 0.23 0.22 0.17 0.16 0.23 0.16 0.06 0.00 0.01 0.01 0.00 0.00 0.00 0.00 0.00 0.00 0.00 0.00 0.00 0.00 0.00 0.00
0.00 0.00 0.01 0.15 0.02 0.00 0.01 0.18 0.34 0.09 0.11 0.39 0.11 0.13 0.14 0.06 0.00 0.00 0.00 0.00 0.00 0.02 0.06 0.23 0.49 0.48 0.31 0.16 0.13 0.13 0.12 0.19 0.16 0.04 0.01 0.01 0.01 0.01 0.00 0.00 0.00 0.00 0.00 0.00 0.00 0.00 0.00 0.00 0.00
0.00 0.00 0.00 0.01 0.01 0.01 0.00 0.01 0.15 0.08 0.09 0.25 0.08 0.04 0.01 0.01 0.00 0.00 0.00 0.00 0.00 0.00 0.02 0.06 0.24 0.47 0.37 0.12 0.08 0.12 0.12 0.22 0.17 0.06 0.05 0.02 0.02 0.04 0.02 0.01 0.00 0.00 0.00 0.00 0.00 0.00 0.00 0.00 0.00
0.00 0.00 0.00 0.01 0.01 0.00 0.00 0.00 0.01 0.11 0.12 0.08 0.04 0.01 0.01 0.00 0.00 0.00 0.00 0.00 0.00 0.00 0.01 0.02 0.09 0.26 0.39 0.13 0.09 0.15 0.20 0.28 0.23 0.07 0.03 0.06 0.05 0.07 0.01 0.00 0.01 0.00 0.00 0.00 0.00 0.00 0.00 0.00 0.00
0.00 0.00 0.00 0.00 0.00 0.00 0.00 0.00 0.00 0.04 0.15 0.06 0.03 0.00 0.00 0.00 0.00 0.00 0.00 0.00 0.00 0.00 0.01 0.01 0.02 0.04 0.14 0.11 0.03 0.10 0.17 0.26 0.25 0.14 0.07 0.12 0.08 0.13 0.11 0.07 0.10 0.01 0.01 0.00 0.01 0.01 0.00 0.00 0.00
0.00 0.00 0.00 0.00 0.00 0.00 0.00 0.00 0.00 0.00 0.02 0.00 0.00 0.01 0.00 0.00 0.00 0.00 0.00 0.00 0.00 0.00 0.00 0.01 0.00 0.00 0.01 0.02 0.01 0.03 0.08 0.13 0.16 0.17 0.07 0.18 0.16 0.12 0.08 0.13 0.27 0.14 0.10 0.02 0.02 0.01 0.01 0.01 0.00
0.00 0.00 0.00 0.00 0.00 0.00 0.00 0.00 0.00 0.00 0.00 0.00 0.01 0.03 0.01 0.00 0.00 0.00 0.00 0.00 0.00 0.00 0.00 0.00 0.00 0.00 0.00 0.01 0.01 0.04 0.16 0.16 0.12 0.21 0.15 0.16 0.16 0.21 0.15 0.19 0.23 0.16 0.09 0.05 0.02 0.01 0.00 0.00 0.01
0.00 0.00 0.00 0.00 0.00 0.00 0.00 0.00 0.00 0.00 0.00 0.00 0.00 0.02 0.02 0.00 0.00 0.00 0.00 0.00 0.00 0.00 0.00 0.00 0.00 0.00 0.00 0.00 0.00 0.01 0.05 0.08 0.06 0.08 0.12 0.11 0.10 0.13 0.13 0.15 0.17 0.21 0.16 0.13 0.08 0.02 0.02 0.05 0.09
0.00 0.00 0.00 0.00 0.00 0.00 0.00 0.00 0.00 0.00 0.00 0.00 0.00 0.00 0.03 0.01 0.00 0.00 0.00 0.00 0.00 0.00 0.00 0.00 0.00 0.00 0.00 0.00 0.00 0.00 0.00 0.01 0.05 0.07 0.08 0.07 0.08 0.07 0.06 0.05 0.05 0.04 0.06 0.08 0.11 0.12 0.17 0.23 0.27
0.00 0.00 0.00 0.00 0.00 0.00 0.00 0.00 0.00 0.00 0.00 0.00 0.00 0.00 0.09 0.01 0.00 0.00 0.00 0.00 0.00 0.00 0.00 0.00 0.00 0.00 0.00 0.00 0.02 0.01 0.00 0.01 0.01 0.01 0.04 0.04 0.06 0.07 0.07 0.05 0.05 0.04 0.07 0.08 0.17 0.36 0.36 0.32 0.29
0.00 0.00 0.01 0.06 0.01 0.00 0.00 0.00 0.00 0.00 0.00 0.00 0.00 0.00 0.00 0.00 0.00 0.00 0.00 0.00 0.00 0.00 0.00 0.00 0.00 0.00 0.00 0.02 0.02 0.01 0.01 0.03 0.04 0.04 0.13 0.11 0.05 0.05 0.15 0.22 0.19 0.13 0.14 0.23 0.22 0.20 0.24 0.30 0.30
0.00 0.00 0.02 0.10 0.08 0.05 0.01 0.00 0.00 0.00 0.00 0.00 0.00 0.00 0.00 0.00 0.00 0.00 0.00 0.00 0.00 0.00 0.00 0.00 0.00 0.00 0.00 0.02 0.04 0.08 0.12 0.17 0.20 0.18 0.22 0.16 0.18 0.22 0.38 0.51 0.50 0.41 0.31 0.32 0.36 0.38 0.41 0.39 0.31
0.00 0.00 0.00 0.01 0.02 0.04 0.01 0.00 0.00 0.00 0.00 0.00 0.00 0.00 0.00 0.00 0.00 0.00 0.01 0.00 0.00 0.01 0.00 0.00 0.00 0.02 0.01 0.04 0.05 0.06 0.13 0.13 0.03 0.13 0.41 0.31 0.33 0.26 0.31 0.36 0.34 0.39 0.35 0.38 0.51 0.48 0.36 0.25 0.21
0.00 0.00 0.00 0.00 0.07 0.06 0.00 0.00 0.01 0.01 0.00 0.00 0.00 0.00 0.00 0.00 0.00 0.00 0.00 0.00 0.00 0.01 0.05 0.09 0.05 0.03 0.03 0.03 0.02 0.01 0.07 0.18 0.24 0.57 0.91 1.10 0.91 0.70 0.44 0.52 0.50 0.36 0.23 0.22 0.23 0.24 0.21 0.18 0.15
0.00 0.00 0.00 0.00 0.00 0.05 0.03 0.01 0.01 0.01 0.00 0.00 0.00 0.00 0.00 0.00 0.00 0.00 0.00 0.01 0.00 0.00 0.04 0.12 0.21 0.20 0.06 0.04 0.06 0.18 0.23 0.38 0.71 0.67 1.02 0.85 0.85 0.93 0.79 0.59 0.59 0.50 0.41 0.34 0.29 0.23 0.19 0.16 0.11
0.00 0.00 0.00 0.00 0.00 0.01 0.02 0.01 0.01 0.00 0.00 0.00 0.00 0.00 0.00 0.00 0.00 0.00 0.00 0.01 0.00 0.00 0.01 0.07 0.27 0.46 0.60 0.50 0.81 0.68 0.80 0.99 0.94 1.25 1.86 1.27 0.94 0.69 0.46 0.31 0.23 0.23 0.27 0.29 0.21 0.17 0.15 0.15 0.13

GFSSGP_prec_precacc24_078.txt.gz
Total_Precipitation_Accumulation
0.00 0.00 0.00 0.00 0.00 0.00 0.00 0.00 0.00 0.00 0.00 0.00 0.02 0.04 0.02 0.01 0.16 0.34 0.50 1.08 2.20 1.52 0.90 0.76 0.70 0.25 0.15 0.06 0.01 0.00 0.00 0.00 0.00 0.00 0.00 0.00 0.00 0.00 0.01 0.00 0.00 0.01 0.05 0.01 0.00 0.00 0.01 0.01 0.00
0.00 0.00 0.00 0.00 0.00 0.00 0.00 0.00 0.00 0.00 0.00 0.06 0.05 0.03 0.08 0.03 0.06 0.25 0.24 0.21 0.32 0.31 0.48 0.67 1.05 0.92 0.75 0.53 0.21 0.09 0.03 0.01 0.00 0.00 0.01 0.01 0.00 0.00 0.00 0.00 0.00 0.00 0.02 0.00 0.00 0.01 0.01 0.00 0.00
0.00 0.00 0.00 0.00 0.00 0.00 0.00 0.00 0.00 0.00 0.00 0.00 0.00 0.01 0.03 0.13 0.31 0.27 0.20 0.18 0.24 0.15 0.21 0.60 1.03 1.21 0.76 0.93 0.58 0.30 0.14 0.05 0.00 0.01 0.01 0.01 0.00 0.00 0.00 0.01 0.00 0.01 0.01 0.00 0.01 0.01 0.00 0.00 0.00
0.00 0.00 0.00 0.00 0.00 0.00 0.00 0.00 0.00 0.00 0.00 0.00 0.00 0.11 0.35 0.28 0.47 0.17 0.11 0.17 0.44 0.70 0.51 1.21 1.54 1.04 0.85 0.76 0.79 1.36 0.75 0.25 0.06 0.01 0.01 0.01 0.00 0.00 0.01 0.01 0.01 0.01 0.01 0.01 0.01 0.00 0.00 0.00 0.00
0.00 0.00 0.00 0.00 0.00 0.00 0.00 0.00 0.00 0.01 0.01 0.11 0.01 0.16 0.74 0.26 0.09 0.13 0.18 0.38 0.96 1.37 1.27 1.38 1.69 1.30 1.31 0.90 0.86 0.94 1.42 1.24 0.44 0.17 0.03 0.01 0.01 0.00 0.01 0.02 0.01 0.01 0.01 0.01 0.01 0.00 0.00 0.00 0.00
0.00 0.00 0.00 0.00 0.00 0.00 0.00 0.00 0.00 0.00 0.06 0.13 0.02 0.30 0.76 0.12 0.09 0.11 0.18 0.29 1.18 2.35 3.57 2.68 2.88 3.88 3.59 2.28 1.08 0.94 0.77 1.31 0.83 0.62 0.24 0.06 0.01 0.00 0.01 0.01 0.00 0.00 0.01 0.00 0.00 0.00 0.00 0.00 0.00
0.00 0.00 0.00 0.00 0.00 0.00 0.00 0.00 0.00 0.02 0.13 0.31 0.17 0.39 0.84 0.20 0.10 0.15 0.27 0.51 0.86 2.04 5.21 5.25 5.08 5.48 5.13 5.68 3.61 1.32 0.61 0.67 0.67 0.39 0.26 0.16 0.05 0.00 0.01 0.00 0.00 0.00 0.00 0.00 0.00 0.00 0.00 0.00 0.00
0.00 0.00 0.00 0.00 0.00 0.00 0.00 0.00 0.00 0.00 0.19 0.44 0.13 0.23 0.97 0.34 0.11 0.15 0.22 0.34 0.41 0.92 1.85 2.47 2.90 3.88 4.04 4.30 4.94 3.26 1.86 0.93 0.95 0.47 0.25 0.14 0.06 0.02 0.00 0.00 0.00 0.00 0.00 0.00 0.00 0.00 0.00 0.00 0.00
0.00 0.00 0.00 0.00 0.00 0.00 0.00 0.00 0.04 0.03 0.05 0.19 0.19 0.13 0.10 0.06 0.13 0.12 0.15 0.20 0.16 0.29 0.41 0.88 1.12 1.21 1.61 1.79 2.34 2.92 2.78 2.12 1.66 1.47 0.51 0.20 0.11 0.03 0.00 0.00 0.00 0.00 0.00 0.00 0.00 0.00 0.00 0.00 0.00
0.00 0.00 0.00 0.00 0.00 0.00 0.00 0.00 0.00 0.00 0.04 0.36 0.39 0.11 0.08 0.12 0.12 0.05 0.07 0.09 0.10 0.18 0.25 0.23 0.21 0.23 0.36 0.40 0.49 1.04 1.92 2.26 1.95 2.35 1.00 0.25 0.09 0.02 0.00 0.00 0.00 0.00 0.00 0.00 0.00 0.00 0.00 0.00 0.00
0.00 0.00 0.00 0.00 0.00 0.00 0.00 0.00 0.00 0.00 0.09 0.23 0.19 0.11 0.05 0.09 0.06 0.03 0.02 0.03 0.05 0.07 0.14 0.16 0.09 0.05 0.18 0.15 0.11 0.24 0.93 1.74 1.95 1.95 1.09 0.18 0.09 0.02 0.01 0.00 0.00 0.00 0.00 0.00 0.00 0.00 0.00 0.00 0.00
0.00 0.00 0.00 0.00 0.00 0.00 0.00 0.00 0.00 0.04 0.43 0.39 0.04 0.04 0.07 0.03 0.01 0.00 0.01 0.03 0.09 0.15 0.17 0.08 0.16 0.12 0.20 0.24 0.17 0.17 0.57 1.25 1.45 1.01 0.49 0.12 0.04 0.00 0.00 0.00 0.00 0.00 0.00 0.00 0.00 0.00 0.00 0.00 0.00
0.00 0.00 0.00 0.00 0.00 0.00 0.00 0.00 0.01 0.32 0.78 0.11 0.05 0.01 0.01 0.01 0.01 0.00 0.01 0.02 0.07 0.17 0.31 0.24 0.10 0.20 0.18 0.19 0.20 0.18 0.44 0.61 0.77 0.60 0.10 0.03 0.01 0.00 0.00 0.00 0.00 0.00 0.00 0.00 0.00 0.00 0.00 0.00 0.00
0.00 0.00 0.00 0.00 0.00 0.00 0.00 0.01 0.11 0.17 0.15 0.18 0.16 0.09 0.03 0.01 0.00 0.00 0.01 0.02 0.08 0.20 0.31 0.39 0.32 0.29 0.28 0.19 0.21 0.17 0.27 0.62 0.44 0.32 0.09 0.02 0.00 0.00 0.00 0.00 0.00 0.00 0.00 0.00 0.00 0.00 0.00 0.00 0.00
0.00 0.00 0.00 0.03 0.00 0.00 0.00 0.08 0.17 0.42 0.20 0.07 0.15 0.15 0.12 0.07 0.00 0.00 0.00 0.01 0.02 0.07 0.21 0.48 0.45 0.35 0.26 0.20 0.22 0.21 0.19 0.35 0.39 0.17 0.05 0.01 0.01 0.00 0.00 0.00 0.00 0.00 0.00 0.00 0.00 0.00 0.00 0.00 0.00
0.00 0.00 0.01 0.15 0.02 0.00 0.01 0.18 0.34 0.09 0.11 0.39 0.11 0.12 0.13 0.03 0.00 0.00 0.00 0.00 0.00 0.02 0.06 0.23 0.50 0.48 0.31 0.16 0.17 0.22 0.27 0.25 0.25 0.09 0.01 0.00 0.00 0.00 0.00 0.00 0.00 0.00 0.00 0.00 0.00 0.00 0.00 0.00 0.00
0.00 0.00 0.00 0.01 0.01 0.01 0.00 0.01 0.15 0.08 0.09 0.25 0.08 0.04 0.01 0.01 0.00 0.00 0.00 0.00 0.00 0.00 0.02 0.06 0.24 0.49 0.39 0.15 0.15 0.19 0.30 0.32 0.20 0.08 0.01 0.00 0.00 0.00 0.00 0.00 0.00 0.00 0.00 0.00 0.00 0.00 0.00 0.00 0.00
0.00 0.00 0.00 0.01 0.01 0.00 0.00 0.00 0.01 0.11 0.12 0.08 0.04 0.01 0.01 0.00 0.00 0.00 0.00 0.00 0.00 0.00 0.01 0.03 0.10 0.27 0.42 0.16 0.11 0.24 0.41 0.39 0.26 0.08 0.01 0.02 0.02 0.04 0.00 0.00 0.01 0.00 0.00 0.00 0.00 0.00 0.00 0.00 0.00
0.00 0.00 0.00 0.00 0.00 0.00 0.00 0.00 0.00 0.04 0.15 0.06 0.03 0.00 0.00 0.00 0.00 0.00 0.00 0.00 0.00 0.00 0.01 0.02 0.03 0.05 0.15 0.12 0.04 0.16 0.34 0.38 0.28 0.14 0.02 0.03 0.05 0.11 0.11 0.07 0.10 0.01 0.01 0.00 0.01 0.01 0.00 0.00 0.00
0.00 0.00 0.00 0.00 0.00 0.00 0.00 0.00 0.00 0.00 0.02 0.00 0.00 0.01 0.00 0.00 0.00 0.00 0.00 0.00 0.00 0.00 0.00 0.01 0.00 0.00 0.01 0.02 0.01 0.04 0.14 0.28 0.21 0.16 0.03 0.06 0.06 0.10 0.08 0.13 0.27 0.14 0.10 0.02 0.02 0.02 0.02 0.03 0.02
0.00 0.00 0.00 0.00 0.00 0.00 0.00 0.00 0.00 0.00 0.00 0.00 0.01 0.03 0.01 0.00 0.00 0.00 0.00 0.00 0.00 0.00 0.00 0.00 0.00 0.00 0.00 0.01 0.01 0.04 0.17 0.27 0.22 0.19 0.04 0.03 0.07 0.18 0.14 0.19 0.23 0.16 0.09 0.05 0.02 0.01 0.00 0.01 0.02
0.00 0.00 0.00 0.00 0.00 0.00 0.00 0.00 0.00 0.00 0.00 0.00 0.00 0.02 0.02 0.00 0.00 0.00 0.00 0.00 0.00 0.00 0.00 0.00 0.00 0.00 0.00 0.00 0.00 0.01 0.05 0.12 0.07 0.04 0.03 0.03 0.06 0.11 0.13 0.15 0.17 0.21 0.16 0.13 0.08 0.04 0.03 0.05 0.09
0.00 0.00 0.00 0.00 0.00 0.00 0.00 0.00 0.00 0.00 0.00 0.00 0.00 0.00 0.03 0.01 0.00 0.00 0.00 0.00 0.00 0.00 0.00 0.00 0.00 0.00 0.00 0.00 0.00 0.00 0.01 0.03 0.06 0.06 0.04 0.03 0.04 0.05 0.05 0.05 0.05 0.04 0.06 0.08 0.12 0.13 0.17 0.23 0.27
0.00 0.00 0.00 0.00 0.00 0.00 0.00 0.00 0.00 0.00 0.00 0.00 0.00 0.00 0.09 0.01 0.00 0.00 0.00 0.00 0.00 0.00 0.00 0.00 0.00 0.00 0.00 0.00 0.00 0.00 0.00 0.02 0.03 0.03 0.04 0.01 0.02 0.05 0.07 0.05 0.05 0.05 0.07 0.09 0.19 0.38 0.37 0.32 0.31
0.00 0.00 0.01 0.06 0.01 0.00 0.00 0.00 0.00 0.00 0.00 0.00 0.00 0.00 0.00 0.00 0.00 0.00 0.00 0.00 0.00 0.00 0.00 0.00 0.00 0.00 0.00 0.00 0.00 0.00 0.00 0.01 0.04 0.03 0.11 0.06 0.02 0.03 0.13 0.20 0.19 0.15 0.16 0.28 0.29 0.26 0.29 0.31 0.32
0.00 0.00 0.02 0.10 0.08 0.05 0.01 0.00 0.00 0.00 0.00 0.00 0.00 0.00 0.00 0.00 0.00 0.00 0.00 0.00 0.00 0.00 0.00 0.00 0.00 0.00 0.00 0.00 0.00 0.02 0.08 0.14 0.19 0.17 0.18 0.11 0.13 0.14 0.34 0.50 0.51 0.41 0.33 0.35 0.40 0.42 0.44 0.40 0.31
0.00 0.00 0.00 0.01 0.02 0.04 0.01 0.00 0.00 0.00 0.00 0.00 0.00 0.00 0.00 0.00 0.00 0.00 0.01 0.00 0.00 0.01 0.00 0.00 0.00 0.00 0.00 0.00 0.00 0.04 0.07 0.06 0.01 0.10 0.38 0.26 0.27 0.20 0.27 0.32 0.31 0.39 0.35 0.38 0.51 0.47 0.34 0.25 0.21
0.00 0.00 0.00 0.00 0.07 0.06 0.00 0.00 0.01 0.01 0.00 0.00 0.00 0.00 0.00 0.00 0.00 0.00 0.00 0.00 0.00 0.01 0.05 0.09 0.05 0.01 0.00 0.00 0.01 0.00 0.06 0.15 0.22 0.54 0.85 1.04 0.85 0.65 0.38 0.41 0.44 0.34 0.21 0.18 0.18 0.21 0.20 0.17 0.14
0.00 0.00 0.00 0.00 0.00 0.05 0.03 0.01 0.01 0.01 0.00 0.00 0.00 0.00 0.00 0.00 0.00 0.00 0.00 0.01 0.00 0.00 0.04 0.12 0.21 0.20 0.06 0.04 0.06 0.17 0.20 0.35 0.67 0.62 0.96 0.80 0.81 0.90 0.76 0.57 0.58 0.49 0.38 0.29 0.24 0.21 0.17 0.15 0.13
0.00 0.00 0.00 0.00 0.00 0.01 0.02 0.01 0.01 0.00 0.00 0.00 0.00 0.00 0.00 0.00 0.00 0.00 0.00 0.01 0.00 0.00 0.01 0.07 0.27 0.46 0.61 0.52 0.81 0.67 0.79 0.94 0.89 1.20 1.81 1.25 0.92 0.68 0.45 0.30 0.22 0.21 0.24 0.26 0.19 0.14 0.15 0.16 0.16

GFSSGP_prec_precacc24_081.txt.gz
Total_Precipitation_Accumulation
0.00 0.00 0.00 0.00 0.00 0.00 0.00 0.00 0.00 0.00 0.00 0.00 0.02 0.03 0.02 0.00 0.01 0.10 0.30 1.06 2.20 1.51 0.87 0.75 0.70 0.25 0.16 0.08 0.01 0.00 0.00 0.00 0.00 0.00 0.00 0.00 0.00 0.00 0.01 0.00 0.00 0.01 0.10 0.04 0.00 0.00 0.01 0.01 0.00
0.00 0.00 0.00 0.00 0.00 0.00 0.00 0.00 0.00 0.00 0.00 0.06 0.05 0.03 0.07 0.00 0.06 0.23 0.19 0.20 0.31 0.29 0.42 0.61 1.04 0.92 0.78 0.59 0.21 0.10 0.05 0.03 0.00 0.00 0.01 0.01 0.00 0.00 0.00 0.00 0.00 0.01 0.06 0.02 0.01 0.01 0.01 0.00 0.00
0.00 0.00 0.00 0.00 0.00 0.00 0.00 0.00 0.00 0.00 0.00 0.00 0.00 0.01 0.03 0.12 0.31 0.27 0.20 0.18 0.23 0.12 0.19 0.54 1.03 1.21 0.76 0.94 0.62 0.40 0.33 0.11 0.00 0.01 0.01 0.01 0.01 0.01 0.01 0.01 0.00 0.00 0.03 0.01 0.01 0.01 0.00 0.00 0.00
0.00 0.00 0.00 0.00 0.00 0.00 0.00 0.00 0.00 0.00 0.00 0.00 0.00 0.11 0.34 0.28 0.47 0.17 0.11 0.16 0.32 0.39 0.36 1.12 1.48 1.02 0.86 0.81 1.02 1.74 1.42 0.65 0.11 0.01 0.02 0.01 0.01 0.00 0.01 0.01 0.00 0.00 0.01 0.01 0.01 0.01 0.00 0.00 0.00
0.00 0.00 0.00 0.00 0.00 0.00 0.00 0.00 0.00 0.00 0.00 0.11 0.01 0.14 0.70 0.26 0.09 0.13 0.17 0.27 0.61 0.93 1.09 1.30 1.55 1.30 1.37 1.01 1.14 1.45 2.36 2.51 0.97 0.30 0.13 0.05 0.02 0.00 0.01 0.02 0.01 0.01 0.01 0.01 0.01 0.01 0.00 0.00 0.00
0.00 0.00 0.00 0.00 0.00 0.00 0.00 0.00 0.00 0.00 0.06 0.13 0.02 0.29 0.74 0.12 0.09 0.11 0.17 0.24 0.59 1.31 3.07 2.48 2.78 3.82 3.65 2.45 1.20 1.16 1.35 2.25 1.55 0.88 0.65 0.28 0.07 0.00 0.01 0.01 0.01 0.00 0.01 0.00 0.00 0.00 0.00 0.00 0.00
0.00 0.00 0.00 0.00 0.00 0.00 0.00 0.00 0.00 0.01 0.13 0.31 0.17 0.39 0.82 0.19 0.09 0.14 0.26 0.36 0.72 1.16 3.29 4.70 4.98 5.44 5.20 5.96 3.82 1.49 1.40 1.31 1.01 0.52 0.56 0.78 0.31 0.03 0.02 0.03 0.03 0.00 0.00 0.00 0.00 0.00 0.00 0.00 0.00
0.00 0.00 0.00 0.00 0.00 0.00 0.00 0.00 0.00 0.00 0.18 0.44 0.13 0.23 0.90 0.32 0.06 0.13 0.21 0.25 0.39 0.60 0.96 1.41 2.42 3.60 3.93 4.32 4.98 3.37 2.09 1.60 1.31 0.57 0.31 0.51 0.52 0.17 0.02 0.02 0.05 0.02 0.00 0.00 0.00 0.00 0.00 0.00 0.00
0.00 0.00 0.00 0.00 0.00 0.00 0.00 0.00 0.04 0.03 0.05 0.19 0.19 0.12 0.06 0.04 0.09 0.10 0.13 0.18 0.16 0.22 0.33 0.50 0.72 0.85 1.44 1.82 2.32 2.94 2.86 2.29 1.99 1.65 0.65 0.38 0.35 0.16 0.03 0.03 0.02 0.01 0.00 0.00 0.00 0.00 0.00 0.00 0.00
0.00 0.00 0.00 0.00 0.00 0.00 0.00 0.00 0.00 0.00 0.04 0.36 0.37 0.10 0.07 0.07 0.08 0.04 0.07 0.08 0.09 0.11 0.15 0.17 0.16 0.20 0.33 0.38 0.45 0.97 1.88 2.28 2.00 2.45 1.14 0.62 0.43 0.15 0.12 0.11 0.01 0.00 0.00 0.00 0.00 0.00 0.00 0.00 0.00
0.00 0.00 0.00 0.00 0.00 0.00 0.00 0.00 0.00 0.00 0.08 0.23 0.18 0.09 0.02 0.06 0.04 0.01 0.02 0.03 0.05 0.07 0.10 0.10 0.05 0.03 0.16 0.12 0.09 0.19 0.88 1.78 2.05 2.10 1.45 0.57 0.45 0.30 0.17 0.09 0.03 0.00 0.00 0.00 0.00 0.00 0.00 0.00 0.00
0.00 0.00 0.00 0.00 0.00 0.00 0.00 0.00 0.00 0.04 0.43 0.39 0.04 0.03 0.04 0.02 0.01 0.00 0.01 0.03 0.09 0.14 0.16 0.06 0.12 0.09 0.09 0.05 0.04 0.10 0.56 1.28 1.48 1.13 0.96 0.69 0.34 0.18 0.15 0.10 0.03 0.00 0.00 0.00 0.00 0.00 0.00 0.00 0.00
0.00 0.00 0.00 0.00 0.00 0.00 0.00 0.00 0.01 0.32 0.78 0.11 0.05 0.01 0.00 0.01 0.00 0.00 0.01 0.02 0.05 0.14 0.29 0.21 0.07 0.12 0.07 0.03 0.06 0.14 0.44 0.62 0.79 0.69 0.30 0.63 0.22 0.07 0.09 0.09 0.03 0.00 0.00 0.00 0.00 0.00 0.00 0.00 0.00
0.00 0.00 0.00 0.00 0.00 0.00 0.00 0.01 0.11 0.17 0.15 0.18 0.16 0.09 0.02 0.01 0.00 0.00 0.01 0.01 0.03 0.12 0.24 0.31 0.21 0.17 0.14 0.13 0.18 0.14 0.25 0.63 0.49 0.50 0.16 0.18 0.14 0.08 0.04 0.07 0.04 0.00 0.00 0.00 0.00 0.00 0.00 0.00 0.00
0.00 0.00 0.00 0.02 0.00 0.00 0.00 0.01 0.14 0.42 0.20 0.07 0.14 0.14 0.12 0.06 0.00 0.00 0.00 0.00 0.02 0.06 0.15 0.38 0.34 0.28 0.23 0.18 0.22 0.18 0.19 0.38 0.47 0.48 0.21 0.12 0.08 0.06 0.02 0.06 0.04 0.01 0.00 0.00 0.00 0.00 0.00 0.00 0.00
0.00 0.00 0.00 0.02 0.01 0.00 0.00 0.03 0.24 0.09 0.11 0.39 0.10 0.11 0.12 0.03 0.00 0.00 0.00 0.00 0.00 0.02 0.06 0.22 0.48 0.46 0.30 0.13 0.17 0.21 0.31 0.32 0.34 0.31 0.21 0.09 0.04 0.01 0.01 0.03 0.03 0.01 0.00 0.00 0.00 0.00 0.00 0.00 0.00
0.00 0.00 0.00 0.00 0.00 0.00 0.00 0.00 0.15 0.08 0.09 0.25 0.08 0.04 0.01 0.01 0.00 0.00 0.00 0.00 0.00 0.00 0.02 0.07 0.26 0.49 0.39 0.13 0.16 0.27 0.37 0.42 0.27 0.15 0.11 0.07 0.06 0.03 0.01 0.01 0.00 0.00 0.00 0.00 0.00 0.00 0.00 0.00 0.00
0.00 0.00 0.00 0.00 0.00 0.00 0.00 0.00 0.00 0.11 0.12 0.08 0.04 0.01 0.01 0.00 0.00 0.00 0.00 0.00 0.00 0.00 0.01 0.04 0.11 0.27 0.42 0.16 0.12 0.31 0.53 0.43 0.28 0.08 0.04 0.07 0.05 0.05 0.01 0.00 0.01 0.00 0.00 0.00 0.00 0.00 0.00 0.00 0.00
0.00 0.00 0.00 0.00 0.00 0.00 0.00 0.00 0.00 0.04 0.15 0.06 0.03 0.00 0.00 0.00 0.00 0.00 0.00 0.00 0.00 0.00 0.01 0.02 0.04 0.05 0.16 0.13 0.05 0.20 0.39 0.45 0.29 0.15 0.02 0.03 0.05 0.08 0.10 0.07 0.10 0.01 0.01 0.00 0.01 0.01 0.00 0.00 0.00
0.00 0.00 0.00 0.00 0.00 0.00 0.00 0.00 0.00 0.00 0.02 0.00 0.00 0.01 0.00 0.00 0.00 0.00 0.00 0.00 0.00 0.00 0.00 0.02 0.01 0.01 0.01 0.03 0.03 0.06 0.15 0.30 0.22 0.17 0.03 0.04 0.03 0.08 0.07 0.11 0.25 0.14 0.10 0.02 0.02 0.02 0.02 0.03 0.02
0.00 0.00 0.00 0.00 0.00 0.00 0.00 0.00 0.00 0.00 0.00 0.00 0.01 0.03 0.01 0.00 0.00 0.00 0.00 0.00 0.00 0.00 0.00 0.01 0.00 0.00 0.01 0.01 0.03 0.07 0.20 0.30 0.23 0.19 0.04 0.02 0.02 0.09 0.08 0.17 0.22 0.16 0.09 0.05 0.02 0.01 0.00 0.01 0.03
0.00 0.00 0.00 0.00 0.00 0.00 0.00 0.00 0.00 0.00 0.00 0.00 0.00 0.02 0.02 0.00 0.00 0.00 0.00 0.00 0.00 0.00 0.00 0.00 0.00 0.00 0.00 0.00 0.01 0.02 0.06 0.14 0.08 0.04 0.03 0.01 0.01 0.02 0.04 0.10 0.13 0.21 0.16 0.14 0.08 0.04 0.03 0.05 0.10
0.00 0.00 0.00 0.00 0.00 0.00 0.00 0.00 0.00 0.00 0.00 0.00 0.00 0.00 0.03 0.01 0.00 0.00 0.00 0.00 0.00 0.00 0.00 0.00 0.01 0.00 0.00 0.00 0.00 0.01 0.02 0.04 0.07 0.06 0.03 0.01 0.00 0.01 0.01 0.02 0.03 0.04 0.06 0.08 0.12 0.13 0.17 0.23 0.31
0.00 0.00 0.00 0.00 0.00 0.00 0.00 0.00 0.00 0.00 0.00 0.00 0.00 0.00 0.09 0.01 0.00 0.00 0.00 0.00 0.00 0.00 0.00 0.00 0.00 0.00 0.00 0.00 0.00 0.01 0.01 0.02 0.06 0.03 0.04 0.01 0.01 0.03 0.03 0.01 0.02 0.03 0.06 0.09 0.19 0.43 0.40 0.35 0.39
0.00 0.00 0.00 0.03 0.01 0.00 0.00 0.00 0.00 0.00 0.00 0.00 0.00 0.00 0.00 0.00 0.00 0.00 0.00 0.00 0.00 0.00 0.00 0.00 0.00 0.00 0.00 0.00 0.00 0.00 0.01 0.02 0.04 0.03 0.10 0.06 0.01 0.03 0.08 0.13 0.12 0.10 0.12 0.25 0.33 0.35 0.33 0.39 0.40
0.00 0.00 0.00 0.04 0.05 0.04 0.01 0.00 0.00 0.00 0.00 0.00 0.00 0.00 0.00 0.00 0.00 0.00 0.00 0.00 0.00 0.00 0.00 0.00 0.00 0.00 0.00 0.00 0.00 0.02 0.06 0.12 0.19 0.17 0.18 0.11 0.13 0.12 0.18 0.26 0.32 0.27 0.24 0.32 0.41 0.46 0.48 0.47 0.36
0.00 0.00 0.00 0.01 0.02 0.03 0.01 0.00 0.00 0.00 0.00 0.00 0.00 0.00 0.00 0.00 0.00 0.00 0.01 0.00 0.00 0.01 0.00 0.00 0.00 0.00 0.00 0.00 0.00 0.01 0.05 0.06 0.01 0.10 0.37 0.25 0.25 0.18 0.22 0.25 0.23 0.25 0.20 0.29 0.48 0.52 0.37 0.27 0.24
0.00 0.00 0.00 0.00 0.05 0.05 0.00 0.00 0.01 0.01 0.00 0.00 0.00 0.00 0.00 0.00 0.00 0.00 0.00 0.00 0.00 0.01 0.05 0.09 0.05 0.01 0.00 0.00 0.01 0.00 0.03 0.12 0.20 0.51 0.81 1.00 0.83 0.64 0.36 0.39 0.34 0.22 0.14 0.16 0.18 0.22 0.20 0.18 0.13
0.00 0.00 0.00 0.00 0.00 0.03 0.01 0.01 0.01 0.01 0.00 0.00 0.00 0.00 0.00 0.00 0.00 0.00 0.00 0.01 0.00 0.00 0.04 0.12 0.21 0.20 0.06 0.04 0.05 0.13 0.14 0.33 0.66 0.61 0.95 0.79 0.80 0.89 0.75 0.55 0.54 0.45 0.36 0.27 0.22 0.18 0.16 0.12 0.13
0.00 0.00 0.00 0.00 0.00 0.01 0.02 0.01 0.01 0.00 0.00 0.00 0.00 0.00 0.00 0.00 0.00 0.00 0.00 0.01 0.00 0.00 0.01 0.07 0.27 0.46 0.61 0.52 0.80 0.65 0.76 0.92 0.87 1.20 1.81 1.24 0.92 0.68 0.45 0.29 0.21 0.20 0.22 0.24 0.17 0.13 0.12 0.14 0.16

GFSSGP_prec_precacc24_084.txt.gz
Total_Precipitation_Accumulation
0.00 0.00 0.00 0.00 0.00 0.00 0.00 0.00 0.00 0.00 0.00 0.00 0.00 0.00 0.00 0.00 0.00 0.04 0.08 0.11 0.26 0.73 0.81 0.74 0.69 0.24 0.15 0.09 0.01 0.00 0.00 0.01 0.00 0.00 0.00 0.00 0.00 0.00 0.00 0.00 0.00 0.01 0.11 0.05 0.01 0.01 0.01 0.01 0.00
0.00 0.00 0.00 0.00 0.00 0.00 0.00 0.00 0.00 0.00 0.00 0.00 0.00 0.00 0.00 0.00 0.06 0.21 0.18 0.14 0.13 0.11 0.34 0.59 1.04 0.91 0.78 0.59 0.21 0.11 0.06 0.05 0.01 0.02 0.01 0.01 0.01 0.01 0.02 0.01 0.00 0.02 0.07 0.02 0.01 0.01 0.01 0.00 0.00
0.00 0.00 0.00 0.00 0.00 0.00 0.00 0.00 0.00 0.00 0.00 0.00 0.00 0.00 0.01 0.03 0.24 0.27 0.20 0.18 0.22 0.11 0.14 0.50 1.03 1.20 0.76 0.96 0.66 0.41 0.36 0.13 0.02 0.09 0.02 0.01 0.01 0.02 0.04 0.02 0.01 0.03 0.05 0.01 0.02 0.02 0.01 0.00 0.00
0.00 0.00 0.00 0.00 0.00 0.00 0.00 0.00 0.00 0.00 0.00 0.00 0.00 0.01 0.03 0.06 0.19 0.15 0.10 0.16 0.23 0.21 0.28 1.11 1.48 1.01 0.86 0.89 1.10 2.02 1.80 1.05 0.47 0.14 0.03 0.01 0.01 0.00 0.03 0.03 0.02 0.04 0.04 0.01 0.02 0.01 0.00 0.00 0.00
0.00 0.00 0.00 0.00 0.00 0.00 0.00 0.00 0.00 0.00 0.00 0.00 0.00 0.02 0.04 0.01 0.04 0.11 0.15 0.23 0.28 0.44 0.82 1.23 1.56 1.23 1.37 1.09 1.31 1.92 3.25 3.33 2.62 1.40 0.34 0.10 0.04 0.01 0.01 0.02 0.03 0.04 0.04 0.02 0.01 0.01 0.00 0.00 0.00
0.00 0.00 0.00 0.00 0.00 0.00 0.00 0.00 0.00 0.00 0.00 0.00 0.00 0.08 0.08 0.01 0.01 0.07 0.16 0.18 0.37 0.78 1.72 2.05 2.61 3.61 3.54 2.41 1.21 1.43 1.95 2.83 2.52 2.41 1.41 0.47 0.09 0.00 0.03 0.04 0.02 0.01 0.01 0.00 0.00 0.00 0.00 0.00 0.00
0.00 0.00 0.00 0.00 0.00 0.00 0.00 0.00 0.00 0.00 0.00 0.01 0.00 0.16 0.52 0.09 0.02 0.08 0.14 0.19 0.52 0.92 1.38 2.74 4.08 5.07 4.92 5.71 3.80 1.53 1.43 1.44 1.69 1.78 1.30 1.11 0.77 0.14 0.04 0.06 0.05 0.00 0.00 0.00 0.00 0.00 0.00 0.00 0.00
0.00 0.00 0.00 0.00 0.00 0.00 0.00 0.00 0.00 0.00 0.04 0.07 0.02 0.17 0.39 0.02 0.01 0.05 0.08 0.16 0.30 0.46 0.71 0.94 1.79 2.72 3.22 3.71 4.78 3.30 2.08 1.67 1.49 1.31 0.97 0.73 0.95 0.63 0.14 0.03 0.05 0.02 0.00 0.00 0.00 0.00 0.00 0.00 0.00
0.00 0.00 0.00 0.00 0.00 0.00 0.00 0.00 0.00 0.00 0.03 0.18 0.16 0.11 0.04 0.01 0.04 0.07 0.07 0.09 0.11 0.15 0.25 0.44 0.57 0.67 1.04 1.34 2.00 2.76 2.75 2.31 2.38 2.36 1.13 0.64 0.59 0.72 0.31 0.09 0.02 0.01 0.00 0.00 0.00 0.00 0.00 0.00 0.00
0.00 0.00 0.00 0.00 0.00 0.00 0.00 0.00 0.00 0.00 0.03 0.24 0.27 0.08 0.07 0.07 0.07 0.03 0.04 0.06 0.08 0.10 0.10 0.14 0.15 0.20 0.31 0.32 0.43 0.95 1.83 2.26 2.07 3.31 1.62 0.89 0.57 0.33 0.38 0.30 0.05 0.00 0.00 0.00 0.00 0.00 0.00 0.00 0.00
0.00 0.00 0.00 0.00 0.00 0.00 0.00 0.00 0.00 0.00 0.00 0.01 0.01 0.00 0.02 0.06 0.04 0.01 0.02 0.03 0.04 0.06 0.06 0.04 0.03 0.03 0.17 0.12 0.12 0.25 0.95 1.83 2.13 2.22 1.59 0.73 0.60 0.56 0.39 0.43 0.18 0.01 0.00 0.00 0.00 0.00 0.00 0.00 0.00
0.00 0.00 0.00 0.00 0.00 0.00 0.00 0.00 0.00 0.01 0.08 0.01 0.01 0.02 0.04 0.02 0.01 0.00 0.01 0.03 0.08 0.12 0.11 0.04 0.03 0.03 0.07 0.06 0.04 0.12 0.57 1.37 1.59 1.21 0.99 0.71 0.43 0.36 0.27 0.31 0.23 0.02 0.00 0.00 0.00 0.00 0.00 0.00 0.00
0.00 0.00 0.00 0.00 0.00 0.00 0.00 0.00 0.00 0.25 0.65 0.08 0.05 0.01 0.00 0.00 0.00 0.00 0.01 0.02 0.04 0.09 0.18 0.16 0.05 0.08 0.05 0.02 0.02 0.04 0.34 0.68 0.90 0.80 0.32 0.65 0.31 0.16 0.16 0.24 0.20 0.01 0.00 0.00 0.00 0.00 0.00 0.00 0.00
0.00 0.00 0.00 0.00 0.00 0.00 0.00 0.00 0.01 0.02 0.10 0.18 0.16 0.09 0.02 0.01 0.00 0.00 0.01 0.01 0.02 0.06 0.17 0.26 0.18 0.13 0.09 0.03 0.04 0.05 0.21 0.65 0.54 0.54 0.17 0.17 0.18 0.20 0.16 0.17 0.12 0.00 0.00 0.00 0.00 0.00 0.00 0.00 0.00
0.00 0.00 0.00 0.00 0.00 0.00 0.00 0.00 0.00 0.00 0.02 0.05 0.14 0.13 0.11 0.06 0.00 0.00 0.00 0.00 0.01 0.05 0.11 0.33 0.30 0.19 0.17 0.07 0.05 0.11 0.16 0.38 0.48 0.50 0.24 0.12 0.08 0.10 0.08 0.13 0.10 0.02 0.00 0.00 0.00 0.00 0.00 0.00 0.00
0.00 0.00 0.00 0.00 0.00 0.00 0.00 0.00 0.00 0.00 0.02 0.37 0.10 0.10 0.10 0.03 0.00 0.00 0.00 0.00 0.00 0.02 0.06 0.21 0.46 0.44 0.29 0.11 0.14 0.18 0.29 0.30 0.34 0.33 0.30 0.11 0.08 0.05 0.07 0.13 0.16 0.09 0.01 0.00 0.00 0.00 0.00 0.00 0.00
0.00 0.00 0.00 0.00 0.00 0.00 0.00 0.00 0.00 0.02 0.05 0.24 0.07 0.04 0.01 0.01 0.00 0.00 0.00 0.00 0.00 0.00 0.02 0.07 0.26 0.50 0.40 0.15 0.16 0.27 0.35 0.42 0.30 0.19 0.19 0.11 0.10 0.12 0.05 0.10 0.13 0.15 0.05 0.00 0.00 0.00 0.00 0.00 0.00
0.00 0.00 0.00 0.00 0.00 0.00 0.00 0.00 0.00 0.03 0.09 0.08 0.04 0.01 0.01 0.00 0.00 0.00 0.00 0.00 0.00 0.00 0.01 0.04 0.11 0.28 0.42 0.16 0.11 0.31 0.51 0.45 0.33 0.17 0.13 0.15 0.10 0.12 0.09 0.12 0.07 0.03 0.03 0.00 0.00 0.00 0.00 0.00 0.00
0.00 0.00 0.00 0.00 0.00 0.00 0.00 0.00 0.00 0.00 0.10 0.06 0.03 0.00 0.00 0.00 0.00 0.00 0.00 0.00 0.00 0.00 0.01 0.02 0.04 0.05 0.16 0.12 0.06 0.21 0.40 0.46 0.31 0.18 0.07 0.07 0.10 0.05 0.07 0.08 0.06 0.03 0.02 0.01 0.01 0.01 0.00 0.00 0.00
0.00 0.00 0.00 0.00 0.00 0.00 0.00 0.00 0.00 0.00 0.01 0.00 0.00 0.01 0.00 0.00 0.00 0.00 0.00 0.00 0.00 0.00 0.00 0.02 0.01 0.01 0.02 0.03 0.03 0.06 0.15 0.30 0.22 0.19 0.03 0.03 0.02 0.05 0.04 0.05 0.12 0.09 0.06 0.02 0.02 0.02 0.02 0.03 0.02
0.00 0.00 0.00 0.00 0.00 0.00 0.00 0.00 0.00 0.00 0.00 0.00 0.01 0.03 0.00 0.00 0.00 0.00 0.00 0.00 0.00 0.00 0.00 0.01 0.01 0.01 0.01 0.02 0.04 0.08 0.21 0.30 0.23 0.20 0.04 0.02 0.02 0.02 0.04 0.13 0.14 0.09 0.06 0.04 0.02 0.01 0.00 0.01 0.03
0.00 0.00 0.00 0.00 0.00 0.00 0.00 0.00 0.00 0.00 0.00 0.00 0.00 0.02 0.01 0.00 0.00 0.00 0.00 0.00 0.00 0.00 0.00 0.00 0.00 0.01 0.01 0.01 0.02 0.03 0.07 0.15 0.08 0.04 0.04 0.02 0.01 0.02 0.02 0.07 0.07 0.07 0.04 0.04 0.06 0.05 0.04 0.07 0.11
0.00 0.00 0.00 0.00 0.00 0.00 0.00 0.00 0.00 0.00 0.00 0.00 0.00 0.00 0.03 0.01 0.00 0.00 0.00 0.00 0.00 0.00 0.00 0.00 0.01 0.00 0.01 0.00 0.00 0.01 0.02 0.04 0.07 0.06 0.03 0.01 0.00 0.01 0.01 0.02 0.02 0.02 0.05 0.08 0.09 0.10 0.18 0.25 0.34
0.01 0.00 0.00 0.00 0.00 0.00 0.00 0.00 0.00 0.00 0.00 0.00 0.00 0.00 0.09 0.01 0.00 0.00 0.00 0.00 0.00 0.00 0.00 0.00 0.00 0.00 0.01 0.00 0.01 0.01 0.01 0.03 0.06 0.03 0.02 0.00 0.00 0.01 0.03 0.01 0.02 0.02 0.05 0.07 0.13 0.28 0.31 0.24 0.36
0.00 0.00 0.01 0.01 0.00 0.00 0.00 0.00 0.00 0.00 0.00 0.00 0.00 0.00 0.00 0.00 0.00 0.00 0.00 0.00 0.00 0.00 0.00 0.00 0.00 0.00 0.00 0.01 0.01 0.01 0.01 0.01 0.03 0.03 0.02 0.00 0.00 0.01 0.07 0.12 0.11 0.09 0.07 0.16 0.24 0.32 0.27 0.32 0.37
0.00 0.00 0.01 0.01 0.01 0.00 0.00 0.00 0.00 0.00 0.00 0.00 0.00 0.00 0.00 0.00 0.00 0.00 0.00 0.00 0.00 0.00 0.00 0.00 0.00 0.00 0.00 0.00 0.00 0.01 0.02 0.04 0.01 0.07 0.05 0.04 0.05 0.07 0.13 0.22 0.30 0.26 0.20 0.20 0.27 0.28 0.23 0.31 0.32
0.01 0.00 0.00 0.02 0.01 0.02 0.00 0.00 0.00 0.00 0.00 0.00 0.00 0.00 0.00 0.00 0.00 0.00 0.01 0.00 0.00 0.01 0.00 0.00 0.00 0.00 0.00 0.00 0.00 0.00 0.03 0.04 0.00 0.08 0.29 0.16 0.18 0.16 0.18 0.23 0.22 0.23 0.17 0.18 0.33 0.42 0.31 0.26 0.24
0.00 0.01 0.04 0.04 0.02 0.03 0.00 0.01 0.00 0.01 0.00 0.00 0.00 0.00 0.00 0.00 0.00 0.00 0.00 0.00 0.00 0.01 0.05 0.09 0.05 0.01 0.00 0.00 0.00 0.00 0.01 0.09 0.15 0.28 0.66 0.89 0.78 0.59 0.33 0.38 0.34 0.22 0.12 0.11 0.13 0.20 0.20 0.17 0.12
0.00 0.01 0.04 0.03 0.01 0.04 0.03 0.01 0.00 0.01 0.00 0.00 0.00 0.00 0.00 0.00 0.00 0.00 0.00 0.01 0.00 0.00 0.04 0.12 0.21 0.20 0.06 0.04 0.03 0.07 0.07 0.08 0.37 0.51 0.86 0.71 0.75 0.87 0.74 0.55 0.53 0.43 0.33 0.24 0.19 0.16 0.14 0.12 0.12
0.00 0.00 0.00 0.08 0.07 0.03 0.05 0.02 0.00 0.00 0.00 0.00 0.00 0.00 0.00 0.00 0.00 0.00 0.00 0.01 0.00 0.00 0.01 0.07 0.27 0.46 0.60 0.44 0.54 0.50 0.51 0.80 0.79 1.13 1.76 1.21 0.91 0.67 0.44 0.28 0.18 0.16 0.17 0.19 0.16 0.12 0.12 0.14 0.16

GFSSGP_prec_precacc24_087.txt.gz
Total_Precipitation_Accumulation
0.00 0.00 0.00 0.00 0.00 0.00 0.00 0.00 0.00 0.00 0.00 0.00 0.00 0.00 0.00 0.00 0.00 0.03 0.04 0.03 0.08 0.05 0.11 0.07 0.20 0.21 0.15 0.09 0.01 0.01 0.00 0.01 0.00 0.00 0.00 0.00 0.00 0.00 0.00 0.00 0.00 0.01 0.12 0.06 0.01 0.01 0.02 0.01 0.00
0.00 0.00 0.00 0.00 0.00 0.00 0.00 0.00 0.00 0.00 0.00 0.00 0.00 0.00 0.00 0.00 0.03 0.08 0.06 0.07 0.11 0.10 0.19 0.25 0.12 0.65 0.74 0.59 0.21 0.11 0.06 0.05 0.01 0.02 0.01 0.01 0.01 0.01 0.01 0.01 0.00 0.04 0.10 0.03 0.02 0.02 0.01 0.00 0.00
0.00 0.00 0.00 0.00 0.00 0.00 0.00 0.00 0.00 0.00 0.00 0.00 0.00 0.00 0.00 0.00 0.00 0.03 0.00 0.05 0.14 0.10 0.14 0.40 0.52 0.93 0.74 0.98 0.67 0.41 0.36 0.13 0.06 0.11 0.04 0.01 0.00 0.02 0.04 0.02 0.01 0.07 0.10 0.02 0.03 0.02 0.01 0.00 0.00
0.00 0.00 0.00 0.00 0.00 0.00 0.00 0.00 0.00 0.00 0.00 0.00 0.00 0.00 0.00 0.00 0.00 0.00 0.00 0.03 0.16 0.17 0.25 0.96 1.31 1.00 0.86 0.93 1.15 2.03 1.84 1.23 0.91 0.56 0.30 0.05 0.02 0.01 0.03 0.03 0.03 0.08 0.11 0.04 0.03 0.01 0.00 0.00 0.00
0.00 0.00 0.00 0.00 0.00 0.00 0.00 0.00 0.00 0.00 0.00 0.00 0.00 0.00 0.00 0.00 0.00 0.00 0.00 0.06 0.05 0.22 0.48 0.81 1.31 1.13 1.35 1.07 1.35 2.01 3.36 3.87 3.28 2.15 1.12 0.59 0.10 0.01 0.01 0.02 0.04 0.08 0.10 0.05 0.02 0.01 0.00 0.00 0.00
0.00 0.00 0.00 0.00 0.00 0.00 0.00 0.00 0.00 0.00 0.00 0.00 0.00 0.00 0.00 0.00 0.00 0.00 0.00 0.07 0.09 0.35 0.96 1.00 1.45 3.05 3.26 2.23 1.16 1.41 1.97 3.03 2.96 3.04 2.77 2.12 0.62 0.06 0.05 0.05 0.04 0.04 0.02 0.00 0.00 0.00 0.00 0.00 0.00
0.00 0.00 0.00 0.00 0.00 0.00 0.00 0.00 0.00 0.00 0.00 0.00 0.00 0.00 0.00 0.00 0.00 0.00 0.05 0.12 0.39 0.57 0.95 1.37 2.10 3.12 3.42 4.49 3.08 1.26 1.40 1.46 1.76 1.82 1.80 2.18 1.81 0.39 0.10 0.15 0.09 0.01 0.00 0.00 0.00 0.00 0.00 0.00 0.00
0.00 0.00 0.00 0.00 0.00 0.00 0.00 0.00 0.00 0.00 0.00 0.00 0.00 0.00 0.00 0.00 0.00 0.01 0.05 0.11 0.23 0.37 0.52 0.78 1.37 1.93 2.01 2.79 3.83 2.75 1.91 1.66 1.49 1.33 1.19 1.25 1.64 1.14 0.41 0.14 0.09 0.03 0.00 0.00 0.00 0.00 0.00 0.00 0.00
0.00 0.00 0.00 0.00 0.00 0.00 0.00 0.00 0.00 0.00 0.00 0.00 0.00 0.00 0.01 0.00 0.02 0.03 0.02 0.06 0.10 0.15 0.23 0.43 0.56 0.65 0.84 1.07 1.64 2.39 2.56 2.26 2.35 2.53 1.61 1.09 0.97 1.25 0.63 0.31 0.10 0.02 0.00 0.00 0.00 0.00 0.00 0.00 0.00
0.00 0.00 0.00 0.00 0.00 0.00 0.00 0.00 0.00 0.00 0.00 0.00 0.00 0.00 0.01 0.04 0.05 0.02 0.03 0.04 0.07 0.10 0.09 0.14 0.15 0.20 0.31 0.31 0.37 0.80 1.69 2.17 2.05 3.36 2.16 1.70 0.87 0.56 0.54 0.53 0.14 0.01 0.00 0.00 0.00 0.00 0.00 0.00 0.00
0.00 0.00 0.00 0.00 0.00 0.00 0.00 0.00 0.00 0.00 0.00 0.00 0.00 0.00 0.01 0.02 0.03 0.01 0.01 0.02 0.03 0.06 0.06 0.03 0.03 0.04 0.17 0.12 0.12 0.25 0.95 1.84 2.13 2.24 1.91 1.69 0.79 0.63 0.45 0.67 0.39 0.02 0.00 0.00 0.00 0.00 0.00 0.00 0.00
0.00 0.00 0.00 0.00 0.00 0.00 0.00 0.00 0.00 0.00 0.00 0.00 0.00 0.00 0.01 0.01 0.01 0.00 0.00 0.02 0.04 0.08 0.07 0.02 0.01 0.01 0.05 0.06 0.04 0.12 0.57 1.40 1.60 1.21 1.01 0.89 0.49 0.39 0.31 0.40 0.38 0.03 0.00 0.00 0.00 0.00 0.00 0.00 0.00
0.00 0.00 0.00 0.00 0.00 0.00 0.00 0.00 0.00 0.00 0.00 0.00 0.00 0.00 0.00 0.00 0.00 0.00 0.01 0.01 0.02 0.05 0.08 0.05 0.03 0.01 0.01 0.01 0.01 0.04 0.33 0.67 0.96 0.84 0.33 0.66 0.31 0.16 0.18 0.29 0.30 0.06 0.00 0.00 0.00 0.00 0.00 0.00 0.00
0.00 0.00 0.00 0.00 0.00 0.00 0.00 0.00 0.00 0.00 0.00 0.00 0.00 0.00 0.00 0.00 0.00 0.00 0.00 0.01 0.01 0.04 0.09 0.11 0.09 0.07 0.07 0.02 0.03 0.05 0.21 0.65 0.55 0.61 0.21 0.17 0.18 0.20 0.17 0.22 0.18 0.04 0.00 0.00 0.00 0.00 0.00 0.00 0.00
0.00 0.00 0.00 0.00 0.00 0.00 0.00 0.00 0.00 0.00 0.00 0.00 0.01 0.01 0.04 0.03 0.00 0.00 0.00 0.00 0.01 0.02 0.10 0.23 0.24 0.15 0.16 0.07 0.04 0.06 0.13 0.38 0.49 0.52 0.30 0.14 0.08 0.10 0.09 0.20 0.14 0.03 0.00 0.00 0.00 0.00 0.00 0.00 0.00
0.00 0.00 0.00 0.00 0.00 0.00 0.00 0.00 0.00 0.00 0.00 0.00 0.00 0.01 0.04 0.01 0.00 0.00 0.00 0.00 0.00 0.02 0.05 0.19 0.41 0.41 0.28 0.11 0.12 0.16 0.28 0.30 0.34 0.34 0.33 0.13 0.08 0.05 0.07 0.17 0.20 0.09 0.01 0.00 0.00 0.00 0.00 0.00 0.00
0.00 0.00 0.00 0.00 0.00 0.00 0.00 0.00 0.00 0.00 0.00 0.00 0.00 0.00 0.00 0.00 0.00 0.00 0.00 0.00 0.00 0.00 0.02 0.07 0.25 0.50 0.40 0.15 0.16 0.27 0.35 0.42 0.30 0.18 0.20 0.13 0.11 0.13 0.07 0.15 0.16 0.18 0.07 0.01 0.00 0.00 0.00 0.00 0.00
0.00 0.00 0.00 0.00 0.00 0.00 0.00 0.00 0.00 0.00 0.00 0.00 0.00 0.00 0.00 0.00 0.00 0.00 0.00 0.00 0.00 0.00 0.01 0.04 0.11 0.28 0.43 0.16 0.11 0.31 0.51 0.45 0.34 0.18 0.15 0.17 0.11 0.19 0.19 0.16 0.10 0.08 0.05 0.01 0.00 0.00 0.00 0.00 0.00
0.00 0.00 0.00 0.00 0.00 0.00 0.00 0.00 0.00 0.00 0.00 0.00 0.00 0.00 0.00 0.00 0.00 0.00 0.00 0.00 0.00 0.00 0.01 0.02 0.04 0.05 0.16 0.12 0.06 0.21 0.40 0.46 0.31 0.21 0.12 0.15 0.16 0.15 0.26 0.27 0.17 0.10 0.02 0.01 0.01 0.01 0.00 0.00 0.00
0.00 0.00 0.00 0.00 0.00 0.00 0.00 0.00 0.00 0.00 0.00 0.00 0.00 0.00 0.00 0.00 0.00 0.00 0.00 0.00 0.00 0.00 0.00 0.02 0.01 0.01 0.02 0.03 0.03 0.06 0.15 0.30 0.22 0.20 0.05 0.07 0.14 0.25 0.19 0.12 0.17 0.11 0.02 0.01 0.01 0.01 0.02 0.03 0.02
0.00 0.00 0.00 0.00 0.00 0.00 0.00 0.00 0.00 0.00 0.00 0.00 0.00 0.01 0.00 0.00 0.00 0.00 0.00 0.00 0.00 0.00 0.00 0.01 0.01 0.01 0.01 0.02 0.04 0.08 0.21 0.30 0.23 0.20 0.05 0.03 0.05 0.08 0.12 0.09 0.08 0.04 0.02 0.02 0.02 0.01 0.00 0.01 0.02
0.00 0.00 0.00 0.00 0.02 0.02 0.00 0.00 0.00 0.00 0.00 0.00 0.00 0.01 0.00 0.00 0.00 0.00 0.00 0.00 0.00 0.00 0.00 0.00 0.00 0.01 0.01 0.01 0.02 0.03 0.07 0.15 0.08 0.04 0.04 0.02 0.01 0.02 0.01 0.01 0.02 0.03 0.03 0.03 0.03 0.04 0.03 0.04 0.05
0.00 0.00 0.03 0.02 0.00 0.00 0.00 0.00 0.00 0.00 0.00 0.00 0.00 0.00 0.00 0.00 0.00 0.00 0.00 0.00 0.00 0.00 0.00 0.00 0.01 0.00 0.01 0.01 0.00 0.01 0.02 0.04 0.07 0.06 0.03 0.01 0.00 0.01 0.01 0.02 0.02 0.01 0.04 0.08 0.09 0.08 0.08 0.09 0.15
0.07 0.03 0.05 0.01 0.01 0.03 0.00 0.00 0.00 0.00 0.00 0.00 0.00 0.00 0.00 0.00 0.00 0.00 0.00 0.00 0.00 0.00 0.00 0.00 0.00 0.00 0.01 0.00 0.00 0.01 0.01 0.02 0.05 0.03 0.02 0.00 0.00 0.00 0.00 0.00 0.02 0.02 0.04 0.08 0.12 0.21 0.14 0.12 0.23
0.04 0.08 0.17 0.09 0.04 0.02 0.00 0.00 0.00 0.00 0.00 0.00 0.00 0.00 0.00 0.00 0.00 0.00 0.00 0.00 0.00 0.00 0.00 0.00 0.00 0.00 0.01 0.01 0.00 0.01 0.01 0.00 0.00 0.01 0.00 0.00 0.00 0.00 0.01 0.04 0.08 0.09 0.07 0.16 0.24 0.31 0.24 0.28 0.32
0.01 0.05 0.06 0.03 0.01 0.00 0.00 0.00 0.00 0.00 0.00 0.00 0.00 0.00 0.00 0.00 0.00 0.00 0.00 0.00 0.00 0.00 0.00 0.00 0.00 0.00 0.00 0.01 0.00 0.01 0.01 0.00 0.00 0.01 0.01 0.03 0.02 0.00 0.00 0.05 0.16 0.21 0.19 0.20 0.27 0.29 0.24 0.31 0.26
0.04 0.01 0.00 0.10 0.05 0.04 0.00 0.00 0.00 0.00 0.00 0.00 0.00 0.00 0.00 0.00 0.00 0.00 0.00 0.00 0.00 0.00 0.00 0.00 0.00 0.00 0.00 0.00 0.00 0.00 0.01 0.01 0.00 0.05 0.10 0.06 0.12 0.11 0.07 0.06 0.12 0.20 0.16 0.18 0.33 0.41 0.27 0.20 0.21
0.02 0.04 0.09 0.19 0.05 0.05 0.00 0.00 0.00 0.00 0.00 0.00 0.00 0.00 0.00 0.00 0.00 0.00 0.00 0.00 0.00 0.01 0.05 0.08 0.03 0.00 0.00 0.00 0.00 0.00 0.00 0.04 0.11 0.12 0.19 0.26 0.31 0.36 0.25 0.31 0.32 0.21 0.12 0.10 0.10 0.12 0.13 0.14 0.12
0.00 0.12 0.09 0.06 0.01 0.07 0.05 0.05 0.01 0.00 0.00 0.00 0.00 0.00 0.00 0.00 0.00 0.00 0.00 0.00 0.00 0.00 0.04 0.11 0.17 0.16 0.05 0.00 0.00 0.00 0.00 0.02 0.18 0.23 0.29 0.43 0.60 0.77 0.69 0.54 0.53 0.42 0.32 0.23 0.16 0.12 0.11 0.11 0.11
0.02 0.01 0.03 0.13 0.10 0.05 0.10 0.09 0.02 0.01 0.00 0.00 0.00 0.00 0.00 0.00 0.00 0.00 0.00 0.00 0.00 0.00 0.01 0.07 0.25 0.39 0.45 0.28 0.14 0.10 0.08 0.31 0.29 0.51 1.21 1.03 0.85 0.59 0.41 0.28 0.17 0.15 0.16 0.19 0.16 0.12 0.11 0.13 0.15

GFSSGP_prec_precacc24_090.txt.gz
Total_Precipitation_Accumulation
0.00 0.00 0.00 0.00 0.00 0.00 0.00 0.00 0.00 0.00 0.00 0.00 0.00 0.00 0.00 0.00 0.00 0.02 0.02 0.01 0.05 0.04 0.03 0.06 0.01 0.01 0.07 0.07 0.01 0.01 0.00 0.01 0.00 0.00 0.00 0.00 0.00 0.00 0.00 0.00 0.00 0.01 0.12 0.06 0.02 0.01 0.03 0.01 0.00
0.00 0.00 0.00 0.00 0.00 0.00 0.00 0.00 0.00 0.00 0.00 0.00 0.00 0.00 0.00 0.00 0.00 0.00 0.00 0.04 0.10 0.09 0.15 0.19 0.04 0.05 0.08 0.37 0.21 0.11 0.06 0.05 0.01 0.02 0.01 0.00 0.00 0.01 0.01 0.01 0.00 0.04 0.11 0.04 0.02 0.04 0.02 0.01 0.00
0.00 0.00 0.00 0.00 0.00 0.00 0.00 0.00 0.00 0.00 0.00 0.00 0.00 0.00 0.00 0.00 0.00 0.00 0.00 0.04 0.12 0.10 0.14 0.40 0.34 0.20 0.23 0.48 0.57 0.41 0.36 0.14 0.06 0.11 0.03 0.01 0.00 0.02 0.04 0.02 0.01 0.07 0.11 0.04 0.04 0.04 0.02 0.00 0.00
0.00 0.00 0.00 0.00 0.00 0.00 0.00 0.00 0.00 0.00 0.00 0.00 0.00 0.00 0.00 0.00 0.00 0.00 0.00 0.03 0.16 0.17 0.24 0.95 1.24 0.76 0.56 0.48 0.97 2.00 1.83 1.25 0.95 0.60 0.37 0.16 0.07 0.02 0.03 0.03 0.03 0.09 0.12 0.06 0.05 0.02 0.02 0.00 0.00
0.00 0.00 0.00 0.00 0.00 0.00 0.00 0.00 0.00 0.00 0.00 0.00 0.00 0.00 0.00 0.00 0.00 0.00 0.00 0.00 0.03 0.19 0.38 0.65 0.90 0.80 1.11 0.86 1.23 1.99 3.36 3.87 3.31 2.23 1.14 0.95 0.72 0.37 0.10 0.03 0.04 0.11 0.15 0.07 0.02 0.02 0.00 0.00 0.00
0.00 0.00 0.00 0.00 0.00 0.00 0.00 0.00 0.00 0.00 0.00 0.00 0.00 0.00 0.00 0.00 0.00 0.00 0.00 0.03 0.07 0.21 0.57 0.64 0.52 0.69 1.52 1.74 1.09 1.40 2.00 3.19 3.20 3.20 2.83 2.44 1.91 1.05 0.55 0.16 0.06 0.07 0.08 0.01 0.01 0.00 0.00 0.00 0.00
0.00 0.00 0.00 0.00 0.00 0.00 0.00 0.00 0.00 0.00 0.00 0.00 0.00 0.00 0.00 0.00 0.00 0.00 0.04 0.10 0.26 0.43 0.62 0.95 1.09 0.94 1.18 1.63 2.06 1.05 1.35 1.55 1.90 1.88 1.83 2.31 2.41 1.33 0.89 0.43 0.19 0.06 0.08 0.01 0.00 0.00 0.00 0.00 0.00
0.00 0.00 0.00 0.00 0.00 0.00 0.00 0.00 0.00 0.00 0.00 0.00 0.00 0.00 0.00 0.00 0.00 0.00 0.04 0.09 0.14 0.23 0.34 0.58 1.10 0.95 0.82 1.16 2.35 2.11 1.66 1.64 1.49 1.32 1.15 1.26 1.89 1.88 1.23 0.47 0.25 0.11 0.03 0.00 0.00 0.00 0.00 0.00 0.00
0.00 0.00 0.00 0.00 0.00 0.00 0.00 0.00 0.00 0.00 0.00 0.00 0.00 0.00 0.00 0.00 0.01 0.01 0.01 0.05 0.07 0.07 0.15 0.36 0.48 0.47 0.41 0.56 0.96 1.54 2.18 2.14 2.31 2.50 1.57 1.13 1.11 1.71 1.26 0.74 0.28 0.07 0.03 0.00 0.00 0.00 0.00 0.00 0.00
0.00 0.00 0.00 0.00 0.00 0.00 0.00 0.00 0.00 0.00 0.00 0.00 0.00 0.00 0.00 0.00 0.00 0.01 0.01 0.03 0.05 0.08 0.08 0.13 0.15 0.20 0.28 0.26 0.29 0.63 1.48 2.11 2.00 3.32 2.16 1.72 0.96 1.10 0.91 0.87 0.36 0.03 0.00 0.00 0.00 0.00 0.00 0.00 0.00
0.00 0.00 0.00 0.00 0.00 0.00 0.00 0.00 0.00 0.00 0.00 0.00 0.00 0.00 0.00 0.00 0.00 0.01 0.00 0.01 0.02 0.03 0.05 0.02 0.03 0.04 0.18 0.12 0.11 0.24 0.93 1.83 2.12 2.21 2.00 2.02 1.08 1.20 0.83 0.85 0.50 0.04 0.00 0.00 0.00 0.00 0.00 0.00 0.00
0.00 0.00 0.00 0.00 0.00 0.00 0.00 0.00 0.00 0.00 0.00 0.00 0.00 0.00 0.00 0.00 0.00 0.00 0.00 0.00 0.02 0.05 0.04 0.02 0.01 0.01 0.05 0.06 0.04 0.12 0.57 1.40 1.61 1.24 1.04 1.41 0.88 0.73 0.52 0.45 0.41 0.03 0.00 0.00 0.00 0.00 0.00 0.00 0.00
0.00 0.00 0.00 0.00 0.00 0.00 0.00 0.00 0.00 0.00 0.00 0.00 0.00 0.00 0.00 0.00 0.00 0.00 0.00 0.00 0.01 0.04 0.04 0.03 0.02 0.01 0.01 0.01 0.01 0.04 0.33 0.67 0.98 0.87 0.33 0.78 0.39 0.21 0.21 0.29 0.30 0.06 0.00 0.00 0.00 0.00 0.00 0.00 0.00
0.00 0.00 0.00 0.00 0.00 0.00 0.00 0.00 0.00 0.00 0.00 0.00 0.00 0.00 0.00 0.00 0.00 0.00 0.00 0.00 0.01 0.02 0.03 0.05 0.04 0.05 0.02 0.02 0.03 0.05 0.21 0.65 0.56 0.62 0.22 0.18 0.19 0.20 0.18 0.22 0.18 0.04 0.00 0.00 0.00 0.00 0.00 0.00 0.00
0.00 0.00 0.00 0.00 0.00 0.00 0.00 0.00 0.00 0.00 0.00 0.00 0.00 0.00 0.00 0.00 0.00 0.00 0.00 0.00 0.00 0.01 0.04 0.08 0.10 0.12 0.12 0.06 0.03 0.06 0.13 0.38 0.50 0.54 0.31 0.14 0.09 0.11 0.09 0.20 0.14 0.03 0.00 0.00 0.00 0.00 0.00 0.00 0.00
0.00 0.00 0.00 0.00 0.00 0.00 0.00 0.00 0.00 0.00 0.00 0.00 0.00 0.00 0.00 0.00 0.00 0.00 0.00 0.00 0.00 0.01 0.04 0.10 0.32 0.38 0.27 0.11 0.12 0.16 0.28 0.30 0.35 0.37 0.36 0.14 0.08 0.07 0.09 0.18 0.21 0.09 0.01 0.00 0.00 0.00 0.00 0.00 0.00
0.00 0.00 0.00 0.00 0.00 0.00 0.00 0.00 0.00 0.00 0.00 0.00 0.00 0.00 0.00 0.00 0.00 0.00 0.00 0.00 0.00 0.00 0.02 0.04 0.24 0.49 0.40 0.15 0.16 0.27 0.35 0.42 0.30 0.20 0.25 0.18 0.14 0.15 0.09 0.19 0.18 0.19 0.07 0.01 0.00 0.00 0.00 0.00 0.00
0.00 0.00 0.00 0.00 0.00 0.00 0.00 0.00 0.00 0.00 0.00 0.00 0.00 0.00 0.00 0.00 0.00 0.00 0.00 0.00 0.00 0.00 0.01 0.03 0.10 0.28 0.43 0.16 0.11 0.31 0.51 0.45 0.34 0.18 0.18 0.25 0.18 0.26 0.26 0.22 0.13 0.09 0.05 0.01 0.00 0.00 0.00 0.00 0.00
0.00 0.00 0.00 0.00 0.00 0.00 0.00 0.00 0.00 0.00 0.00 0.00 0.00 0.00 0.00 0.00 0.00 0.00 0.00 0.00 0.00 0.00 0.01 0.02 0.03 0.05 0.16 0.12 0.06 0.21 0.40 0.46 0.31 0.21 0.12 0.17 0.24 0.23 0.37 0.40 0.27 0.11 0.02 0.01 0.01 0.01 0.00 0.00 0.00
0.00 0.00 0.00 0.00 0.00 0.00 0.00 0.00 0.00 0.00 0.00 0.00 0.00 0.00 0.00 0.00 0.00 0.00 0.00 0.00 0.00 0.00 0.00 0.02 0.01 0.01 0.02 0.03 0.03 0.06 0.15 0.30 0.23 0.20 0.05 0.08 0.17 0.32 0.27 0.20 0.27 0.18 0.03 0.01 0.00 0.01 0.02 0.03 0.02
0.00 0.00 0.00 0.00 0.00 0.01 0.01 0.00 0.00 0.00 0.00 0.00 0.00 0.00 0.00 0.00 0.00 0.00 0.00 0.00 0.00 0.00 0.00 0.01 0.01 0.01 0.01 0.02 0.04 0.08 0.21 0.30 0.24 0.20 0.06 0.05 0.10 0.14 0.22 0.23 0.20 0.08 0.03 0.02 0.01 0.01 0.00 0.01 0.02
0.00 0.00 0.00 0.01 0.03 0.04 0.00 0.00 0.00 0.00 0.00 0.00 0.00 0.00 0.00 0.00 0.00 0.00 0.00 0.00 0.00 0.00 0.00 0.00 0.00 0.01 0.01 0.01 0.02 0.03 0.07 0.15 0.08 0.04 0.04 0.03 0.09 0.14 0.17 0.20 0.23 0.14 0.06 0.03 0.02 0.03 0.03 0.03 0.04
0.00 0.00 0.04 0.04 0.01 0.00 0.00 0.03 0.00 0.00 0.00 0.00 0.00 0.00 0.00 0.00 0.00 0.00 0.00 0.00 0.00 0.00 0.00 0.00 0.01 0.00 0.01 0.01 0.01 0.02 0.02 0.04 0.07 0.06 0.03 0.02 0.02 0.07 0.12 0.16 0.17 0.13 0.08 0.05 0.06 0.06 0.07 0.08 0.12
0.07 0.03 0.07 0.04 0.04 0.06 0.00 0.02 0.01 0.00 0.00 0.00 0.00 0.00 0.00 0.00 0.00 0.00 0.00 0.00 0.00 0.00 0.00 0.00 0.00 0.00 0.01 0.01 0.01 0.01 0.01 0.02 0.05 0.03 0.02 0.00 0.00 0.02 0.02 0.03 0.03 0.04 0.04 0.07 0.11 0.19 0.12 0.10 0.21
0.08 0.17 0.30 0.21 0.12 0.06 0.00 0.00 0.00 0.00 0.00 0.00 0.00 0.00 0.00 0.00 0.00 0.00 0.00 0.00 0.00 0.00 0.00 0.00 0.00 0.00 0.01 0.01 0.00 0.01 0.01 0.00 0.00 0.01 0.00 0.00 0.00 0.00 0.00 0.00 0.01 0.03 0.04 0.10 0.23 0.30 0.23 0.26 0.30
0.06 0.18 0.17 0.06 0.02 0.00 0.00 0.00 0.00 0.00 0.00 0.00 0.00 0.00 0.00 0.00 0.00 0.00 0.00 0.00 0.00 0.00 0.00 0.00 0.00 0.00 0.00 0.01 0.00 0.01 0.01 0.00 0.00 0.00 0.00 0.00 0.00 0.00 0.00 0.00 0.02 0.04 0.10 0.16 0.26 0.29 0.23 0.29 0.24
0.09 0.11 0.06 0.19 0.07 0.04 0.00 0.00 0.00 0.00 0.00 0.00 0.00 0.00 0.00 0.00 0.00 0.00 0.00 0.00 0.00 0.00 0.00 0.00 0.00 0.00 0.00 0.00 0.00 0.00 0.01 0.00 0.00 0.01 0.01 0.03 0.04 0.04 0.02 0.01 0.01 0.02 0.08 0.17 0.33 0.41 0.27 0.16 0.11
0.05 0.15 0.15 0.27 0.07 0.06 0.00 0.01 0.00 0.00 0.00 0.00 0.00 0.00 0.00 0.00 0.00 0.00 0.00 0.00 0.00 0.00 0.02 0.05 0.02 0.00 0.00 0.00 0.00 0.00 0.00 0.01 0.00 0.02 0.03 0.05 0.08 0.10 0.09 0.16 0.14 0.10 0.09 0.10 0.10 0.12 0.12 0.12 0.11
0.03 0.23 0.20 0.08 0.02 0.08 0.05 0.08 0.01 0.00 0.00 0.00 0.00 0.00 0.00 0.00 0.00 0.00 0.00 0.00 0.00 0.00 0.03 0.09 0.14 0.12 0.03 0.00 0.00 0.00 0.00 0.00 0.01 0.02 0.01 0.06 0.29 0.62 0.66 0.47 0.43 0.38 0.31 0.22 0.15 0.12 0.11 0.11 0.11
0.03 0.03 0.13 0.22 0.11 0.05 0.13 0.12 0.08 0.01 0.00 0.00 0.00 0.00 0.00 0.00 0.00 0.00 0.00 0.00 0.00 0.00 0.01 0.05 0.18 0.20 0.19 0.13 0.02 0.02 0.01 0.00 0.01 0.04 0.10 0.32 0.61 0.49 0.34 0.17 0.13 0.13 0.16 0.19 0.16 0.12 0.10 0.12 0.14

GFSSGP_prec_precacc24_093.txt.gz
Total_Precipitation_Accumulation
0.00 0.00 0.00 0.00 0.00 0.00 0.00 0.00 0.00 0.00 0.00 0.00 0.00 0.00 0.00 0.00 0.00 0.01 0.02 0.01 0.04 0.02 0.02 0.06 0.01 0.00 0.01 0.03 0.00 0.00 0.00 0.01 0.00 0.00 0.00 0.00 0.00 0.00 0.00 0.00 0.01 0.02 0.12 0.06 0.02 0.02 0.05 0.02 0.00
0.00 0.00 0.00 0.00 0.00 0.00 0.00 0.00 0.00 0.00 0.00 0.00 0.00 0.00 0.00 0.00 0.00 0.00 0.00 0.03 0.10 0.06 0.15 0.19 0.04 0.03 0.07 0.17 0.01 0.03 0.05 0.05 0.01 0.02 0.01 0.00 0.00 0.01 0.01 0.01 0.00 0.05 0.11 0.04 0.03 0.05 0.05 0.02 0.00
0.00 0.00 0.00 0.00 0.00 0.00 0.00 0.00 0.00 0.00 0.00 0.00 0.00 0.00 0.00 0.00 0.00 0.00 0.00 0.04 0.11 0.07 0.12 0.40 0.32 0.18 0.22 0.43 0.28 0.20 0.26 0.13 0.05 0.11 0.03 0.01 0.00 0.02 0.04 0.02 0.01 0.08 0.12 0.04 0.05 0.05 0.04 0.02 0.00
0.00 0.00 0.00 0.00 0.00 0.00 0.00 0.00 0.00 0.00 0.00 0.00 0.00 0.00 0.00 0.00 0.00 0.00 0.00 0.03 0.15 0.16 0.20 0.90 1.03 0.47 0.49 0.44 0.83 1.70 1.61 1.20 0.95 0.60 0.37 0.16 0.07 0.02 0.03 0.03 0.03 0.09 0.13 0.06 0.06 0.03 0.04 0.01 0.00
0.00 0.00 0.00 0.00 0.00 0.00 0.00 0.00 0.00 0.00 0.00 0.00 0.00 0.00 0.00 0.00 0.00 0.00 0.00 0.00 0.03 0.18 0.37 0.61 0.78 0.52 0.66 0.50 0.90 1.70 2.91 3.73 3.30 2.23 1.17 0.98 0.79 0.47 0.28 0.15 0.11 0.14 0.18 0.11 0.05 0.03 0.02 0.00 0.00
0.00 0.00 0.00 0.00 0.00 0.00 0.00 0.00 0.00 0.00 0.00 0.00 0.00 0.00 0.00 0.00 0.00 0.00 0.00 0.00 0.04 0.14 0.43 0.50 0.37 0.40 0.44 0.55 0.42 1.02 1.79 3.07 3.25 3.25 2.88 2.53 2.11 1.23 0.88 0.39 0.21 0.17 0.16 0.05 0.04 0.02 0.02 0.00 0.00
0.00 0.00 0.00 0.00 0.00 0.00 0.00 0.00 0.00 0.00 0.00 0.00 0.00 0.00 0.00 0.00 0.00 0.00 0.01 0.01 0.11 0.25 0.34 0.55 0.57 0.59 0.67 0.71 0.46 0.56 1.15 1.46 1.97 1.97 1.92 2.40 2.82 1.88 1.28 0.77 0.46 0.40 0.31 0.07 0.02 0.02 0.01 0.00 0.00
0.00 0.00 0.00 0.00 0.00 0.00 0.00 0.00 0.00 0.00 0.00 0.00 0.00 0.00 0.00 0.00 0.00 0.00 0.02 0.01 0.04 0.09 0.18 0.32 0.57 0.46 0.21 0.33 0.27 0.69 1.01 1.55 1.56 1.44 1.27 1.36 1.97 1.94 1.32 0.80 0.57 0.55 0.29 0.02 0.01 0.01 0.00 0.00 0.00
0.00 0.00 0.00 0.00 0.00 0.00 0.00 0.00 0.00 0.00 0.00 0.00 0.00 0.00 0.00 0.00 0.01 0.01 0.01 0.03 0.03 0.03 0.08 0.17 0.31 0.35 0.27 0.17 0.16 0.48 1.15 1.60 2.17 2.50 1.61 1.21 1.16 1.72 1.33 0.92 0.57 0.51 0.33 0.07 0.01 0.00 0.00 0.00 0.00
0.00 0.00 0.00 0.00 0.00 0.00 0.00 0.00 0.00 0.00 0.00 0.00 0.00 0.00 0.00 0.00 0.00 0.01 0.01 0.02 0.03 0.05 0.07 0.07 0.09 0.16 0.24 0.17 0.12 0.21 0.90 1.58 1.65 3.19 2.15 1.73 0.97 1.11 1.02 1.08 0.68 0.47 0.26 0.06 0.02 0.00 0.00 0.00 0.00
0.00 0.00 0.00 0.00 0.00 0.00 0.00 0.00 0.00 0.00 0.00 0.00 0.00 0.00 0.00 0.00 0.00 0.01 0.00 0.00 0.01 0.02 0.04 0.02 0.03 0.04 0.17 0.11 0.09 0.18 0.82 1.58 1.93 2.08 1.95 2.02 1.11 1.25 1.01 1.11 0.87 0.54 0.28 0.03 0.02 0.00 0.00 0.00 0.00
0.00 0.00 0.00 0.00 0.00 0.00 0.00 0.00 0.00 0.00 0.00 0.00 0.00 0.00 0.00 0.00 0.00 0.00 0.00 0.00 0.01 0.02 0.03 0.01 0.01 0.01 0.05 0.06 0.04 0.12 0.56 1.36 1.54 1.18 1.02 1.44 0.94 0.87 0.90 0.68 0.63 0.34 0.09 0.00 0.00 0.00 0.00 0.00 0.00
0.00 0.00 0.00 0.00 0.00 0.00 0.00 0.00 0.00 0.00 0.00 0.00 0.00 0.00 0.00 0.00 0.00 0.00 0.00 0.00 0.01 0.02 0.02 0.03 0.02 0.01 0.01 0.01 0.01 0.04 0.33 0.67 0.96 0.84 0.32 0.96 0.62 0.35 0.61 0.48 0.45 0.13 0.01 0.00 0.00 0.00 0.00 0.00 0.00
0.00 0.00 0.00 0.00 0.00 0.00 0.00 0.00 0.00 0.00 0.00 0.00 0.00 0.00 0.00 0.00 0.00 0.00 0.00 0.00 0.00 0.01 0.02 0.01 0.02 0.01 0.02 0.02 0.03 0.05 0.21 0.64 0.55 0.61 0.22 0.19 0.29 0.36 0.36 0.34 0.24 0.08 0.00 0.00 0.00 0.00 0.00 0.00 0.00
0.00 0.00 0.00 0.00 0.00 0.00 0.00 0.00 0.00 0.00 0.00 0.00 0.00 0.00 0.00 0.00 0.00 0.00 0.00 0.00 0.00 0.01 0.02 0.02 0.05 0.03 0.06 0.02 0.02 0.05 0.12 0.37 0.50 0.53 0.31 0.15 0.09 0.14 0.13 0.24 0.16 0.04 0.00 0.00 0.00 0.00 0.00 0.00 0.00
0.00 0.00 0.00 0.00 0.00 0.00 0.00 0.00 0.00 0.00 0.00 0.00 0.00 0.00 0.00 0.00 0.00 0.00 0.00 0.00 0.00 0.00 0.01 0.03 0.11 0.18 0.14 0.07 0.09 0.13 0.27 0.30 0.35 0.38 0.37 0.14 0.09 0.07 0.10 0.18 0.21 0.09 0.01 0.00 0.00 0.00 0.00 0.00 0.00
0.00 0.00 0.00 0.00 0.00 0.00 0.00 0.00 0.00 0.00 0.00 0.00 0.00 0.00 0.00 0.00 0.00 0.00 0.00 0.00 0.00 0.00 0.00 0.02 0.10 0.31 0.32 0.15 0.15 0.25 0.35 0.42 0.31 0.22 0.28 0.21 0.16 0.16 0.11 0.21 0.18 0.19 0.07 0.01 0.00 0.00 0.00 0.00 0.00
0.00 0.00 0.00 0.00 0.00 0.00 0.00 0.00 0.00 0.00 0.00 0.00 0.00 0.00 0.00 0.00 0.00 0.00 0.00 0.00 0.00 0.00 0.01 0.02 0.04 0.22 0.38 0.15 0.10 0.31 0.51 0.45 0.34 0.19 0.24 0.32 0.23 0.31 0.29 0.27 0.21 0.10 0.05 0.01 0.00 0.00 0.00 0.00 0.00
0.00 0.00 0.00 0.00 0.00 0.00 0.00 0.00 0.00 0.00 0.00 0.00 0.00 0.00 0.00 0.00 0.00 0.00 0.00 0.00 0.00 0.00 0.01 0.02 0.02 0.05 0.15 0.12 0.06 0.20 0.39 0.46 0.31 0.21 0.13 0.29 0.41 0.33 0.49 0.47 0.38 0.23 0.03 0.01 0.01 0.01 0.00 0.00 0.00
0.00 0.00 0.00 0.00 0.00 0.00 0.00 0.00 0.00 0.00 0.00 0.00 0.00 0.00 0.00 0.00 0.00 0.00 0.00 0.00 0.00 0.00 0.00 0.02 0.01 0.01 0.02 0.03 0.03 0.06 0.15 0.30 0.23 0.20 0.05 0.08 0.26 0.50 0.41 0.33 0.38 0.38 0.06 0.01 0.00 0.01 0.02 0.03 0.02
0.00 0.00 0.00 0.00 0.00 0.01 0.01 0.00 0.00 0.00 0.00 0.00 0.00 0.00 0.00 0.00 0.00 0.00 0.00 0.00 0.00 0.00 0.00 0.01 0.01 0.01 0.01 0.02 0.04 0.08 0.21 0.30 0.24 0.20 0.06 0.05 0.10 0.19 0.35 0.33 0.30 0.18 0.11 0.03 0.01 0.00 0.00 0.01 0.02
0.00 0.00 0.00 0.01 0.03 0.04 0.00 0.00 0.00 0.00 0.00 0.00 0.00 0.00 0.00 0.00 0.00 0.00 0.00 0.00 0.00 0.00 0.00 0.00 0.00 0.01 0.01 0.01 0.02 0.03 0.07 0.15 0.08 0.04 0.04 0.04 0.10 0.16 0.23 0.29 0.32 0.23 0.10 0.05 0.03 0.03 0.02 0.02 0.02
0.00 0.00 0.04 0.04 0.01 0.01 0.00 0.03 0.00 0.00 0.00 0.00 0.00 0.00 0.00 0.00 0.00 0.00 0.00 0.00 0.00 0.00 0.00 0.00 0.01 0.00 0.01 0.01 0.01 0.02 0.02 0.04 0.07 0.06 0.04 0.02 0.02 0.09 0.16 0.25 0.35 0.35 0.19 0.14 0.10 0.08 0.06 0.06 0.11
0.07 0.03 0.07 0.04 0.06 0.08 0.00 0.02 0.01 0.00 0.00 0.00 0.00 0.00 0.00 0.00 0.00 0.00 0.00 0.00 0.00 0.00 0.00 0.00 0.00 0.00 0.01 0.01 0.01 0.01 0.01 0.02 0.05 0.03 0.02 0.01 0.01 0.04 0.06 0.16 0.18 0.28 0.26 0.28 0.23 0.22 0.13 0.10 0.20
0.08 0.18 0.32 0.26 0.18 0.07 0.00 0.00 0.00 0.00 0.00 0.00 0.00 0.00 0.00 0.00 0.00 0.00 0.00 0.00 0.00 0.00 0.00 0.00 0.00 0.00 0.01 0.01 0.00 0.01 0.01 0.00 0.00 0.01 0.00 0.00 0.00 0.01 0.03 0.03 0.03 0.07 0.10 0.17 0.25 0.32 0.23 0.24 0.29
0.06 0.20 0.19 0.08 0.02 0.00 0.00 0.00 0.00 0.00 0.00 0.00 0.00 0.00 0.00 0.00 0.00 0.00 0.00 0.00 0.00 0.00 0.00 0.00 0.00 0.00 0.00 0.01 0.00 0.01 0.01 0.00 0.00 0.00 0.00 0.00 0.00 0.00 0.00 0.00 0.01 0.01 0.02 0.05 0.15 0.22 0.19 0.28 0.23
0.09 0.13 0.09 0.33 0.13 0.05 0.00 0.00 0.00 0.00 0.00 0.00 0.00 0.00 0.00 0.00 0.00 0.00 0.00 0.00 0.00 0.00 0.00 0.00 0.00 0.00 0.00 0.00 0.00 0.00 0.01 0.00 0.00 0.00 0.00 0.00 0.00 0.00 0.00 0.00 0.01 0.00 0.01 0.03 0.23 0.37 0.26 0.16 0.11
0.05 0.18 0.22 0.37 0.14 0.09 0.00 0.01 0.01 0.00 0.00 0.00 0.00 0.00 0.00 0.00 0.00 0.00 0.00 0.00 0.00 0.00 0.00 0.01 0.01 0.00 0.00 0.00 0.00 0.00 0.00 0.01 0.00 0.00 0.00 0.00 0.00 0.00 0.00 0.02 0.06 0.04 0.01 0.02 0.08 0.12 0.13 0.12 0.11
0.03 0.25 0.26 0.18 0.08 0.10 0.06 0.12 0.05 0.00 0.00 0.00 0.00 0.00 0.00 0.00 0.00 0.00 0.00 0.00 0.00 0.00 0.00 0.00 0.04 0.08 0.03 0.00 0.00 0.00 0.00 0.00 0.00 0.00 0.00 0.00 0.00 0.00 0.03 0.12 0.21 0.33 0.23 0.16 0.13 0.12 0.11 0.11 0.10
0.03 0.04 0.17 0.36 0.18 0.07 0.14 0.13 0.17 0.04 0.01 0.00 0.00 0.00 0.00 0.00 0.00 0.00 0.00 0.00 0.00 0.00 0.00 0.01 0.03 0.05 0.11 0.10 0.01 0.00 0.00 0.00 0.00 0.00 0.00 0.00 0.00 0.02 0.02 0.06 0.09 0.12 0.15 0.18 0.15 0.12 0.09 0.11 0.13

GFSSGP_prec_precacc24_099.txt.gz
Total_Precipitation_Accumulation
0.00 0.00 0.00 0.00 0.00 0.00 0.00 0.00 0.00 0.00 0.00 0.00 0.00 0.00 0.00 0.00 0.00 0.01 0.02 0.00 0.01 0.01 0.00 0.01 0.00 0.00 0.01 0.03 0.00 0.00 0.00 0.01 0.00 0.00 0.00 0.00 0.00 0.00 0.00 0.01 0.03 0.02 0.12 0.06 0.02 0.02 0.06 0.03 0.02
0.00 0.00 0.00 0.00 0.00 0.00 0.00 0.00 0.00 0.00 0.00 0.00 0.00 0.00 0.00 0.00 0.00 0.00 0.00 0.00 0.01 0.01 0.02 0.00 0.00 0.02 0.06 0.12 0.01 0.02 0.03 0.05 0.01 0.02 0.01 0.00 0.00 0.01 0.01 0.01 0.01 0.05 0.11 0.05 0.03 0.06 0.08 0.04 0.02
0.00 0.00 0.00 0.00 0.00 0.00 0.00 0.00 0.00 0.00 0.00 0.00 0.00 0.00 0.00 0.00 0.00 0.00 0.00 0.00 0.00 0.01 0.04 0.07 0.05 0.02 0.12 0.28 0.17 0.16 0.23 0.09 0.06 0.11 0.03 0.01 0.00 0.02 0.06 0.06 0.09 0.14 0.14 0.08 0.07 0.06 0.06 0.03 0.00
0.00 0.00 0.00 0.00 0.00 0.00 0.00 0.00 0.00 0.00 0.00 0.00 0.00 0.00 0.00 0.00 0.00 0.00 0.00 0.00 0.01 0.02 0.09 0.45 0.12 0.02 0.23 0.31 0.68 1.30 1.29 1.04 0.90 0.60 0.37 0.19 0.23 0.20 0.24 0.25 0.20 0.19 0.18 0.11 0.11 0.06 0.05 0.01 0.00
0.00 0.00 0.00 0.00 0.00 0.00 0.00 0.00 0.00 0.00 0.00 0.00 0.00 0.00 0.00 0.00 0.00 0.00 0.00 0.00 0.00 0.04 0.07 0.23 0.23 0.09 0.10 0.23 0.62 1.38 2.42 3.13 3.08 2.26 1.27 1.31 1.41 1.13 0.94 0.64 0.43 0.31 0.32 0.24 0.13 0.06 0.02 0.00 0.00
0.00 0.00 0.00 0.00 0.00 0.00 0.00 0.00 0.00 0.00 0.00 0.00 0.00 0.00 0.00 0.00 0.00 0.00 0.00 0.00 0.00 0.01 0.04 0.20 0.16 0.12 0.20 0.37 0.25 0.66 1.38 2.21 2.78 3.26 2.98 2.64 2.31 1.58 1.22 0.73 0.51 0.44 0.39 0.29 0.27 0.06 0.02 0.00 0.00
0.00 0.00 0.00 0.00 0.00 0.00 0.00 0.00 0.00 0.00 0.00 0.00 0.00 0.00 0.00 0.00 0.00 0.00 0.00 0.00 0.00 0.01 0.08 0.23 0.24 0.22 0.38 0.55 0.36 0.34 0.97 1.05 1.50 1.88 1.99 2.40 2.87 1.94 1.41 0.89 0.66 0.67 0.67 0.35 0.28 0.09 0.03 0.00 0.00
0.00 0.00 0.00 0.00 0.00 0.00 0.00 0.00 0.00 0.00 0.00 0.00 0.00 0.00 0.00 0.00 0.00 0.00 0.00 0.00 0.00 0.01 0.03 0.12 0.27 0.21 0.09 0.12 0.15 0.25 0.45 1.12 1.01 1.35 1.36 1.40 2.02 1.95 1.35 0.84 0.63 0.74 0.66 0.42 0.27 0.16 0.12 0.02 0.00
0.00 0.00 0.00 0.00 0.00 0.00 0.00 0.00 0.00 0.00 0.00 0.00 0.00 0.00 0.00 0.00 0.00 0.00 0.00 0.00 0.00 0.01 0.02 0.08 0.14 0.21 0.18 0.15 0.09 0.18 0.31 0.46 1.16 1.98 1.70 1.28 1.23 1.73 1.35 0.93 0.59 0.61 0.65 0.49 0.26 0.21 0.16 0.05 0.00
0.00 0.00 0.00 0.00 0.00 0.00 0.00 0.00 0.00 0.00 0.00 0.00 0.00 0.00 0.00 0.00 0.00 0.00 0.00 0.00 0.00 0.00 0.01 0.01 0.08 0.12 0.17 0.16 0.09 0.07 0.11 0.15 0.38 2.32 2.02 1.77 1.02 1.13 1.04 1.10 0.69 0.63 0.83 0.55 0.51 0.31 0.15 0.06 0.01
0.00 0.00 0.00 0.00 0.00 0.00 0.00 0.00 0.00 0.00 0.00 0.00 0.00 0.00 0.00 0.00 0.00 0.00 0.00 0.00 0.00 0.01 0.01 0.00 0.02 0.03 0.14 0.10 0.10 0.13 0.15 0.22 0.56 1.30 1.84 2.05 1.13 1.28 1.04 1.13 0.91 0.77 1.15 0.67 0.52 0.24 0.07 0.02 0.00
0.00 0.00 0.00 0.00 0.00 0.00 0.00 0.00 0.00 0.00 0.00 0.00 0.00 0.00 0.00 0.00 0.00 0.00 0.00 0.00 0.01 0.02 0.02 0.01 0.01 0.01 0.05 0.06 0.04 0.09 0.14 0.42 0.75 0.92 1.00 1.46 0.94 0.90 0.97 0.74 0.71 0.62 1.04 0.63 0.30 0.11 0.04 0.02 0.00
0.00 0.00 0.00 0.00 0.00 0.00 0.00 0.00 0.00 0.00 0.00 0.00 0.00 0.00 0.00 0.00 0.00 0.00 0.00 0.00 0.00 0.01 0.02 0.02 0.02 0.01 0.01 0.01 0.01 0.02 0.09 0.35 0.68 0.73 0.33 0.97 0.75 0.54 0.88 0.68 0.63 0.43 0.87 0.47 0.27 0.12 0.05 0.01 0.00
0.00 0.00 0.00 0.00 0.00 0.00 0.00 0.00 0.00 0.00 0.00 0.00 0.00 0.00 0.00 0.00 0.00 0.00 0.00 0.00 0.00 0.00 0.01 0.01 0.02 0.01 0.01 0.02 0.03 0.04 0.07 0.38 0.43 0.54 0.21 0.19 0.33 0.49 0.87 0.79 0.70 0.37 0.56 0.37 0.29 0.16 0.05 0.00 0.00
0.00 0.00 0.00 0.00 0.00 0.00 0.00 0.00 0.00 0.00 0.00 0.00 0.00 0.00 0.00 0.00 0.00 0.00 0.00 0.00 0.00 0.00 0.01 0.01 0.02 0.01 0.01 0.01 0.01 0.04 0.04 0.16 0.35 0.49 0.31 0.15 0.10 0.20 0.42 0.65 0.50 0.42 0.39 0.34 0.26 0.23 0.10 0.01 0.00
0.00 0.00 0.00 0.00 0.00 0.00 0.00 0.00 0.00 0.00 0.00 0.00 0.00 0.00 0.00 0.00 0.00 0.00 0.00 0.00 0.00 0.00 0.00 0.01 0.02 0.01 0.03 0.03 0.07 0.11 0.20 0.15 0.21 0.35 0.37 0.15 0.09 0.08 0.13 0.34 0.61 0.44 0.33 0.24 0.19 0.15 0.08 0.01 0.00
0.00 0.00 0.00 0.00 0.00 0.00 0.00 0.00 0.00 0.00 0.00 0.00 0.00 0.00 0.00 0.00 0.00 0.00 0.00 0.00 0.00 0.00 0.00 0.01 0.02 0.03 0.04 0.07 0.10 0.18 0.26 0.22 0.16 0.19 0.28 0.22 0.17 0.17 0.12 0.22 0.36 0.60 0.31 0.14 0.19 0.14 0.07 0.01 0.00
0.00 0.00 0.00 0.00 0.00 0.00 0.00 0.00 0.00 0.00 0.00 0.00 0.00 0.00 0.00 0.00 0.00 0.00 0.00 0.00 0.00 0.00 0.00 0.02 0.02 0.02 0.04 0.07 0.04 0.18 0.34 0.18 0.12 0.15 0.26 0.34 0.25 0.32 0.30 0.29 0.24 0.27 0.29 0.15 0.18 0.16 0.09 0.03 0.00
0.00 0.00 0.00 0.00 0.00 0.00 0.00 0.00 0.00 0.00 0.00 0.00 0.00 0.00 0.00 0.00 0.00 0.00 0.00 0.00 0.00 0.00 0.00 0.01 0.01 0.01 0.01 0.02 0.04 0.11 0.23 0.20 0.06 0.07 0.14 0.36 0.47 0.39 0.51 0.48 0.47 0.36 0.10 0.10 0.10 0.11 0.07 0.03 0.00
0.00 0.00 0.00 0.00 0.00 0.00 0.00 0.00 0.00 0.00 0.00 0.00 0.00 0.00 0.00 0.00 0.00 0.00 0.00 0.00 0.00 0.00 0.00 0.01 0.01 0.01 0.01 0.01 0.02 0.03 0.07 0.17 0.07 0.04 0.03 0.08 0.39 0.66 0.52 0.44 0.45 0.54 0.25 0.06 0.01 0.02 0.02 0.02 0.02
0.00 0.00 0.00 0.00 0.00 0.01 0.01 0.00 0.00 0.00 0.00 0.00 0.00 0.00 0.00 0.00 0.00 0.00 0.00 0.00 0.00 0.00 0.00 0.01 0.01 0.01 0.01 0.01 0.03 0.04 0.06 0.15 0.12 0.05 0.02 0.04 0.10 0.34 0.61 0.44 0.39 0.48 0.33 0.12 0.03 0.00 0.00 0.01 0.02
0.00 0.00 0.00 0.01 0.03 0.04 0.00 0.00 0.00 0.00 0.00 0.00 0.00 0.00 0.00 0.00 0.00 0.00 0.00 0.00 0.00 0.00 0.00 0.00 0.00 0.01 0.01 0.01 0.02 0.02 0.03 0.06 0.03 0.01 0.01 0.02 0.08 0.14 0.36 0.58 0.41 0.34 0.37 0.30 0.08 0.04 0.02 0.02 0.01
0.00 0.00 0.04 0.04 0.01 0.01 0.00 0.03 0.00 0.00 0.00 0.00 0.00 0.00 0.00 0.00 0.00 0.00 0.00 0.00 0.00 0.00 0.00 0.00 0.01 0.00 0.01 0.01 0.01 0.02 0.01 0.02 0.03 0.03 0.02 0.02 0.02 0.09 0.16 0.33 0.47 0.47 0.37 0.35 0.22 0.11 0.04 0.04 0.10
0.07 0.03 0.07 0.04 0.06 0.08 0.00 0.02 0.01 0.00 0.00 0.00 0.00 0.00 0.00 0.00 0.00 0.00 0.00 0.00 0.00 0.00 0.00 0.00 0.00 0.01 0.01 0.01 0.01 0.01 0.01 0.02 0.05 0.03 0.02 0.01 0.02 0.04 0.07 0.17 0.22 0.37 0.45 0.48 0.42 0.26 0.15 0.09 0.19
0.08 0.18 0.32 0.26 0.19 0.08 0.00 0.00 0.00 0.00 0.00 0.00 0.00 0.00 0.00 0.00 0.00 0.00 0.00 0.00 0.00 0.00 0.00 0.00 0.00 0.00 0.01 0.01 0.01 0.01 0.01 0.00 0.00 0.01 0.00 0.00 0.01 0.02 0.04 0.05 0.05 0.11 0.22 0.49 0.55 0.60 0.37 0.23 0.22
0.06 0.20 0.20 0.10 0.04 0.01 0.00 0.00 0.00 0.00 0.00 0.00 0.00 0.00 0.00 0.00 0.00 0.00 0.00 0.00 0.00 0.00 0.00 0.00 0.00 0.00 0.00 0.01 0.01 0.01 0.01 0.00 0.00 0.00 0.00 0.00 0.00 0.00 0.00 0.01 0.02 0.02 0.07 0.14 0.30 0.37 0.24 0.27 0.23
0.09 0.13 0.09 0.37 0.16 0.09 0.00 0.00 0.00 0.00 0.00 0.00 0.00 0.00 0.00 0.00 0.00 0.00 0.00 0.00 0.00 0.00 0.00 0.00 0.00 0.00 0.00 0.01 0.00 0.00 0.01 0.00 0.00 0.00 0.00 0.00 0.00 0.00 0.00 0.00 0.01 0.01 0.01 0.03 0.08 0.16 0.11 0.11 0.15
0.05 0.19 0.30 0.46 0.20 0.10 0.00 0.01 0.01 0.00 0.00 0.00 0.00 0.00 0.00 0.00 0.00 0.00 0.00 0.00 0.00 0.00 0.00 0.00 0.00 0.00 0.00 0.00 0.00 0.00 0.00 0.01 0.00 0.00 0.00 0.00 0.00 0.00 0.00 0.00 0.00 0.01 0.01 0.01 0.04 0.05 0.05 0.06 0.10
0.03 0.25 0.27 0.25 0.16 0.20 0.10 0.14 0.14 0.03 0.02 0.00 0.00 0.00 0.00 0.00 0.00 0.00 0.00 0.00 0.00 0.00 0.00 0.00 0.01 0.00 0.00 0.00 0.00 0.00 0.00 0.00 0.00 0.00 0.00 0.00 0.00 0.00 0.00 0.00 0.00 0.00 0.00 0.01 0.01 0.02 0.02 0.03 0.05
0.03 0.05 0.19 0.44 0.23 0.13 0.20 0.15 0.19 0.08 0.02 0.01 0.00 0.00 0.01 0.02 0.03 0.00 0.00 0.00 0.00 0.00 0.00 0.01 0.01 0.01 0.02 0.06 0.03 0.00 0.00 0.00 0.00 0.00 0.00 0.00 0.00 0.00 0.00 0.00 0.00 0.00 0.00 0.00 0.01 0.01 0.02 0.04 0.05

GFSSGP_prec_precacc24_102.txt.gz
Total_Precipitation_Accumulation
0.00 0.00 0.00 0.00 0.00 0.00 0.00 0.00 0.00 0.00 0.00 0.00 0.00 0.00 0.00 0.00 0.00 0.01 0.02 0.00 0.00 0.00 0.00 0.01 0.00 0.00 0.01 0.02 0.00 0.00 0.00 0.00 0.00 0.00 0.00 0.00 0.00 0.00 0.00 0.01 0.03 0.02 0.09 0.06 0.02 0.02 0.06 0.03 0.02
0.00 0.00 0.00 0.00 0.00 0.00 0.00 0.00 0.00 0.00 0.00 0.00 0.00 0.00 0.00 0.00 0.00 0.00 0.00 0.00 0.00 0.00 0.01 0.00 0.00 0.00 0.03 0.06 0.00 0.01 0.03 0.04 0.01 0.02 0.01 0.00 0.00 0.01 0.01 0.01 0.01 0.06 0.12 0.11 0.09 0.09 0.10 0.04 0.02
0.00 0.00 0.00 0.00 0.00 0.00 0.00 0.00 0.00 0.00 0.00 0.00 0.00 0.00 0.00 0.00 0.00 0.00 0.00 0.00 0.00 0.00 0.02 0.01 0.02 0.00 0.00 0.05 0.09 0.11 0.22 0.09 0.06 0.11 0.03 0.01 0.01 0.05 0.12 0.16 0.19 0.26 0.25 0.17 0.18 0.11 0.08 0.03 0.00
0.00 0.00 0.00 0.00 0.00 0.00 0.00 0.00 0.00 0.00 0.00 0.00 0.00 0.00 0.00 0.00 0.00 0.00 0.00 0.00 0.00 0.01 0.03 0.09 0.05 0.00 0.02 0.17 0.36 0.68 1.09 1.01 0.90 0.60 0.37 0.19 0.27 0.39 0.42 0.40 0.38 0.40 0.38 0.22 0.20 0.13 0.06 0.01 0.00
0.00 0.00 0.00 0.00 0.00 0.00 0.00 0.00 0.00 0.00 0.00 0.00 0.00 0.00 0.00 0.00 0.00 0.00 0.00 0.00 0.00 0.00 0.01 0.07 0.11 0.04 0.08 0.21 0.49 1.07 1.95 2.65 2.89 2.13 1.29 1.45 1.57 1.38 1.09 0.68 0.55 0.49 0.50 0.46 0.32 0.21 0.14 0.01 0.00
0.00 0.00 0.00 0.00 0.00 0.00 0.00 0.00 0.00 0.00 0.00 0.00 0.00 0.00 0.00 0.00 0.00 0.00 0.00 0.00 0.00 0.00 0.00 0.03 0.09 0.07 0.15 0.24 0.16 0.51 1.28 1.99 2.53 2.83 2.94 2.86 2.41 1.59 1.22 0.74 0.57 0.53 0.50 0.44 0.43 0.26 0.22 0.07 0.03
0.00 0.00 0.00 0.00 0.00 0.00 0.00 0.00 0.00 0.00 0.00 0.00 0.00 0.00 0.00 0.00 0.00 0.00 0.00 0.00 0.00 0.00 0.01 0.03 0.08 0.07 0.24 0.47 0.29 0.26 0.89 0.97 1.38 1.76 1.86 2.32 2.82 1.94 1.41 0.89 0.66 0.69 0.70 0.37 0.30 0.17 0.20 0.18 0.13
0.00 0.00 0.00 0.00 0.00 0.00 0.00 0.00 0.00 0.00 0.00 0.00 0.00 0.00 0.00 0.00 0.00 0.00 0.00 0.00 0.00 0.00 0.01 0.04 0.16 0.10 0.06 0.08 0.10 0.20 0.44 1.05 0.80 1.20 1.29 1.35 2.00 1.93 1.35 0.84 0.64 0.74 0.67 0.48 0.31 0.27 0.33 0.23 0.14
0.00 0.00 0.00 0.00 0.00 0.00 0.00 0.00 0.00 0.00 0.00 0.00 0.00 0.00 0.00 0.00 0.00 0.00 0.00 0.00 0.00 0.00 0.01 0.01 0.03 0.09 0.12 0.07 0.04 0.16 0.31 0.39 0.88 1.26 1.38 1.18 1.19 1.71 1.35 0.94 0.60 0.62 0.68 0.56 0.42 0.38 0.42 0.29 0.15
0.00 0.00 0.00 0.00 0.00 0.00 0.00 0.00 0.00 0.00 0.00 0.00 0.00 0.00 0.00 0.00 0.00 0.00 0.00 0.00 0.00 0.00 0.00 0.00 0.03 0.03 0.02 0.04 0.03 0.05 0.09 0.13 0.16 1.08 1.32 1.64 0.97 1.12 1.03 1.12 0.74 0.64 0.86 0.62 0.66 0.54 0.41 0.26 0.10
0.00 0.00 0.00 0.00 0.00 0.00 0.00 0.00 0.00 0.00 0.00 0.00 0.00 0.00 0.00 0.00 0.00 0.00 0.00 0.00 0.00 0.00 0.00 0.00 0.01 0.02 0.04 0.03 0.06 0.11 0.15 0.20 0.23 0.34 1.01 1.94 1.08 1.27 1.03 1.13 0.91 0.77 1.17 0.78 0.73 0.57 0.33 0.16 0.09
0.00 0.00 0.00 0.00 0.00 0.00 0.00 0.00 0.00 0.00 0.00 0.00 0.00 0.00 0.00 0.00 0.00 0.00 0.00 0.00 0.00 0.01 0.01 0.00 0.00 0.01 0.04 0.04 0.03 0.08 0.13 0.21 0.20 0.26 0.59 1.35 0.91 0.90 0.97 0.74 0.71 0.62 1.09 0.72 0.49 0.34 0.20 0.14 0.10
0.00 0.00 0.00 0.00 0.00 0.00 0.00 0.00 0.00 0.00 0.00 0.00 0.00 0.00 0.00 0.00 0.00 0.00 0.00 0.00 0.00 0.00 0.01 0.02 0.02 0.00 0.01 0.01 0.01 0.02 0.06 0.13 0.23 0.29 0.25 0.94 0.75 0.54 0.88 0.68 0.64 0.46 0.97 0.55 0.31 0.29 0.21 0.10 0.08
0.00 0.00 0.00 0.00 0.00 0.00 0.00 0.00 0.00 0.00 0.00 0.00 0.00 0.00 0.00 0.00 0.00 0.00 0.00 0.00 0.00 0.00 0.00 0.01 0.02 0.01 0.01 0.02 0.02 0.01 0.01 0.06 0.14 0.31 0.13 0.18 0.33 0.50 0.89 0.80 0.71 0.44 0.64 0.50 0.41 0.24 0.21 0.09 0.05
0.00 0.00 0.00 0.00 0.00 0.00 0.00 0.00 0.00 0.00 0.00 0.00 0.00 0.00 0.00 0.00 0.00 0.00 0.00 0.00 0.00 0.00 0.00 0.01 0.01 0.00 0.01 0.01 0.01 0.01 0.01 0.05 0.12 0.37 0.27 0.14 0.10 0.22 0.43 0.66 0.52 0.48 0.49 0.41 0.54 0.49 0.27 0.10 0.05
0.00 0.00 0.00 0.00 0.00 0.00 0.00 0.00 0.00 0.00 0.00 0.00 0.00 0.00 0.00 0.00 0.00 0.00 0.00 0.00 0.00 0.00 0.00 0.00 0.02 0.01 0.02 0.02 0.02 0.02 0.04 0.08 0.11 0.30 0.37 0.15 0.10 0.09 0.15 0.36 0.62 0.47 0.49 0.32 0.33 0.47 0.32 0.12 0.04
0.00 0.00 0.00 0.00 0.00 0.00 0.00 0.00 0.00 0.00 0.00 0.00 0.00 0.00 0.00 0.00 0.00 0.00 0.00 0.00 0.00 0.00 0.00 0.01 0.02 0.01 0.02 0.05 0.03 0.10 0.08 0.11 0.13 0.17 0.28 0.22 0.18 0.18 0.15 0.24 0.37 0.65 0.41 0.33 0.41 0.36 0.33 0.12 0.03
0.00 0.00 0.00 0.00 0.00 0.00 0.00 0.00 0.00 0.00 0.00 0.00 0.00 0.00 0.00 0.00 0.00 0.00 0.00 0.00 0.00 0.00 0.00 0.01 0.01 0.01 0.02 0.03 0.02 0.08 0.14 0.07 0.09 0.14 0.25 0.34 0.25 0.33 0.33 0.31 0.24 0.31 0.48 0.40 0.46 0.54 0.33 0.17 0.03
0.00 0.00 0.00 0.00 0.00 0.00 0.00 0.00 0.00 0.00 0.00 0.00 0.00 0.00 0.00 0.00 0.00 0.00 0.00 0.00 0.00 0.00 0.00 0.01 0.01 0.01 0.01 0.01 0.02 0.05 0.07 0.08 0.04 0.07 0.14 0.36 0.48 0.41 0.52 0.48 0.47 0.37 0.16 0.33 0.25 0.50 0.43 0.21 0.03
0.00 0.00 0.00 0.00 0.00 0.00 0.00 0.00 0.00 0.00 0.00 0.00 0.00 0.00 0.00 0.00 0.00 0.00 0.00 0.00 0.00 0.00 0.00 0.00 0.01 0.01 0.01 0.01 0.02 0.02 0.01 0.02 0.02 0.04 0.04 0.11 0.42 0.69 0.55 0.44 0.46 0.55 0.25 0.12 0.14 0.27 0.36 0.19 0.03
0.00 0.00 0.00 0.00 0.00 0.01 0.01 0.00 0.00 0.00 0.00 0.00 0.00 0.00 0.00 0.00 0.00 0.00 0.00 0.00 0.00 0.00 0.00 0.00 0.00 0.00 0.00 0.01 0.03 0.04 0.04 0.04 0.02 0.01 0.02 0.04 0.12 0.38 0.67 0.52 0.42 0.55 0.35 0.13 0.07 0.08 0.09 0.06 0.03
0.00 0.00 0.00 0.01 0.03 0.04 0.00 0.00 0.00 0.00 0.00 0.00 0.00 0.00 0.00 0.00 0.00 0.00 0.00 0.00 0.00 0.00 0.00 0.00 0.00 0.00 0.00 0.01 0.02 0.02 0.02 0.03 0.00 0.00 0.01 0.02 0.08 0.16 0.43 0.65 0.50 0.42 0.53 0.35 0.08 0.03 0.03 0.02 0.02
0.00 0.00 0.04 0.04 0.01 0.01 0.00 0.03 0.00 0.00 0.00 0.00 0.00 0.00 0.00 0.00 0.00 0.00 0.00 0.00 0.00 0.00 0.00 0.00 0.00 0.00 0.00 0.01 0.01 0.02 0.01 0.01 0.01 0.00 0.00 0.01 0.02 0.09 0.18 0.41 0.54 0.50 0.44 0.41 0.25 0.13 0.05 0.04 0.09
0.07 0.03 0.07 0.04 0.06 0.08 0.00 0.02 0.01 0.00 0.00 0.00 0.00 0.00 0.00 0.00 0.00 0.00 0.00 0.00 0.00 0.00 0.00 0.00 0.00 0.01 0.01 0.01 0.01 0.01 0.01 0.01 0.03 0.01 0.00 0.00 0.02 0.05 0.08 0.20 0.26 0.39 0.46 0.52 0.50 0.28 0.19 0.10 0.17
0.08 0.18 0.32 0.27 0.19 0.08 0.00 0.00 0.00 0.00 0.00 0.00 0.00 0.00 0.00 0.00 0.00 0.00 0.00 0.00 0.00 0.00 0.00 0.00 0.00 0.00 0.01 0.01 0.01 0.01 0.01 0.00 0.00 0.01 0.00 0.00 0.01 0.03 0.05 0.07 0.07 0.11 0.22 0.46 0.59 0.67 0.42 0.26 0.22
0.06 0.20 0.20 0.10 0.04 0.01 0.00 0.00 0.00 0.00 0.00 0.00 0.00 0.00 0.00 0.00 0.00 0.00 0.00 0.00 0.00 0.00 0.00 0.00 0.00 0.00 0.00 0.01 0.00 0.00 0.01 0.00 0.00 0.00 0.00 0.00 0.00 0.00 0.01 0.03 0.04 0.02 0.05 0.12 0.28 0.40 0.40 0.40 0.33
0.09 0.13 0.09 0.37 0.16 0.09 0.00 0.00 0.00 0.00 0.00 0.00 0.00 0.00 0.00 0.00 0.00 0.00 0.00 0.00 0.00 0.00 0.00 0.00 0.00 0.00 0.00 0.01 0.00 0.00 0.01 0.00 0.00 0.00 0.00 0.00 0.00 0.00 0.00 0.01 0.03 0.02 0.02 0.04 0.08 0.16 0.13 0.15 0.19
0.05 0.19 0.30 0.46 0.20 0.10 0.00 0.01 0.02 0.01 0.01 0.00 0.00 0.00 0.00 0.00 0.00 0.00 0.00 0.00 0.00 0.00 0.00 0.00 0.00 0.00 0.00 0.00 0.00 0.00 0.00 0.01 0.00 0.00 0.00 0.00 0.00 0.00 0.00 0.00 0.01 0.01 0.02 0.02 0.04 0.06 0.07 0.10 0.14
0.03 0.25 0.27 0.25 0.16 0.20 0.10 0.15 0.16 0.04 0.04 0.02 0.00 0.00 0.00 0.00 0.00 0.00 0.00 0.00 0.00 0.00 0.00 0.00 0.01 0.00 0.00 0.01 0.01 0.00 0.00 0.00 0.00 0.00 0.00 0.00 0.00 0.00 0.00 0.00 0.00 0.00 0.00 0.01 0.02 0.03 0.03 0.05 0.05
0.03 0.05 0.19 0.44 0.23 0.14 0.20 0.15 0.19 0.08 0.02 0.01 0.00 0.00 0.01 0.02 0.04 0.02 0.01 0.00 0.00 0.00 0.01 0.01 0.01 0.01 0.02 0.04 0.03 0.01 0.00 0.00 0.00 0.00 0.00 0.00 0.00 0.00 0.00 0.00 0.00 0.00 0.00 0.00 0.00 0.00 0.01 0.02 0.02

GFSSGP_prec_precacc24_105.txt.gz
Total_Precipitation_Accumulation
0.00 0.00 0.00 0.00 0.00 0.00 0.00 0.00 0.00 0.00 0.00 0.00 0.00 0.00 0.00 0.00 0.00 0.01 0.01 0.00 0.00 0.00 0.00 0.00 0.00 0.00 0.00 0.00 0.00 0.00 0.00 0.00 0.00 0.00 0.00 0.00 0.00 0.00 0.00 0.01 0.03 0.02 0.04 0.04 0.02 0.03 0.09 0.04 0.02
0.00 0.00 0.00 0.00 0.00 0.00 0.00 0.00 0.00 0.00 0.00 0.00 0.00 0.00 0.00 0.00 0.00 0.00 0.00 0.00 0.00 0.00 0.00 0.00 0.00 0.00 0.00 0.00 0.00 0.01 0.01 0.02 0.00 0.02 0.01 0.01 0.00 0.01 0.04 0.02 0.01 0.09 0.17 0.16 0.16 0.18 0.15 0.05 0.02
0.00 0.00 0.00 0.00 0.00 0.00 0.00 0.00 0.00 0.00 0.00 0.00 0.00 0.00 0.00 0.00 0.00 0.00 0.00 0.00 0.00 0.00 0.00 0.00 0.02 0.00 0.00 0.05 0.04 0.01 0.02 0.03 0.06 0.11 0.03 0.00 0.00 0.11 0.23 0.21 0.21 0.36 0.37 0.36 0.35 0.25 0.15 0.05 0.00
0.00 0.00 0.00 0.00 0.00 0.00 0.00 0.00 0.00 0.00 0.00 0.00 0.00 0.00 0.00 0.00 0.00 0.00 0.00 0.00 0.00 0.00 0.00 0.03 0.04 0.00 0.01 0.12 0.13 0.30 0.42 0.61 0.86 0.60 0.37 0.19 0.31 0.47 0.47 0.44 0.42 0.45 0.52 0.38 0.35 0.37 0.20 0.02 0.00
0.00 0.00 0.00 0.00 0.00 0.00 0.00 0.00 0.00 0.00 0.00 0.00 0.00 0.00 0.00 0.00 0.00 0.00 0.00 0.00 0.00 0.00 0.00 0.03 0.07 0.00 0.02 0.10 0.21 0.56 1.01 1.37 2.37 2.01 1.19 1.47 1.71 1.40 1.09 0.68 0.54 0.49 0.50 0.53 0.42 0.30 0.20 0.07 0.03
0.00 0.00 0.00 0.00 0.00 0.00 0.00 0.00 0.00 0.00 0.00 0.00 0.00 0.00 0.00 0.00 0.00 0.00 0.00 0.00 0.00 0.00 0.00 0.00 0.04 0.00 0.02 0.04 0.02 0.28 0.70 1.05 1.82 2.60 2.65 2.82 2.43 1.59 1.22 0.74 0.57 0.53 0.50 0.44 0.46 0.32 0.29 0.14 0.23
0.00 0.00 0.00 0.00 0.00 0.00 0.00 0.00 0.00 0.00 0.00 0.00 0.00 0.00 0.00 0.00 0.00 0.00 0.00 0.00 0.00 0.00 0.00 0.01 0.01 0.00 0.04 0.11 0.06 0.08 0.09 0.33 1.04 1.65 1.58 1.73 2.56 1.91 1.40 0.86 0.63 0.69 0.70 0.37 0.32 0.21 0.27 0.30 0.28
0.00 0.00 0.00 0.00 0.00 0.00 0.00 0.00 0.00 0.00 0.00 0.00 0.00 0.00 0.00 0.00 0.00 0.00 0.00 0.00 0.00 0.00 0.00 0.01 0.02 0.01 0.00 0.01 0.03 0.07 0.18 0.35 0.44 1.12 1.25 0.99 1.55 1.79 1.33 0.82 0.59 0.72 0.67 0.48 0.34 0.40 0.53 0.45 0.27
0.00 0.00 0.00 0.00 0.00 0.00 0.00 0.00 0.00 0.00 0.00 0.00 0.00 0.00 0.00 0.00 0.00 0.00 0.00 0.00 0.00 0.00 0.00 0.00 0.02 0.02 0.01 0.01 0.01 0.07 0.19 0.22 0.54 1.09 1.25 1.04 1.01 1.64 1.33 0.91 0.58 0.62 0.69 0.58 0.46 0.53 0.62 0.46 0.31
0.00 0.00 0.00 0.00 0.00 0.00 0.00 0.00 0.00 0.00 0.00 0.00 0.00 0.00 0.00 0.00 0.00 0.00 0.00 0.00 0.00 0.00 0.00 0.00 0.02 0.01 0.01 0.02 0.03 0.05 0.08 0.13 0.14 1.00 1.20 1.29 0.65 1.04 0.95 1.02 0.75 0.68 0.88 0.65 0.70 0.59 0.46 0.35 0.24
0.00 0.00 0.00 0.00 0.00 0.00 0.00 0.00 0.00 0.00 0.00 0.00 0.00 0.00 0.00 0.00 0.00 0.00 0.00 0.00 0.00 0.00 0.00 0.00 0.01 0.02 0.02 0.01 0.04 0.09 0.14 0.18 0.16 0.26 0.73 1.61 0.79 1.06 0.89 1.10 0.90 0.80 1.21 0.80 0.76 0.59 0.42 0.26 0.23
0.00 0.00 0.00 0.00 0.00 0.00 0.00 0.00 0.00 0.00 0.00 0.00 0.00 0.00 0.00 0.00 0.00 0.00 0.00 0.00 0.00 0.00 0.00 0.00 0.00 0.00 0.03 0.03 0.01 0.07 0.12 0.18 0.18 0.17 0.16 0.84 0.68 0.80 0.87 0.70 0.72 0.65 1.12 0.74 0.54 0.37 0.31 0.31 0.29
0.00 0.00 0.00 0.00 0.00 0.00 0.00 0.00 0.00 0.00 0.00 0.00 0.00 0.00 0.00 0.00 0.00 0.00 0.00 0.00 0.00 0.00 0.00 0.00 0.00 0.00 0.00 0.01 0.01 0.01 0.05 0.12 0.22 0.21 0.06 0.36 0.58 0.50 0.81 0.62 0.62 0.48 1.02 0.61 0.34 0.39 0.31 0.32 0.30
0.00 0.00 0.00 0.00 0.00 0.00 0.00 0.00 0.00 0.00 0.00 0.00 0.00 0.00 0.00 0.00 0.00 0.00 0.00 0.00 0.00 0.00 0.00 0.00 0.01 0.00 0.00 0.01 0.01 0.01 0.01 0.05 0.09 0.13 0.08 0.03 0.23 0.44 0.85 0.74 0.67 0.46 0.71 0.58 0.47 0.31 0.39 0.35 0.44
0.00 0.00 0.00 0.00 0.00 0.00 0.00 0.00 0.00 0.00 0.00 0.00 0.00 0.00 0.00 0.00 0.00 0.00 0.00 0.00 0.00 0.00 0.00 0.00 0.00 0.00 0.01 0.01 0.00 0.00 0.00 0.02 0.04 0.06 0.12 0.04 0.03 0.18 0.44 0.63 0.50 0.51 0.58 0.48 0.61 0.56 0.44 0.42 0.50
0.00 0.00 0.00 0.00 0.00 0.00 0.00 0.00 0.00 0.00 0.00 0.00 0.00 0.00 0.00 0.00 0.00 0.00 0.00 0.00 0.00 0.00 0.00 0.00 0.00 0.00 0.01 0.01 0.00 0.00 0.01 0.02 0.03 0.08 0.18 0.06 0.06 0.11 0.19 0.37 0.62 0.51 0.56 0.35 0.40 0.65 0.48 0.37 0.33
0.00 0.00 0.00 0.00 0.00 0.00 0.00 0.00 0.00 0.00 0.00 0.00 0.00 0.00 0.00 0.00 0.00 0.00 0.00 0.00 0.00 0.00 0.00 0.00 0.00 0.01 0.01 0.02 0.00 0.01 0.00 0.02 0.05 0.10 0.19 0.16 0.12 0.17 0.16 0.26 0.38 0.67 0.43 0.35 0.45 0.55 0.60 0.34 0.26
0.00 0.00 0.00 0.00 0.00 0.00 0.00 0.00 0.00 0.00 0.00 0.00 0.00 0.00 0.00 0.00 0.00 0.00 0.00 0.00 0.00 0.00 0.00 0.00 0.00 0.01 0.01 0.02 0.01 0.02 0.01 0.02 0.07 0.14 0.24 0.30 0.23 0.33 0.36 0.35 0.25 0.32 0.49 0.43 0.58 0.69 0.62 0.43 0.22
0.00 0.00 0.00 0.00 0.00 0.00 0.00 0.00 0.00 0.00 0.00 0.00 0.00 0.00 0.00 0.00 0.00 0.00 0.00 0.00 0.00 0.00 0.00 0.00 0.00 0.00 0.00 0.00 0.01 0.01 0.01 0.01 0.03 0.07 0.14 0.36 0.48 0.42 0.57 0.53 0.48 0.37 0.17 0.37 0.46 0.80 0.77 0.52 0.26
0.00 0.00 0.00 0.00 0.00 0.00 0.00 0.00 0.00 0.00 0.00 0.00 0.00 0.00 0.00 0.00 0.00 0.00 0.00 0.00 0.00 0.00 0.00 0.00 0.00 0.00 0.00 0.00 0.01 0.00 0.00 0.00 0.01 0.03 0.04 0.11 0.43 0.70 0.59 0.46 0.47 0.56 0.26 0.15 0.28 0.56 0.86 0.60 0.20
0.00 0.00 0.00 0.00 0.00 0.01 0.01 0.00 0.00 0.00 0.00 0.00 0.00 0.00 0.00 0.00 0.00 0.00 0.00 0.00 0.00 0.00 0.00 0.00 0.00 0.00 0.00 0.01 0.01 0.01 0.02 0.01 0.01 0.02 0.02 0.05 0.13 0.41 0.70 0.54 0.42 0.55 0.36 0.14 0.09 0.20 0.49 0.36 0.15
0.00 0.00 0.00 0.01 0.03 0.04 0.00 0.00 0.00 0.00 0.00 0.00 0.00 0.00 0.00 0.00 0.00 0.00 0.00 0.00 0.00 0.00 0.00 0.00 0.00 0.00 0.00 0.01 0.01 0.01 0.01 0.00 0.00 0.00 0.01 0.02 0.09 0.17 0.45 0.67 0.52 0.43 0.55 0.37 0.10 0.05 0.21 0.26 0.08
0.00 0.00 0.04 0.04 0.01 0.01 0.00 0.03 0.00 0.00 0.00 0.00 0.00 0.00 0.00 0.00 0.00 0.00 0.00 0.00 0.00 0.00 0.00 0.00 0.00 0.00 0.00 0.01 0.00 0.00 0.00 0.00 0.00 0.00 0.00 0.01 0.03 0.10 0.20 0.43 0.56 0.52 0.46 0.45 0.31 0.14 0.08 0.13 0.10
0.07 0.03 0.07 0.04 0.06 0.08 0.00 0.02 0.01 0.00 0.00 0.00 0.00 0.00 0.00 0.00 0.00 0.00 0.00 0.00 0.00 0.00 0.00 0.00 0.00 0.00 0.01 0.01 0.01 0.00 0.00 0.00 0.00 0.00 0.00 0.00 0.02 0.05 0.09 0.23 0.30 0.42 0.48 0.56 0.52 0.25 0.16 0.08 0.11
0.08 0.18 0.32 0.27 0.19 0.08 0.00 0.00 0.00 0.00 0.00 0.00 0.00 0.00 0.00 0.00 0.00 0.00 0.00 0.00 0.00 0.00 0.00 0.00 0.00 0.00 0.01 0.01 0.01 0.01 0.00 0.00 0.00 0.00 0.00 0.00 0.01 0.03 0.05 0.09 0.10 0.12 0.24 0.47 0.60 0.71 0.45 0.21 0.15
0.06 0.20 0.20 0.10 0.04 0.01 0.00 0.00 0.00 0.00 0.00 0.00 0.00 0.00 0.00 0.00 0.00 0.00 0.00 0.00 0.00 0.00 0.00 0.00 0.00 0.00 0.00 0.01 0.00 0.00 0.00 0.00 0.00 0.00 0.00 0.00 0.00 0.00 0.01 0.03 0.07 0.04 0.06 0.13 0.25 0.38 0.45 0.48 0.35
0.09 0.14 0.09 0.39 0.16 0.10 0.00 0.00 0.00 0.00 0.00 0.00 0.00 0.00 0.00 0.00 0.00 0.00 0.00 0.00 0.00 0.00 0.00 0.00 0.00 0.00 0.00 0.01 0.00 0.00 0.01 0.00 0.00 0.00 0.00 0.00 0.00 0.00 0.00 0.01 0.04 0.04 0.02 0.04 0.06 0.13 0.16 0.29 0.37
0.05 0.19 0.30 0.46 0.20 0.10 0.00 0.01 0.05 0.02 0.01 0.00 0.00 0.00 0.00 0.00 0.00 0.00 0.00 0.00 0.00 0.00 0.00 0.00 0.00 0.00 0.00 0.01 0.00 0.00 0.00 0.00 0.00 0.00 0.00 0.00 0.00 0.00 0.00 0.00 0.02 0.03 0.02 0.02 0.03 0.04 0.06 0.09 0.16
0.03 0.27 0.28 0.27 0.16 0.21 0.11 0.21 0.20 0.04 0.04 0.02 0.00 0.00 0.00 0.00 0.00 0.00 0.00 0.00 0.00 0.00 0.00 0.00 0.01 0.00 0.00 0.01 0.01 0.00 0.00 0.00 0.00 0.00 0.00 0.00 0.00 0.00 0.00 0.00 0.01 0.00 0.00 0.00 0.02 0.02 0.03 0.05 0.05
0.03 0.05 0.19 0.45 0.24 0.14 0.21 0.19 0.20 0.08 0.02 0.01 0.00 0.00 0.01 0.02 0.04 0.02 0.01 0.01 0.01 0.00 0.01 0.01 0.01 0.01 0.02 0.04 0.03 0.01 0.00 0.00 0.00 0.00 0.00 0.00 0.00 0.00 0.00 0.00 0.00 0.00 0.00 0.00 0.00 0.01 0.01 0.02 0.02

GFSSGP_prec_precacc24_108.txt.gz
Total_Precipitation_Accumulation
0.00 0.00 0.00 0.00 0.00 0.00 0.00 0.00 0.00 0.00 0.00 0.00 0.00 0.00 0.00 0.00 0.00 0.00 0.01 0.00 0.00 0.00 0.00 0.00 0.00 0.00 0.00 0.00 0.00 0.00 0.00 0.00 0.00 0.00 0.00 0.00 0.00 0.00 0.01 0.01 0.02 0.04 0.14 0.12 0.03 0.04 0.10 0.05 0.03
0.00 0.00 0.00 0.00 0.00 0.00 0.00 0.00 0.00 0.00 0.00 0.00 0.00 0.00 0.00 0.00 0.00 0.00 0.00 0.00 0.00 0.00 0.00 0.00 0.00 0.00 0.00 0.00 0.00 0.00 0.00 0.00 0.00 0.00 0.00 0.01 0.00 0.01 0.05 0.01 0.01 0.12 0.22 0.27 0.26 0.24 0.16 0.06 0.02
0.00 0.00 0.00 0.00 0.00 0.00 0.00 0.00 0.00 0.00 0.00 0.00 0.00 0.00 0.00 0.00 0.00 0.00 0.00 0.00 0.00 0.00 0.00 0.00 0.00 0.00 0.00 0.02 0.01 0.00 0.00 0.01 0.04 0.03 0.02 0.01 0.03 0.17 0.22 0.20 0.20 0.34 0.37 0.40 0.42 0.39 0.28 0.07 0.00
0.00 0.00 0.00 0.00 0.00 0.00 0.00 0.00 0.00 0.00 0.00 0.00 0.00 0.00 0.00 0.00 0.00 0.00 0.00 0.00 0.00 0.00 0.00 0.00 0.00 0.00 0.00 0.03 0.05 0.02 0.04 0.21 0.50 0.48 0.35 0.19 0.35 0.49 0.46 0.43 0.40 0.41 0.50 0.38 0.35 0.39 0.22 0.02 0.00
0.00 0.00 0.00 0.00 0.00 0.00 0.00 0.00 0.00 0.00 0.00 0.00 0.00 0.00 0.00 0.00 0.00 0.00 0.00 0.00 0.00 0.00 0.00 0.00 0.00 0.00 0.00 0.01 0.04 0.09 0.12 0.56 0.72 0.91 0.98 1.42 1.69 1.39 1.09 0.67 0.53 0.46 0.48 0.52 0.42 0.30 0.20 0.07 0.03
0.00 0.00 0.00 0.00 0.00 0.00 0.00 0.00 0.00 0.00 0.00 0.00 0.00 0.00 0.00 0.00 0.00 0.00 0.00 0.00 0.00 0.00 0.00 0.00 0.00 0.00 0.00 0.01 0.01 0.01 0.10 0.47 0.85 1.07 1.90 2.67 2.41 1.58 1.20 0.71 0.55 0.52 0.50 0.44 0.46 0.32 0.29 0.16 0.26
0.00 0.00 0.00 0.00 0.00 0.00 0.00 0.00 0.00 0.00 0.00 0.00 0.00 0.00 0.00 0.00 0.00 0.00 0.00 0.00 0.00 0.00 0.00 0.00 0.00 0.00 0.00 0.01 0.03 0.04 0.05 0.19 0.36 0.39 0.86 1.41 2.12 1.80 1.38 0.83 0.62 0.69 0.70 0.37 0.32 0.25 0.35 0.48 0.44
0.00 0.00 0.00 0.00 0.00 0.00 0.00 0.00 0.00 0.00 0.00 0.00 0.00 0.00 0.00 0.00 0.00 0.00 0.00 0.00 0.00 0.00 0.00 0.00 0.01 0.00 0.00 0.00 0.02 0.07 0.16 0.26 0.26 0.38 0.61 0.78 1.12 1.34 1.21 0.80 0.58 0.72 0.67 0.48 0.37 0.47 0.60 0.53 0.42
0.00 0.00 0.00 0.00 0.00 0.00 0.00 0.00 0.00 0.00 0.00 0.00 0.00 0.00 0.00 0.00 0.00 0.00 0.00 0.00 0.00 0.00 0.00 0.00 0.01 0.00 0.00 0.00 0.01 0.06 0.16 0.16 0.15 0.38 0.77 0.79 0.79 1.08 1.05 0.85 0.58 0.62 0.69 0.58 0.48 0.60 0.63 0.50 0.40
0.00 0.00 0.00 0.00 0.00 0.00 0.00 0.00 0.00 0.00 0.00 0.00 0.00 0.00 0.00 0.00 0.00 0.00 0.00 0.00 0.00 0.00 0.00 0.00 0.01 0.00 0.00 0.00 0.02 0.04 0.06 0.06 0.06 0.15 0.72 1.03 0.53 0.88 0.70 0.86 0.72 0.68 0.89 0.65 0.73 0.60 0.46 0.36 0.25
0.00 0.00 0.00 0.00 0.00 0.00 0.00 0.00 0.00 0.00 0.00 0.00 0.00 0.00 0.00 0.00 0.00 0.00 0.00 0.00 0.00 0.00 0.00 0.00 0.00 0.01 0.00 0.00 0.01 0.03 0.05 0.07 0.08 0.15 0.62 1.48 0.67 0.83 0.72 0.83 0.79 0.79 1.22 0.84 0.79 0.59 0.42 0.26 0.24
0.00 0.00 0.00 0.00 0.00 0.00 0.00 0.00 0.00 0.00 0.00 0.00 0.00 0.00 0.00 0.00 0.00 0.00 0.00 0.00 0.00 0.00 0.00 0.00 0.00 0.00 0.01 0.00 0.00 0.01 0.04 0.07 0.07 0.09 0.14 0.84 0.62 0.65 0.80 0.54 0.55 0.65 1.13 0.78 0.55 0.38 0.31 0.32 0.34
0.00 0.00 0.00 0.00 0.00 0.00 0.00 0.00 0.00 0.00 0.00 0.00 0.00 0.00 0.00 0.00 0.00 0.00 0.00 0.00 0.00 0.00 0.00 0.00 0.00 0.00 0.00 0.00 0.00 0.00 0.01 0.03 0.11 0.11 0.04 0.36 0.53 0.44 0.79 0.51 0.49 0.50 1.07 0.65 0.37 0.41 0.31 0.34 0.35
0.00 0.00 0.00 0.00 0.00 0.00 0.00 0.00 0.00 0.00 0.00 0.00 0.00 0.00 0.00 0.00 0.00 0.00 0.00 0.00 0.00 0.00 0.00 0.00 0.00 0.00 0.00 0.00 0.00 0.00 0.00 0.01 0.04 0.09 0.06 0.04 0.21 0.36 0.79 0.68 0.62 0.47 0.73 0.61 0.52 0.33 0.39 0.37 0.48
0.00 0.00 0.00 0.00 0.00 0.00 0.00 0.00 0.00 0.00 0.00 0.00 0.00 0.00 0.00 0.00 0.00 0.00 0.00 0.00 0.00 0.00 0.00 0.00 0.00 0.00 0.00 0.00 0.00 0.00 0.00 0.01 0.03 0.05 0.09 0.04 0.04 0.16 0.42 0.58 0.45 0.50 0.61 0.52 0.69 0.62 0.46 0.47 0.72
0.00 0.00 0.00 0.00 0.00 0.00 0.00 0.00 0.00 0.00 0.00 0.00 0.00 0.00 0.00 0.00 0.00 0.00 0.00 0.00 0.00 0.00 0.00 0.00 0.00 0.00 0.00 0.00 0.00 0.00 0.00 0.01 0.03 0.06 0.09 0.04 0.03 0.07 0.16 0.30 0.51 0.45 0.60 0.40 0.44 0.68 0.50 0.45 0.63
0.00 0.00 0.00 0.00 0.00 0.00 0.00 0.00 0.00 0.00 0.00 0.00 0.00 0.00 0.00 0.00 0.00 0.00 0.00 0.00 0.00 0.00 0.00 0.00 0.00 0.00 0.00 0.00 0.00 0.00 0.00 0.01 0.03 0.06 0.11 0.12 0.09 0.08 0.13 0.18 0.28 0.55 0.42 0.36 0.46 0.55 0.60 0.40 0.50
0.00 0.00 0.00 0.00 0.00 0.00 0.00 0.00 0.00 0.00 0.00 0.00 0.00 0.00 0.00 0.00 0.00 0.00 0.00 0.00 0.00 0.00 0.00 0.00 0.00 0.00 0.00 0.00 0.00 0.00 0.00 0.00 0.01 0.04 0.15 0.21 0.16 0.23 0.29 0.24 0.20 0.32 0.48 0.43 0.58 0.69 0.65 0.53 0.43
0.00 0.00 0.00 0.00 0.00 0.00 0.00 0.00 0.00 0.00 0.00 0.00 0.00 0.00 0.00 0.00 0.00 0.00 0.00 0.00 0.00 0.00 0.00 0.00 0.00 0.00 0.00 0.00 0.00 0.00 0.00 0.00 0.01 0.03 0.08 0.31 0.39 0.38 0.50 0.48 0.44 0.35 0.16 0.37 0.46 0.81 0.86 0.72 0.50
0.00 0.00 0.00 0.00 0.00 0.00 0.00 0.00 0.00 0.00 0.00 0.00 0.00 0.00 0.00 0.00 0.00 0.00 0.00 0.00 0.00 0.00 0.00 0.00 0.00 0.00 0.00 0.00 0.00 0.00 0.00 0.00 0.01 0.01 0.03 0.10 0.41 0.68 0.59 0.47 0.46 0.55 0.25 0.15 0.28 0.59 1.02 0.88 0.53
0.00 0.00 0.00 0.00 0.00 0.01 0.01 0.00 0.00 0.00 0.00 0.00 0.00 0.00 0.00 0.00 0.00 0.00 0.00 0.00 0.00 0.00 0.00 0.00 0.00 0.00 0.00 0.00 0.00 0.00 0.00 0.01 0.01 0.01 0.02 0.04 0.13 0.41 0.70 0.56 0.42 0.55 0.36 0.14 0.09 0.22 0.66 0.66 0.54
0.00 0.00 0.00 0.01 0.03 0.04 0.00 0.00 0.00 0.00 0.00 0.00 0.00 0.00 0.00 0.00 0.00 0.00 0.00 0.00 0.00 0.00 0.00 0.00 0.00 0.00 0.00 0.00 0.00 0.00 0.00 0.00 0.00 0.00 0.01 0.02 0.09 0.17 0.45 0.68 0.52 0.43 0.55 0.36 0.10 0.04 0.26 0.48 0.32
0.00 0.00 0.04 0.04 0.01 0.01 0.00 0.03 0.00 0.00 0.00 0.00 0.00 0.00 0.00 0.00 0.00 0.00 0.00 0.00 0.00 0.00 0.00 0.00 0.00 0.00 0.00 0.00 0.00 0.00 0.00 0.00 0.00 0.00 0.00 0.01 0.03 0.10 0.21 0.43 0.56 0.52 0.44 0.43 0.30 0.14 0.08 0.23 0.25
0.06 0.03 0.07 0.04 0.06 0.08 0.00 0.02 0.01 0.00 0.00 0.00 0.00 0.00 0.00 0.00 0.00 0.00 0.00 0.00 0.00 0.00 0.00 0.00 0.00 0.00 0.00 0.00 0.00 0.00 0.00 0.00 0.00 0.00 0.00 0.01 0.02 0.05 0.09 0.24 0.30 0.42 0.47 0.54 0.48 0.24 0.15 0.09 0.16
0.08 0.18 0.33 0.29 0.20 0.08 0.00 0.00 0.00 0.00 0.00 0.00 0.00 0.00 0.00 0.00 0.00 0.00 0.00 0.00 0.00 0.00 0.00 0.00 0.00 0.00 0.01 0.00 0.00 0.00 0.00 0.00 0.00 0.00 0.00 0.00 0.01 0.03 0.05 0.10 0.11 0.13 0.24 0.46 0.56 0.64 0.41 0.17 0.11
0.06 0.20 0.22 0.12 0.04 0.01 0.00 0.00 0.00 0.00 0.00 0.00 0.00 0.00 0.00 0.00 0.00 0.00 0.00 0.00 0.00 0.00 0.00 0.00 0.00 0.00 0.00 0.00 0.00 0.00 0.00 0.00 0.00 0.00 0.00 0.00 0.00 0.00 0.01 0.04 0.08 0.05 0.06 0.13 0.24 0.34 0.44 0.47 0.32
0.10 0.15 0.10 0.39 0.17 0.13 0.02 0.02 0.02 0.00 0.00 0.00 0.00 0.00 0.00 0.00 0.00 0.00 0.00 0.00 0.00 0.00 0.00 0.00 0.00 0.00 0.00 0.00 0.00 0.00 0.00 0.00 0.00 0.00 0.00 0.00 0.00 0.00 0.00 0.02 0.05 0.05 0.02 0.04 0.06 0.08 0.14 0.29 0.39
0.09 0.19 0.28 0.45 0.28 0.15 0.01 0.05 0.18 0.12 0.03 0.00 0.00 0.00 0.00 0.00 0.00 0.00 0.00 0.00 0.00 0.00 0.00 0.00 0.00 0.00 0.00 0.01 0.00 0.00 0.00 0.00 0.00 0.00 0.00 0.00 0.00 0.00 0.00 0.01 0.02 0.04 0.02 0.03 0.03 0.04 0.04 0.10 0.21
0.15 0.31 0.29 0.26 0.17 0.21 0.10 0.34 0.28 0.10 0.07 0.03 0.00 0.00 0.00 0.00 0.00 0.00 0.00 0.00 0.00 0.00 0.01 0.02 0.01 0.00 0.00 0.01 0.03 0.01 0.01 0.00 0.00 0.00 0.00 0.00 0.00 0.00 0.00 0.00 0.01 0.01 0.01 0.00 0.02 0.02 0.03 0.05 0.04
0.05 0.08 0.21 0.40 0.20 0.11 0.22 0.51 0.30 0.13 0.04 0.01 0.00 0.00 0.01 0.02 0.04 0.02 0.01 0.01 0.01 0.01 0.05 0.06 0.03 0.03 0.03 0.05 0.06 0.01 0.01 0.02 0.01 0.01 0.00 0.00 0.00 0.00 0.00 0.00 0.01 0.00 0.00 0.00 0.01 0.01 0.01 0.02 0.01

GFSSGP_prec_precacc24_111.txt.gz
Total_Precipitation_Accumulation
0.00 0.00 0.00 0.00 0.00 0.00 0.00 0.00 0.00 0.00 0.00 0.00 0.00 0.00 0.00 0.00 0.00 0.00 0.00 0.00 0.00 0.00 0.00 0.00 0.00 0.00 0.00 0.00 0.00 0.00 0.00 0.00 0.00 0.00 0.00 0.00 0.00 0.00 0.01 0.01 0.02 0.04 0.14 0.17 0.03 0.03 0.09 0.04 0.03
0.00 0.00 0.00 0.00 0.00 0.00 0.00 0.00 0.00 0.00 0.00 0.00 0.00 0.00 0.00 0.00 0.00 0.00 0.00 0.00 0.00 0.00 0.00 0.00 0.00 0.00 0.00 0.00 0.00 0.00 0.00 0.00 0.00 0.00 0.00 0.01 0.00 0.01 0.05 0.01 0.01 0.10 0.19 0.27 0.27 0.23 0.16 0.06 0.02
0.00 0.00 0.00 0.00 0.00 0.00 0.00 0.00 0.00 0.00 0.00 0.00 0.00 0.00 0.00 0.00 0.00 0.00 0.00 0.00 0.00 0.00 0.00 0.00 0.00 0.00 0.00 0.00 0.00 0.00 0.00 0.00 0.00 0.00 0.00 0.00 0.03 0.17 0.22 0.20 0.19 0.30 0.32 0.39 0.41 0.38 0.28 0.07 0.00
0.00 0.00 0.00 0.00 0.00 0.00 0.00 0.00 0.00 0.00 0.00 0.00 0.00 0.00 0.00 0.00 0.00 0.00 0.00 0.00 0.00 0.00 0.00 0.00 0.00 0.00 0.00 0.00 0.00 0.00 0.00 0.03 0.06 0.06 0.09 0.15 0.34 0.49 0.46 0.43 0.39 0.37 0.43 0.36 0.34 0.41 0.22 0.02 0.00
0.00 0.00 0.00 0.00 0.00 0.00 0.00 0.00 0.00 0.00 0.00 0.00 0.00 0.00 0.00 0.00 0.00 0.00 0.00 0.00 0.00 0.00 0.00 0.00 0.00 0.00 0.00 0.00 0.00 0.00 0.01 0.02 0.06 0.16 0.20 0.93 1.63 1.38 1.09 0.67 0.52 0.42 0.42 0.49 0.42 0.30 0.20 0.07 0.03
0.00 0.00 0.00 0.00 0.00 0.00 0.00 0.00 0.00 0.00 0.00 0.00 0.00 0.00 0.00 0.00 0.00 0.00 0.00 0.00 0.00 0.00 0.00 0.00 0.00 0.00 0.00 0.01 0.01 0.01 0.08 0.27 0.40 0.44 0.54 1.01 1.88 1.54 1.18 0.70 0.53 0.49 0.49 0.44 0.46 0.32 0.29 0.17 0.27
0.00 0.00 0.00 0.00 0.00 0.00 0.00 0.00 0.00 0.00 0.00 0.00 0.00 0.00 0.00 0.00 0.00 0.00 0.00 0.00 0.00 0.00 0.00 0.00 0.00 0.00 0.00 0.01 0.03 0.04 0.05 0.16 0.29 0.35 0.35 0.32 1.07 1.57 1.34 0.74 0.58 0.68 0.70 0.37 0.34 0.29 0.39 0.57 0.53
0.00 0.00 0.00 0.00 0.00 0.00 0.00 0.00 0.00 0.00 0.00 0.00 0.00 0.00 0.00 0.00 0.00 0.00 0.00 0.00 0.00 0.00 0.00 0.00 0.00 0.00 0.00 0.00 0.02 0.07 0.16 0.26 0.25 0.35 0.36 0.24 0.43 0.83 0.96 0.72 0.55 0.71 0.67 0.48 0.39 0.48 0.62 0.55 0.42
0.00 0.00 0.00 0.00 0.00 0.00 0.00 0.00 0.00 0.00 0.00 0.00 0.00 0.00 0.00 0.00 0.00 0.00 0.00 0.00 0.00 0.00 0.00 0.00 0.00 0.00 0.00 0.00 0.01 0.06 0.16 0.16 0.15 0.18 0.22 0.28 0.38 0.55 0.73 0.63 0.50 0.64 0.69 0.59 0.49 0.60 0.63 0.50 0.40
0.00 0.00 0.00 0.00 0.00 0.00 0.00 0.00 0.00 0.00 0.00 0.00 0.00 0.00 0.00 0.00 0.00 0.00 0.00 0.00 0.00 0.00 0.00 0.00 0.00 0.00 0.00 0.00 0.02 0.04 0.06 0.05 0.06 0.07 0.16 0.18 0.23 0.64 0.54 0.62 0.63 0.67 0.89 0.65 0.74 0.60 0.46 0.36 0.25
0.00 0.00 0.00 0.00 0.00 0.00 0.00 0.00 0.00 0.00 0.00 0.00 0.00 0.00 0.00 0.00 0.00 0.00 0.00 0.00 0.00 0.00 0.00 0.00 0.00 0.00 0.00 0.00 0.01 0.03 0.04 0.04 0.08 0.12 0.30 0.52 0.49 0.76 0.66 0.62 0.61 0.79 1.23 0.84 0.79 0.59 0.42 0.26 0.24
0.00 0.00 0.00 0.00 0.00 0.00 0.00 0.00 0.00 0.00 0.00 0.00 0.00 0.00 0.00 0.00 0.00 0.00 0.00 0.00 0.00 0.00 0.00 0.00 0.00 0.00 0.00 0.00 0.00 0.01 0.02 0.02 0.04 0.09 0.11 0.65 0.56 0.63 0.77 0.46 0.49 0.66 1.14 0.80 0.55 0.38 0.31 0.32 0.34
0.00 0.00 0.00 0.00 0.00 0.00 0.00 0.00 0.00 0.00 0.00 0.00 0.00 0.00 0.00 0.00 0.00 0.00 0.00 0.00 0.00 0.00 0.00 0.00 0.00 0.00 0.00 0.00 0.00 0.00 0.01 0.02 0.03 0.06 0.03 0.36 0.53 0.44 0.78 0.48 0.45 0.49 1.10 0.66 0.37 0.41 0.31 0.34 0.35
0.00 0.00 0.00 0.00 0.00 0.00 0.00 0.00 0.00 0.00 0.00 0.00 0.00 0.00 0.00 0.00 0.00 0.00 0.00 0.00 0.00 0.00 0.00 0.00 0.00 0.00 0.00 0.00 0.00 0.00 0.00 0.01 0.02 0.03 0.02 0.04 0.21 0.36 0.78 0.66 0.57 0.46 0.74 0.63 0.52 0.33 0.39 0.37 0.48
0.00 0.00 0.00 0.00 0.00 0.00 0.00 0.00 0.00 0.00 0.00 0.00 0.00 0.00 0.00 0.00 0.00 0.00 0.00 0.00 0.00 0.00 0.00 0.00 0.00 0.00 0.00 0.00 0.00 0.00 0.00 0.01 0.02 0.02 0.02 0.02 0.03 0.16 0.41 0.52 0.42 0.50 0.62 0.53 0.69 0.62 0.46 0.47 0.73
0.00 0.00 0.00 0.00 0.00 0.00 0.00 0.00 0.00 0.00 0.00 0.00 0.00 0.00 0.00 0.00 0.00 0.00 0.00 0.00 0.00 0.00 0.00 0.00 0.00 0.00 0.00 0.00 0.00 0.00 0.00 0.01 0.03 0.05 0.05 0.03 0.03 0.07 0.15 0.25 0.47 0.45 0.60 0.43 0.46 0.69 0.50 0.45 0.65
0.00 0.00 0.00 0.00 0.00 0.00 0.00 0.00 0.00 0.00 0.00 0.00 0.00 0.00 0.00 0.00 0.00 0.00 0.00 0.00 0.00 0.00 0.00 0.00 0.00 0.00 0.00 0.00 0.00 0.00 0.00 0.01 0.03 0.06 0.09 0.10 0.08 0.07 0.11 0.14 0.25 0.52 0.41 0.36 0.48 0.57 0.60 0.41 0.51
0.00 0.00 0.00 0.00 0.00 0.00 0.00 0.00 0.00 0.00 0.00 0.00 0.00 0.00 0.00 0.00 0.00 0.00 0.00 0.00 0.00 0.00 0.00 0.00 0.00 0.00 0.00 0.00 0.00 0.00 0.00 0.00 0.01 0.03 0.12 0.17 0.15 0.16 0.18 0.20 0.17 0.27 0.47 0.43 0.59 0.70 0.65 0.53 0.43
0.00 0.00 0.00 0.00 0.00 0.00 0.00 0.00 0.00 0.00 0.00 0.00 0.00 0.00 0.00 0.00 0.00 0.00 0.00 0.00 0.00 0.00 0.00 0.00 0.00 0.00 0.00 0.00 0.00 0.00 0.00 0.00 0.00 0.01 0.03 0.23 0.33 0.28 0.32 0.29 0.33 0.28 0.15 0.37 0.47 0.81 0.86 0.73 0.52
0.00 0.00 0.00 0.00 0.00 0.00 0.01 0.00 0.00 0.00 0.00 0.00 0.00 0.00 0.00 0.00 0.00 0.00 0.00 0.00 0.00 0.00 0.00 0.00 0.00 0.00 0.00 0.00 0.00 0.00 0.00 0.00 0.01 0.00 0.01 0.06 0.29 0.47 0.42 0.36 0.31 0.46 0.24 0.14 0.28 0.61 1.03 0.89 0.58
0.00 0.00 0.00 0.00 0.00 0.01 0.02 0.00 0.00 0.00 0.00 0.00 0.00 0.00 0.00 0.00 0.00 0.00 0.00 0.00 0.00 0.00 0.00 0.00 0.00 0.00 0.00 0.00 0.00 0.00 0.00 0.01 0.01 0.01 0.01 0.03 0.09 0.35 0.61 0.49 0.37 0.52 0.35 0.14 0.09 0.22 0.66 0.66 0.63
0.00 0.00 0.00 0.01 0.01 0.05 0.01 0.01 0.00 0.00 0.00 0.00 0.00 0.00 0.00 0.00 0.00 0.00 0.00 0.00 0.00 0.00 0.00 0.00 0.00 0.00 0.00 0.00 0.00 0.00 0.00 0.00 0.00 0.00 0.01 0.02 0.09 0.17 0.45 0.68 0.51 0.42 0.55 0.36 0.10 0.04 0.26 0.50 0.47
0.00 0.00 0.01 0.03 0.03 0.01 0.01 0.04 0.00 0.00 0.00 0.00 0.00 0.00 0.00 0.00 0.00 0.00 0.00 0.00 0.00 0.00 0.00 0.00 0.02 0.03 0.00 0.00 0.00 0.00 0.00 0.00 0.00 0.00 0.00 0.01 0.03 0.10 0.21 0.43 0.56 0.52 0.44 0.43 0.30 0.14 0.08 0.24 0.31
0.00 0.01 0.03 0.04 0.06 0.07 0.00 0.02 0.01 0.00 0.00 0.00 0.00 0.00 0.00 0.00 0.00 0.00 0.00 0.00 0.00 0.00 0.00 0.00 0.00 0.03 0.05 0.01 0.00 0.00 0.00 0.00 0.00 0.00 0.00 0.01 0.02 0.05 0.09 0.23 0.30 0.42 0.47 0.54 0.48 0.24 0.15 0.08 0.15
0.04 0.11 0.18 0.22 0.18 0.06 0.00 0.00 0.00 0.01 0.00 0.00 0.00 0.00 0.00 0.00 0.00 0.00 0.00 0.00 0.00 0.00 0.00 0.00 0.00 0.00 0.02 0.01 0.00 0.00 0.00 0.00 0.00 0.00 0.00 0.00 0.01 0.03 0.05 0.10 0.11 0.13 0.24 0.45 0.55 0.63 0.39 0.16 0.08
0.05 0.16 0.18 0.10 0.04 0.01 0.00 0.00 0.00 0.00 0.00 0.02 0.04 0.01 0.00 0.00 0.00 0.00 0.00 0.00 0.00 0.00 0.00 0.00 0.00 0.00 0.00 0.01 0.01 0.00 0.01 0.01 0.00 0.00 0.00 0.00 0.00 0.00 0.01 0.04 0.08 0.05 0.06 0.13 0.23 0.32 0.43 0.44 0.30
0.07 0.14 0.09 0.32 0.14 0.12 0.02 0.07 0.04 0.02 0.02 0.05 0.05 0.02 0.00 0.00 0.00 0.00 0.00 0.00 0.00 0.00 0.00 0.00 0.00 0.00 0.00 0.00 0.00 0.01 0.04 0.03 0.01 0.00 0.00 0.00 0.00 0.00 0.00 0.02 0.06 0.05 0.02 0.04 0.06 0.08 0.14 0.29 0.39
0.07 0.16 0.26 0.39 0.31 0.25 0.04 0.14 0.35 0.42 0.33 0.13 0.04 0.00 0.00 0.00 0.00 0.00 0.00 0.00 0.00 0.00 0.00 0.00 0.00 0.00 0.00 0.01 0.00 0.04 0.05 0.02 0.03 0.00 0.00 0.00 0.00 0.00 0.00 0.01 0.03 0.05 0.02 0.03 0.03 0.04 0.04 0.10 0.20
0.15 0.23 0.26 0.25 0.25 0.38 0.21 0.65 0.65 0.69 0.66 0.40 0.02 0.00 0.00 0.00 0.00 0.00 0.00 0.00 0.00 0.00 0.01 0.03 0.02 0.02 0.01 0.02 0.07 0.08 0.04 0.05 0.08 0.03 0.00 0.00 0.00 0.00 0.00 0.00 0.01 0.02 0.01 0.01 0.02 0.02 0.03 0.05 0.05
0.13 0.12 0.21 0.40 0.23 0.23 0.39 1.00 1.07 0.51 0.32 0.06 0.01 0.00 0.01 0.02 0.04 0.02 0.01 0.01 0.01 0.01 0.05 0.08 0.06 0.07 0.09 0.13 0.16 0.12 0.12 0.17 0.14 0.05 0.00 0.00 0.02 0.03 0.00 0.00 0.01 0.01 0.01 0.01 0.01 0.01 0.01 0.02 0.02

GFSSGP_prec_precacc24_114.txt.gz
Total_Precipitation_Accumulation
0.00 0.00 0.00 0.00 0.00 0.00 0.00 0.00 0.00 0.00 0.00 0.00 0.00 0.00 0.00 0.00 0.00 0.00 0.00 0.00 0.00 0.00 0.00 0.00 0.00 0.00 0.00 0.00 0.00 0.00 0.00 0.00 0.00 0.00 0.00 0.00 0.00 0.00 0.01 0.01 0.02 0.04 0.14 0.16 0.03 0.03 0.09 0.04 0.03
0.00 0.00 0.00 0.00 0.00 0.00 0.00 0.00 0.00 0.00 0.00 0.00 0.00 0.00 0.00 0.00 0.00 0.00 0.00 0.00 0.00 0.00 0.00 0.00 0.00 0.00 0.00 0.00 0.00 0.00 0.00 0.00 0.00 0.00 0.00 0.01 0.00 0.01 0.05 0.01 0.01 0.10 0.19 0.26 0.26 0.22 0.15 0.06 0.02
0.00 0.00 0.00 0.00 0.00 0.00 0.00 0.00 0.00 0.00 0.00 0.00 0.00 0.00 0.00 0.00 0.00 0.00 0.00 0.00 0.00 0.00 0.00 0.00 0.00 0.00 0.00 0.00 0.00 0.00 0.00 0.00 0.00 0.00 0.00 0.00 0.03 0.17 0.22 0.20 0.19 0.29 0.31 0.37 0.39 0.37 0.27 0.07 0.00
0.00 0.00 0.00 0.00 0.00 0.00 0.00 0.00 0.00 0.00 0.00 0.00 0.00 0.00 0.00 0.00 0.00 0.00 0.00 0.00 0.00 0.00 0.00 0.00 0.00 0.00 0.00 0.00 0.00 0.00 0.00 0.00 0.01 0.01 0.01 0.04 0.29 0.48 0.46 0.43 0.39 0.37 0.42 0.33 0.32 0.41 0.21 0.02 0.00
0.00 0.00 0.00 0.00 0.00 0.00 0.00 0.00 0.00 0.00 0.00 0.00 0.00 0.00 0.00 0.00 0.00 0.00 0.00 0.00 0.00 0.00 0.00 0.00 0.00 0.00 0.00 0.00 0.00 0.00 0.00 0.01 0.02 0.07 0.16 0.57 1.01 1.03 1.00 0.67 0.52 0.39 0.37 0.47 0.42 0.30 0.20 0.07 0.03
0.00 0.00 0.00 0.00 0.00 0.00 0.00 0.00 0.00 0.00 0.00 0.00 0.00 0.00 0.00 0.00 0.00 0.00 0.00 0.00 0.00 0.00 0.00 0.00 0.00 0.00 0.00 0.01 0.01 0.01 0.04 0.11 0.16 0.26 0.46 0.69 0.59 0.55 0.69 0.59 0.51 0.47 0.43 0.44 0.46 0.32 0.29 0.17 0.27
0.00 0.00 0.00 0.00 0.00 0.00 0.00 0.00 0.00 0.00 0.00 0.00 0.00 0.00 0.00 0.00 0.00 0.00 0.00 0.00 0.00 0.00 0.00 0.00 0.00 0.00 0.00 0.01 0.03 0.04 0.03 0.08 0.13 0.25 0.29 0.18 0.48 0.62 0.54 0.47 0.47 0.63 0.62 0.36 0.33 0.29 0.39 0.57 0.53
0.00 0.00 0.00 0.00 0.00 0.00 0.00 0.00 0.00 0.00 0.00 0.00 0.00 0.00 0.00 0.00 0.00 0.00 0.00 0.00 0.00 0.00 0.00 0.00 0.00 0.00 0.00 0.00 0.02 0.07 0.16 0.25 0.21 0.28 0.33 0.20 0.17 0.10 0.14 0.38 0.39 0.63 0.64 0.48 0.39 0.48 0.62 0.55 0.46
0.00 0.00 0.00 0.00 0.00 0.00 0.00 0.00 0.00 0.00 0.00 0.00 0.00 0.00 0.00 0.00 0.00 0.00 0.00 0.00 0.00 0.00 0.00 0.00 0.00 0.00 0.00 0.00 0.01 0.06 0.16 0.16 0.15 0.18 0.22 0.22 0.23 0.09 0.11 0.20 0.32 0.62 0.66 0.59 0.49 0.60 0.63 0.50 0.43
0.00 0.00 0.00 0.00 0.00 0.00 0.00 0.00 0.00 0.00 0.00 0.00 0.00 0.00 0.00 0.00 0.00 0.00 0.00 0.00 0.00 0.00 0.00 0.00 0.00 0.00 0.00 0.00 0.02 0.04 0.06 0.05 0.06 0.07 0.11 0.13 0.12 0.11 0.17 0.29 0.41 0.66 0.89 0.65 0.74 0.60 0.46 0.36 0.25
0.00 0.00 0.00 0.00 0.00 0.00 0.00 0.00 0.00 0.00 0.00 0.00 0.00 0.00 0.00 0.00 0.00 0.00 0.00 0.00 0.00 0.00 0.00 0.00 0.00 0.00 0.00 0.00 0.01 0.03 0.04 0.04 0.08 0.12 0.18 0.18 0.19 0.19 0.29 0.44 0.50 0.78 1.23 0.84 0.79 0.59 0.42 0.26 0.24
0.00 0.00 0.00 0.00 0.00 0.00 0.00 0.00 0.00 0.00 0.00 0.00 0.00 0.00 0.00 0.00 0.00 0.00 0.00 0.00 0.00 0.00 0.00 0.00 0.00 0.00 0.00 0.00 0.00 0.01 0.02 0.02 0.03 0.06 0.08 0.13 0.17 0.29 0.56 0.41 0.46 0.66 1.14 0.80 0.55 0.38 0.31 0.32 0.34
0.00 0.00 0.00 0.00 0.00 0.00 0.00 0.00 0.00 0.00 0.00 0.00 0.00 0.00 0.00 0.00 0.00 0.00 0.00 0.00 0.00 0.00 0.00 0.00 0.00 0.00 0.00 0.00 0.00 0.00 0.01 0.02 0.02 0.03 0.03 0.24 0.45 0.39 0.75 0.48 0.45 0.49 1.10 0.66 0.37 0.41 0.31 0.34 0.35
0.00 0.00 0.00 0.00 0.00 0.00 0.00 0.00 0.00 0.00 0.00 0.00 0.00 0.00 0.00 0.00 0.00 0.00 0.00 0.00 0.00 0.00 0.00 0.00 0.00 0.00 0.00 0.00 0.00 0.00 0.00 0.01 0.01 0.01 0.01 0.03 0.20 0.36 0.78 0.66 0.57 0.47 0.76 0.64 0.52 0.33 0.39 0.37 0.48
0.00 0.00 0.00 0.00 0.00 0.00 0.00 0.00 0.00 0.00 0.00 0.00 0.00 0.00 0.00 0.00 0.00 0.00 0.00 0.00 0.00 0.00 0.00 0.00 0.00 0.00 0.00 0.00 0.00 0.00 0.00 0.01 0.01 0.01 0.01 0.01 0.03 0.15 0.41 0.52 0.42 0.50 0.62 0.54 0.69 0.62 0.46 0.47 0.73
0.00 0.00 0.00 0.00 0.00 0.00 0.00 0.00 0.00 0.00 0.00 0.00 0.00 0.00 0.00 0.00 0.00 0.00 0.00 0.00 0.00 0.00 0.00 0.00 0.00 0.00 0.00 0.00 0.00 0.00 0.00 0.01 0.02 0.01 0.02 0.02 0.02 0.06 0.13 0.25 0.47 0.45 0.60 0.43 0.46 0.69 0.50 0.45 0.65
0.00 0.00 0.00 0.00 0.00 0.00 0.00 0.00 0.00 0.00 0.00 0.00 0.00 0.00 0.00 0.00 0.00 0.00 0.00 0.00 0.00 0.00 0.00 0.00 0.00 0.00 0.00 0.00 0.00 0.00 0.00 0.01 0.02 0.04 0.04 0.05 0.04 0.06 0.09 0.09 0.23 0.51 0.41 0.36 0.48 0.57 0.60 0.41 0.51
0.00 0.00 0.00 0.00 0.00 0.00 0.00 0.00 0.00 0.00 0.00 0.00 0.00 0.00 0.00 0.00 0.00 0.00 0.00 0.00 0.00 0.00 0.00 0.00 0.00 0.00 0.00 0.00 0.01 0.00 0.00 0.00 0.01 0.03 0.09 0.10 0.09 0.09 0.12 0.13 0.14 0.27 0.47 0.43 0.59 0.70 0.65 0.54 0.44
0.00 0.00 0.00 0.00 0.00 0.00 0.00 0.00 0.00 0.00 0.00 0.00 0.00 0.00 0.00 0.00 0.00 0.00 0.00 0.00 0.00 0.00 0.00 0.00 0.00 0.00 0.00 0.00 0.01 0.00 0.00 0.00 0.00 0.01 0.03 0.20 0.25 0.19 0.21 0.16 0.23 0.27 0.15 0.37 0.47 0.82 0.87 0.74 0.53
0.00 0.00 0.00 0.00 0.00 0.00 0.01 0.00 0.00 0.00 0.00 0.00 0.00 0.00 0.00 0.00 0.00 0.00 0.00 0.00 0.00 0.00 0.00 0.00 0.00 0.00 0.00 0.00 0.01 0.04 0.02 0.00 0.00 0.00 0.01 0.05 0.26 0.40 0.34 0.28 0.22 0.39 0.24 0.15 0.29 0.62 1.04 0.91 0.60
0.00 0.00 0.00 0.00 0.00 0.00 0.03 0.01 0.00 0.00 0.00 0.00 0.00 0.00 0.00 0.00 0.00 0.00 0.00 0.00 0.00 0.00 0.00 0.00 0.00 0.00 0.00 0.00 0.06 0.08 0.07 0.04 0.02 0.01 0.00 0.01 0.05 0.29 0.50 0.36 0.25 0.47 0.34 0.14 0.10 0.22 0.67 0.67 0.64
0.00 0.00 0.00 0.00 0.00 0.04 0.04 0.03 0.00 0.00 0.00 0.00 0.00 0.00 0.00 0.00 0.00 0.00 0.00 0.00 0.00 0.00 0.00 0.00 0.00 0.00 0.00 0.00 0.00 0.01 0.00 0.00 0.00 0.00 0.01 0.01 0.01 0.05 0.30 0.48 0.31 0.31 0.52 0.36 0.10 0.05 0.26 0.50 0.48
0.01 0.00 0.00 0.00 0.03 0.02 0.02 0.04 0.00 0.00 0.00 0.00 0.00 0.00 0.00 0.00 0.00 0.00 0.00 0.00 0.00 0.00 0.00 0.00 0.03 0.12 0.11 0.08 0.04 0.01 0.01 0.00 0.00 0.00 0.00 0.01 0.02 0.04 0.10 0.29 0.41 0.41 0.39 0.42 0.30 0.14 0.08 0.24 0.31
0.01 0.01 0.03 0.05 0.07 0.07 0.00 0.01 0.00 0.01 0.00 0.00 0.00 0.00 0.00 0.00 0.00 0.00 0.00 0.00 0.00 0.00 0.00 0.00 0.00 0.05 0.16 0.13 0.15 0.12 0.07 0.02 0.01 0.00 0.00 0.01 0.02 0.03 0.07 0.20 0.28 0.40 0.44 0.52 0.47 0.23 0.15 0.08 0.15
0.02 0.06 0.08 0.12 0.14 0.04 0.00 0.00 0.00 0.07 0.07 0.01 0.00 0.00 0.00 0.00 0.00 0.00 0.00 0.00 0.00 0.00 0.00 0.00 0.00 0.00 0.03 0.03 0.03 0.02 0.02 0.03 0.01 0.00 0.00 0.01 0.03 0.03 0.05 0.10 0.11 0.12 0.23 0.45 0.55 0.63 0.39 0.16 0.08
0.01 0.04 0.07 0.09 0.03 0.01 0.00 0.00 0.01 0.05 0.16 0.09 0.08 0.02 0.00 0.00 0.00 0.00 0.00 0.00 0.00 0.00 0.00 0.00 0.00 0.00 0.00 0.01 0.01 0.00 0.01 0.03 0.01 0.00 0.00 0.00 0.01 0.02 0.01 0.04 0.08 0.05 0.06 0.14 0.24 0.33 0.43 0.44 0.29
0.04 0.04 0.04 0.25 0.17 0.13 0.02 0.08 0.08 0.11 0.09 0.13 0.08 0.04 0.01 0.00 0.00 0.00 0.00 0.00 0.00 0.00 0.00 0.00 0.00 0.00 0.00 0.00 0.00 0.01 0.04 0.05 0.02 0.01 0.00 0.01 0.01 0.00 0.00 0.02 0.06 0.05 0.02 0.04 0.06 0.08 0.14 0.29 0.39
0.06 0.05 0.21 0.31 0.30 0.25 0.04 0.15 0.42 0.53 0.66 0.21 0.05 0.02 0.01 0.00 0.00 0.00 0.00 0.00 0.00 0.00 0.00 0.00 0.00 0.00 0.00 0.01 0.00 0.04 0.05 0.03 0.06 0.02 0.00 0.01 0.01 0.00 0.01 0.01 0.03 0.05 0.03 0.03 0.04 0.04 0.05 0.09 0.20
0.14 0.12 0.16 0.23 0.26 0.43 0.44 0.84 1.15 1.26 1.26 1.04 0.18 0.07 0.02 0.00 0.00 0.00 0.00 0.00 0.00 0.00 0.01 0.03 0.02 0.02 0.01 0.02 0.09 0.10 0.06 0.10 0.14 0.08 0.02 0.01 0.02 0.02 0.02 0.00 0.01 0.02 0.02 0.01 0.02 0.02 0.03 0.05 0.05
0.14 0.11 0.11 0.33 0.31 0.31 0.75 1.31 1.56 1.23 0.82 0.43 0.27 0.12 0.05 0.03 0.04 0.02 0.01 0.01 0.01 0.01 0.05 0.08 0.06 0.07 0.09 0.14 0.21 0.18 0.20 0.28 0.23 0.14 0.05 0.03 0.04 0.06 0.02 0.01 0.01 0.01 0.02 0.01 0.01 0.01 0.01 0.02 0.02

GFSSGP_prec_precacc24_117.txt.gz
Total_Precipitation_Accumulation
0.00 0.00 0.00 0.00 0.00 0.00 0.00 0.00 0.00 0.00 0.00 0.00 0.00 0.00 0.00 0.00 0.00 0.00 0.00 0.00 0.00 0.00 0.00 0.00 0.00 0.00 0.00 0.00 0.00 0.00 0.00 0.00 0.00 0.00 0.00 0.00 0.00 0.00 0.01 0.01 0.02 0.03 0.14 0.16 0.03 0.02 0.07 0.04 0.03
0.00 0.00 0.00 0.00 0.00 0.00 0.00 0.00 0.00 0.00 0.00 0.00 0.00 0.00 0.00 0.00 0.00 0.00 0.00 0.00 0.00 0.00 0.00 0.00 0.00 0.00 0.00 0.00 0.00 0.00 0.00 0.00 0.00 0.00 0.00 0.01 0.00 0.01 0.05 0.01 0.01 0.10 0.18 0.26 0.26 0.20 0.13 0.04 0.02
0.00 0.00 0.00 0.00 0.00 0.00 0.00 0.00 0.00 0.00 0.00 0.00 0.00 0.00 0.00 0.00 0.00 0.00 0.00 0.00 0.00 0.00 0.00 0.00 0.00 0.00 0.00 0.00 0.00 0.00 0.00 0.00 0.00 0.00 0.00 0.00 0.03 0.17 0.22 0.20 0.19 0.29 0.31 0.37 0.39 0.36 0.25 0.06 0.00
0.00 0.00 0.00 0.00 0.00 0.00 0.00 0.00 0.00 0.00 0.00 0.00 0.00 0.00 0.00 0.00 0.00 0.00 0.00 0.00 0.00 0.00 0.00 0.00 0.00 0.00 0.00 0.00 0.00 0.00 0.00 0.00 0.01 0.01 0.01 0.03 0.29 0.47 0.46 0.42 0.39 0.38 0.42 0.33 0.31 0.41 0.19 0.01 0.00
0.00 0.00 0.00 0.00 0.00 0.00 0.00 0.00 0.00 0.00 0.00 0.00 0.00 0.00 0.00 0.00 0.00 0.00 0.00 0.00 0.00 0.00 0.00 0.00 0.00 0.00 0.00 0.00 0.00 0.00 0.00 0.01 0.02 0.07 0.14 0.54 0.93 0.93 0.83 0.55 0.45 0.36 0.36 0.44 0.40 0.29 0.18 0.07 0.03
0.00 0.00 0.00 0.00 0.00 0.00 0.00 0.00 0.00 0.00 0.00 0.00 0.00 0.00 0.00 0.00 0.00 0.00 0.00 0.00 0.00 0.00 0.00 0.00 0.00 0.00 0.00 0.00 0.01 0.01 0.03 0.04 0.10 0.20 0.41 0.59 0.39 0.36 0.36 0.36 0.37 0.36 0.35 0.40 0.43 0.30 0.27 0.17 0.27
0.00 0.00 0.00 0.00 0.00 0.00 0.00 0.00 0.00 0.00 0.00 0.00 0.00 0.00 0.00 0.00 0.00 0.00 0.00 0.00 0.00 0.00 0.00 0.00 0.00 0.00 0.00 0.01 0.01 0.01 0.01 0.02 0.05 0.16 0.20 0.09 0.06 0.07 0.15 0.13 0.20 0.29 0.39 0.31 0.31 0.27 0.38 0.57 0.53
0.00 0.00 0.00 0.00 0.00 0.00 0.00 0.00 0.00 0.00 0.00 0.00 0.00 0.00 0.00 0.00 0.00 0.00 0.00 0.00 0.00 0.00 0.00 0.00 0.00 0.00 0.00 0.00 0.01 0.04 0.05 0.11 0.09 0.15 0.20 0.10 0.10 0.04 0.04 0.06 0.07 0.20 0.39 0.46 0.38 0.47 0.61 0.57 0.53
0.00 0.00 0.00 0.00 0.00 0.00 0.00 0.00 0.00 0.00 0.00 0.00 0.00 0.00 0.00 0.00 0.00 0.00 0.00 0.00 0.00 0.00 0.00 0.00 0.00 0.00 0.00 0.00 0.01 0.04 0.10 0.12 0.13 0.13 0.17 0.14 0.18 0.08 0.04 0.02 0.03 0.18 0.35 0.52 0.49 0.59 0.63 0.53 0.44
0.00 0.00 0.00 0.00 0.00 0.00 0.00 0.00 0.00 0.00 0.00 0.00 0.00 0.00 0.00 0.00 0.00 0.00 0.00 0.00 0.00 0.00 0.00 0.00 0.00 0.00 0.00 0.00 0.02 0.04 0.05 0.05 0.05 0.06 0.10 0.12 0.12 0.10 0.07 0.07 0.10 0.23 0.64 0.59 0.72 0.60 0.46 0.36 0.25
0.00 0.00 0.00 0.00 0.00 0.00 0.00 0.00 0.00 0.00 0.00 0.00 0.00 0.00 0.00 0.00 0.00 0.00 0.00 0.00 0.00 0.00 0.00 0.00 0.00 0.00 0.00 0.00 0.01 0.03 0.04 0.04 0.08 0.12 0.18 0.18 0.16 0.14 0.10 0.18 0.14 0.27 0.95 0.81 0.77 0.59 0.42 0.26 0.24
0.00 0.00 0.00 0.00 0.00 0.00 0.00 0.00 0.00 0.00 0.00 0.00 0.00 0.00 0.00 0.00 0.00 0.00 0.00 0.00 0.00 0.00 0.00 0.00 0.00 0.00 0.00 0.00 0.00 0.01 0.02 0.02 0.03 0.06 0.08 0.10 0.11 0.15 0.17 0.17 0.23 0.34 1.05 0.80 0.55 0.38 0.31 0.32 0.34
0.00 0.00 0.00 0.00 0.00 0.00 0.00 0.00 0.00 0.00 0.00 0.00 0.00 0.00 0.00 0.00 0.00 0.00 0.00 0.00 0.00 0.00 0.00 0.00 0.00 0.00 0.00 0.00 0.00 0.00 0.01 0.02 0.02 0.03 0.03 0.06 0.22 0.25 0.35 0.28 0.30 0.43 1.09 0.66 0.37 0.41 0.31 0.34 0.35
0.00 0.00 0.00 0.00 0.00 0.00 0.00 0.00 0.00 0.00 0.00 0.00 0.00 0.00 0.00 0.00 0.00 0.00 0.00 0.00 0.00 0.00 0.00 0.00 0.00 0.00 0.00 0.00 0.00 0.00 0.00 0.01 0.01 0.01 0.01 0.02 0.10 0.21 0.60 0.54 0.51 0.44 0.75 0.64 0.52 0.33 0.39 0.37 0.48
0.00 0.00 0.00 0.00 0.00 0.00 0.00 0.00 0.00 0.00 0.00 0.00 0.00 0.00 0.00 0.00 0.00 0.00 0.00 0.00 0.00 0.00 0.00 0.00 0.00 0.00 0.00 0.00 0.00 0.00 0.00 0.01 0.01 0.00 0.01 0.01 0.02 0.12 0.37 0.47 0.39 0.49 0.62 0.54 0.69 0.62 0.46 0.47 0.73
0.00 0.00 0.00 0.00 0.00 0.00 0.00 0.00 0.00 0.00 0.00 0.00 0.00 0.00 0.00 0.00 0.00 0.00 0.00 0.00 0.00 0.00 0.00 0.00 0.00 0.00 0.00 0.00 0.00 0.00 0.00 0.01 0.01 0.01 0.01 0.01 0.02 0.05 0.13 0.24 0.46 0.45 0.60 0.43 0.46 0.69 0.50 0.45 0.65
0.00 0.00 0.00 0.00 0.00 0.00 0.00 0.00 0.00 0.00 0.00 0.00 0.00 0.00 0.00 0.00 0.00 0.00 0.00 0.00 0.00 0.00 0.00 0.00 0.00 0.00 0.00 0.00 0.00 0.00 0.00 0.01 0.02 0.02 0.02 0.02 0.02 0.05 0.08 0.08 0.22 0.51 0.41 0.36 0.48 0.57 0.60 0.41 0.51
0.00 0.00 0.00 0.00 0.00 0.00 0.00 0.00 0.00 0.00 0.00 0.00 0.00 0.00 0.00 0.00 0.00 0.00 0.00 0.00 0.00 0.00 0.00 0.00 0.00 0.00 0.00 0.00 0.01 0.00 0.00 0.00 0.01 0.02 0.03 0.03 0.04 0.04 0.09 0.08 0.06 0.26 0.47 0.43 0.59 0.70 0.65 0.54 0.44
0.00 0.00 0.00 0.00 0.00 0.00 0.00 0.00 0.00 0.00 0.00 0.00 0.00 0.00 0.00 0.00 0.00 0.00 0.00 0.00 0.00 0.00 0.00 0.00 0.00 0.00 0.00 0.00 0.01 0.01 0.00 0.00 0.00 0.01 0.02 0.09 0.08 0.10 0.09 0.10 0.12 0.15 0.15 0.38 0.47 0.83 0.88 0.75 0.54
0.00 0.00 0.00 0.00 0.00 0.00 0.01 0.00 0.00 0.00 0.00 0.00 0.00 0.00 0.00 0.00 0.00 0.00 0.00 0.00 0.00 0.00 0.00 0.00 0.00 0.00 0.00 0.00 0.01 0.05 0.03 0.03 0.06 0.04 0.01 0.04 0.17 0.22 0.21 0.16 0.10 0.19 0.21 0.15 0.30 0.63 1.06 0.94 0.62
0.00 0.00 0.00 0.00 0.00 0.00 0.03 0.01 0.00 0.00 0.00 0.00 0.00 0.00 0.00 0.00 0.00 0.00 0.00 0.00 0.00 0.00 0.00 0.00 0.00 0.00 0.00 0.00 0.06 0.09 0.11 0.14 0.15 0.05 0.00 0.01 0.04 0.24 0.37 0.25 0.15 0.38 0.26 0.13 0.10 0.23 0.68 0.69 0.65
0.00 0.00 0.00 0.00 0.01 0.04 0.06 0.04 0.00 0.00 0.00 0.00 0.00 0.00 0.00 0.00 0.00 0.00 0.00 0.00 0.00 0.00 0.00 0.00 0.00 0.00 0.01 0.03 0.02 0.02 0.01 0.00 0.00 0.00 0.00 0.00 0.01 0.03 0.24 0.40 0.21 0.22 0.48 0.33 0.09 0.05 0.27 0.51 0.49
0.01 0.01 0.00 0.01 0.04 0.02 0.03 0.06 0.00 0.00 0.01 0.01 0.00 0.00 0.00 0.00 0.00 0.00 0.00 0.00 0.00 0.00 0.00 0.00 0.03 0.12 0.12 0.10 0.07 0.06 0.08 0.06 0.02 0.00 0.00 0.01 0.02 0.01 0.06 0.20 0.22 0.19 0.29 0.33 0.25 0.13 0.09 0.25 0.32
0.01 0.01 0.03 0.06 0.07 0.05 0.00 0.01 0.03 0.09 0.06 0.03 0.01 0.00 0.00 0.00 0.00 0.00 0.00 0.00 0.00 0.00 0.00 0.00 0.00 0.05 0.17 0.16 0.18 0.18 0.15 0.11 0.10 0.04 0.03 0.02 0.06 0.03 0.04 0.08 0.13 0.16 0.22 0.31 0.35 0.20 0.14 0.08 0.16
0.02 0.05 0.08 0.09 0.10 0.02 0.01 0.02 0.05 0.12 0.12 0.03 0.01 0.01 0.00 0.00 0.00 0.00 0.00 0.00 0.00 0.00 0.00 0.00 0.00 0.00 0.03 0.04 0.06 0.04 0.05 0.06 0.04 0.06 0.06 0.06 0.05 0.03 0.03 0.08 0.09 0.07 0.16 0.35 0.48 0.58 0.37 0.16 0.09
0.01 0.02 0.06 0.07 0.04 0.01 0.02 0.03 0.18 0.11 0.44 0.14 0.08 0.02 0.00 0.00 0.00 0.00 0.00 0.00 0.00 0.00 0.00 0.00 0.00 0.00 0.00 0.01 0.01 0.00 0.02 0.05 0.03 0.01 0.02 0.01 0.02 0.03 0.01 0.05 0.09 0.04 0.05 0.12 0.22 0.32 0.43 0.44 0.29
0.07 0.02 0.02 0.12 0.14 0.15 0.03 0.17 0.28 0.26 0.43 0.75 0.25 0.08 0.04 0.02 0.01 0.00 0.00 0.00 0.00 0.00 0.00 0.00 0.00 0.00 0.00 0.00 0.00 0.01 0.04 0.06 0.04 0.03 0.02 0.02 0.03 0.02 0.01 0.02 0.06 0.07 0.03 0.02 0.04 0.08 0.15 0.29 0.39
0.08 0.06 0.16 0.22 0.25 0.27 0.08 0.19 0.48 0.62 0.91 0.52 0.34 0.22 0.08 0.04 0.01 0.00 0.00 0.00 0.00 0.00 0.00 0.00 0.00 0.00 0.00 0.01 0.00 0.04 0.05 0.03 0.08 0.06 0.01 0.01 0.04 0.05 0.03 0.01 0.03 0.06 0.03 0.02 0.03 0.03 0.05 0.10 0.21
0.17 0.11 0.11 0.15 0.22 0.45 0.57 0.87 1.21 1.37 1.44 1.21 0.41 0.18 0.06 0.02 0.01 0.00 0.00 0.00 0.00 0.00 0.01 0.03 0.02 0.03 0.03 0.03 0.09 0.11 0.07 0.10 0.15 0.10 0.06 0.06 0.09 0.10 0.08 0.03 0.02 0.02 0.02 0.01 0.03 0.03 0.03 0.06 0.06
0.20 0.12 0.07 0.19 0.25 0.31 0.90 1.43 1.62 1.37 1.00 0.57 0.51 0.37 0.18 0.07 0.04 0.02 0.01 0.01 0.01 0.01 0.05 0.08 0.07 0.09 0.11 0.15 0.22 0.19 0.22 0.30 0.26 0.18 0.10 0.09 0.12 0.15 0.09 0.06 0.03 0.01 0.02 0.02 0.01 0.02 0.02 0.02 0.03

GFSSGP_prec_precacc24_120.txt.gz
Total_Precipitation_Accumulation
0.00 0.00 0.00 0.00 0.00 0.00 0.00 0.00 0.00 0.00 0.00 0.00 0.00 0.00 0.00 0.00 0.00 0.00 0.00 0.00 0.00 0.00 0.00 0.00 0.00 0.00 0.00 0.00 0.00 0.00 0.00 0.00 0.00 0.00 0.00 0.00 0.00 0.00 0.01 0.00 0.00 0.03 0.14 0.16 0.03 0.02 0.06 0.02 0.02
0.00 0.00 0.00 0.00 0.00 0.00 0.00 0.00 0.00 0.00 0.00 0.00 0.00 0.00 0.00 0.00 0.00 0.00 0.00 0.00 0.00 0.00 0.00 0.00 0.00 0.00 0.00 0.00 0.00 0.00 0.00 0.00 0.00 0.00 0.00 0.01 0.00 0.01 0.05 0.01 0.01 0.10 0.18 0.25 0.26 0.20 0.11 0.03 0.01
0.00 0.00 0.00 0.00 0.00 0.00 0.00 0.00 0.00 0.00 0.00 0.00 0.00 0.00 0.00 0.00 0.00 0.00 0.00 0.00 0.00 0.00 0.00 0.00 0.00 0.00 0.00 0.00 0.00 0.00 0.00 0.00 0.00 0.00 0.00 0.00 0.03 0.17 0.22 0.20 0.19 0.29 0.31 0.36 0.37 0.35 0.24 0.05 0.00
0.00 0.00 0.00 0.00 0.00 0.00 0.00 0.00 0.00 0.00 0.00 0.00 0.00 0.00 0.00 0.00 0.00 0.00 0.00 0.00 0.00 0.00 0.00 0.00 0.00 0.00 0.00 0.00 0.00 0.00 0.00 0.00 0.01 0.01 0.00 0.01 0.25 0.45 0.44 0.41 0.37 0.35 0.40 0.32 0.29 0.39 0.18 0.01 0.00
0.00 0.00 0.00 0.00 0.00 0.00 0.00 0.00 0.00 0.00 0.00 0.00 0.00 0.00 0.00 0.00 0.00 0.00 0.00 0.00 0.00 0.00 0.00 0.00 0.00 0.00 0.00 0.00 0.00 0.00 0.00 0.00 0.01 0.05 0.10 0.38 0.62 0.62 0.69 0.46 0.37 0.30 0.31 0.41 0.38 0.28 0.18 0.07 0.03
0.00 0.00 0.00 0.00 0.00 0.00 0.00 0.00 0.00 0.00 0.00 0.00 0.00 0.00 0.00 0.00 0.00 0.00 0.00 0.00 0.00 0.00 0.00 0.00 0.00 0.00 0.00 0.00 0.00 0.00 0.02 0.03 0.06 0.17 0.40 0.54 0.20 0.05 0.21 0.23 0.18 0.20 0.28 0.33 0.37 0.29 0.27 0.17 0.27
0.00 0.00 0.00 0.00 0.00 0.00 0.00 0.00 0.00 0.00 0.00 0.00 0.00 0.00 0.00 0.00 0.00 0.00 0.00 0.00 0.00 0.00 0.00 0.00 0.00 0.00 0.00 0.00 0.00 0.00 0.00 0.01 0.01 0.12 0.17 0.08 0.02 0.01 0.02 0.01 0.01 0.04 0.15 0.21 0.27 0.26 0.38 0.57 0.53
0.00 0.00 0.00 0.00 0.00 0.00 0.00 0.00 0.00 0.00 0.00 0.00 0.00 0.00 0.00 0.00 0.00 0.00 0.00 0.00 0.00 0.00 0.00 0.00 0.00 0.00 0.00 0.00 0.00 0.00 0.00 0.00 0.02 0.12 0.14 0.06 0.05 0.02 0.01 0.02 0.01 0.01 0.08 0.26 0.36 0.46 0.61 0.57 0.53
0.00 0.00 0.00 0.00 0.00 0.00 0.00 0.00 0.00 0.00 0.00 0.00 0.00 0.00 0.00 0.00 0.00 0.00 0.00 0.00 0.00 0.00 0.00 0.00 0.00 0.00 0.00 0.00 0.00 0.01 0.02 0.03 0.06 0.08 0.07 0.08 0.12 0.07 0.02 0.02 0.03 0.08 0.10 0.23 0.44 0.59 0.63 0.53 0.45
0.00 0.00 0.00 0.00 0.00 0.00 0.00 0.00 0.00 0.00 0.00 0.00 0.00 0.00 0.00 0.00 0.00 0.00 0.00 0.00 0.00 0.00 0.00 0.00 0.00 0.00 0.00 0.00 0.01 0.02 0.04 0.04 0.05 0.05 0.07 0.09 0.06 0.08 0.05 0.07 0.09 0.10 0.21 0.34 0.52 0.58 0.46 0.36 0.25
0.00 0.00 0.00 0.00 0.00 0.00 0.00 0.00 0.00 0.00 0.00 0.00 0.00 0.00 0.00 0.00 0.00 0.00 0.00 0.00 0.00 0.00 0.00 0.00 0.00 0.00 0.00 0.00 0.01 0.02 0.04 0.04 0.07 0.11 0.17 0.17 0.16 0.13 0.09 0.17 0.11 0.14 0.31 0.44 0.57 0.55 0.42 0.26 0.24
0.00 0.00 0.00 0.00 0.00 0.00 0.00 0.00 0.00 0.00 0.00 0.00 0.00 0.00 0.00 0.00 0.00 0.00 0.00 0.00 0.00 0.00 0.00 0.00 0.00 0.00 0.00 0.00 0.00 0.01 0.02 0.03 0.03 0.06 0.08 0.10 0.11 0.12 0.13 0.15 0.18 0.12 0.30 0.46 0.46 0.37 0.31 0.32 0.34
0.00 0.00 0.00 0.00 0.00 0.00 0.00 0.00 0.00 0.00 0.00 0.00 0.00 0.00 0.00 0.00 0.00 0.00 0.00 0.00 0.00 0.00 0.00 0.00 0.00 0.00 0.00 0.00 0.00 0.00 0.01 0.02 0.02 0.03 0.03 0.05 0.08 0.05 0.09 0.16 0.23 0.18 0.32 0.41 0.32 0.40 0.32 0.34 0.35
0.00 0.00 0.00 0.00 0.00 0.00 0.00 0.00 0.00 0.00 0.00 0.00 0.00 0.00 0.00 0.00 0.00 0.00 0.00 0.00 0.00 0.00 0.00 0.00 0.00 0.00 0.00 0.00 0.00 0.00 0.00 0.01 0.01 0.01 0.01 0.02 0.05 0.07 0.11 0.22 0.35 0.28 0.28 0.39 0.45 0.31 0.39 0.37 0.48
0.00 0.00 0.00 0.00 0.00 0.00 0.00 0.00 0.00 0.00 0.00 0.00 0.00 0.00 0.00 0.00 0.00 0.00 0.00 0.00 0.00 0.00 0.00 0.00 0.00 0.00 0.00 0.00 0.00 0.00 0.00 0.01 0.01 0.00 0.01 0.01 0.02 0.07 0.10 0.17 0.27 0.36 0.44 0.36 0.63 0.61 0.45 0.47 0.73
0.00 0.00 0.00 0.00 0.00 0.00 0.00 0.00 0.00 0.00 0.00 0.00 0.00 0.00 0.00 0.00 0.00 0.00 0.00 0.00 0.00 0.00 0.00 0.00 0.00 0.00 0.00 0.00 0.00 0.00 0.00 0.00 0.01 0.01 0.01 0.01 0.02 0.05 0.10 0.13 0.33 0.35 0.50 0.36 0.44 0.69 0.50 0.45 0.65
0.00 0.00 0.00 0.00 0.00 0.00 0.00 0.00 0.00 0.00 0.00 0.00 0.00 0.00 0.00 0.00 0.00 0.00 0.00 0.00 0.00 0.00 0.00 0.00 0.00 0.00 0.00 0.00 0.01 0.01 0.00 0.00 0.01 0.01 0.01 0.01 0.01 0.04 0.07 0.07 0.16 0.47 0.37 0.35 0.47 0.57 0.60 0.41 0.51
0.00 0.00 0.00 0.00 0.00 0.00 0.00 0.00 0.00 0.00 0.00 0.00 0.00 0.00 0.00 0.00 0.00 0.00 0.00 0.00 0.00 0.00 0.00 0.00 0.00 0.00 0.00 0.00 0.01 0.00 0.00 0.00 0.00 0.01 0.02 0.02 0.02 0.03 0.08 0.07 0.03 0.26 0.46 0.43 0.59 0.70 0.65 0.54 0.44
0.00 0.00 0.00 0.00 0.00 0.00 0.00 0.00 0.00 0.00 0.00 0.00 0.00 0.00 0.00 0.00 0.00 0.00 0.00 0.00 0.00 0.00 0.00 0.00 0.00 0.00 0.00 0.00 0.01 0.01 0.00 0.00 0.01 0.01 0.01 0.02 0.03 0.06 0.07 0.09 0.02 0.02 0.13 0.37 0.48 0.84 0.89 0.76 0.55
0.00 0.00 0.00 0.00 0.00 0.00 0.01 0.00 0.00 0.00 0.00 0.00 0.00 0.00 0.00 0.00 0.00 0.00 0.00 0.00 0.00 0.00 0.00 0.00 0.00 0.00 0.00 0.00 0.01 0.05 0.03 0.03 0.06 0.04 0.01 0.04 0.06 0.09 0.15 0.06 0.03 0.03 0.04 0.11 0.30 0.63 1.07 0.95 0.64
0.00 0.00 0.00 0.00 0.00 0.00 0.03 0.01 0.00 0.00 0.00 0.00 0.00 0.00 0.00 0.00 0.00 0.00 0.00 0.00 0.00 0.00 0.00 0.00 0.00 0.00 0.00 0.00 0.06 0.09 0.12 0.15 0.15 0.07 0.01 0.01 0.04 0.14 0.18 0.18 0.06 0.14 0.14 0.06 0.07 0.23 0.69 0.70 0.67
0.00 0.00 0.00 0.00 0.01 0.04 0.06 0.06 0.00 0.00 0.00 0.00 0.00 0.00 0.00 0.00 0.00 0.00 0.00 0.00 0.00 0.00 0.00 0.00 0.00 0.00 0.01 0.03 0.01 0.03 0.01 0.01 0.01 0.02 0.01 0.02 0.02 0.03 0.18 0.22 0.16 0.12 0.32 0.25 0.07 0.05 0.27 0.52 0.50
0.01 0.01 0.00 0.01 0.04 0.02 0.03 0.06 0.00 0.00 0.04 0.02 0.00 0.00 0.00 0.00 0.00 0.00 0.00 0.00 0.00 0.00 0.00 0.00 0.03 0.12 0.12 0.10 0.07 0.06 0.08 0.07 0.04 0.02 0.01 0.03 0.09 0.08 0.06 0.16 0.17 0.14 0.13 0.20 0.22 0.13 0.09 0.26 0.33
0.01 0.01 0.03 0.06 0.07 0.06 0.00 0.01 0.05 0.36 0.18 0.10 0.02 0.00 0.00 0.00 0.00 0.00 0.00 0.00 0.00 0.00 0.00 0.00 0.00 0.04 0.16 0.16 0.19 0.19 0.17 0.14 0.10 0.04 0.03 0.07 0.19 0.12 0.07 0.08 0.10 0.08 0.07 0.21 0.28 0.18 0.13 0.07 0.16
0.02 0.05 0.09 0.09 0.10 0.02 0.01 0.03 0.16 0.33 0.22 0.13 0.07 0.02 0.01 0.00 0.00 0.00 0.00 0.00 0.00 0.00 0.00 0.00 0.00 0.00 0.03 0.05 0.07 0.06 0.07 0.07 0.04 0.06 0.08 0.15 0.22 0.14 0.08 0.12 0.09 0.04 0.05 0.07 0.27 0.45 0.30 0.12 0.08
0.01 0.02 0.07 0.08 0.03 0.04 0.05 0.10 0.45 0.30 0.54 0.26 0.19 0.05 0.02 0.01 0.00 0.00 0.00 0.00 0.00 0.00 0.00 0.00 0.00 0.00 0.00 0.01 0.02 0.01 0.04 0.06 0.03 0.01 0.04 0.04 0.13 0.12 0.05 0.08 0.10 0.04 0.05 0.08 0.12 0.25 0.37 0.39 0.28
0.07 0.02 0.01 0.07 0.12 0.15 0.14 0.48 0.39 0.34 0.57 1.24 0.51 0.13 0.08 0.03 0.01 0.00 0.00 0.00 0.00 0.00 0.00 0.00 0.00 0.00 0.00 0.00 0.00 0.01 0.05 0.06 0.04 0.05 0.07 0.04 0.05 0.05 0.05 0.06 0.08 0.09 0.07 0.07 0.06 0.07 0.14 0.29 0.40
0.08 0.06 0.11 0.15 0.22 0.30 0.21 0.35 0.62 0.74 1.04 0.78 0.83 0.60 0.17 0.15 0.06 0.02 0.00 0.00 0.00 0.00 0.00 0.00 0.00 0.00 0.00 0.01 0.00 0.04 0.05 0.03 0.08 0.07 0.02 0.04 0.11 0.12 0.07 0.06 0.05 0.08 0.05 0.06 0.04 0.04 0.06 0.10 0.21
0.17 0.11 0.10 0.09 0.18 0.48 0.70 0.94 1.23 1.43 1.57 1.47 0.67 0.53 0.42 0.14 0.12 0.05 0.01 0.00 0.00 0.00 0.01 0.03 0.02 0.03 0.03 0.03 0.10 0.11 0.07 0.10 0.15 0.10 0.08 0.11 0.15 0.16 0.13 0.09 0.06 0.03 0.04 0.03 0.03 0.02 0.03 0.05 0.06
0.22 0.13 0.05 0.13 0.21 0.29 0.89 1.47 1.70 1.41 1.08 0.68 0.64 0.49 0.41 0.28 0.21 0.11 0.05 0.01 0.01 0.01 0.05 0.08 0.07 0.08 0.10 0.15 0.23 0.20 0.22 0.30 0.27 0.19 0.12 0.12 0.13 0.18 0.15 0.14 0.07 0.03 0.04 0.03 0.02 0.02 0.02 0.02 0.02

GFSSGP_prec_precacc24_123.txt.gz
Total_Precipitation_Accumulation
0.00 0.00 0.00 0.00 0.00 0.00 0.00 0.00 0.00 0.00 0.00 0.00 0.00 0.00 0.00 0.00 0.00 0.00 0.00 0.00 0.00 0.00 0.00 0.00 0.00 0.00 0.00 0.00 0.00 0.00 0.00 0.00 0.00 0.00 0.00 0.00 0.00 0.00 0.01 0.00 0.00 0.03 0.13 0.16 0.02 0.02 0.06 0.02 0.02
0.00 0.00 0.00 0.00 0.00 0.00 0.00 0.00 0.00 0.00 0.00 0.00 0.00 0.00 0.00 0.00 0.00 0.00 0.00 0.00 0.00 0.00 0.00 0.00 0.00 0.00 0.00 0.00 0.00 0.00 0.00 0.00 0.00 0.00 0.00 0.01 0.00 0.01 0.05 0.01 0.00 0.09 0.18 0.25 0.26 0.19 0.09 0.02 0.00
0.00 0.00 0.00 0.00 0.00 0.00 0.00 0.00 0.00 0.00 0.00 0.00 0.00 0.00 0.00 0.00 0.00 0.00 0.00 0.00 0.00 0.00 0.00 0.00 0.00 0.00 0.00 0.00 0.00 0.00 0.00 0.00 0.00 0.00 0.00 0.00 0.03 0.17 0.21 0.16 0.12 0.23 0.29 0.33 0.36 0.34 0.23 0.04 0.00
0.00 0.00 0.00 0.00 0.00 0.00 0.00 0.00 0.00 0.00 0.00 0.00 0.00 0.00 0.00 0.00 0.00 0.00 0.00 0.00 0.00 0.00 0.00 0.00 0.00 0.00 0.00 0.00 0.00 0.00 0.00 0.00 0.01 0.00 0.00 0.00 0.13 0.30 0.24 0.20 0.22 0.28 0.37 0.29 0.25 0.37 0.18 0.01 0.00
0.00 0.00 0.00 0.00 0.00 0.00 0.00 0.00 0.00 0.00 0.00 0.00 0.00 0.00 0.00 0.00 0.00 0.00 0.00 0.00 0.00 0.00 0.00 0.00 0.00 0.00 0.00 0.00 0.00 0.00 0.00 0.00 0.01 0.01 0.03 0.20 0.32 0.27 0.16 0.04 0.12 0.19 0.21 0.30 0.31 0.26 0.18 0.07 0.03
0.00 0.00 0.00 0.00 0.00 0.00 0.00 0.00 0.00 0.00 0.00 0.00 0.00 0.00 0.00 0.00 0.00 0.00 0.00 0.00 0.00 0.00 0.00 0.00 0.00 0.00 0.00 0.00 0.00 0.00 0.00 0.01 0.03 0.09 0.30 0.48 0.18 0.01 0.01 0.01 0.07 0.10 0.14 0.16 0.20 0.26 0.27 0.17 0.27
0.00 0.00 0.00 0.00 0.00 0.00 0.00 0.00 0.00 0.00 0.00 0.00 0.00 0.00 0.00 0.00 0.00 0.00 0.00 0.00 0.00 0.00 0.00 0.00 0.00 0.00 0.00 0.00 0.00 0.00 0.00 0.00 0.00 0.06 0.11 0.08 0.02 0.01 0.02 0.00 0.00 0.02 0.04 0.03 0.06 0.20 0.37 0.57 0.53
0.00 0.00 0.00 0.00 0.00 0.00 0.00 0.00 0.00 0.00 0.00 0.00 0.00 0.00 0.00 0.00 0.00 0.00 0.00 0.00 0.00 0.00 0.00 0.00 0.00 0.00 0.00 0.00 0.00 0.00 0.00 0.00 0.00 0.05 0.08 0.06 0.05 0.02 0.01 0.02 0.01 0.00 0.02 0.06 0.12 0.32 0.50 0.55 0.53
0.00 0.00 0.00 0.00 0.00 0.00 0.00 0.00 0.00 0.00 0.00 0.00 0.00 0.00 0.00 0.00 0.00 0.00 0.00 0.00 0.00 0.00 0.00 0.00 0.00 0.00 0.00 0.00 0.00 0.00 0.00 0.00 0.00 0.03 0.03 0.07 0.11 0.07 0.02 0.01 0.02 0.08 0.03 0.10 0.23 0.39 0.47 0.48 0.44
0.00 0.00 0.00 0.00 0.00 0.00 0.00 0.00 0.00 0.00 0.00 0.00 0.00 0.00 0.00 0.00 0.00 0.00 0.00 0.00 0.00 0.00 0.00 0.00 0.00 0.00 0.00 0.00 0.01 0.01 0.02 0.02 0.03 0.05 0.06 0.08 0.06 0.07 0.04 0.05 0.09 0.06 0.06 0.11 0.22 0.28 0.31 0.30 0.23
0.00 0.00 0.00 0.00 0.00 0.00 0.00 0.00 0.00 0.00 0.00 0.00 0.00 0.00 0.00 0.00 0.00 0.00 0.00 0.00 0.00 0.00 0.00 0.00 0.00 0.00 0.00 0.00 0.01 0.01 0.02 0.03 0.05 0.10 0.15 0.15 0.14 0.11 0.08 0.16 0.10 0.05 0.07 0.17 0.27 0.35 0.35 0.24 0.24
0.00 0.00 0.00 0.00 0.00 0.00 0.00 0.00 0.00 0.00 0.00 0.00 0.00 0.00 0.00 0.00 0.00 0.00 0.00 0.00 0.00 0.00 0.00 0.00 0.00 0.00 0.00 0.00 0.00 0.00 0.01 0.02 0.02 0.05 0.07 0.09 0.10 0.11 0.11 0.11 0.16 0.07 0.11 0.17 0.25 0.27 0.26 0.30 0.34
0.00 0.00 0.00 0.00 0.00 0.00 0.00 0.00 0.00 0.00 0.00 0.00 0.00 0.00 0.00 0.00 0.00 0.00 0.00 0.00 0.00 0.00 0.00 0.00 0.00 0.00 0.00 0.00 0.00 0.00 0.00 0.02 0.01 0.02 0.02 0.05 0.08 0.05 0.08 0.09 0.12 0.12 0.24 0.19 0.11 0.29 0.27 0.34 0.35
0.00 0.00 0.00 0.00 0.00 0.00 0.00 0.00 0.00 0.00 0.00 0.00 0.00 0.00 0.00 0.00 0.00 0.00 0.00 0.00 0.00 0.00 0.00 0.00 0.00 0.00 0.00 0.00 0.00 0.00 0.00 0.01 0.01 0.01 0.01 0.02 0.05 0.07 0.09 0.09 0.05 0.15 0.20 0.27 0.23 0.16 0.34 0.37 0.48
0.00 0.00 0.00 0.00 0.00 0.00 0.00 0.00 0.00 0.00 0.00 0.00 0.00 0.00 0.00 0.00 0.00 0.00 0.00 0.00 0.00 0.00 0.00 0.00 0.00 0.00 0.00 0.00 0.00 0.00 0.00 0.01 0.01 0.00 0.01 0.01 0.02 0.06 0.09 0.06 0.05 0.11 0.23 0.19 0.43 0.39 0.36 0.46 0.73
0.00 0.00 0.00 0.00 0.00 0.00 0.00 0.00 0.00 0.00 0.00 0.00 0.00 0.00 0.00 0.00 0.00 0.00 0.00 0.00 0.00 0.00 0.00 0.00 0.00 0.00 0.00 0.00 0.00 0.00 0.00 0.00 0.01 0.01 0.01 0.01 0.02 0.05 0.10 0.08 0.06 0.11 0.28 0.19 0.27 0.54 0.42 0.44 0.65
0.00 0.00 0.00 0.00 0.00 0.00 0.00 0.00 0.00 0.00 0.00 0.00 0.00 0.00 0.00 0.00 0.00 0.00 0.00 0.00 0.00 0.00 0.00 0.00 0.00 0.00 0.00 0.00 0.01 0.01 0.01 0.00 0.00 0.00 0.01 0.01 0.01 0.04 0.07 0.06 0.04 0.11 0.16 0.23 0.29 0.43 0.53 0.40 0.51
0.00 0.00 0.00 0.00 0.00 0.00 0.00 0.00 0.00 0.00 0.00 0.00 0.00 0.00 0.00 0.00 0.00 0.00 0.00 0.00 0.00 0.00 0.00 0.00 0.00 0.00 0.00 0.00 0.01 0.01 0.01 0.01 0.01 0.00 0.01 0.01 0.01 0.03 0.08 0.07 0.03 0.09 0.23 0.29 0.41 0.54 0.57 0.51 0.44
0.00 0.00 0.00 0.00 0.00 0.00 0.00 0.00 0.00 0.00 0.00 0.00 0.00 0.00 0.00 0.00 0.00 0.00 0.00 0.00 0.00 0.00 0.00 0.00 0.00 0.00 0.00 0.00 0.01 0.01 0.01 0.01 0.02 0.01 0.00 0.01 0.01 0.03 0.06 0.08 0.02 0.01 0.08 0.29 0.38 0.73 0.82 0.74 0.54
0.00 0.00 0.00 0.00 0.00 0.00 0.01 0.00 0.00 0.00 0.00 0.00 0.00 0.00 0.00 0.00 0.00 0.00 0.00 0.00 0.00 0.00 0.00 0.00 0.00 0.00 0.01 0.00 0.01 0.06 0.04 0.03 0.08 0.05 0.01 0.03 0.04 0.05 0.08 0.05 0.02 0.01 0.01 0.10 0.29 0.62 1.07 0.96 0.64
0.00 0.00 0.00 0.00 0.00 0.00 0.03 0.01 0.00 0.00 0.00 0.00 0.00 0.00 0.00 0.00 0.00 0.00 0.00 0.00 0.00 0.00 0.00 0.00 0.00 0.00 0.00 0.00 0.07 0.13 0.12 0.15 0.16 0.07 0.01 0.01 0.04 0.07 0.10 0.12 0.03 0.08 0.03 0.02 0.07 0.23 0.69 0.70 0.67
0.00 0.00 0.00 0.00 0.01 0.04 0.06 0.07 0.00 0.00 0.00 0.00 0.00 0.00 0.00 0.00 0.00 0.00 0.00 0.00 0.00 0.00 0.00 0.00 0.00 0.00 0.01 0.03 0.02 0.03 0.01 0.01 0.01 0.02 0.03 0.05 0.06 0.05 0.11 0.11 0.11 0.08 0.19 0.08 0.02 0.04 0.27 0.52 0.50
0.01 0.01 0.00 0.01 0.04 0.02 0.03 0.07 0.00 0.01 0.08 0.05 0.02 0.01 0.00 0.00 0.00 0.00 0.00 0.00 0.00 0.00 0.00 0.00 0.03 0.12 0.12 0.10 0.08 0.07 0.08 0.07 0.04 0.02 0.01 0.06 0.12 0.17 0.13 0.16 0.14 0.08 0.10 0.11 0.09 0.04 0.09 0.26 0.32
0.01 0.01 0.03 0.06 0.07 0.06 0.00 0.02 0.06 0.48 0.46 0.30 0.16 0.07 0.03 0.01 0.00 0.00 0.00 0.00 0.00 0.00 0.00 0.00 0.00 0.04 0.16 0.16 0.19 0.19 0.17 0.14 0.10 0.04 0.03 0.08 0.23 0.20 0.18 0.23 0.25 0.23 0.16 0.15 0.13 0.06 0.08 0.06 0.16
0.02 0.05 0.09 0.09 0.10 0.02 0.02 0.04 0.20 0.43 0.38 0.26 0.21 0.14 0.08 0.03 0.01 0.01 0.00 0.00 0.00 0.00 0.00 0.00 0.00 0.01 0.03 0.05 0.07 0.06 0.07 0.07 0.05 0.06 0.08 0.16 0.27 0.16 0.09 0.15 0.15 0.08 0.06 0.05 0.18 0.28 0.19 0.08 0.06
0.01 0.02 0.07 0.08 0.04 0.04 0.05 0.17 0.58 0.46 0.71 0.44 0.64 0.29 0.16 0.09 0.03 0.01 0.00 0.00 0.00 0.00 0.00 0.00 0.01 0.02 0.02 0.03 0.04 0.03 0.06 0.08 0.05 0.02 0.06 0.08 0.20 0.13 0.10 0.12 0.13 0.05 0.03 0.05 0.07 0.18 0.33 0.35 0.21
0.07 0.02 0.01 0.07 0.12 0.15 0.25 0.71 0.53 0.44 0.72 1.45 0.74 0.33 0.28 0.15 0.05 0.00 0.01 0.01 0.01 0.01 0.02 0.01 0.02 0.01 0.01 0.01 0.02 0.04 0.07 0.08 0.06 0.07 0.10 0.06 0.07 0.13 0.14 0.09 0.09 0.09 0.07 0.07 0.07 0.08 0.13 0.25 0.33
0.08 0.06 0.11 0.14 0.22 0.35 0.34 0.50 0.72 0.79 1.11 0.92 1.06 1.00 0.40 0.35 0.14 0.04 0.01 0.00 0.01 0.01 0.01 0.01 0.01 0.00 0.01 0.01 0.00 0.05 0.05 0.04 0.08 0.08 0.04 0.05 0.15 0.18 0.13 0.08 0.07 0.08 0.05 0.08 0.05 0.05 0.07 0.11 0.20
0.17 0.11 0.10 0.09 0.19 0.50 0.72 0.99 1.23 1.47 1.64 1.64 0.96 0.92 0.92 0.46 0.49 0.23 0.10 0.01 0.00 0.01 0.02 0.03 0.02 0.02 0.03 0.03 0.09 0.11 0.07 0.10 0.15 0.10 0.08 0.12 0.17 0.23 0.19 0.15 0.11 0.06 0.07 0.07 0.06 0.04 0.04 0.06 0.08
0.23 0.14 0.06 0.13 0.21 0.28 0.89 1.50 1.75 1.48 1.17 0.76 0.76 0.65 0.60 0.57 0.44 0.43 0.33 0.23 0.03 0.01 0.05 0.07 0.06 0.08 0.10 0.12 0.20 0.19 0.22 0.30 0.27 0.20 0.13 0.13 0.15 0.20 0.20 0.21 0.14 0.07 0.07 0.07 0.06 0.04 0.03 0.04 0.04

GFSSGP_prec_precacc24_126.txt.gz
Total_Precipitation_Accumulation
0.00 0.00 0.00 0.00 0.00 0.00 0.00 0.00 0.00 0.00 0.00 0.00 0.00 0.00 0.00 0.00 0.00 0.00 0.00 0.00 0.00 0.00 0.00 0.00 0.00 0.00 0.00 0.00 0.00 0.00 0.00 0.00 0.00 0.00 0.00 0.00 0.00 0.00 0.01 0.00 0.00 0.03 0.13 0.15 0.02 0.02 0.05 0.02 0.02
0.00 0.00 0.00 0.00 0.00 0.00 0.00 0.00 0.00 0.00 0.00 0.00 0.00 0.00 0.00 0.00 0.00 0.00 0.00 0.00 0.00 0.00 0.00 0.00 0.00 0.00 0.00 0.00 0.00 0.00 0.00 0.00 0.00 0.00 0.00 0.01 0.00 0.01 0.05 0.01 0.00 0.09 0.16 0.19 0.19 0.16 0.07 0.02 0.00
0.00 0.00 0.00 0.00 0.00 0.00 0.00 0.00 0.00 0.00 0.00 0.00 0.00 0.00 0.00 0.00 0.00 0.00 0.00 0.00 0.00 0.00 0.00 0.00 0.00 0.00 0.00 0.00 0.00 0.00 0.00 0.00 0.00 0.00 0.00 0.00 0.03 0.14 0.15 0.06 0.01 0.11 0.18 0.24 0.25 0.29 0.21 0.04 0.00
0.00 0.00 0.00 0.00 0.00 0.00 0.00 0.00 0.00 0.00 0.00 0.00 0.00 0.00 0.00 0.00 0.00 0.00 0.00 0.00 0.00 0.00 0.00 0.00 0.00 0.00 0.00 0.00 0.00 0.00 0.00 0.00 0.00 0.00 0.00 0.00 0.09 0.11 0.07 0.05 0.04 0.07 0.17 0.17 0.16 0.30 0.16 0.01 0.00
0.00 0.00 0.00 0.00 0.00 0.00 0.00 0.00 0.00 0.00 0.00 0.00 0.00 0.00 0.00 0.00 0.00 0.00 0.00 0.00 0.00 0.00 0.00 0.00 0.00 0.00 0.00 0.00 0.00 0.00 0.00 0.00 0.00 0.00 0.00 0.07 0.16 0.02 0.00 0.00 0.00 0.00 0.02 0.07 0.12 0.11 0.06 0.07 0.03
0.00 0.00 0.00 0.00 0.00 0.00 0.00 0.00 0.00 0.00 0.00 0.00 0.00 0.00 0.00 0.00 0.00 0.00 0.00 0.00 0.00 0.00 0.00 0.00 0.00 0.00 0.00 0.00 0.00 0.00 0.00 0.00 0.00 0.02 0.14 0.22 0.08 0.01 0.00 0.00 0.00 0.01 0.01 0.01 0.04 0.06 0.07 0.10 0.24
0.00 0.00 0.00 0.00 0.00 0.00 0.00 0.00 0.00 0.00 0.00 0.00 0.00 0.00 0.00 0.00 0.00 0.00 0.00 0.00 0.00 0.00 0.00 0.00 0.00 0.00 0.00 0.00 0.00 0.00 0.00 0.00 0.00 0.03 0.04 0.04 0.01 0.01 0.02 0.00 0.00 0.00 0.01 0.01 0.03 0.12 0.19 0.38 0.40
0.00 0.00 0.00 0.00 0.00 0.00 0.00 0.00 0.00 0.00 0.00 0.00 0.00 0.00 0.00 0.00 0.00 0.00 0.00 0.00 0.00 0.00 0.00 0.00 0.00 0.00 0.00 0.00 0.00 0.00 0.00 0.00 0.00 0.02 0.03 0.01 0.01 0.02 0.01 0.02 0.00 0.00 0.01 0.00 0.08 0.22 0.29 0.34 0.38
0.00 0.00 0.00 0.00 0.00 0.00 0.00 0.00 0.00 0.00 0.00 0.00 0.00 0.00 0.00 0.00 0.00 0.00 0.00 0.00 0.00 0.00 0.00 0.00 0.00 0.00 0.00 0.00 0.00 0.00 0.00 0.00 0.00 0.01 0.01 0.05 0.09 0.07 0.02 0.00 0.02 0.10 0.01 0.03 0.07 0.22 0.21 0.24 0.30
0.00 0.00 0.00 0.00 0.00 0.00 0.00 0.00 0.00 0.00 0.00 0.00 0.00 0.00 0.00 0.00 0.00 0.00 0.00 0.00 0.00 0.00 0.00 0.00 0.00 0.00 0.00 0.00 0.00 0.00 0.01 0.01 0.02 0.02 0.01 0.03 0.04 0.07 0.04 0.04 0.05 0.10 0.07 0.03 0.08 0.06 0.05 0.11 0.15
0.00 0.00 0.00 0.00 0.00 0.00 0.00 0.00 0.00 0.00 0.00 0.00 0.00 0.00 0.00 0.00 0.00 0.00 0.00 0.00 0.00 0.00 0.00 0.00 0.00 0.00 0.00 0.00 0.01 0.01 0.01 0.01 0.04 0.08 0.10 0.10 0.11 0.11 0.08 0.16 0.10 0.06 0.07 0.06 0.06 0.02 0.08 0.10 0.16
0.00 0.00 0.00 0.00 0.00 0.00 0.00 0.00 0.00 0.00 0.00 0.00 0.00 0.00 0.00 0.00 0.00 0.00 0.00 0.00 0.00 0.00 0.00 0.00 0.00 0.00 0.00 0.00 0.00 0.00 0.01 0.01 0.02 0.04 0.06 0.08 0.10 0.12 0.11 0.12 0.16 0.07 0.06 0.09 0.07 0.04 0.10 0.17 0.24
0.00 0.00 0.00 0.00 0.00 0.00 0.00 0.00 0.00 0.00 0.00 0.00 0.00 0.00 0.00 0.00 0.00 0.00 0.00 0.00 0.00 0.00 0.00 0.00 0.00 0.00 0.00 0.00 0.00 0.00 0.00 0.01 0.01 0.02 0.02 0.04 0.08 0.06 0.08 0.08 0.11 0.10 0.15 0.12 0.06 0.12 0.11 0.24 0.28
0.00 0.00 0.00 0.00 0.00 0.00 0.00 0.00 0.00 0.00 0.00 0.00 0.00 0.00 0.00 0.00 0.00 0.00 0.00 0.00 0.00 0.00 0.00 0.00 0.00 0.00 0.00 0.00 0.00 0.00 0.00 0.00 0.00 0.01 0.01 0.01 0.05 0.06 0.07 0.08 0.05 0.07 0.13 0.15 0.11 0.09 0.18 0.28 0.43
0.00 0.00 0.00 0.00 0.00 0.00 0.00 0.00 0.00 0.00 0.00 0.00 0.00 0.00 0.00 0.00 0.00 0.00 0.00 0.00 0.00 0.00 0.00 0.00 0.00 0.00 0.00 0.00 0.00 0.00 0.00 0.00 0.00 0.00 0.01 0.01 0.01 0.05 0.07 0.05 0.04 0.05 0.14 0.13 0.16 0.13 0.19 0.38 0.69
0.00 0.00 0.00 0.00 0.00 0.00 0.00 0.00 0.00 0.00 0.00 0.00 0.00 0.00 0.00 0.00 0.00 0.00 0.00 0.00 0.00 0.00 0.00 0.00 0.00 0.00 0.00 0.00 0.00 0.00 0.00 0.00 0.00 0.01 0.01 0.00 0.01 0.03 0.08 0.07 0.06 0.07 0.12 0.10 0.13 0.22 0.18 0.34 0.63
0.00 0.00 0.00 0.00 0.00 0.00 0.00 0.00 0.00 0.00 0.00 0.00 0.00 0.00 0.00 0.00 0.00 0.00 0.00 0.00 0.00 0.00 0.00 0.00 0.00 0.00 0.00 0.00 0.01 0.01 0.01 0.00 0.00 0.00 0.01 0.01 0.01 0.02 0.04 0.04 0.04 0.05 0.06 0.04 0.07 0.20 0.27 0.29 0.49
0.00 0.00 0.00 0.00 0.00 0.00 0.00 0.00 0.00 0.00 0.00 0.00 0.00 0.00 0.00 0.00 0.00 0.00 0.00 0.00 0.00 0.00 0.00 0.00 0.00 0.00 0.00 0.00 0.01 0.01 0.01 0.01 0.01 0.00 0.01 0.01 0.01 0.02 0.05 0.05 0.02 0.04 0.04 0.04 0.13 0.16 0.32 0.37 0.42
0.00 0.00 0.00 0.00 0.00 0.00 0.00 0.00 0.00 0.00 0.00 0.00 0.00 0.00 0.00 0.00 0.00 0.00 0.00 0.00 0.00 0.00 0.00 0.00 0.00 0.00 0.00 0.00 0.01 0.01 0.01 0.01 0.02 0.00 0.00 0.01 0.01 0.02 0.05 0.08 0.02 0.01 0.02 0.06 0.23 0.33 0.46 0.55 0.52
0.00 0.00 0.00 0.00 0.00 0.00 0.01 0.00 0.00 0.00 0.00 0.00 0.00 0.00 0.00 0.00 0.00 0.00 0.00 0.00 0.00 0.00 0.00 0.00 0.00 0.00 0.01 0.00 0.01 0.06 0.04 0.03 0.08 0.05 0.01 0.01 0.01 0.01 0.05 0.05 0.00 0.00 0.01 0.04 0.16 0.37 0.72 0.77 0.62
0.00 0.00 0.00 0.00 0.00 0.00 0.03 0.01 0.00 0.00 0.00 0.00 0.00 0.00 0.00 0.00 0.00 0.00 0.00 0.00 0.00 0.00 0.00 0.00 0.00 0.00 0.01 0.00 0.08 0.15 0.12 0.15 0.16 0.07 0.01 0.02 0.02 0.03 0.04 0.04 0.01 0.00 0.01 0.02 0.03 0.16 0.60 0.64 0.65
0.00 0.00 0.00 0.00 0.01 0.04 0.06 0.07 0.00 0.00 0.00 0.00 0.00 0.00 0.00 0.00 0.00 0.00 0.00 0.00 0.00 0.00 0.00 0.00 0.01 0.00 0.02 0.07 0.09 0.06 0.01 0.01 0.01 0.02 0.03 0.06 0.06 0.04 0.04 0.03 0.02 0.00 0.02 0.02 0.02 0.03 0.26 0.52 0.50
0.01 0.01 0.00 0.01 0.04 0.02 0.03 0.07 0.00 0.01 0.08 0.06 0.03 0.02 0.01 0.01 0.01 0.00 0.00 0.00 0.00 0.00 0.00 0.00 0.03 0.13 0.13 0.15 0.30 0.20 0.11 0.07 0.04 0.02 0.01 0.06 0.13 0.18 0.11 0.09 0.07 0.06 0.06 0.08 0.08 0.01 0.07 0.26 0.33
0.01 0.01 0.03 0.06 0.07 0.06 0.00 0.02 0.07 0.50 0.49 0.32 0.17 0.10 0.07 0.05 0.04 0.03 0.02 0.01 0.01 0.02 0.01 0.00 0.00 0.04 0.17 0.16 0.22 0.39 0.31 0.15 0.10 0.05 0.03 0.08 0.23 0.22 0.19 0.23 0.24 0.25 0.24 0.16 0.06 0.03 0.02 0.05 0.17
0.02 0.05 0.09 0.08 0.10 0.02 0.02 0.04 0.22 0.45 0.42 0.33 0.28 0.20 0.16 0.10 0.09 0.07 0.05 0.03 0.02 0.04 0.05 0.03 0.02 0.01 0.03 0.05 0.07 0.06 0.09 0.08 0.05 0.07 0.09 0.18 0.29 0.15 0.09 0.17 0.21 0.11 0.08 0.04 0.07 0.15 0.09 0.03 0.05
0.01 0.02 0.07 0.08 0.04 0.04 0.05 0.20 0.65 0.57 0.79 0.54 0.77 0.44 0.31 0.22 0.13 0.09 0.08 0.05 0.02 0.02 0.05 0.02 0.03 0.03 0.02 0.03 0.04 0.03 0.07 0.09 0.06 0.04 0.09 0.11 0.22 0.16 0.14 0.13 0.22 0.18 0.12 0.05 0.05 0.11 0.16 0.21 0.10
0.07 0.02 0.01 0.07 0.12 0.15 0.26 0.75 0.62 0.48 0.78 1.53 0.87 0.49 0.60 0.51 0.24 0.12 0.10 0.09 0.07 0.05 0.05 0.04 0.04 0.04 0.04 0.04 0.04 0.05 0.09 0.11 0.09 0.09 0.12 0.09 0.09 0.16 0.18 0.12 0.14 0.22 0.16 0.11 0.08 0.09 0.13 0.23 0.30
0.09 0.06 0.12 0.15 0.23 0.35 0.35 0.52 0.76 0.80 1.13 0.99 1.19 1.21 0.60 0.63 0.42 0.18 0.10 0.07 0.03 0.04 0.04 0.04 0.05 0.05 0.05 0.03 0.02 0.05 0.06 0.04 0.09 0.08 0.05 0.07 0.15 0.21 0.16 0.11 0.13 0.14 0.12 0.11 0.08 0.05 0.06 0.08 0.17
0.19 0.11 0.10 0.10 0.20 0.51 0.74 1.02 1.25 1.51 1.68 1.70 1.07 1.11 1.22 0.65 0.85 0.51 0.24 0.13 0.06 0.01 0.04 0.05 0.05 0.05 0.04 0.04 0.10 0.11 0.07 0.10 0.15 0.10 0.08 0.12 0.17 0.25 0.22 0.19 0.16 0.09 0.09 0.08 0.08 0.04 0.04 0.05 0.09
0.23 0.15 0.06 0.14 0.21 0.29 0.91 1.54 1.79 1.53 1.22 0.81 0.80 0.73 0.72 0.76 0.74 0.87 0.63 0.42 0.12 0.03 0.05 0.08 0.07 0.10 0.11 0.13 0.20 0.20 0.22 0.31 0.27 0.20 0.13 0.13 0.15 0.20 0.22 0.26 0.20 0.14 0.12 0.09 0.07 0.05 0.04 0.05 0.08